<?xml version="1.0" encoding="UTF-8" standalone="no" ?>
<gpx xmlns="http://www.topografix.com/GPX/1/1" xmlns:xsi="http://www.w3.org/2001/XMLSchema-instance" xsi:schemaLocation="http://www.topografix.com/GPX/1/1 http://www.topografix.com/GPX/1/1/gpx.xsd" version="1.1" creator="VisuGPX - https://www.visugpx.com">
  <metadata>
    <name>Edirne-Mostar</name>
  </metadata>
  <trk>
    <name><![CDATA[Tour d'Europe: étape 686]]></name>
    <extensions>
      <line xmlns="http://www.topografix.com/GPX/gpx_style/0/2">
        <color>880000</color>
        <width>4</width>
      </line>
    </extensions>
    <trkseg>
      <trkpt lat="41.77565" lon="19.64264">
        <ele>45.968244</ele>
        <time>2022-05-15T08:00:20.882Z</time>
      </trkpt>
      <trkpt lat="41.77585" lon="19.6425">
        <ele>45.968244</ele>
        <time>2022-05-15T08:07:48.945Z</time>
      </trkpt>
      <trkpt lat="41.77595" lon="19.64252">
        <ele>45.968244</ele>
        <time>2022-05-15T08:07:51.936Z</time>
      </trkpt>
      <trkpt lat="41.77604" lon="19.64255">
        <ele>45.968244</ele>
        <time>2022-05-15T08:07:54.938Z</time>
      </trkpt>
      <trkpt lat="41.77615" lon="19.64258">
        <ele>45.968244</ele>
        <time>2022-05-15T08:07:58.938Z</time>
      </trkpt>
      <trkpt lat="41.77624" lon="19.64259">
        <ele>45.968244</ele>
        <time>2022-05-15T08:08:01.942Z</time>
      </trkpt>
      <trkpt lat="41.77633" lon="19.6426">
        <ele>45.968244</ele>
        <time>2022-05-15T08:08:04.946Z</time>
      </trkpt>
      <trkpt lat="41.77643" lon="19.6426">
        <ele>45.968244</ele>
        <time>2022-05-15T08:08:07.932Z</time>
      </trkpt>
      <trkpt lat="41.77652" lon="19.6426">
        <ele>45.962582</ele>
        <time>2022-05-15T08:08:10.933Z</time>
      </trkpt>
      <trkpt lat="41.77662" lon="19.64261">
        <ele>45.839252</ele>
        <time>2022-05-15T08:08:13.919Z</time>
      </trkpt>
      <trkpt lat="41.77673" lon="19.64263">
        <ele>45.711491</ele>
        <time>2022-05-15T08:08:16.946Z</time>
      </trkpt>
      <trkpt lat="41.77683" lon="19.64264">
        <ele>45.585753</ele>
        <time>2022-05-15T08:08:19.954Z</time>
      </trkpt>
      <trkpt lat="41.77693" lon="19.64265">
        <ele>45.464602</ele>
        <time>2022-05-15T08:08:22.938Z</time>
      </trkpt>
      <trkpt lat="41.77703" lon="19.64266">
        <ele>45.334698</ele>
        <time>2022-05-15T08:08:25.921Z</time>
      </trkpt>
      <trkpt lat="41.77714" lon="19.64268">
        <ele>45.201204</ele>
        <time>2022-05-15T08:08:28.950Z</time>
      </trkpt>
      <trkpt lat="41.77725" lon="19.64269">
        <ele>45.064178</ele>
        <time>2022-05-15T08:08:31.956Z</time>
      </trkpt>
      <trkpt lat="41.77737" lon="19.6427">
        <ele>44.919846</ele>
        <time>2022-05-15T08:08:34.938Z</time>
      </trkpt>
      <trkpt lat="41.77748" lon="19.64271">
        <ele>44.778027</ele>
        <time>2022-05-15T08:08:37.942Z</time>
      </trkpt>
      <trkpt lat="41.77759" lon="19.64271">
        <ele>44.638718</ele>
        <time>2022-05-15T08:08:40.937Z</time>
      </trkpt>
      <trkpt lat="41.77771" lon="19.64272">
        <ele>44.4907</ele>
        <time>2022-05-15T08:08:43.944Z</time>
      </trkpt>
      <trkpt lat="41.77783" lon="19.64272">
        <ele>44.349119</ele>
        <time>2022-05-15T08:08:46.950Z</time>
      </trkpt>
      <trkpt lat="41.77794" lon="19.64274">
        <ele>44.21799</ele>
        <time>2022-05-15T08:08:49.940Z</time>
      </trkpt>
      <trkpt lat="41.77805" lon="19.64275">
        <ele>44.081139</ele>
        <time>2022-05-15T08:08:52.984Z</time>
      </trkpt>
      <trkpt lat="41.77816" lon="19.64276">
        <ele>43.941431</ele>
        <time>2022-05-15T08:08:55.950Z</time>
      </trkpt>
      <trkpt lat="41.77827" lon="19.64276">
        <ele>43.801073</ele>
        <time>2022-05-15T08:08:58.948Z</time>
      </trkpt>
      <trkpt lat="41.77839" lon="19.64276">
        <ele>43.801926</ele>
        <time>2022-05-15T08:09:01.941Z</time>
      </trkpt>
      <trkpt lat="41.77852" lon="19.64276">
        <ele>43.878454</ele>
        <time>2022-05-15T08:09:04.940Z</time>
      </trkpt>
      <trkpt lat="41.77865" lon="19.64275">
        <ele>43.956177</ele>
        <time>2022-05-15T08:09:07.940Z</time>
      </trkpt>
      <trkpt lat="41.77878" lon="19.64275">
        <ele>44.033291</ele>
        <time>2022-05-15T08:09:10.946Z</time>
      </trkpt>
      <trkpt lat="41.77889" lon="19.64274">
        <ele>44.101543</ele>
        <time>2022-05-15T08:09:13.951Z</time>
      </trkpt>
      <trkpt lat="41.779" lon="19.64274">
        <ele>44.169051</ele>
        <time>2022-05-15T08:09:16.944Z</time>
      </trkpt>
      <trkpt lat="41.7791" lon="19.64274">
        <ele>44.229902</ele>
        <time>2022-05-15T08:09:19.925Z</time>
      </trkpt>
      <trkpt lat="41.77921" lon="19.64273">
        <ele>44.29629</ele>
        <time>2022-05-15T08:09:22.957Z</time>
      </trkpt>
      <trkpt lat="41.77932" lon="19.64272">
        <ele>44.360337</ele>
        <time>2022-05-15T08:09:25.954Z</time>
      </trkpt>
      <trkpt lat="41.77943" lon="19.64272">
        <ele>44.425423</ele>
        <time>2022-05-15T08:09:28.941Z</time>
      </trkpt>
      <trkpt lat="41.77954" lon="19.64271">
        <ele>44.491812</ele>
        <time>2022-05-15T08:09:31.937Z</time>
      </trkpt>
      <trkpt lat="41.77965" lon="19.6427">
        <ele>44.560698</ele>
        <time>2022-05-15T08:09:34.934Z</time>
      </trkpt>
      <trkpt lat="41.77975" lon="19.64268">
        <ele>44.621742</ele>
        <time>2022-05-15T08:09:37.947Z</time>
      </trkpt>
      <trkpt lat="41.77984" lon="19.64268">
        <ele>44.677832</ele>
        <time>2022-05-15T08:09:40.968Z</time>
      </trkpt>
      <trkpt lat="41.77994" lon="19.64266">
        <ele>44.736055</ele>
        <time>2022-05-15T08:09:43.936Z</time>
      </trkpt>
      <trkpt lat="41.78004" lon="19.64264">
        <ele>44.799033</ele>
        <time>2022-05-15T08:09:48.939Z</time>
      </trkpt>
      <trkpt lat="41.78014" lon="19.64262">
        <ele>44.732418</ele>
        <time>2022-05-15T08:09:52.973Z</time>
      </trkpt>
      <trkpt lat="41.78025" lon="19.64258">
        <ele>44.318077</ele>
        <time>2022-05-15T08:09:57.953Z</time>
      </trkpt>
      <trkpt lat="41.78039" lon="19.64256">
        <ele>43.863794</ele>
        <time>2022-05-15T08:09:59.961Z</time>
      </trkpt>
      <trkpt lat="41.78051" lon="19.64253">
        <ele>43.422267</ele>
        <time>2022-05-15T08:10:01.941Z</time>
      </trkpt>
      <trkpt lat="41.78063" lon="19.64251">
        <ele>43.001127</ele>
        <time>2022-05-15T08:10:03.958Z</time>
      </trkpt>
      <trkpt lat="41.78076" lon="19.64247">
        <ele>42.566519</ele>
        <time>2022-05-15T08:10:05.992Z</time>
      </trkpt>
      <trkpt lat="41.78087" lon="19.64242">
        <ele>42.147851</ele>
        <time>2022-05-15T08:10:07.944Z</time>
      </trkpt>
      <trkpt lat="41.781" lon="19.64239">
        <ele>41.696708</ele>
        <time>2022-05-15T08:10:10.944Z</time>
      </trkpt>
      <trkpt lat="41.78112" lon="19.64235">
        <ele>41.280647</ele>
        <time>2022-05-15T08:10:13.949Z</time>
      </trkpt>
      <trkpt lat="41.78122" lon="19.64232">
        <ele>40.931368</ele>
        <time>2022-05-15T08:10:16.954Z</time>
      </trkpt>
      <trkpt lat="41.78132" lon="19.64229">
        <ele>40.578766</ele>
        <time>2022-05-15T08:10:19.949Z</time>
      </trkpt>
      <trkpt lat="41.78141" lon="19.64226">
        <ele>40.251263</ele>
        <time>2022-05-15T08:10:22.965Z</time>
      </trkpt>
      <trkpt lat="41.78153" lon="19.64225">
        <ele>39.863826</ele>
        <time>2022-05-15T08:10:26.941Z</time>
      </trkpt>
      <trkpt lat="41.78165" lon="19.64223">
        <ele>39.456595</ele>
        <time>2022-05-15T08:10:30.934Z</time>
      </trkpt>
      <trkpt lat="41.78175" lon="19.64221">
        <ele>39.098651</ele>
        <time>2022-05-15T08:10:34.934Z</time>
      </trkpt>
      <trkpt lat="41.78186" lon="19.64217">
        <ele>38.722733</ele>
        <time>2022-05-15T08:10:38.959Z</time>
      </trkpt>
      <trkpt lat="41.78205" lon="19.64213">
        <ele>38.695645</ele>
        <time>2022-05-15T08:14:35.924Z</time>
      </trkpt>
      <trkpt lat="41.78217" lon="19.64209">
        <ele>38.706254</ele>
        <time>2022-05-15T08:14:39.915Z</time>
      </trkpt>
      <trkpt lat="41.78227" lon="19.64205">
        <ele>38.715102</ele>
        <time>2022-05-15T08:14:42.940Z</time>
      </trkpt>
      <trkpt lat="41.78236" lon="19.64202">
        <ele>38.724002</ele>
        <time>2022-05-15T08:14:45.948Z</time>
      </trkpt>
      <trkpt lat="41.78246" lon="19.64199">
        <ele>38.732314</ele>
        <time>2022-05-15T08:14:48.920Z</time>
      </trkpt>
      <trkpt lat="41.78257" lon="19.64195">
        <ele>38.742444</ele>
        <time>2022-05-15T08:14:52.928Z</time>
      </trkpt>
      <trkpt lat="41.78266" lon="19.64191">
        <ele>38.751043</ele>
        <time>2022-05-15T08:14:56.981Z</time>
      </trkpt>
      <trkpt lat="41.78296" lon="19.64177">
        <ele>38.778929</ele>
        <time>2022-05-15T08:16:08.923Z</time>
      </trkpt>
      <trkpt lat="41.78306" lon="19.64174">
        <ele>38.787811</ele>
        <time>2022-05-15T08:16:11.928Z</time>
      </trkpt>
      <trkpt lat="41.78314" lon="19.6417">
        <ele>38.796015</ele>
        <time>2022-05-15T08:16:14.927Z</time>
      </trkpt>
      <trkpt lat="41.78326" lon="19.64165">
        <ele>38.806564</ele>
        <time>2022-05-15T08:16:18.919Z</time>
      </trkpt>
      <trkpt lat="41.78334" lon="19.64159">
        <ele>38.814649</ele>
        <time>2022-05-15T08:16:21.924Z</time>
      </trkpt>
      <trkpt lat="41.78342" lon="19.64154">
        <ele>38.822691</ele>
        <time>2022-05-15T08:16:24.920Z</time>
      </trkpt>
      <trkpt lat="41.78352" lon="19.64148">
        <ele>38.832387</ele>
        <time>2022-05-15T08:16:27.922Z</time>
      </trkpt>
      <trkpt lat="41.78363" lon="19.64142">
        <ele>38.901138</ele>
        <time>2022-05-15T08:16:30.914Z</time>
      </trkpt>
      <trkpt lat="41.78373" lon="19.64137">
        <ele>39.028909</ele>
        <time>2022-05-15T08:16:33.919Z</time>
      </trkpt>
      <trkpt lat="41.78383" lon="19.64134">
        <ele>39.154979</ele>
        <time>2022-05-15T08:16:36.918Z</time>
      </trkpt>
      <trkpt lat="41.78394" lon="19.64133">
        <ele>39.28769</ele>
        <time>2022-05-15T08:16:39.916Z</time>
      </trkpt>
      <trkpt lat="41.78406" lon="19.64136">
        <ele>39.434333</ele>
        <time>2022-05-15T08:16:42.914Z</time>
      </trkpt>
      <trkpt lat="41.78418" lon="19.64142">
        <ele>39.579022</ele>
        <time>2022-05-15T08:16:45.914Z</time>
      </trkpt>
      <trkpt lat="41.78428" lon="19.6415">
        <ele>39.726065</ele>
        <time>2022-05-15T08:16:48.927Z</time>
      </trkpt>
      <trkpt lat="41.78438" lon="19.64159">
        <ele>39.86452</ele>
        <time>2022-05-15T08:16:51.933Z</time>
      </trkpt>
      <trkpt lat="41.78447" lon="19.64168">
        <ele>40.003393</ele>
        <time>2022-05-15T08:16:54.951Z</time>
      </trkpt>
      <trkpt lat="41.78457" lon="19.64178">
        <ele>40.150459</ele>
        <time>2022-05-15T08:16:57.918Z</time>
      </trkpt>
      <trkpt lat="41.78466" lon="19.64188">
        <ele>40.292263</ele>
        <time>2022-05-15T08:17:00.936Z</time>
      </trkpt>
      <trkpt lat="41.78475" lon="19.64198">
        <ele>40.435051</ele>
        <time>2022-05-15T08:17:03.912Z</time>
      </trkpt>
      <trkpt lat="41.78483" lon="19.64209">
        <ele>40.572343</ele>
        <time>2022-05-15T08:17:06.916Z</time>
      </trkpt>
      <trkpt lat="41.78489" lon="19.64222">
        <ele>40.700826</ele>
        <time>2022-05-15T08:17:09.936Z</time>
      </trkpt>
      <trkpt lat="41.78494" lon="19.64236">
        <ele>40.838518</ele>
        <time>2022-05-15T08:17:12.913Z</time>
      </trkpt>
      <trkpt lat="41.78499" lon="19.6425">
        <ele>40.979795</ele>
        <time>2022-05-15T08:17:15.912Z</time>
      </trkpt>
      <trkpt lat="41.78504" lon="19.64264">
        <ele>41.353302</ele>
        <time>2022-05-15T08:17:18.930Z</time>
      </trkpt>
      <trkpt lat="41.78509" lon="19.64276">
        <ele>41.70893</ele>
        <time>2022-05-15T08:17:21.933Z</time>
      </trkpt>
      <trkpt lat="41.78515" lon="19.64287">
        <ele>42.061783</ele>
        <time>2022-05-15T08:17:24.914Z</time>
      </trkpt>
      <trkpt lat="41.78521" lon="19.64299">
        <ele>42.451521</ele>
        <time>2022-05-15T08:17:27.978Z</time>
      </trkpt>
      <trkpt lat="41.78526" lon="19.6431">
        <ele>42.774608</ele>
        <time>2022-05-15T08:17:30.918Z</time>
      </trkpt>
      <trkpt lat="41.78532" lon="19.6432">
        <ele>43.098861</ele>
        <time>2022-05-15T08:17:34.941Z</time>
      </trkpt>
      <trkpt lat="41.78539" lon="19.6433">
        <ele>43.427895</ele>
        <time>2022-05-15T08:17:39.918Z</time>
      </trkpt>
      <trkpt lat="41.7854" lon="19.64343">
        <ele>43.768713</ele>
        <time>2022-05-15T08:17:46.108Z</time>
      </trkpt>
      <trkpt lat="41.78535" lon="19.64353">
        <ele>44.0928</ele>
        <time>2022-05-15T08:17:51.931Z</time>
      </trkpt>
      <trkpt lat="41.78529" lon="19.64363">
        <ele>44.414865</ele>
        <time>2022-05-15T08:17:56.971Z</time>
      </trkpt>
      <trkpt lat="41.78536" lon="19.64373">
        <ele>44.753651</ele>
        <time>2022-05-15T08:18:01.954Z</time>
      </trkpt>
      <trkpt lat="41.78545" lon="19.64376">
        <ele>45.0884</ele>
        <time>2022-05-15T08:18:05.962Z</time>
      </trkpt>
      <trkpt lat="41.78555" lon="19.64382">
        <ele>45.448651</ele>
        <time>2022-05-15T08:18:09.952Z</time>
      </trkpt>
      <trkpt lat="41.78564" lon="19.64388">
        <ele>45.783684</ele>
        <time>2022-05-15T08:18:12.943Z</time>
      </trkpt>
      <trkpt lat="41.78573" lon="19.64392">
        <ele>46.134238</ele>
        <time>2022-05-15T08:18:15.952Z</time>
      </trkpt>
      <trkpt lat="41.78583" lon="19.64396">
        <ele>46.485005</ele>
        <time>2022-05-15T08:18:18.983Z</time>
      </trkpt>
      <trkpt lat="41.78592" lon="19.64399">
        <ele>46.813224</ele>
        <time>2022-05-15T08:18:21.957Z</time>
      </trkpt>
      <trkpt lat="41.78602" lon="19.64406">
        <ele>47.167753</ele>
        <time>2022-05-15T08:18:24.934Z</time>
      </trkpt>
      <trkpt lat="41.7861" lon="19.64417">
        <ele>47.341781</ele>
        <time>2022-05-15T08:18:27.949Z</time>
      </trkpt>
      <trkpt lat="41.78618" lon="19.64424">
        <ele>47.483456</ele>
        <time>2022-05-15T08:18:30.945Z</time>
      </trkpt>
      <trkpt lat="41.78625" lon="19.64432">
        <ele>47.622552</ele>
        <time>2022-05-15T08:18:33.945Z</time>
      </trkpt>
      <trkpt lat="41.78632" lon="19.6444">
        <ele>47.7619</ele>
        <time>2022-05-15T08:18:36.943Z</time>
      </trkpt>
      <trkpt lat="41.7864" lon="19.64449">
        <ele>47.923139</ele>
        <time>2022-05-15T08:18:39.952Z</time>
      </trkpt>
      <trkpt lat="41.78648" lon="19.64457">
        <ele>48.080207</ele>
        <time>2022-05-15T08:18:42.994Z</time>
      </trkpt>
      <trkpt lat="41.78656" lon="19.64466">
        <ele>48.236301</ele>
        <time>2022-05-15T08:18:45.934Z</time>
      </trkpt>
      <trkpt lat="41.78666" lon="19.64476">
        <ele>48.418376</ele>
        <time>2022-05-15T08:18:49.961Z</time>
      </trkpt>
      <trkpt lat="41.78673" lon="19.64484">
        <ele>48.561531</ele>
        <time>2022-05-15T08:18:52.938Z</time>
      </trkpt>
      <trkpt lat="41.78679" lon="19.64495">
        <ele>48.7083</ele>
        <time>2022-05-15T08:18:55.936Z</time>
      </trkpt>
      <trkpt lat="41.78684" lon="19.64505">
        <ele>48.84802</ele>
        <time>2022-05-15T08:18:58.943Z</time>
      </trkpt>
      <trkpt lat="41.7869" lon="19.64518">
        <ele>49.016837</ele>
        <time>2022-05-15T08:19:03.010Z</time>
      </trkpt>
      <trkpt lat="41.78694" lon="19.64529">
        <ele>49.167305</ele>
        <time>2022-05-15T08:19:06.940Z</time>
      </trkpt>
      <trkpt lat="41.787" lon="19.64541">
        <ele>49.318507</ele>
        <time>2022-05-15T08:19:10.951Z</time>
      </trkpt>
      <trkpt lat="41.78705" lon="19.64551">
        <ele>49.46708</ele>
        <time>2022-05-15T08:19:14.950Z</time>
      </trkpt>
      <trkpt lat="41.78716" lon="19.6456">
        <ele>49.652248</ele>
        <time>2022-05-15T08:19:19.946Z</time>
      </trkpt>
      <trkpt lat="41.78726" lon="19.64564">
        <ele>49.816855</ele>
        <time>2022-05-15T08:19:22.951Z</time>
      </trkpt>
      <trkpt lat="41.78736" lon="19.64567">
        <ele>49.774053</ele>
        <time>2022-05-15T08:19:25.960Z</time>
      </trkpt>
      <trkpt lat="41.78747" lon="19.64571">
        <ele>49.566764</ele>
        <time>2022-05-15T08:19:28.955Z</time>
      </trkpt>
      <trkpt lat="41.78759" lon="19.64575">
        <ele>49.330775</ele>
        <time>2022-05-15T08:19:31.920Z</time>
      </trkpt>
      <trkpt lat="41.78771" lon="19.64579">
        <ele>49.091739</ele>
        <time>2022-05-15T08:19:34.942Z</time>
      </trkpt>
      <trkpt lat="41.78782" lon="19.64583">
        <ele>48.876728</ele>
        <time>2022-05-15T08:19:37.953Z</time>
      </trkpt>
      <trkpt lat="41.78793" lon="19.64588">
        <ele>48.653993</ele>
        <time>2022-05-15T08:19:40.977Z</time>
      </trkpt>
      <trkpt lat="41.78804" lon="19.64594">
        <ele>48.417577</ele>
        <time>2022-05-15T08:19:43.977Z</time>
      </trkpt>
      <trkpt lat="41.78816" lon="19.64601">
        <ele>48.164739</ele>
        <time>2022-05-15T08:19:46.927Z</time>
      </trkpt>
      <trkpt lat="41.78825" lon="19.64605">
        <ele>47.992818</ele>
        <time>2022-05-15T08:19:48.948Z</time>
      </trkpt>
      <trkpt lat="41.78838" lon="19.64607">
        <ele>47.746346</ele>
        <time>2022-05-15T08:19:51.927Z</time>
      </trkpt>
      <trkpt lat="41.78851" lon="19.64609">
        <ele>47.495421</ele>
        <time>2022-05-15T08:19:54.952Z</time>
      </trkpt>
      <trkpt lat="41.78863" lon="19.64609">
        <ele>47.260565</ele>
        <time>2022-05-15T08:19:57.948Z</time>
      </trkpt>
      <trkpt lat="41.78874" lon="19.64609">
        <ele>47.044899</ele>
        <time>2022-05-15T08:20:00.921Z</time>
      </trkpt>
      <trkpt lat="41.78884" lon="19.64609">
        <ele>46.857859</ele>
        <time>2022-05-15T08:20:03.955Z</time>
      </trkpt>
      <trkpt lat="41.78895" lon="19.64612">
        <ele>46.646769</ele>
        <time>2022-05-15T08:20:07.921Z</time>
      </trkpt>
      <trkpt lat="41.78906" lon="19.64619">
        <ele>46.433135</ele>
        <time>2022-05-15T08:20:11.941Z</time>
      </trkpt>
      <trkpt lat="41.78914" lon="19.6463">
        <ele>46.346664</ele>
        <time>2022-05-15T08:20:14.947Z</time>
      </trkpt>
      <trkpt lat="41.78918" lon="19.64641">
        <ele>46.275656</ele>
        <time>2022-05-15T08:20:17.029Z</time>
      </trkpt>
      <trkpt lat="41.78923" lon="19.64652">
        <ele>46.200652</ele>
        <time>2022-05-15T08:20:18.988Z</time>
      </trkpt>
      <trkpt lat="41.78927" lon="19.64663">
        <ele>46.125269</ele>
        <time>2022-05-15T08:20:20.944Z</time>
      </trkpt>
      <trkpt lat="41.78931" lon="19.64675">
        <ele>46.051196</ele>
        <time>2022-05-15T08:20:22.948Z</time>
      </trkpt>
      <trkpt lat="41.78934" lon="19.64686">
        <ele>45.979359</ele>
        <time>2022-05-15T08:20:24.957Z</time>
      </trkpt>
      <trkpt lat="41.78938" lon="19.64697">
        <ele>45.906601</ele>
        <time>2022-05-15T08:20:26.936Z</time>
      </trkpt>
      <trkpt lat="41.78943" lon="19.64713">
        <ele>45.804871</ele>
        <time>2022-05-15T08:20:29.994Z</time>
      </trkpt>
      <trkpt lat="41.78948" lon="19.64728">
        <ele>45.708406</ele>
        <time>2022-05-15T08:20:32.954Z</time>
      </trkpt>
      <trkpt lat="41.78953" lon="19.64745">
        <ele>45.603702</ele>
        <time>2022-05-15T08:20:35.998Z</time>
      </trkpt>
      <trkpt lat="41.78957" lon="19.6476">
        <ele>45.506478</ele>
        <time>2022-05-15T08:20:38.959Z</time>
      </trkpt>
      <trkpt lat="41.78961" lon="19.64772">
        <ele>45.43016</ele>
        <time>2022-05-15T08:20:42.936Z</time>
      </trkpt>
      <trkpt lat="41.7896" lon="19.64759">
        <ele>45.351559</ele>
        <time>2022-05-15T08:22:09.942Z</time>
      </trkpt>
      <trkpt lat="41.78958" lon="19.64746">
        <ele>45.27717</ele>
        <time>2022-05-15T08:22:13.927Z</time>
      </trkpt>
      <trkpt lat="41.78952" lon="19.64732">
        <ele>45.184607</ele>
        <time>2022-05-15T08:22:17.945Z</time>
      </trkpt>
      <trkpt lat="41.78946" lon="19.64706">
        <ele>45.044848</ele>
        <time>2022-05-15T08:23:05.938Z</time>
      </trkpt>
      <trkpt lat="41.78942" lon="19.64693">
        <ele>45.201751</ele>
        <time>2022-05-15T08:23:09.954Z</time>
      </trkpt>
      <trkpt lat="41.78937" lon="19.64679">
        <ele>45.370289</ele>
        <time>2022-05-15T08:23:13.934Z</time>
      </trkpt>
      <trkpt lat="41.78933" lon="19.64664">
        <ele>45.547859</ele>
        <time>2022-05-15T08:23:17.943Z</time>
      </trkpt>
      <trkpt lat="41.78929" lon="19.64652">
        <ele>45.692271</ele>
        <time>2022-05-15T08:23:20.984Z</time>
      </trkpt>
      <trkpt lat="41.78925" lon="19.64641">
        <ele>45.831048</ele>
        <time>2022-05-15T08:23:23.936Z</time>
      </trkpt>
      <trkpt lat="41.78919" lon="19.64628">
        <ele>45.990194</ele>
        <time>2022-05-15T08:23:27.948Z</time>
      </trkpt>
      <trkpt lat="41.78912" lon="19.64619">
        <ele>46.137886</ele>
        <time>2022-05-15T08:23:32.956Z</time>
      </trkpt>
      <trkpt lat="41.78904" lon="19.6461">
        <ele>46.282693</ele>
        <time>2022-05-15T08:23:38.961Z</time>
      </trkpt>
      <trkpt lat="41.78895" lon="19.64607">
        <ele>46.424018</ele>
        <time>2022-05-15T08:23:42.977Z</time>
      </trkpt>
      <trkpt lat="41.78886" lon="19.64605">
        <ele>46.561261</ele>
        <time>2022-05-15T08:23:45.950Z</time>
      </trkpt>
      <trkpt lat="41.78875" lon="19.64605">
        <ele>46.726798</ele>
        <time>2022-05-15T08:23:48.955Z</time>
      </trkpt>
      <trkpt lat="41.78862" lon="19.64604">
        <ele>46.911514</ele>
        <time>2022-05-15T08:23:51.936Z</time>
      </trkpt>
      <trkpt lat="41.78849" lon="19.64604">
        <ele>47.102266</ele>
        <time>2022-05-15T08:23:54.936Z</time>
      </trkpt>
      <trkpt lat="41.78837" lon="19.64602">
        <ele>47.279329</ele>
        <time>2022-05-15T08:23:57.956Z</time>
      </trkpt>
      <trkpt lat="41.78828" lon="19.64597">
        <ele>47.423275</ele>
        <time>2022-05-15T08:23:59.947Z</time>
      </trkpt>
      <trkpt lat="41.78819" lon="19.64594">
        <ele>47.560564</ele>
        <time>2022-05-15T08:24:01.952Z</time>
      </trkpt>
      <trkpt lat="41.78808" lon="19.64589">
        <ele>47.749758</ele>
        <time>2022-05-15T08:24:04.951Z</time>
      </trkpt>
      <trkpt lat="41.78798" lon="19.64584">
        <ele>47.928368</ele>
        <time>2022-05-15T08:24:07.948Z</time>
      </trkpt>
      <trkpt lat="41.78789" lon="19.6458">
        <ele>48.08884</ele>
        <time>2022-05-15T08:24:10.945Z</time>
      </trkpt>
      <trkpt lat="41.7878" lon="19.64576">
        <ele>48.252885</ele>
        <time>2022-05-15T08:24:13.943Z</time>
      </trkpt>
      <trkpt lat="41.78769" lon="19.64574">
        <ele>48.441675</ele>
        <time>2022-05-15T08:24:16.956Z</time>
      </trkpt>
      <trkpt lat="41.78757" lon="19.64568">
        <ele>48.656312</ele>
        <time>2022-05-15T08:24:19.950Z</time>
      </trkpt>
      <trkpt lat="41.78744" lon="19.64564">
        <ele>48.877712</ele>
        <time>2022-05-15T08:24:22.950Z</time>
      </trkpt>
      <trkpt lat="41.78733" lon="19.64561">
        <ele>49.067207</ele>
        <time>2022-05-15T08:24:25.950Z</time>
      </trkpt>
      <trkpt lat="41.78722" lon="19.64557">
        <ele>49.265182</ele>
        <time>2022-05-15T08:24:28.949Z</time>
      </trkpt>
      <trkpt lat="41.78713" lon="19.64553">
        <ele>49.434138</ele>
        <time>2022-05-15T08:24:31.954Z</time>
      </trkpt>
      <trkpt lat="41.78696" lon="19.64521">
        <ele>49.930772</ele>
        <time>2022-05-15T08:24:59.945Z</time>
      </trkpt>
      <trkpt lat="41.78689" lon="19.64504">
        <ele>50.170778</ele>
        <time>2022-05-15T08:25:02.952Z</time>
      </trkpt>
      <trkpt lat="41.78685" lon="19.64492">
        <ele>50.346512</ele>
        <time>2022-05-15T08:25:04.988Z</time>
      </trkpt>
      <trkpt lat="41.78679" lon="19.64481">
        <ele>50.520832</ele>
        <time>2022-05-15T08:25:06.954Z</time>
      </trkpt>
      <trkpt lat="41.7867" lon="19.64472">
        <ele>50.70577</ele>
        <time>2022-05-15T08:25:08.954Z</time>
      </trkpt>
      <trkpt lat="41.78662" lon="19.64463">
        <ele>50.623051</ele>
        <time>2022-05-15T08:25:10.952Z</time>
      </trkpt>
      <trkpt lat="41.78654" lon="19.64454">
        <ele>50.456343</ele>
        <time>2022-05-15T08:25:12.955Z</time>
      </trkpt>
      <trkpt lat="41.78647" lon="19.64444">
        <ele>50.292086</ele>
        <time>2022-05-15T08:25:15.939Z</time>
      </trkpt>
      <trkpt lat="41.7864" lon="19.64437">
        <ele>50.142682</ele>
        <time>2022-05-15T08:25:20.927Z</time>
      </trkpt>
      <trkpt lat="41.7863" lon="19.64434">
        <ele>49.988839</ele>
        <time>2022-05-15T08:25:25.968Z</time>
      </trkpt>
      <trkpt lat="41.78622" lon="19.64428">
        <ele>49.831034</ele>
        <time>2022-05-15T08:25:28.953Z</time>
      </trkpt>
      <trkpt lat="41.78614" lon="19.64422">
        <ele>49.683786</ele>
        <time>2022-05-15T08:25:30.944Z</time>
      </trkpt>
      <trkpt lat="41.78605" lon="19.64417">
        <ele>49.525743</ele>
        <time>2022-05-15T08:25:32.950Z</time>
      </trkpt>
      <trkpt lat="41.78596" lon="19.64412">
        <ele>49.368276</ele>
        <time>2022-05-15T08:25:34.932Z</time>
      </trkpt>
      <trkpt lat="41.78588" lon="19.64407">
        <ele>49.219658</ele>
        <time>2022-05-15T08:25:36.929Z</time>
      </trkpt>
      <trkpt lat="41.78576" lon="19.644">
        <ele>49.009597</ele>
        <time>2022-05-15T08:25:39.958Z</time>
      </trkpt>
      <trkpt lat="41.78568" lon="19.64395">
        <ele>48.862458</ele>
        <time>2022-05-15T08:25:41.940Z</time>
      </trkpt>
      <trkpt lat="41.78556" lon="19.64388">
        <ele>48.646476</ele>
        <time>2022-05-15T08:25:44.943Z</time>
      </trkpt>
      <trkpt lat="41.78544" lon="19.64381">
        <ele>48.449794</ele>
        <time>2022-05-15T08:25:47.936Z</time>
      </trkpt>
      <trkpt lat="41.78534" lon="19.64375">
        <ele>48.262971</ele>
        <time>2022-05-15T08:25:50.952Z</time>
      </trkpt>
      <trkpt lat="41.78524" lon="19.64372">
        <ele>48.097565</ele>
        <time>2022-05-15T08:25:53.941Z</time>
      </trkpt>
      <trkpt lat="41.78514" lon="19.64371">
        <ele>47.941122</ele>
        <time>2022-05-15T08:25:56.976Z</time>
      </trkpt>
      <trkpt lat="41.78505" lon="19.64371">
        <ele>47.836245</ele>
        <time>2022-05-15T08:25:59.942Z</time>
      </trkpt>
      <trkpt lat="41.78493" lon="19.64364">
        <ele>47.893262</ele>
        <time>2022-05-15T08:26:02.983Z</time>
      </trkpt>
      <trkpt lat="41.78484" lon="19.64359">
        <ele>47.937365</ele>
        <time>2022-05-15T08:26:07.938Z</time>
      </trkpt>
      <trkpt lat="41.78474" lon="19.64359">
        <ele>47.9815</ele>
        <time>2022-05-15T08:26:10.962Z</time>
      </trkpt>
      <trkpt lat="41.78464" lon="19.64358">
        <ele>48.026716</ele>
        <time>2022-05-15T08:26:14.040Z</time>
      </trkpt>
      <trkpt lat="41.78455" lon="19.64357">
        <ele>48.071006</ele>
        <time>2022-05-15T08:26:16.973Z</time>
      </trkpt>
      <trkpt lat="41.78445" lon="19.64356">
        <ele>48.115876</ele>
        <time>2022-05-15T08:26:19.922Z</time>
      </trkpt>
      <trkpt lat="41.78434" lon="19.64354">
        <ele>48.163397</ele>
        <time>2022-05-15T08:26:22.936Z</time>
      </trkpt>
      <trkpt lat="41.78425" lon="19.64353">
        <ele>48.205543</ele>
        <time>2022-05-15T08:26:25.944Z</time>
      </trkpt>
      <trkpt lat="41.78415" lon="19.64351">
        <ele>48.25172</ele>
        <time>2022-05-15T08:26:28.947Z</time>
      </trkpt>
      <trkpt lat="41.78402" lon="19.6435">
        <ele>48.308339</ele>
        <time>2022-05-15T08:26:31.932Z</time>
      </trkpt>
      <trkpt lat="41.7839" lon="19.64349">
        <ele>48.362509</ele>
        <time>2022-05-15T08:26:34.935Z</time>
      </trkpt>
      <trkpt lat="41.7838" lon="19.64347">
        <ele>48.410181</ele>
        <time>2022-05-15T08:26:37.954Z</time>
      </trkpt>
      <trkpt lat="41.78369" lon="19.64345">
        <ele>48.460577</ele>
        <time>2022-05-15T08:26:40.943Z</time>
      </trkpt>
      <trkpt lat="41.78358" lon="19.64343">
        <ele>48.50825</ele>
        <time>2022-05-15T08:26:43.950Z</time>
      </trkpt>
      <trkpt lat="41.78347" lon="19.64341">
        <ele>48.557223</ele>
        <time>2022-05-15T08:26:46.956Z</time>
      </trkpt>
      <trkpt lat="41.78336" lon="19.64341">
        <ele>48.606317</ele>
        <time>2022-05-15T08:26:49.936Z</time>
      </trkpt>
      <trkpt lat="41.78326" lon="19.64338">
        <ele>48.682554</ele>
        <time>2022-05-15T08:26:52.946Z</time>
      </trkpt>
      <trkpt lat="41.78316" lon="19.64338">
        <ele>48.794894</ele>
        <time>2022-05-15T08:26:55.950Z</time>
      </trkpt>
      <trkpt lat="41.78307" lon="19.64342">
        <ele>48.904857</ele>
        <time>2022-05-15T08:26:59.940Z</time>
      </trkpt>
      <trkpt lat="41.78299" lon="19.64348">
        <ele>49.005829</ele>
        <time>2022-05-15T08:27:03.953Z</time>
      </trkpt>
      <trkpt lat="41.78291" lon="19.64354">
        <ele>49.108937</ele>
        <time>2022-05-15T08:27:07.921Z</time>
      </trkpt>
      <trkpt lat="41.78282" lon="19.6436">
        <ele>49.228081</ele>
        <time>2022-05-15T08:27:12.937Z</time>
      </trkpt>
      <trkpt lat="41.78275" lon="19.64371">
        <ele>49.341272</ele>
        <time>2022-05-15T08:27:19.950Z</time>
      </trkpt>
      <trkpt lat="41.78284" lon="19.64375">
        <ele>49.447739</ele>
        <time>2022-05-15T08:27:25.939Z</time>
      </trkpt>
      <trkpt lat="41.78293" lon="19.64376">
        <ele>49.551708</ele>
        <time>2022-05-15T08:27:30.949Z</time>
      </trkpt>
      <trkpt lat="41.78302" lon="19.64378">
        <ele>49.658453</ele>
        <time>2022-05-15T08:27:34.954Z</time>
      </trkpt>
      <trkpt lat="41.78312" lon="19.64379">
        <ele>49.771443</ele>
        <time>2022-05-15T08:27:38.958Z</time>
      </trkpt>
      <trkpt lat="41.78322" lon="19.6438">
        <ele>49.884045</ele>
        <time>2022-05-15T08:27:42.957Z</time>
      </trkpt>
      <trkpt lat="41.78333" lon="19.64382">
        <ele>50.002806</ele>
        <time>2022-05-15T08:27:46.938Z</time>
      </trkpt>
      <trkpt lat="41.78344" lon="19.64385">
        <ele>50.129953</ele>
        <time>2022-05-15T08:27:50.935Z</time>
      </trkpt>
      <trkpt lat="41.78355" lon="19.64388">
        <ele>50.255248</ele>
        <time>2022-05-15T08:27:54.943Z</time>
      </trkpt>
      <trkpt lat="41.78365" lon="19.64389">
        <ele>50.372177</ele>
        <time>2022-05-15T08:27:58.964Z</time>
      </trkpt>
      <trkpt lat="41.78376" lon="19.6439">
        <ele>50.494098</ele>
        <time>2022-05-15T08:28:02.952Z</time>
      </trkpt>
      <trkpt lat="41.78386" lon="19.64392">
        <ele>50.604527</ele>
        <time>2022-05-15T08:28:05.958Z</time>
      </trkpt>
      <trkpt lat="41.78395" lon="19.64392">
        <ele>50.862023</ele>
        <time>2022-05-15T08:28:08.950Z</time>
      </trkpt>
      <trkpt lat="41.78405" lon="19.64393">
        <ele>51.289854</ele>
        <time>2022-05-15T08:28:11.949Z</time>
      </trkpt>
      <trkpt lat="41.78415" lon="19.64395">
        <ele>51.730832</ele>
        <time>2022-05-15T08:28:14.935Z</time>
      </trkpt>
      <trkpt lat="41.78426" lon="19.64396">
        <ele>52.19488</ele>
        <time>2022-05-15T08:28:17.940Z</time>
      </trkpt>
      <trkpt lat="41.78438" lon="19.64397">
        <ele>52.720934</ele>
        <time>2022-05-15T08:28:20.948Z</time>
      </trkpt>
      <trkpt lat="41.78449" lon="19.64398">
        <ele>53.205384</ele>
        <time>2022-05-15T08:28:23.935Z</time>
      </trkpt>
      <trkpt lat="41.78459" lon="19.64401">
        <ele>53.639853</ele>
        <time>2022-05-15T08:28:26.938Z</time>
      </trkpt>
      <trkpt lat="41.78468" lon="19.64407">
        <ele>54.063247</ele>
        <time>2022-05-15T08:28:29.951Z</time>
      </trkpt>
      <trkpt lat="41.78477" lon="19.64414">
        <ele>54.487236</ele>
        <time>2022-05-15T08:28:32.935Z</time>
      </trkpt>
      <trkpt lat="41.78485" lon="19.64421">
        <ele>54.918321</ele>
        <time>2022-05-15T08:28:35.938Z</time>
      </trkpt>
      <trkpt lat="41.78493" lon="19.64428">
        <ele>55.329881</ele>
        <time>2022-05-15T08:28:38.976Z</time>
      </trkpt>
      <trkpt lat="41.78503" lon="19.64437">
        <ele>55.854129</ele>
        <time>2022-05-15T08:28:42.933Z</time>
      </trkpt>
      <trkpt lat="41.78511" lon="19.64443">
        <ele>56.250466</ele>
        <time>2022-05-15T08:28:45.943Z</time>
      </trkpt>
      <trkpt lat="41.78519" lon="19.6445">
        <ele>56.651473</ele>
        <time>2022-05-15T08:28:48.940Z</time>
      </trkpt>
      <trkpt lat="41.78526" lon="19.64457">
        <ele>57.048708</ele>
        <time>2022-05-15T08:28:51.945Z</time>
      </trkpt>
      <trkpt lat="41.78534" lon="19.64465">
        <ele>57.455498</ele>
        <time>2022-05-15T08:28:54.940Z</time>
      </trkpt>
      <trkpt lat="41.78542" lon="19.64474">
        <ele>57.906104</ele>
        <time>2022-05-15T08:28:58.954Z</time>
      </trkpt>
      <trkpt lat="41.7855" lon="19.64481">
        <ele>58.308663</ele>
        <time>2022-05-15T08:29:01.975Z</time>
      </trkpt>
      <trkpt lat="41.78559" lon="19.64488">
        <ele>58.61226</ele>
        <time>2022-05-15T08:29:05.948Z</time>
      </trkpt>
      <trkpt lat="41.78568" lon="19.64494">
        <ele>58.840601</ele>
        <time>2022-05-15T08:29:10.944Z</time>
      </trkpt>
      <trkpt lat="41.78577" lon="19.64501">
        <ele>59.087092</ele>
        <time>2022-05-15T08:29:15.957Z</time>
      </trkpt>
      <trkpt lat="41.78587" lon="19.64509">
        <ele>59.352682</ele>
        <time>2022-05-15T08:29:20.939Z</time>
      </trkpt>
      <trkpt lat="41.78595" lon="19.64516">
        <ele>59.595928</ele>
        <time>2022-05-15T08:29:24.944Z</time>
      </trkpt>
      <trkpt lat="41.78603" lon="19.64523">
        <ele>59.812138</ele>
        <time>2022-05-15T08:29:28.933Z</time>
      </trkpt>
      <trkpt lat="41.78612" lon="19.64531">
        <ele>60.076514</ele>
        <time>2022-05-15T08:29:33.956Z</time>
      </trkpt>
      <trkpt lat="41.7862" lon="19.64538">
        <ele>60.30452</ele>
        <time>2022-05-15T08:29:38.942Z</time>
      </trkpt>
      <trkpt lat="41.78629" lon="19.64545">
        <ele>60.553143</ele>
        <time>2022-05-15T08:29:43.934Z</time>
      </trkpt>
      <trkpt lat="41.78637" lon="19.64553">
        <ele>60.780147</ele>
        <time>2022-05-15T08:29:48.938Z</time>
      </trkpt>
      <trkpt lat="41.78645" lon="19.6456">
        <ele>61.013146</ele>
        <time>2022-05-15T08:29:53.927Z</time>
      </trkpt>
      <trkpt lat="41.78654" lon="19.64569">
        <ele>61.270495</ele>
        <time>2022-05-15T08:29:58.940Z</time>
      </trkpt>
      <trkpt lat="41.78661" lon="19.64579">
        <ele>61.504099</ele>
        <time>2022-05-15T08:30:03.928Z</time>
      </trkpt>
      <trkpt lat="41.78668" lon="19.64587">
        <ele>61.722852</ele>
        <time>2022-05-15T08:30:07.960Z</time>
      </trkpt>
      <trkpt lat="41.78676" lon="19.64596">
        <ele>61.977251</ele>
        <time>2022-05-15T08:30:12.951Z</time>
      </trkpt>
      <trkpt lat="41.78684" lon="19.64605">
        <ele>62.227602</ele>
        <time>2022-05-15T08:30:17.950Z</time>
      </trkpt>
      <trkpt lat="41.78692" lon="19.64615">
        <ele>62.478689</ele>
        <time>2022-05-15T08:30:22.932Z</time>
      </trkpt>
      <trkpt lat="41.787" lon="19.64623">
        <ele>62.750682</ele>
        <time>2022-05-15T08:30:27.943Z</time>
      </trkpt>
      <trkpt lat="41.78709" lon="19.64631">
        <ele>63.097163</ele>
        <time>2022-05-15T08:30:32.933Z</time>
      </trkpt>
      <trkpt lat="41.78719" lon="19.64636">
        <ele>63.420424</ele>
        <time>2022-05-15T08:30:37.952Z</time>
      </trkpt>
      <trkpt lat="41.78729" lon="19.64642">
        <ele>63.758708</ele>
        <time>2022-05-15T08:30:42.952Z</time>
      </trkpt>
      <trkpt lat="41.78739" lon="19.64645">
        <ele>64.107498</ele>
        <time>2022-05-15T08:30:48.960Z</time>
      </trkpt>
      <trkpt lat="41.78749" lon="19.64648">
        <ele>64.441106</ele>
        <time>2022-05-15T08:30:55.970Z</time>
      </trkpt>
      <trkpt lat="41.78758" lon="19.64653">
        <ele>64.733479</ele>
        <time>2022-05-15T08:31:00.931Z</time>
      </trkpt>
      <trkpt lat="41.78766" lon="19.6466">
        <ele>65.043531</ele>
        <time>2022-05-15T08:31:05.945Z</time>
      </trkpt>
      <trkpt lat="41.78773" lon="19.64668">
        <ele>65.334778</ele>
        <time>2022-05-15T08:31:11.941Z</time>
      </trkpt>
      <trkpt lat="41.78778" lon="19.64679">
        <ele>65.634815</ele>
        <time>2022-05-15T08:31:16.950Z</time>
      </trkpt>
      <trkpt lat="41.78781" lon="19.64692">
        <ele>65.970449</ele>
        <time>2022-05-15T08:31:20.944Z</time>
      </trkpt>
      <trkpt lat="41.78783" lon="19.64704">
        <ele>66.263645</ele>
        <time>2022-05-15T08:31:23.948Z</time>
      </trkpt>
      <trkpt lat="41.78786" lon="19.64717">
        <ele>66.579545</ele>
        <time>2022-05-15T08:31:26.949Z</time>
      </trkpt>
      <trkpt lat="41.78789" lon="19.64732">
        <ele>66.952901</ele>
        <time>2022-05-15T08:31:29.931Z</time>
      </trkpt>
      <trkpt lat="41.78793" lon="19.64747">
        <ele>67.328986</ele>
        <time>2022-05-15T08:31:32.945Z</time>
      </trkpt>
      <trkpt lat="41.78796" lon="19.64762">
        <ele>67.700055</ele>
        <time>2022-05-15T08:31:35.934Z</time>
      </trkpt>
      <trkpt lat="41.78799" lon="19.64776">
        <ele>68.050221</ele>
        <time>2022-05-15T08:31:38.964Z</time>
      </trkpt>
      <trkpt lat="41.78801" lon="19.64789">
        <ele>68.361263</ele>
        <time>2022-05-15T08:31:41.936Z</time>
      </trkpt>
      <trkpt lat="41.78803" lon="19.64801">
        <ele>68.583983</ele>
        <time>2022-05-15T08:31:44.948Z</time>
      </trkpt>
      <trkpt lat="41.78807" lon="19.64814">
        <ele>68.810961</ele>
        <time>2022-05-15T08:31:47.946Z</time>
      </trkpt>
      <trkpt lat="41.7881" lon="19.64829">
        <ele>69.068621</ele>
        <time>2022-05-15T08:31:51.936Z</time>
      </trkpt>
      <trkpt lat="41.78812" lon="19.64841">
        <ele>69.284479</ele>
        <time>2022-05-15T08:31:55.959Z</time>
      </trkpt>
      <trkpt lat="41.78814" lon="19.64853">
        <ele>69.491531</ele>
        <time>2022-05-15T08:31:59.932Z</time>
      </trkpt>
      <trkpt lat="41.78818" lon="19.64869">
        <ele>69.766088</ele>
        <time>2022-05-15T08:32:03.984Z</time>
      </trkpt>
      <trkpt lat="41.78821" lon="19.64885">
        <ele>70.06083</ele>
        <time>2022-05-15T08:32:06.940Z</time>
      </trkpt>
      <trkpt lat="41.78823" lon="19.64897">
        <ele>70.264062</ele>
        <time>2022-05-15T08:32:08.936Z</time>
      </trkpt>
      <trkpt lat="41.78827" lon="19.6491">
        <ele>70.498082</ele>
        <time>2022-05-15T08:32:10.946Z</time>
      </trkpt>
      <trkpt lat="41.78831" lon="19.64923">
        <ele>70.733683</ele>
        <time>2022-05-15T08:32:12.984Z</time>
      </trkpt>
      <trkpt lat="41.78834" lon="19.64934">
        <ele>70.944197</ele>
        <time>2022-05-15T08:32:14.982Z</time>
      </trkpt>
      <trkpt lat="41.78838" lon="19.6495">
        <ele>71.229924</ele>
        <time>2022-05-15T08:32:17.924Z</time>
      </trkpt>
      <trkpt lat="41.78841" lon="19.64962">
        <ele>71.443773</ele>
        <time>2022-05-15T08:32:20.946Z</time>
      </trkpt>
      <trkpt lat="41.78844" lon="19.64976">
        <ele>71.690763</ele>
        <time>2022-05-15T08:32:24.952Z</time>
      </trkpt>
      <trkpt lat="41.78848" lon="19.64989">
        <ele>71.92797</ele>
        <time>2022-05-15T08:32:28.988Z</time>
      </trkpt>
      <trkpt lat="41.78851" lon="19.65003">
        <ele>72.169432</ele>
        <time>2022-05-15T08:32:32.952Z</time>
      </trkpt>
      <trkpt lat="41.78854" lon="19.65015">
        <ele>72.382641</ele>
        <time>2022-05-15T08:32:35.932Z</time>
      </trkpt>
      <trkpt lat="41.78857" lon="19.65029">
        <ele>72.277187</ele>
        <time>2022-05-15T08:32:38.945Z</time>
      </trkpt>
      <trkpt lat="41.78861" lon="19.65045">
        <ele>71.902453</ele>
        <time>2022-05-15T08:32:41.944Z</time>
      </trkpt>
      <trkpt lat="41.78865" lon="19.6506">
        <ele>71.532976</ele>
        <time>2022-05-15T08:32:44.935Z</time>
      </trkpt>
      <trkpt lat="41.78868" lon="19.65076">
        <ele>71.149121</ele>
        <time>2022-05-15T08:32:47.957Z</time>
      </trkpt>
      <trkpt lat="41.78871" lon="19.65088">
        <ele>70.871896</ele>
        <time>2022-05-15T08:32:49.969Z</time>
      </trkpt>
      <trkpt lat="41.78875" lon="19.65105">
        <ele>70.465318</ele>
        <time>2022-05-15T08:32:52.938Z</time>
      </trkpt>
      <trkpt lat="41.78879" lon="19.65123">
        <ele>70.035674</ele>
        <time>2022-05-15T08:32:55.937Z</time>
      </trkpt>
      <trkpt lat="41.78882" lon="19.65137">
        <ele>69.702419</ele>
        <time>2022-05-15T08:32:57.945Z</time>
      </trkpt>
      <trkpt lat="41.78885" lon="19.65151">
        <ele>69.36568</ele>
        <time>2022-05-15T08:32:59.951Z</time>
      </trkpt>
      <trkpt lat="41.78888" lon="19.65164">
        <ele>69.057933</ele>
        <time>2022-05-15T08:33:01.955Z</time>
      </trkpt>
      <trkpt lat="41.78891" lon="19.65177">
        <ele>68.760432</ele>
        <time>2022-05-15T08:33:03.935Z</time>
      </trkpt>
      <trkpt lat="41.78894" lon="19.6519">
        <ele>68.44764</ele>
        <time>2022-05-15T08:33:05.974Z</time>
      </trkpt>
      <trkpt lat="41.78897" lon="19.65204">
        <ele>68.106047</ele>
        <time>2022-05-15T08:33:07.951Z</time>
      </trkpt>
      <trkpt lat="41.78902" lon="19.65218">
        <ele>67.758378</ele>
        <time>2022-05-15T08:33:09.980Z</time>
      </trkpt>
      <trkpt lat="41.78905" lon="19.65232">
        <ele>67.419874</ele>
        <time>2022-05-15T08:33:11.952Z</time>
      </trkpt>
      <trkpt lat="41.78908" lon="19.65247">
        <ele>67.073812</ele>
        <time>2022-05-15T08:33:13.939Z</time>
      </trkpt>
      <trkpt lat="41.78911" lon="19.65261">
        <ele>66.728235</ele>
        <time>2022-05-15T08:33:15.942Z</time>
      </trkpt>
      <trkpt lat="41.78914" lon="19.65273">
        <ele>66.408121</ele>
        <time>2022-05-15T08:33:17.927Z</time>
      </trkpt>
      <trkpt lat="41.78922" lon="19.65287">
        <ele>65.996101</ele>
        <time>2022-05-15T08:33:20.975Z</time>
      </trkpt>
      <trkpt lat="41.78933" lon="19.65296">
        <ele>65.592743</ele>
        <time>2022-05-15T08:33:23.943Z</time>
      </trkpt>
      <trkpt lat="41.78944" lon="19.65303">
        <ele>65.173593</ele>
        <time>2022-05-15T08:33:26.940Z</time>
      </trkpt>
      <trkpt lat="41.78956" lon="19.6531">
        <ele>64.750492</ele>
        <time>2022-05-15T08:33:29.942Z</time>
      </trkpt>
      <trkpt lat="41.78967" lon="19.65319">
        <ele>64.32404</ele>
        <time>2022-05-15T08:33:33.032Z</time>
      </trkpt>
      <trkpt lat="41.78978" lon="19.6533">
        <ele>63.889491</ele>
        <time>2022-05-15T08:33:35.926Z</time>
      </trkpt>
      <trkpt lat="41.78988" lon="19.65342">
        <ele>63.458411</ele>
        <time>2022-05-15T08:33:38.961Z</time>
      </trkpt>
      <trkpt lat="41.78997" lon="19.65356">
        <ele>63.025041</ele>
        <time>2022-05-15T08:33:41.950Z</time>
      </trkpt>
      <trkpt lat="41.79005" lon="19.65369">
        <ele>62.609876</ele>
        <time>2022-05-15T08:33:44.936Z</time>
      </trkpt>
      <trkpt lat="41.79012" lon="19.65382">
        <ele>62.203989</ele>
        <time>2022-05-15T08:33:47.955Z</time>
      </trkpt>
      <trkpt lat="41.7902" lon="19.65397">
        <ele>61.765149</ele>
        <time>2022-05-15T08:33:51.039Z</time>
      </trkpt>
      <trkpt lat="41.79029" lon="19.6541">
        <ele>61.343203</ele>
        <time>2022-05-15T08:33:53.953Z</time>
      </trkpt>
      <trkpt lat="41.79036" lon="19.65423">
        <ele>61.084743</ele>
        <time>2022-05-15T08:33:56.952Z</time>
      </trkpt>
      <trkpt lat="41.79044" lon="19.65435">
        <ele>60.975951</ele>
        <time>2022-05-15T08:33:59.954Z</time>
      </trkpt>
      <trkpt lat="41.79051" lon="19.65444">
        <ele>60.876553</ele>
        <time>2022-05-15T08:34:02.969Z</time>
      </trkpt>
      <trkpt lat="41.79058" lon="19.65453">
        <ele>60.782277</ele>
        <time>2022-05-15T08:34:05.936Z</time>
      </trkpt>
      <trkpt lat="41.79065" lon="19.65462">
        <ele>60.687685</ele>
        <time>2022-05-15T08:34:08.951Z</time>
      </trkpt>
      <trkpt lat="41.79072" lon="19.65473">
        <ele>60.587958</ele>
        <time>2022-05-15T08:34:11.997Z</time>
      </trkpt>
      <trkpt lat="41.79079" lon="19.65482">
        <ele>60.489762</ele>
        <time>2022-05-15T08:34:14.975Z</time>
      </trkpt>
      <trkpt lat="41.79087" lon="19.65492">
        <ele>60.38298</ele>
        <time>2022-05-15T08:34:17.932Z</time>
      </trkpt>
      <trkpt lat="41.79097" lon="19.65501">
        <ele>60.269125</ele>
        <time>2022-05-15T08:34:20.980Z</time>
      </trkpt>
      <trkpt lat="41.79108" lon="19.65511">
        <ele>60.136222</ele>
        <time>2022-05-15T08:34:23.930Z</time>
      </trkpt>
      <trkpt lat="41.79117" lon="19.65518">
        <ele>60.039247</ele>
        <time>2022-05-15T08:34:25.952Z</time>
      </trkpt>
      <trkpt lat="41.79125" lon="19.65525">
        <ele>59.940724</ele>
        <time>2022-05-15T08:34:27.949Z</time>
      </trkpt>
      <trkpt lat="41.79133" lon="19.65532">
        <ele>59.849878</ele>
        <time>2022-05-15T08:34:29.931Z</time>
      </trkpt>
      <trkpt lat="41.79144" lon="19.65541">
        <ele>59.728293</ele>
        <time>2022-05-15T08:34:32.931Z</time>
      </trkpt>
      <trkpt lat="41.79152" lon="19.6555">
        <ele>59.621221</ele>
        <time>2022-05-15T08:34:35.942Z</time>
      </trkpt>
      <trkpt lat="41.79163" lon="19.65557">
        <ele>59.502819</ele>
        <time>2022-05-15T08:34:39.938Z</time>
      </trkpt>
      <trkpt lat="41.79172" lon="19.65564">
        <ele>59.407801</ele>
        <time>2022-05-15T08:34:42.998Z</time>
      </trkpt>
      <trkpt lat="41.7918" lon="19.65571">
        <ele>59.441094</ele>
        <time>2022-05-15T08:34:45.936Z</time>
      </trkpt>
      <trkpt lat="41.79188" lon="19.65578">
        <ele>59.490541</ele>
        <time>2022-05-15T08:34:48.956Z</time>
      </trkpt>
      <trkpt lat="41.79198" lon="19.65587">
        <ele>59.549241</ele>
        <time>2022-05-15T08:34:52.942Z</time>
      </trkpt>
      <trkpt lat="41.79207" lon="19.65595">
        <ele>59.604427</ele>
        <time>2022-05-15T08:34:56.940Z</time>
      </trkpt>
      <trkpt lat="41.79216" lon="19.65602">
        <ele>59.655039</ele>
        <time>2022-05-15T08:35:00.936Z</time>
      </trkpt>
      <trkpt lat="41.79225" lon="19.6561">
        <ele>59.709807</ele>
        <time>2022-05-15T08:35:05.962Z</time>
      </trkpt>
      <trkpt lat="41.79234" lon="19.65617">
        <ele>59.757364</ele>
        <time>2022-05-15T08:35:09.953Z</time>
      </trkpt>
      <trkpt lat="41.79241" lon="19.65624">
        <ele>59.804103</ele>
        <time>2022-05-15T08:35:13.933Z</time>
      </trkpt>
      <trkpt lat="41.79248" lon="19.65633">
        <ele>59.852171</ele>
        <time>2022-05-15T08:35:17.943Z</time>
      </trkpt>
      <trkpt lat="41.79254" lon="19.65645">
        <ele>59.906023</ele>
        <time>2022-05-15T08:35:21.947Z</time>
      </trkpt>
      <trkpt lat="41.79259" lon="19.65658">
        <ele>59.959221</ele>
        <time>2022-05-15T08:35:24.940Z</time>
      </trkpt>
      <trkpt lat="41.79265" lon="19.65675">
        <ele>60.028674</ele>
        <time>2022-05-15T08:35:27.945Z</time>
      </trkpt>
      <trkpt lat="41.7927" lon="19.65688">
        <ele>60.084294</ele>
        <time>2022-05-15T08:35:29.945Z</time>
      </trkpt>
      <trkpt lat="41.79274" lon="19.65701">
        <ele>60.135986</ele>
        <time>2022-05-15T08:35:31.971Z</time>
      </trkpt>
      <trkpt lat="41.79278" lon="19.65714">
        <ele>60.188897</ele>
        <time>2022-05-15T08:35:33.932Z</time>
      </trkpt>
      <trkpt lat="41.79283" lon="19.65729">
        <ele>60.24805</ele>
        <time>2022-05-15T08:35:35.941Z</time>
      </trkpt>
      <trkpt lat="41.79287" lon="19.65742">
        <ele>60.215001</ele>
        <time>2022-05-15T08:35:37.924Z</time>
      </trkpt>
      <trkpt lat="41.79291" lon="19.65756">
        <ele>59.77505</ele>
        <time>2022-05-15T08:35:39.944Z</time>
      </trkpt>
      <trkpt lat="41.79296" lon="19.65769">
        <ele>59.342187</ele>
        <time>2022-05-15T08:35:41.955Z</time>
      </trkpt>
      <trkpt lat="41.79299" lon="19.65782">
        <ele>58.930565</ele>
        <time>2022-05-15T08:35:43.962Z</time>
      </trkpt>
      <trkpt lat="41.79303" lon="19.65793">
        <ele>58.55678</ele>
        <time>2022-05-15T08:35:46.028Z</time>
      </trkpt>
      <trkpt lat="41.79306" lon="19.65805">
        <ele>58.194229</ele>
        <time>2022-05-15T08:35:47.929Z</time>
      </trkpt>
      <trkpt lat="41.7931" lon="19.65818">
        <ele>57.760277</ele>
        <time>2022-05-15T08:35:50.947Z</time>
      </trkpt>
      <trkpt lat="41.79318" lon="19.65831">
        <ele>57.277337</ele>
        <time>2022-05-15T08:35:53.966Z</time>
      </trkpt>
      <trkpt lat="41.79327" lon="19.65843">
        <ele>56.76512</ele>
        <time>2022-05-15T08:35:56.944Z</time>
      </trkpt>
      <trkpt lat="41.79337" lon="19.65851">
        <ele>56.299614</ele>
        <time>2022-05-15T08:35:59.932Z</time>
      </trkpt>
      <trkpt lat="41.79345" lon="19.65856">
        <ele>55.92837</ele>
        <time>2022-05-15T08:36:02.951Z</time>
      </trkpt>
      <trkpt lat="41.79356" lon="19.65859">
        <ele>55.477164</ele>
        <time>2022-05-15T08:36:06.021Z</time>
      </trkpt>
      <trkpt lat="41.79369" lon="19.65862">
        <ele>54.947435</ele>
        <time>2022-05-15T08:36:08.951Z</time>
      </trkpt>
      <trkpt lat="41.79379" lon="19.65865">
        <ele>54.524391</ele>
        <time>2022-05-15T08:36:10.975Z</time>
      </trkpt>
      <trkpt lat="41.79391" lon="19.65869">
        <ele>54.053625</ele>
        <time>2022-05-15T08:36:12.923Z</time>
      </trkpt>
      <trkpt lat="41.79403" lon="19.65872">
        <ele>53.53123</ele>
        <time>2022-05-15T08:36:14.936Z</time>
      </trkpt>
      <trkpt lat="41.79415" lon="19.65876">
        <ele>53.049106</ele>
        <time>2022-05-15T08:36:16.964Z</time>
      </trkpt>
      <trkpt lat="41.79427" lon="19.65879">
        <ele>52.846633</ele>
        <time>2022-05-15T08:36:18.965Z</time>
      </trkpt>
      <trkpt lat="41.79439" lon="19.65882">
        <ele>52.645347</ele>
        <time>2022-05-15T08:36:20.951Z</time>
      </trkpt>
      <trkpt lat="41.7945" lon="19.65885">
        <ele>52.449964</ele>
        <time>2022-05-15T08:36:22.941Z</time>
      </trkpt>
      <trkpt lat="41.79461" lon="19.65888">
        <ele>52.263816</ele>
        <time>2022-05-15T08:36:24.946Z</time>
      </trkpt>
      <trkpt lat="41.79472" lon="19.65891">
        <ele>52.079321</ele>
        <time>2022-05-15T08:36:26.942Z</time>
      </trkpt>
      <trkpt lat="41.79482" lon="19.65893">
        <ele>51.903848</ele>
        <time>2022-05-15T08:36:28.934Z</time>
      </trkpt>
      <trkpt lat="41.79491" lon="19.65896">
        <ele>51.740472</ele>
        <time>2022-05-15T08:36:30.951Z</time>
      </trkpt>
      <trkpt lat="41.795" lon="19.65899">
        <ele>51.586738</ele>
        <time>2022-05-15T08:36:32.975Z</time>
      </trkpt>
      <trkpt lat="41.7951" lon="19.65902">
        <ele>51.424749</ele>
        <time>2022-05-15T08:36:34.939Z</time>
      </trkpt>
      <trkpt lat="41.79519" lon="19.65904">
        <ele>51.269877</ele>
        <time>2022-05-15T08:36:36.962Z</time>
      </trkpt>
      <trkpt lat="41.79528" lon="19.65906">
        <ele>51.113586</ele>
        <time>2022-05-15T08:36:38.949Z</time>
      </trkpt>
      <trkpt lat="41.79541" lon="19.65909">
        <ele>50.892396</ele>
        <time>2022-05-15T08:36:41.952Z</time>
      </trkpt>
      <trkpt lat="41.79553" lon="19.65913">
        <ele>50.687304</ele>
        <time>2022-05-15T08:36:44.939Z</time>
      </trkpt>
      <trkpt lat="41.79565" lon="19.65916">
        <ele>50.482706</ele>
        <time>2022-05-15T08:36:47.937Z</time>
      </trkpt>
      <trkpt lat="41.79577" lon="19.65919">
        <ele>50.276685</ele>
        <time>2022-05-15T08:36:50.934Z</time>
      </trkpt>
      <trkpt lat="41.7959" lon="19.65922">
        <ele>50.049828</ele>
        <time>2022-05-15T08:36:53.962Z</time>
      </trkpt>
      <trkpt lat="41.79599" lon="19.65924">
        <ele>50.154392</ele>
        <time>2022-05-15T08:36:55.957Z</time>
      </trkpt>
      <trkpt lat="41.79608" lon="19.65926">
        <ele>50.303172</ele>
        <time>2022-05-15T08:36:57.942Z</time>
      </trkpt>
      <trkpt lat="41.7962" lon="19.65929">
        <ele>50.512196</ele>
        <time>2022-05-15T08:37:00.956Z</time>
      </trkpt>
      <trkpt lat="41.79633" lon="19.65932">
        <ele>50.716824</ele>
        <time>2022-05-15T08:37:03.951Z</time>
      </trkpt>
      <trkpt lat="41.79644" lon="19.65934">
        <ele>50.905136</ele>
        <time>2022-05-15T08:37:06.957Z</time>
      </trkpt>
      <trkpt lat="41.79657" lon="19.65937">
        <ele>51.112148</ele>
        <time>2022-05-15T08:37:09.944Z</time>
      </trkpt>
      <trkpt lat="41.7967" lon="19.6594">
        <ele>51.327234</ele>
        <time>2022-05-15T08:37:12.941Z</time>
      </trkpt>
      <trkpt lat="41.79681" lon="19.65944">
        <ele>51.530062</ele>
        <time>2022-05-15T08:37:15.935Z</time>
      </trkpt>
      <trkpt lat="41.79693" lon="19.65947">
        <ele>51.717518</ele>
        <time>2022-05-15T08:37:18.961Z</time>
      </trkpt>
      <trkpt lat="41.79702" lon="19.65949">
        <ele>51.878575</ele>
        <time>2022-05-15T08:37:21.958Z</time>
      </trkpt>
      <trkpt lat="41.79712" lon="19.65948">
        <ele>52.033212</ele>
        <time>2022-05-15T08:37:25.942Z</time>
      </trkpt>
      <trkpt lat="41.79722" lon="19.65952">
        <ele>52.200699</ele>
        <time>2022-05-15T08:37:30.938Z</time>
      </trkpt>
      <trkpt lat="41.79731" lon="19.65957">
        <ele>52.363396</ele>
        <time>2022-05-15T08:37:34.993Z</time>
      </trkpt>
      <trkpt lat="41.79741" lon="19.6596">
        <ele>52.53916</ele>
        <time>2022-05-15T08:37:39.921Z</time>
      </trkpt>
      <trkpt lat="41.79751" lon="19.65962">
        <ele>52.701425</ele>
        <time>2022-05-15T08:37:44.934Z</time>
      </trkpt>
      <trkpt lat="41.7976" lon="19.65964">
        <ele>52.85675</ele>
        <time>2022-05-15T08:37:49.996Z</time>
      </trkpt>
      <trkpt lat="41.79772" lon="19.65967">
        <ele>53.020279</ele>
        <time>2022-05-15T08:37:53.935Z</time>
      </trkpt>
      <trkpt lat="41.79782" lon="19.6597">
        <ele>53.142315</ele>
        <time>2022-05-15T08:37:57.942Z</time>
      </trkpt>
      <trkpt lat="41.79792" lon="19.65975">
        <ele>53.269347</ele>
        <time>2022-05-15T08:38:01.967Z</time>
      </trkpt>
      <trkpt lat="41.79803" lon="19.6598">
        <ele>53.397693</ele>
        <time>2022-05-15T08:38:05.936Z</time>
      </trkpt>
      <trkpt lat="41.79814" lon="19.65984">
        <ele>53.524986</ele>
        <time>2022-05-15T08:38:09.936Z</time>
      </trkpt>
      <trkpt lat="41.79822" lon="19.65987">
        <ele>53.628942</ele>
        <time>2022-05-15T08:38:12.949Z</time>
      </trkpt>
      <trkpt lat="41.79831" lon="19.65989">
        <ele>53.73374</ele>
        <time>2022-05-15T08:38:15.939Z</time>
      </trkpt>
      <trkpt lat="41.79843" lon="19.65992">
        <ele>53.868661</ele>
        <time>2022-05-15T08:38:19.938Z</time>
      </trkpt>
      <trkpt lat="41.79855" lon="19.65991">
        <ele>54.000866</ele>
        <time>2022-05-15T08:38:23.927Z</time>
      </trkpt>
      <trkpt lat="41.79866" lon="19.65988">
        <ele>54.13112</ele>
        <time>2022-05-15T08:38:27.952Z</time>
      </trkpt>
      <trkpt lat="41.79877" lon="19.65984">
        <ele>54.265178</ele>
        <time>2022-05-15T08:38:31.936Z</time>
      </trkpt>
      <trkpt lat="41.79885" lon="19.65978">
        <ele>54.368567</ele>
        <time>2022-05-15T08:38:34.983Z</time>
      </trkpt>
      <trkpt lat="41.79895" lon="19.65972">
        <ele>54.500875</ele>
        <time>2022-05-15T08:38:38.964Z</time>
      </trkpt>
      <trkpt lat="41.79905" lon="19.65966">
        <ele>54.627618</ele>
        <time>2022-05-15T08:38:42.954Z</time>
      </trkpt>
      <trkpt lat="41.79915" lon="19.6596">
        <ele>54.749106</ele>
        <time>2022-05-15T08:38:46.943Z</time>
      </trkpt>
      <trkpt lat="41.79924" lon="19.65954">
        <ele>54.860312</ele>
        <time>2022-05-15T08:38:50.952Z</time>
      </trkpt>
      <trkpt lat="41.79934" lon="19.65947">
        <ele>54.989495</ele>
        <time>2022-05-15T08:38:54.977Z</time>
      </trkpt>
      <trkpt lat="41.79944" lon="19.65941">
        <ele>55.290857</ele>
        <time>2022-05-15T08:38:58.943Z</time>
      </trkpt>
      <trkpt lat="41.79953" lon="19.65933">
        <ele>55.670226</ele>
        <time>2022-05-15T08:39:02.954Z</time>
      </trkpt>
      <trkpt lat="41.79963" lon="19.65926">
        <ele>56.066961</ele>
        <time>2022-05-15T08:39:06.955Z</time>
      </trkpt>
      <trkpt lat="41.79972" lon="19.6592">
        <ele>56.394465</ele>
        <time>2022-05-15T08:39:09.927Z</time>
      </trkpt>
      <trkpt lat="41.7998" lon="19.65913">
        <ele>56.715575</ele>
        <time>2022-05-15T08:39:12.948Z</time>
      </trkpt>
      <trkpt lat="41.79988" lon="19.65907">
        <ele>57.029067</ele>
        <time>2022-05-15T08:39:15.939Z</time>
      </trkpt>
      <trkpt lat="41.79998" lon="19.659">
        <ele>57.421544</ele>
        <time>2022-05-15T08:39:19.923Z</time>
      </trkpt>
      <trkpt lat="41.80007" lon="19.65894">
        <ele>57.777302</ele>
        <time>2022-05-15T08:39:23.937Z</time>
      </trkpt>
      <trkpt lat="41.80016" lon="19.65888">
        <ele>58.121169</ele>
        <time>2022-05-15T08:39:27.944Z</time>
      </trkpt>
      <trkpt lat="41.80025" lon="19.65881">
        <ele>58.472232</ele>
        <time>2022-05-15T08:39:31.952Z</time>
      </trkpt>
      <trkpt lat="41.80031" lon="19.65873">
        <ele>58.783299</ele>
        <time>2022-05-15T08:39:35.971Z</time>
      </trkpt>
      <trkpt lat="41.8004" lon="19.65869">
        <ele>59.113525</ele>
        <time>2022-05-15T08:39:39.932Z</time>
      </trkpt>
      <trkpt lat="41.8005" lon="19.65865">
        <ele>59.445376</ele>
        <time>2022-05-15T08:39:43.949Z</time>
      </trkpt>
      <trkpt lat="41.80058" lon="19.65861">
        <ele>59.756724</ele>
        <time>2022-05-15T08:39:47.953Z</time>
      </trkpt>
      <trkpt lat="41.80067" lon="19.65856">
        <ele>60.097966</ele>
        <time>2022-05-15T08:39:51.956Z</time>
      </trkpt>
      <trkpt lat="41.80077" lon="19.65851">
        <ele>60.443133</ele>
        <time>2022-05-15T08:39:56.957Z</time>
      </trkpt>
      <trkpt lat="41.80087" lon="19.65846">
        <ele>60.813387</ele>
        <time>2022-05-15T08:40:01.929Z</time>
      </trkpt>
      <trkpt lat="41.80097" lon="19.65841">
        <ele>61.170473</ele>
        <time>2022-05-15T08:40:06.949Z</time>
      </trkpt>
      <trkpt lat="41.80105" lon="19.65837">
        <ele>61.532517</ele>
        <time>2022-05-15T08:40:10.981Z</time>
      </trkpt>
      <trkpt lat="41.80115" lon="19.65832">
        <ele>61.917041</ele>
        <time>2022-05-15T08:40:15.935Z</time>
      </trkpt>
      <trkpt lat="41.80125" lon="19.65827">
        <ele>62.333141</ele>
        <time>2022-05-15T08:40:20.944Z</time>
      </trkpt>
      <trkpt lat="41.80135" lon="19.65821">
        <ele>62.743437</ele>
        <time>2022-05-15T08:40:25.932Z</time>
      </trkpt>
      <trkpt lat="41.80144" lon="19.65816">
        <ele>63.152007</ele>
        <time>2022-05-15T08:40:32.950Z</time>
      </trkpt>
      <trkpt lat="41.80153" lon="19.65812">
        <ele>63.50854</ele>
        <time>2022-05-15T08:40:38.955Z</time>
      </trkpt>
      <trkpt lat="41.80163" lon="19.65806">
        <ele>63.945791</ele>
        <time>2022-05-15T08:40:45.939Z</time>
      </trkpt>
      <trkpt lat="41.80173" lon="19.65801">
        <ele>64.331274</ele>
        <time>2022-05-15T08:40:51.952Z</time>
      </trkpt>
      <trkpt lat="41.80184" lon="19.65796">
        <ele>64.771614</ele>
        <time>2022-05-15T08:40:57.933Z</time>
      </trkpt>
      <trkpt lat="41.80192" lon="19.65792">
        <ele>65.125899</ele>
        <time>2022-05-15T08:41:03.948Z</time>
      </trkpt>
      <trkpt lat="41.80203" lon="19.65789">
        <ele>65.547516</ele>
        <time>2022-05-15T08:41:11.941Z</time>
      </trkpt>
      <trkpt lat="41.80213" lon="19.65789">
        <ele>65.926907</ele>
        <time>2022-05-15T08:41:17.949Z</time>
      </trkpt>
      <trkpt lat="41.80223" lon="19.65789">
        <ele>66.332459</ele>
        <time>2022-05-15T08:41:24.918Z</time>
      </trkpt>
      <trkpt lat="41.80233" lon="19.6579">
        <ele>66.706091</ele>
        <time>2022-05-15T08:41:30.916Z</time>
      </trkpt>
      <trkpt lat="41.80243" lon="19.65794">
        <ele>67.118678</ele>
        <time>2022-05-15T08:41:36.918Z</time>
      </trkpt>
      <trkpt lat="41.80254" lon="19.65798">
        <ele>67.539004</ele>
        <time>2022-05-15T08:41:41.931Z</time>
      </trkpt>
      <trkpt lat="41.80264" lon="19.65801">
        <ele>67.964981</ele>
        <time>2022-05-15T08:41:45.948Z</time>
      </trkpt>
      <trkpt lat="41.80273" lon="19.65803">
        <ele>68.268891</ele>
        <time>2022-05-15T08:41:48.923Z</time>
      </trkpt>
      <trkpt lat="41.80283" lon="19.65804">
        <ele>68.519576</ele>
        <time>2022-05-15T08:41:51.917Z</time>
      </trkpt>
      <trkpt lat="41.80294" lon="19.65804">
        <ele>68.782698</ele>
        <time>2022-05-15T08:41:54.914Z</time>
      </trkpt>
      <trkpt lat="41.80305" lon="19.65803">
        <ele>69.048481</ele>
        <time>2022-05-15T08:41:57.930Z</time>
      </trkpt>
      <trkpt lat="41.80315" lon="19.65802">
        <ele>69.309475</ele>
        <time>2022-05-15T08:42:00.920Z</time>
      </trkpt>
      <trkpt lat="41.80324" lon="19.65801">
        <ele>69.548819</ele>
        <time>2022-05-15T08:42:03.930Z</time>
      </trkpt>
      <trkpt lat="41.80336" lon="19.65797">
        <ele>69.838047</ele>
        <time>2022-05-15T08:42:07.944Z</time>
      </trkpt>
      <trkpt lat="41.80346" lon="19.65792">
        <ele>70.107849</ele>
        <time>2022-05-15T08:42:11.938Z</time>
      </trkpt>
      <trkpt lat="41.80355" lon="19.65784">
        <ele>70.380565</ele>
        <time>2022-05-15T08:42:15.921Z</time>
      </trkpt>
      <trkpt lat="41.80362" lon="19.65776">
        <ele>70.610005</ele>
        <time>2022-05-15T08:42:19.920Z</time>
      </trkpt>
      <trkpt lat="41.80369" lon="19.65766">
        <ele>70.870895</ele>
        <time>2022-05-15T08:42:23.930Z</time>
      </trkpt>
      <trkpt lat="41.80375" lon="19.65757">
        <ele>71.100134</ele>
        <time>2022-05-15T08:42:27.920Z</time>
      </trkpt>
      <trkpt lat="41.80381" lon="19.65747">
        <ele>71.338903</ele>
        <time>2022-05-15T08:42:31.921Z</time>
      </trkpt>
      <trkpt lat="41.80388" lon="19.65738">
        <ele>71.570159</ele>
        <time>2022-05-15T08:42:35.947Z</time>
      </trkpt>
      <trkpt lat="41.80394" lon="19.65727">
        <ele>71.832128</ele>
        <time>2022-05-15T08:42:39.933Z</time>
      </trkpt>
      <trkpt lat="41.80401" lon="19.65716">
        <ele>72.106316</ele>
        <time>2022-05-15T08:42:43.916Z</time>
      </trkpt>
      <trkpt lat="41.80407" lon="19.65706">
        <ele>72.338455</ele>
        <time>2022-05-15T08:42:47.935Z</time>
      </trkpt>
      <trkpt lat="41.80415" lon="19.65696">
        <ele>72.612095</ele>
        <time>2022-05-15T08:42:51.922Z</time>
      </trkpt>
      <trkpt lat="41.80422" lon="19.65685">
        <ele>72.985901</ele>
        <time>2022-05-15T08:42:55.911Z</time>
      </trkpt>
      <trkpt lat="41.80429" lon="19.65675">
        <ele>73.374493</ele>
        <time>2022-05-15T08:42:59.922Z</time>
      </trkpt>
      <trkpt lat="41.80437" lon="19.65665">
        <ele>73.780164</ele>
        <time>2022-05-15T08:43:03.923Z</time>
      </trkpt>
      <trkpt lat="41.80445" lon="19.65656">
        <ele>74.168566</ele>
        <time>2022-05-15T08:43:07.917Z</time>
      </trkpt>
      <trkpt lat="41.80453" lon="19.6565">
        <ele>74.528524</ele>
        <time>2022-05-15T08:43:11.917Z</time>
      </trkpt>
      <trkpt lat="41.80463" lon="19.65645">
        <ele>74.926268</ele>
        <time>2022-05-15T08:43:15.943Z</time>
      </trkpt>
      <trkpt lat="41.80473" lon="19.65642">
        <ele>75.326295</ele>
        <time>2022-05-15T08:43:19.916Z</time>
      </trkpt>
      <trkpt lat="41.80485" lon="19.6564">
        <ele>75.751128</ele>
        <time>2022-05-15T08:43:23.932Z</time>
      </trkpt>
      <trkpt lat="41.80495" lon="19.65638">
        <ele>76.131706</ele>
        <time>2022-05-15T08:43:27.912Z</time>
      </trkpt>
      <trkpt lat="41.80506" lon="19.65636">
        <ele>76.577169</ele>
        <time>2022-05-15T08:43:31.916Z</time>
      </trkpt>
      <trkpt lat="41.80517" lon="19.65634">
        <ele>76.966431</ele>
        <time>2022-05-15T08:43:35.912Z</time>
      </trkpt>
      <trkpt lat="41.80528" lon="19.65632">
        <ele>77.380474</ele>
        <time>2022-05-15T08:43:39.930Z</time>
      </trkpt>
      <trkpt lat="41.80537" lon="19.6563">
        <ele>77.741347</ele>
        <time>2022-05-15T08:43:42.921Z</time>
      </trkpt>
      <trkpt lat="41.80546" lon="19.65627">
        <ele>78.093745</ele>
        <time>2022-05-15T08:43:45.918Z</time>
      </trkpt>
      <trkpt lat="41.80556" lon="19.65624">
        <ele>78.474754</ele>
        <time>2022-05-15T08:43:49.916Z</time>
      </trkpt>
      <trkpt lat="41.80566" lon="19.65623">
        <ele>78.844095</ele>
        <time>2022-05-15T08:43:54.925Z</time>
      </trkpt>
      <trkpt lat="41.80575" lon="19.65622">
        <ele>79.185095</ele>
        <time>2022-05-15T08:43:58.926Z</time>
      </trkpt>
      <trkpt lat="41.80586" lon="19.6562">
        <ele>79.380413</ele>
        <time>2022-05-15T08:44:02.914Z</time>
      </trkpt>
      <trkpt lat="41.80596" lon="19.65618">
        <ele>79.202783</ele>
        <time>2022-05-15T08:44:06.926Z</time>
      </trkpt>
      <trkpt lat="41.80606" lon="19.65616">
        <ele>79.038197</ele>
        <time>2022-05-15T08:44:10.953Z</time>
      </trkpt>
      <trkpt lat="41.80616" lon="19.65613">
        <ele>78.867123</ele>
        <time>2022-05-15T08:44:15.916Z</time>
      </trkpt>
      <trkpt lat="41.80626" lon="19.65614">
        <ele>78.703323</ele>
        <time>2022-05-15T08:44:19.918Z</time>
      </trkpt>
      <trkpt lat="41.80637" lon="19.65611">
        <ele>78.525077</ele>
        <time>2022-05-15T08:44:24.916Z</time>
      </trkpt>
      <trkpt lat="41.80648" lon="19.6561">
        <ele>78.344732</ele>
        <time>2022-05-15T08:44:29.918Z</time>
      </trkpt>
      <trkpt lat="41.80659" lon="19.6561">
        <ele>78.159941</ele>
        <time>2022-05-15T08:44:34.914Z</time>
      </trkpt>
      <trkpt lat="41.8067" lon="19.6561">
        <ele>77.978416</ele>
        <time>2022-05-15T08:44:39.916Z</time>
      </trkpt>
      <trkpt lat="41.80679" lon="19.65613">
        <ele>77.825859</ele>
        <time>2022-05-15T08:44:43.915Z</time>
      </trkpt>
      <trkpt lat="41.80688" lon="19.65616">
        <ele>77.670189</ele>
        <time>2022-05-15T08:44:47.931Z</time>
      </trkpt>
      <trkpt lat="41.80697" lon="19.65617">
        <ele>77.520045</ele>
        <time>2022-05-15T08:44:51.916Z</time>
      </trkpt>
      <trkpt lat="41.80707" lon="19.65614">
        <ele>77.34827</ele>
        <time>2022-05-15T08:44:55.914Z</time>
      </trkpt>
      <trkpt lat="41.80718" lon="19.65611">
        <ele>77.165165</ele>
        <time>2022-05-15T08:44:59.941Z</time>
      </trkpt>
      <trkpt lat="41.80727" lon="19.65609">
        <ele>77.015378</ele>
        <time>2022-05-15T08:45:02.915Z</time>
      </trkpt>
      <trkpt lat="41.80737" lon="19.65607">
        <ele>76.859572</ele>
        <time>2022-05-15T08:45:05.919Z</time>
      </trkpt>
      <trkpt lat="41.80746" lon="19.65605">
        <ele>76.700515</ele>
        <time>2022-05-15T08:45:08.917Z</time>
      </trkpt>
      <trkpt lat="41.80756" lon="19.65602">
        <ele>76.533836</ele>
        <time>2022-05-15T08:45:11.921Z</time>
      </trkpt>
      <trkpt lat="41.80767" lon="19.65601">
        <ele>76.534171</ele>
        <time>2022-05-15T08:45:14.912Z</time>
      </trkpt>
      <trkpt lat="41.80778" lon="19.65602">
        <ele>76.616074</ele>
        <time>2022-05-15T08:45:17.915Z</time>
      </trkpt>
      <trkpt lat="41.8079" lon="19.65607">
        <ele>76.701508</ele>
        <time>2022-05-15T08:45:20.918Z</time>
      </trkpt>
      <trkpt lat="41.80799" lon="19.65617">
        <ele>76.787249</ele>
        <time>2022-05-15T08:45:23.984Z</time>
      </trkpt>
      <trkpt lat="41.80805" lon="19.65631">
        <ele>76.87097</ele>
        <time>2022-05-15T08:45:26.913Z</time>
      </trkpt>
      <trkpt lat="41.8081" lon="19.65645">
        <ele>76.956619</ele>
        <time>2022-05-15T08:45:29.915Z</time>
      </trkpt>
      <trkpt lat="41.80814" lon="19.65657">
        <ele>77.025489</ele>
        <time>2022-05-15T08:45:31.923Z</time>
      </trkpt>
      <trkpt lat="41.80818" lon="19.65669">
        <ele>77.09692</ele>
        <time>2022-05-15T08:45:33.913Z</time>
      </trkpt>
      <trkpt lat="41.80825" lon="19.65682">
        <ele>77.183035</ele>
        <time>2022-05-15T08:45:35.914Z</time>
      </trkpt>
      <trkpt lat="41.80833" lon="19.65691">
        <ele>77.25786</ele>
        <time>2022-05-15T08:45:37.933Z</time>
      </trkpt>
      <trkpt lat="41.80843" lon="19.65696">
        <ele>77.335771</ele>
        <time>2022-05-15T08:45:39.919Z</time>
      </trkpt>
      <trkpt lat="41.80856" lon="19.65701">
        <ele>77.428942</ele>
        <time>2022-05-15T08:45:41.922Z</time>
      </trkpt>
      <trkpt lat="41.80868" lon="19.65704">
        <ele>77.520033</ele>
        <time>2022-05-15T08:45:43.915Z</time>
      </trkpt>
      <trkpt lat="41.8088" lon="19.65707">
        <ele>77.601484</ele>
        <time>2022-05-15T08:45:45.935Z</time>
      </trkpt>
      <trkpt lat="41.8089" lon="19.65709">
        <ele>77.679762</ele>
        <time>2022-05-15T08:45:47.922Z</time>
      </trkpt>
      <trkpt lat="41.80901" lon="19.6571">
        <ele>77.753666</ele>
        <time>2022-05-15T08:45:49.922Z</time>
      </trkpt>
      <trkpt lat="41.8091" lon="19.65708">
        <ele>77.744208</ele>
        <time>2022-05-15T08:45:51.921Z</time>
      </trkpt>
      <trkpt lat="41.8092" lon="19.65703">
        <ele>77.706884</ele>
        <time>2022-05-15T08:45:54.916Z</time>
      </trkpt>
      <trkpt lat="41.80928" lon="19.65695">
        <ele>77.675269</ele>
        <time>2022-05-15T08:45:57.923Z</time>
      </trkpt>
      <trkpt lat="41.80935" lon="19.65686">
        <ele>77.64388</ele>
        <time>2022-05-15T08:46:00.912Z</time>
      </trkpt>
      <trkpt lat="41.80943" lon="19.65678">
        <ele>77.612248</ele>
        <time>2022-05-15T08:46:03.926Z</time>
      </trkpt>
      <trkpt lat="41.8095" lon="19.65669">
        <ele>77.582867</ele>
        <time>2022-05-15T08:46:06.916Z</time>
      </trkpt>
      <trkpt lat="41.80957" lon="19.65661">
        <ele>77.55196</ele>
        <time>2022-05-15T08:46:09.917Z</time>
      </trkpt>
      <trkpt lat="41.80964" lon="19.65651">
        <ele>77.517997</ele>
        <time>2022-05-15T08:46:12.914Z</time>
      </trkpt>
      <trkpt lat="41.80973" lon="19.65642">
        <ele>77.482992</ele>
        <time>2022-05-15T08:46:15.936Z</time>
      </trkpt>
      <trkpt lat="41.80981" lon="19.65632">
        <ele>77.44669</ele>
        <time>2022-05-15T08:46:18.916Z</time>
      </trkpt>
      <trkpt lat="41.80991" lon="19.65621">
        <ele>77.404104</ele>
        <time>2022-05-15T08:46:21.924Z</time>
      </trkpt>
      <trkpt lat="41.80998" lon="19.65613">
        <ele>77.374795</ele>
        <time>2022-05-15T08:46:23.918Z</time>
      </trkpt>
      <trkpt lat="41.81006" lon="19.65605">
        <ele>77.344436</ele>
        <time>2022-05-15T08:46:25.916Z</time>
      </trkpt>
      <trkpt lat="41.81014" lon="19.65597">
        <ele>77.312483</ele>
        <time>2022-05-15T08:46:27.922Z</time>
      </trkpt>
      <trkpt lat="41.81023" lon="19.65592">
        <ele>77.278458</ele>
        <time>2022-05-15T08:46:29.914Z</time>
      </trkpt>
      <trkpt lat="41.81034" lon="19.65588">
        <ele>77.242189</ele>
        <time>2022-05-15T08:46:31.920Z</time>
      </trkpt>
      <trkpt lat="41.81045" lon="19.65585">
        <ele>77.206648</ele>
        <time>2022-05-15T08:46:33.924Z</time>
      </trkpt>
      <trkpt lat="41.81055" lon="19.65581">
        <ele>77.099912</ele>
        <time>2022-05-15T08:46:35.913Z</time>
      </trkpt>
      <trkpt lat="41.81066" lon="19.65578">
        <ele>76.873727</ele>
        <time>2022-05-15T08:46:37.944Z</time>
      </trkpt>
      <trkpt lat="41.81079" lon="19.65576">
        <ele>76.632918</ele>
        <time>2022-05-15T08:46:39.911Z</time>
      </trkpt>
      <trkpt lat="41.81091" lon="19.65574">
        <ele>76.390322</ele>
        <time>2022-05-15T08:46:41.921Z</time>
      </trkpt>
      <trkpt lat="41.81102" lon="19.65572">
        <ele>76.167756</ele>
        <time>2022-05-15T08:46:43.933Z</time>
      </trkpt>
      <trkpt lat="41.81112" lon="19.65567">
        <ele>75.960782</ele>
        <time>2022-05-15T08:46:45.930Z</time>
      </trkpt>
      <trkpt lat="41.81121" lon="19.65562">
        <ele>75.762432</ele>
        <time>2022-05-15T08:46:47.918Z</time>
      </trkpt>
      <trkpt lat="41.8113" lon="19.65556">
        <ele>75.562979</ele>
        <time>2022-05-15T08:46:49.916Z</time>
      </trkpt>
      <trkpt lat="41.81139" lon="19.65548">
        <ele>75.357699</ele>
        <time>2022-05-15T08:46:51.919Z</time>
      </trkpt>
      <trkpt lat="41.81148" lon="19.6554">
        <ele>75.143607</ele>
        <time>2022-05-15T08:46:53.911Z</time>
      </trkpt>
      <trkpt lat="41.81157" lon="19.65533">
        <ele>74.939347</ele>
        <time>2022-05-15T08:46:55.923Z</time>
      </trkpt>
      <trkpt lat="41.81165" lon="19.65526">
        <ele>74.737544</ele>
        <time>2022-05-15T08:46:57.911Z</time>
      </trkpt>
      <trkpt lat="41.81177" lon="19.6552">
        <ele>74.483248</ele>
        <time>2022-05-15T08:47:00.918Z</time>
      </trkpt>
      <trkpt lat="41.81188" lon="19.65517">
        <ele>74.269855</ele>
        <time>2022-05-15T08:47:03.912Z</time>
      </trkpt>
      <trkpt lat="41.812" lon="19.65514">
        <ele>74.035106</ele>
        <time>2022-05-15T08:47:07.914Z</time>
      </trkpt>
      <trkpt lat="41.81211" lon="19.65512">
        <ele>73.801746</ele>
        <time>2022-05-15T08:47:11.936Z</time>
      </trkpt>
      <trkpt lat="41.81223" lon="19.65509">
        <ele>73.65996</ele>
        <time>2022-05-15T08:47:15.931Z</time>
      </trkpt>
      <trkpt lat="41.81234" lon="19.65506">
        <ele>73.742846</ele>
        <time>2022-05-15T08:47:19.916Z</time>
      </trkpt>
      <trkpt lat="41.81243" lon="19.65506">
        <ele>73.811025</ele>
        <time>2022-05-15T08:47:24.911Z</time>
      </trkpt>
      <trkpt lat="41.81233" lon="19.65503">
        <ele>73.886469</ele>
        <time>2022-05-15T08:47:40.937Z</time>
      </trkpt>
      <trkpt lat="41.81223" lon="19.65506">
        <ele>73.967964</ele>
        <time>2022-05-15T08:47:44.946Z</time>
      </trkpt>
      <trkpt lat="41.81213" lon="19.65508">
        <ele>74.037894</ele>
        <time>2022-05-15T08:47:47.970Z</time>
      </trkpt>
      <trkpt lat="41.81204" lon="19.6551">
        <ele>74.106712</ele>
        <time>2022-05-15T08:47:50.939Z</time>
      </trkpt>
      <trkpt lat="41.81195" lon="19.65512">
        <ele>74.178876</ele>
        <time>2022-05-15T08:47:53.973Z</time>
      </trkpt>
      <trkpt lat="41.81185" lon="19.65515">
        <ele>74.256758</ele>
        <time>2022-05-15T08:47:56.966Z</time>
      </trkpt>
      <trkpt lat="41.81175" lon="19.65519">
        <ele>74.338174</ele>
        <time>2022-05-15T08:47:59.928Z</time>
      </trkpt>
      <trkpt lat="41.81165" lon="19.65526">
        <ele>74.41857</ele>
        <time>2022-05-15T08:48:02.940Z</time>
      </trkpt>
      <trkpt lat="41.81156" lon="19.65533">
        <ele>74.500995</ele>
        <time>2022-05-15T08:48:05.944Z</time>
      </trkpt>
      <trkpt lat="41.81146" lon="19.65541">
        <ele>74.588642</ele>
        <time>2022-05-15T08:48:08.954Z</time>
      </trkpt>
      <trkpt lat="41.81137" lon="19.65549">
        <ele>74.667787</ele>
        <time>2022-05-15T08:48:11.938Z</time>
      </trkpt>
      <trkpt lat="41.81128" lon="19.65555">
        <ele>74.745344</ele>
        <time>2022-05-15T08:48:15.950Z</time>
      </trkpt>
      <trkpt lat="41.8112" lon="19.6556">
        <ele>74.814385</ele>
        <time>2022-05-15T08:48:20.952Z</time>
      </trkpt>
      <trkpt lat="41.81111" lon="19.65565">
        <ele>74.884805</ele>
        <time>2022-05-15T08:48:24.955Z</time>
      </trkpt>
      <trkpt lat="41.81101" lon="19.65569">
        <ele>74.967669</ele>
        <time>2022-05-15T08:48:30.006Z</time>
      </trkpt>
      <trkpt lat="41.8109" lon="19.65573">
        <ele>74.504738</ele>
        <time>2022-05-15T08:48:33.930Z</time>
      </trkpt>
      <trkpt lat="41.8108" lon="19.65575">
        <ele>73.94063</ele>
        <time>2022-05-15T08:48:36.928Z</time>
      </trkpt>
      <trkpt lat="41.81071" lon="19.65576">
        <ele>73.39645</ele>
        <time>2022-05-15T08:48:39.915Z</time>
      </trkpt>
      <trkpt lat="41.81061" lon="19.65578">
        <ele>72.742928</ele>
        <time>2022-05-15T08:48:43.926Z</time>
      </trkpt>
      <trkpt lat="41.8105" lon="19.65578">
        <ele>72.076288</ele>
        <time>2022-05-15T08:48:48.944Z</time>
      </trkpt>
      <trkpt lat="41.81047" lon="19.65565">
        <ele>71.46071</ele>
        <time>2022-05-15T08:48:52.912Z</time>
      </trkpt>
      <trkpt lat="41.81044" lon="19.65549">
        <ele>70.699358</ele>
        <time>2022-05-15T08:48:55.980Z</time>
      </trkpt>
      <trkpt lat="41.81041" lon="19.65537">
        <ele>70.125835</ele>
        <time>2022-05-15T08:48:57.918Z</time>
      </trkpt>
      <trkpt lat="41.81037" lon="19.65525">
        <ele>69.567005</ele>
        <time>2022-05-15T08:48:59.912Z</time>
      </trkpt>
      <trkpt lat="41.81034" lon="19.65514">
        <ele>69.018865</ele>
        <time>2022-05-15T08:49:01.915Z</time>
      </trkpt>
      <trkpt lat="41.81032" lon="19.65501">
        <ele>68.434312</ele>
        <time>2022-05-15T08:49:03.921Z</time>
      </trkpt>
      <trkpt lat="41.81031" lon="19.65487">
        <ele>67.788785</ele>
        <time>2022-05-15T08:49:05.916Z</time>
      </trkpt>
      <trkpt lat="41.8103" lon="19.65473">
        <ele>67.164964</ele>
        <time>2022-05-15T08:49:07.925Z</time>
      </trkpt>
      <trkpt lat="41.8103" lon="19.65456">
        <ele>66.401491</ele>
        <time>2022-05-15T08:49:10.919Z</time>
      </trkpt>
      <trkpt lat="41.81029" lon="19.65444">
        <ele>65.820144</ele>
        <time>2022-05-15T08:49:13.919Z</time>
      </trkpt>
      <trkpt lat="41.81027" lon="19.65431">
        <ele>65.249509</ele>
        <time>2022-05-15T08:49:16.925Z</time>
      </trkpt>
      <trkpt lat="41.81028" lon="19.65418">
        <ele>64.662264</ele>
        <time>2022-05-15T08:49:19.913Z</time>
      </trkpt>
      <trkpt lat="41.81032" lon="19.65402">
        <ele>63.804093</ele>
        <time>2022-05-15T08:49:22.925Z</time>
      </trkpt>
      <trkpt lat="41.81036" lon="19.6539">
        <ele>62.890882</ele>
        <time>2022-05-15T08:49:24.919Z</time>
      </trkpt>
      <trkpt lat="41.8104" lon="19.65377">
        <ele>61.965972</ele>
        <time>2022-05-15T08:49:26.956Z</time>
      </trkpt>
      <trkpt lat="41.81044" lon="19.6536">
        <ele>60.798568</ele>
        <time>2022-05-15T08:49:29.921Z</time>
      </trkpt>
      <trkpt lat="41.81045" lon="19.65348">
        <ele>59.999174</ele>
        <time>2022-05-15T08:49:31.919Z</time>
      </trkpt>
      <trkpt lat="41.81045" lon="19.65336">
        <ele>59.177806</ele>
        <time>2022-05-15T08:49:33.935Z</time>
      </trkpt>
      <trkpt lat="41.81045" lon="19.65321">
        <ele>58.228598</ele>
        <time>2022-05-15T08:49:35.930Z</time>
      </trkpt>
      <trkpt lat="41.81043" lon="19.65307">
        <ele>57.249114</ele>
        <time>2022-05-15T08:49:37.937Z</time>
      </trkpt>
      <trkpt lat="41.81042" lon="19.65293">
        <ele>56.324162</ele>
        <time>2022-05-15T08:49:39.915Z</time>
      </trkpt>
      <trkpt lat="41.81041" lon="19.65279">
        <ele>55.4049</ele>
        <time>2022-05-15T08:49:41.922Z</time>
      </trkpt>
      <trkpt lat="41.81041" lon="19.65264">
        <ele>54.428645</ele>
        <time>2022-05-15T08:49:43.926Z</time>
      </trkpt>
      <trkpt lat="41.81041" lon="19.65248">
        <ele>53.388406</ele>
        <time>2022-05-15T08:49:45.929Z</time>
      </trkpt>
      <trkpt lat="41.81042" lon="19.65233">
        <ele>52.338118</ele>
        <time>2022-05-15T08:49:47.919Z</time>
      </trkpt>
      <trkpt lat="41.81043" lon="19.65219">
        <ele>51.441778</ele>
        <time>2022-05-15T08:49:49.930Z</time>
      </trkpt>
      <trkpt lat="41.81043" lon="19.65202">
        <ele>50.294664</ele>
        <time>2022-05-15T08:49:52.919Z</time>
      </trkpt>
      <trkpt lat="41.81043" lon="19.65185">
        <ele>49.16852</ele>
        <time>2022-05-15T08:49:55.924Z</time>
      </trkpt>
      <trkpt lat="41.81042" lon="19.65169">
        <ele>48.114438</ele>
        <time>2022-05-15T08:49:58.924Z</time>
      </trkpt>
      <trkpt lat="41.81042" lon="19.65153">
        <ele>47.746926</ele>
        <time>2022-05-15T08:50:01.921Z</time>
      </trkpt>
      <trkpt lat="41.81042" lon="19.6514">
        <ele>47.43618</ele>
        <time>2022-05-15T08:50:03.924Z</time>
      </trkpt>
      <trkpt lat="41.81041" lon="19.65124">
        <ele>47.064381</ele>
        <time>2022-05-15T08:50:05.922Z</time>
      </trkpt>
      <trkpt lat="41.8104" lon="19.65107">
        <ele>46.669095</ele>
        <time>2022-05-15T08:50:07.928Z</time>
      </trkpt>
      <trkpt lat="41.8104" lon="19.65091">
        <ele>46.287966</ele>
        <time>2022-05-15T08:50:09.923Z</time>
      </trkpt>
      <trkpt lat="41.81039" lon="19.65078">
        <ele>45.991225</ele>
        <time>2022-05-15T08:50:11.920Z</time>
      </trkpt>
      <trkpt lat="41.81039" lon="19.65064">
        <ele>45.654407</ele>
        <time>2022-05-15T08:50:20.923Z</time>
      </trkpt>
      <trkpt lat="41.81038" lon="19.65051">
        <ele>45.358487</ele>
        <time>2022-05-15T08:50:23.924Z</time>
      </trkpt>
      <trkpt lat="41.81037" lon="19.65036">
        <ele>45.004457</ele>
        <time>2022-05-15T08:50:26.913Z</time>
      </trkpt>
      <trkpt lat="41.81036" lon="19.65021">
        <ele>44.639278</ele>
        <time>2022-05-15T08:50:29.916Z</time>
      </trkpt>
      <trkpt lat="41.81035" lon="19.65005">
        <ele>44.264033</ele>
        <time>2022-05-15T08:50:32.922Z</time>
      </trkpt>
      <trkpt lat="41.81034" lon="19.64988">
        <ele>43.884407</ele>
        <time>2022-05-15T08:50:35.912Z</time>
      </trkpt>
      <trkpt lat="41.81033" lon="19.64973">
        <ele>43.514091</ele>
        <time>2022-05-15T08:50:38.920Z</time>
      </trkpt>
      <trkpt lat="41.81032" lon="19.64957">
        <ele>43.140868</ele>
        <time>2022-05-15T08:50:41.935Z</time>
      </trkpt>
      <trkpt lat="41.81031" lon="19.64941">
        <ele>42.773359</ele>
        <time>2022-05-15T08:50:44.916Z</time>
      </trkpt>
      <trkpt lat="41.8103" lon="19.64926">
        <ele>42.483304</ele>
        <time>2022-05-15T08:50:47.915Z</time>
      </trkpt>
      <trkpt lat="41.81029" lon="19.6491">
        <ele>42.53364</ele>
        <time>2022-05-15T08:50:50.939Z</time>
      </trkpt>
      <trkpt lat="41.81028" lon="19.64895">
        <ele>42.583644</ele>
        <time>2022-05-15T08:50:53.936Z</time>
      </trkpt>
      <trkpt lat="41.81027" lon="19.6488">
        <ele>42.634468</ele>
        <time>2022-05-15T08:50:56.913Z</time>
      </trkpt>
      <trkpt lat="41.81026" lon="19.64865">
        <ele>42.685622</ele>
        <time>2022-05-15T08:50:59.926Z</time>
      </trkpt>
      <trkpt lat="41.81025" lon="19.64849">
        <ele>42.738943</ele>
        <time>2022-05-15T08:51:02.922Z</time>
      </trkpt>
      <trkpt lat="41.81024" lon="19.64832">
        <ele>42.793988</ele>
        <time>2022-05-15T08:51:05.916Z</time>
      </trkpt>
      <trkpt lat="41.81023" lon="19.64816">
        <ele>42.848999</ele>
        <time>2022-05-15T08:51:08.922Z</time>
      </trkpt>
      <trkpt lat="41.81022" lon="19.64799">
        <ele>42.905038</ele>
        <time>2022-05-15T08:51:11.913Z</time>
      </trkpt>
      <trkpt lat="41.81021" lon="19.64783">
        <ele>42.958224</ele>
        <time>2022-05-15T08:51:14.914Z</time>
      </trkpt>
      <trkpt lat="41.8102" lon="19.64768">
        <ele>43.010418</ele>
        <time>2022-05-15T08:51:17.913Z</time>
      </trkpt>
      <trkpt lat="41.81019" lon="19.64754">
        <ele>43.056691</ele>
        <time>2022-05-15T08:51:20.918Z</time>
      </trkpt>
      <trkpt lat="41.81019" lon="19.64741">
        <ele>43.099336</ele>
        <time>2022-05-15T08:51:23.919Z</time>
      </trkpt>
      <trkpt lat="41.81018" lon="19.64726">
        <ele>43.150405</ele>
        <time>2022-05-15T08:51:26.912Z</time>
      </trkpt>
      <trkpt lat="41.81017" lon="19.6471">
        <ele>43.204125</ele>
        <time>2022-05-15T08:51:29.931Z</time>
      </trkpt>
      <trkpt lat="41.81015" lon="19.64693">
        <ele>43.258877</ele>
        <time>2022-05-15T08:51:32.926Z</time>
      </trkpt>
      <trkpt lat="41.81015" lon="19.64677">
        <ele>43.367678</ele>
        <time>2022-05-15T08:51:35.921Z</time>
      </trkpt>
      <trkpt lat="41.81014" lon="19.64662">
        <ele>43.499838</ele>
        <time>2022-05-15T08:51:38.919Z</time>
      </trkpt>
      <trkpt lat="41.81013" lon="19.64647">
        <ele>43.631138</ele>
        <time>2022-05-15T08:51:41.921Z</time>
      </trkpt>
      <trkpt lat="41.81012" lon="19.64633">
        <ele>43.751112</ele>
        <time>2022-05-15T08:51:44.916Z</time>
      </trkpt>
      <trkpt lat="41.81011" lon="19.64617">
        <ele>43.884417</ele>
        <time>2022-05-15T08:51:47.917Z</time>
      </trkpt>
      <trkpt lat="41.81011" lon="19.64602">
        <ele>44.017997</ele>
        <time>2022-05-15T08:51:50.920Z</time>
      </trkpt>
      <trkpt lat="41.8101" lon="19.64587">
        <ele>44.151016</ele>
        <time>2022-05-15T08:51:53.914Z</time>
      </trkpt>
      <trkpt lat="41.81009" lon="19.64571">
        <ele>44.287558</ele>
        <time>2022-05-15T08:51:56.916Z</time>
      </trkpt>
      <trkpt lat="41.81009" lon="19.64555">
        <ele>44.421297</ele>
        <time>2022-05-15T08:51:59.919Z</time>
      </trkpt>
      <trkpt lat="41.81008" lon="19.64539">
        <ele>44.561275</ele>
        <time>2022-05-15T08:52:02.956Z</time>
      </trkpt>
      <trkpt lat="41.81006" lon="19.64525">
        <ele>44.684699</ele>
        <time>2022-05-15T08:52:05.930Z</time>
      </trkpt>
      <trkpt lat="41.81006" lon="19.6451">
        <ele>44.813955</ele>
        <time>2022-05-15T08:52:08.929Z</time>
      </trkpt>
      <trkpt lat="41.81006" lon="19.64494">
        <ele>44.948396</ele>
        <time>2022-05-15T08:52:11.924Z</time>
      </trkpt>
      <trkpt lat="41.81006" lon="19.64479">
        <ele>45.081099</ele>
        <time>2022-05-15T08:52:14.916Z</time>
      </trkpt>
      <trkpt lat="41.81005" lon="19.64464">
        <ele>45.210768</ele>
        <time>2022-05-15T08:52:17.982Z</time>
      </trkpt>
      <trkpt lat="41.81005" lon="19.6445">
        <ele>45.333213</ele>
        <time>2022-05-15T08:52:20.912Z</time>
      </trkpt>
      <trkpt lat="41.81004" lon="19.64436">
        <ele>45.063217</ele>
        <time>2022-05-15T08:52:23.922Z</time>
      </trkpt>
      <trkpt lat="41.81004" lon="19.64423">
        <ele>44.707856</ele>
        <time>2022-05-15T08:52:26.918Z</time>
      </trkpt>
      <trkpt lat="41.81006" lon="19.64409">
        <ele>44.336553</ele>
        <time>2022-05-15T08:52:29.942Z</time>
      </trkpt>
      <trkpt lat="41.81015" lon="19.64402">
        <ele>43.965574</ele>
        <time>2022-05-15T08:52:32.910Z</time>
      </trkpt>
      <trkpt lat="41.81026" lon="19.64398">
        <ele>43.565719</ele>
        <time>2022-05-15T08:52:35.915Z</time>
      </trkpt>
      <trkpt lat="41.81038" lon="19.64394">
        <ele>43.132465</ele>
        <time>2022-05-15T08:52:38.921Z</time>
      </trkpt>
      <trkpt lat="41.8105" lon="19.64391">
        <ele>42.702104</ele>
        <time>2022-05-15T08:52:41.919Z</time>
      </trkpt>
      <trkpt lat="41.81062" lon="19.64387">
        <ele>42.260752</ele>
        <time>2022-05-15T08:52:44.911Z</time>
      </trkpt>
      <trkpt lat="41.81075" lon="19.64384">
        <ele>41.807685</ele>
        <time>2022-05-15T08:52:47.913Z</time>
      </trkpt>
      <trkpt lat="41.81083" lon="19.64381">
        <ele>41.484309</ele>
        <time>2022-05-15T08:52:49.915Z</time>
      </trkpt>
      <trkpt lat="41.81096" lon="19.64378">
        <ele>41.030189</ele>
        <time>2022-05-15T08:52:52.907Z</time>
      </trkpt>
      <trkpt lat="41.81108" lon="19.64374">
        <ele>40.57955</ele>
        <time>2022-05-15T08:52:55.923Z</time>
      </trkpt>
      <trkpt lat="41.81121" lon="19.64372">
        <ele>40.126578</ele>
        <time>2022-05-15T08:52:58.918Z</time>
      </trkpt>
      <trkpt lat="41.81134" lon="19.64369">
        <ele>39.661415</ele>
        <time>2022-05-15T08:53:01.918Z</time>
      </trkpt>
      <trkpt lat="41.81146" lon="19.64366">
        <ele>39.219328</ele>
        <time>2022-05-15T08:53:04.921Z</time>
      </trkpt>
      <trkpt lat="41.81158" lon="19.64364">
        <ele>38.991013</ele>
        <time>2022-05-15T08:53:07.919Z</time>
      </trkpt>
      <trkpt lat="41.8117" lon="19.64361">
        <ele>39.079936</ele>
        <time>2022-05-15T08:53:10.913Z</time>
      </trkpt>
      <trkpt lat="41.81182" lon="19.64359">
        <ele>39.166898</ele>
        <time>2022-05-15T08:53:13.914Z</time>
      </trkpt>
      <trkpt lat="41.81194" lon="19.64357">
        <ele>39.253345</ele>
        <time>2022-05-15T08:53:16.920Z</time>
      </trkpt>
      <trkpt lat="41.81206" lon="19.64356">
        <ele>39.339255</ele>
        <time>2022-05-15T08:53:19.915Z</time>
      </trkpt>
      <trkpt lat="41.81218" lon="19.64356">
        <ele>39.425187</ele>
        <time>2022-05-15T08:53:22.918Z</time>
      </trkpt>
      <trkpt lat="41.8123" lon="19.64355">
        <ele>39.511118</ele>
        <time>2022-05-15T08:53:25.920Z</time>
      </trkpt>
      <trkpt lat="41.81242" lon="19.64354">
        <ele>39.599174</ele>
        <time>2022-05-15T08:53:28.920Z</time>
      </trkpt>
      <trkpt lat="41.81255" lon="19.64354">
        <ele>39.690057</ele>
        <time>2022-05-15T08:53:31.932Z</time>
      </trkpt>
      <trkpt lat="41.81268" lon="19.64354">
        <ele>39.78093</ele>
        <time>2022-05-15T08:53:34.912Z</time>
      </trkpt>
      <trkpt lat="41.8128" lon="19.64354">
        <ele>39.871788</ele>
        <time>2022-05-15T08:53:37.917Z</time>
      </trkpt>
      <trkpt lat="41.81293" lon="19.64354">
        <ele>39.959071</ele>
        <time>2022-05-15T08:53:40.942Z</time>
      </trkpt>
      <trkpt lat="41.81304" lon="19.64354">
        <ele>40.041345</ele>
        <time>2022-05-15T08:53:43.924Z</time>
      </trkpt>
      <trkpt lat="41.81317" lon="19.64354">
        <ele>40.130851</ele>
        <time>2022-05-15T08:53:46.914Z</time>
      </trkpt>
      <trkpt lat="41.81329" lon="19.64355">
        <ele>40.218951</ele>
        <time>2022-05-15T08:53:49.915Z</time>
      </trkpt>
      <trkpt lat="41.81341" lon="19.64356">
        <ele>40.2119</ele>
        <time>2022-05-15T08:53:52.912Z</time>
      </trkpt>
      <trkpt lat="41.81354" lon="19.64358">
        <ele>40.157189</ele>
        <time>2022-05-15T08:53:55.915Z</time>
      </trkpt>
      <trkpt lat="41.81367" lon="19.64359">
        <ele>40.104156</ele>
        <time>2022-05-15T08:53:58.919Z</time>
      </trkpt>
      <trkpt lat="41.8138" lon="19.6436">
        <ele>40.0519</ele>
        <time>2022-05-15T08:54:01.915Z</time>
      </trkpt>
      <trkpt lat="41.81392" lon="19.64361">
        <ele>40.003371</ele>
        <time>2022-05-15T08:54:04.910Z</time>
      </trkpt>
      <trkpt lat="41.81405" lon="19.64361">
        <ele>39.950855</ele>
        <time>2022-05-15T08:54:07.921Z</time>
      </trkpt>
      <trkpt lat="41.81417" lon="19.64362">
        <ele>39.900279</ele>
        <time>2022-05-15T08:54:10.924Z</time>
      </trkpt>
      <trkpt lat="41.8143" lon="19.64362">
        <ele>39.846529</ele>
        <time>2022-05-15T08:54:13.950Z</time>
      </trkpt>
      <trkpt lat="41.81443" lon="19.6436">
        <ele>39.794603</ele>
        <time>2022-05-15T08:54:16.928Z</time>
      </trkpt>
      <trkpt lat="41.81455" lon="19.64358">
        <ele>39.741984</ele>
        <time>2022-05-15T08:54:19.919Z</time>
      </trkpt>
      <trkpt lat="41.81468" lon="19.64355">
        <ele>39.687608</ele>
        <time>2022-05-15T08:54:22.914Z</time>
      </trkpt>
      <trkpt lat="41.81477" lon="19.64352">
        <ele>39.649633</ele>
        <time>2022-05-15T08:54:24.917Z</time>
      </trkpt>
      <trkpt lat="41.81487" lon="19.64349">
        <ele>39.61014</ele>
        <time>2022-05-15T08:54:26.921Z</time>
      </trkpt>
      <trkpt lat="41.81496" lon="19.64345">
        <ele>39.569861</ele>
        <time>2022-05-15T08:54:28.918Z</time>
      </trkpt>
      <trkpt lat="41.81505" lon="19.64341">
        <ele>39.53085</ele>
        <time>2022-05-15T08:54:30.927Z</time>
      </trkpt>
      <trkpt lat="41.81514" lon="19.64337">
        <ele>39.517117</ele>
        <time>2022-05-15T08:54:32.939Z</time>
      </trkpt>
      <trkpt lat="41.81523" lon="19.64334">
        <ele>39.53684</ele>
        <time>2022-05-15T08:54:34.922Z</time>
      </trkpt>
      <trkpt lat="41.81533" lon="19.64332">
        <ele>39.556748</ele>
        <time>2022-05-15T08:54:36.923Z</time>
      </trkpt>
      <trkpt lat="41.81542" lon="19.64332">
        <ele>39.576671</ele>
        <time>2022-05-15T08:54:38.922Z</time>
      </trkpt>
      <trkpt lat="41.81555" lon="19.64336">
        <ele>39.604176</ele>
        <time>2022-05-15T08:54:41.919Z</time>
      </trkpt>
      <trkpt lat="41.81566" lon="19.64341">
        <ele>39.629575</ele>
        <time>2022-05-15T08:54:44.911Z</time>
      </trkpt>
      <trkpt lat="41.81575" lon="19.64346">
        <ele>39.648972</ele>
        <time>2022-05-15T08:54:46.923Z</time>
      </trkpt>
      <trkpt lat="41.81586" lon="19.64354">
        <ele>39.675768</ele>
        <time>2022-05-15T08:54:49.913Z</time>
      </trkpt>
      <trkpt lat="41.81596" lon="19.64363">
        <ele>39.701381</ele>
        <time>2022-05-15T08:54:52.926Z</time>
      </trkpt>
      <trkpt lat="41.81605" lon="19.64369">
        <ele>39.721115</ele>
        <time>2022-05-15T08:54:54.944Z</time>
      </trkpt>
      <trkpt lat="41.81614" lon="19.64373">
        <ele>39.742437</ele>
        <time>2022-05-15T08:54:56.919Z</time>
      </trkpt>
      <trkpt lat="41.81625" lon="19.64374">
        <ele>39.763859</ele>
        <time>2022-05-15T08:54:58.924Z</time>
      </trkpt>
      <trkpt lat="41.81634" lon="19.64374">
        <ele>39.784618</ele>
        <time>2022-05-15T08:55:00.914Z</time>
      </trkpt>
      <trkpt lat="41.81644" lon="19.64374">
        <ele>39.803697</ele>
        <time>2022-05-15T08:55:02.923Z</time>
      </trkpt>
      <trkpt lat="41.81656" lon="19.64373">
        <ele>39.830131</ele>
        <time>2022-05-15T08:55:05.918Z</time>
      </trkpt>
      <trkpt lat="41.81668" lon="19.64372">
        <ele>39.854327</ele>
        <time>2022-05-15T08:55:08.917Z</time>
      </trkpt>
      <trkpt lat="41.8168" lon="19.64371">
        <ele>39.880355</ele>
        <time>2022-05-15T08:55:11.924Z</time>
      </trkpt>
      <trkpt lat="41.81693" lon="19.6437">
        <ele>39.851395</ele>
        <time>2022-05-15T08:55:14.911Z</time>
      </trkpt>
      <trkpt lat="41.81705" lon="19.64369">
        <ele>39.810697</ele>
        <time>2022-05-15T08:55:17.930Z</time>
      </trkpt>
      <trkpt lat="41.81717" lon="19.64368">
        <ele>39.769654</ele>
        <time>2022-05-15T08:55:20.916Z</time>
      </trkpt>
      <trkpt lat="41.81729" lon="19.64368">
        <ele>39.729671</ele>
        <time>2022-05-15T08:55:23.932Z</time>
      </trkpt>
      <trkpt lat="41.81741" lon="19.64369">
        <ele>39.690009</ele>
        <time>2022-05-15T08:55:26.947Z</time>
      </trkpt>
      <trkpt lat="41.81753" lon="19.64369">
        <ele>39.650693</ele>
        <time>2022-05-15T08:55:29.928Z</time>
      </trkpt>
      <trkpt lat="41.81764" lon="19.6437">
        <ele>39.615332</ele>
        <time>2022-05-15T08:55:32.942Z</time>
      </trkpt>
      <trkpt lat="41.81775" lon="19.64369">
        <ele>39.578014</ele>
        <time>2022-05-15T08:55:35.931Z</time>
      </trkpt>
      <trkpt lat="41.81786" lon="19.64368">
        <ele>39.541199</ele>
        <time>2022-05-15T08:55:38.919Z</time>
      </trkpt>
      <trkpt lat="41.81797" lon="19.64366">
        <ele>39.503519</ele>
        <time>2022-05-15T08:55:41.930Z</time>
      </trkpt>
      <trkpt lat="41.81807" lon="19.64362">
        <ele>39.468998</ele>
        <time>2022-05-15T08:55:44.921Z</time>
      </trkpt>
      <trkpt lat="41.81817" lon="19.64359">
        <ele>39.433095</ele>
        <time>2022-05-15T08:55:48.917Z</time>
      </trkpt>
      <trkpt lat="41.81827" lon="19.64358">
        <ele>39.402245</ele>
        <time>2022-05-15T08:55:51.922Z</time>
      </trkpt>
      <trkpt lat="41.81837" lon="19.64356">
        <ele>39.368958</ele>
        <time>2022-05-15T08:55:54.913Z</time>
      </trkpt>
      <trkpt lat="41.81847" lon="19.64355">
        <ele>39.334863</ele>
        <time>2022-05-15T08:55:57.914Z</time>
      </trkpt>
      <trkpt lat="41.81857" lon="19.64352">
        <ele>39.298607</ele>
        <time>2022-05-15T08:56:00.935Z</time>
      </trkpt>
      <trkpt lat="41.81869" lon="19.6435">
        <ele>39.411105</ele>
        <time>2022-05-15T08:56:03.916Z</time>
      </trkpt>
      <trkpt lat="41.81881" lon="19.64349">
        <ele>39.608163</ele>
        <time>2022-05-15T08:56:06.920Z</time>
      </trkpt>
      <trkpt lat="41.81892" lon="19.64347">
        <ele>39.791451</ele>
        <time>2022-05-15T08:56:09.933Z</time>
      </trkpt>
      <trkpt lat="41.81903" lon="19.64344">
        <ele>39.976122</ele>
        <time>2022-05-15T08:56:13.917Z</time>
      </trkpt>
      <trkpt lat="41.81912" lon="19.64339">
        <ele>40.141454</ele>
        <time>2022-05-15T08:56:17.942Z</time>
      </trkpt>
      <trkpt lat="41.81922" lon="19.64335">
        <ele>40.313151</ele>
        <time>2022-05-15T08:56:20.920Z</time>
      </trkpt>
      <trkpt lat="41.81933" lon="19.64332">
        <ele>40.496686</ele>
        <time>2022-05-15T08:56:23.931Z</time>
      </trkpt>
      <trkpt lat="41.81944" lon="19.6433">
        <ele>40.674784</ele>
        <time>2022-05-15T08:56:26.926Z</time>
      </trkpt>
      <trkpt lat="41.81955" lon="19.64328">
        <ele>40.860705</ele>
        <time>2022-05-15T08:56:29.914Z</time>
      </trkpt>
      <trkpt lat="41.81966" lon="19.64327">
        <ele>41.042887</ele>
        <time>2022-05-15T08:56:32.920Z</time>
      </trkpt>
      <trkpt lat="41.81978" lon="19.64324">
        <ele>41.226531</ele>
        <time>2022-05-15T08:56:35.925Z</time>
      </trkpt>
      <trkpt lat="41.81988" lon="19.64323">
        <ele>41.394058</ele>
        <time>2022-05-15T08:56:38.942Z</time>
      </trkpt>
      <trkpt lat="41.81998" lon="19.6432">
        <ele>41.559263</ele>
        <time>2022-05-15T08:56:42.919Z</time>
      </trkpt>
      <trkpt lat="41.81998" lon="19.64305">
        <ele>41.739634</ele>
        <time>2022-05-15T08:56:47.913Z</time>
      </trkpt>
      <trkpt lat="41.81997" lon="19.64292">
        <ele>41.900687</ele>
        <time>2022-05-15T08:56:50.918Z</time>
      </trkpt>
      <trkpt lat="41.81997" lon="19.64278">
        <ele>42.06897</ele>
        <time>2022-05-15T08:56:53.918Z</time>
      </trkpt>
      <trkpt lat="41.81996" lon="19.64265">
        <ele>42.23311</ele>
        <time>2022-05-15T08:56:56.912Z</time>
      </trkpt>
      <trkpt lat="41.81996" lon="19.64249">
        <ele>42.448484</ele>
        <time>2022-05-15T08:57:00.943Z</time>
      </trkpt>
      <trkpt lat="41.81997" lon="19.64237">
        <ele>42.611977</ele>
        <time>2022-05-15T08:57:03.919Z</time>
      </trkpt>
      <trkpt lat="41.81998" lon="19.64222">
        <ele>42.806199</ele>
        <time>2022-05-15T08:57:07.912Z</time>
      </trkpt>
      <trkpt lat="41.82003" lon="19.64212">
        <ele>42.974661</ele>
        <time>2022-05-15T08:57:12.906Z</time>
      </trkpt>
      <trkpt lat="41.82014" lon="19.64215">
        <ele>43.178889</ele>
        <time>2022-05-15T08:57:16.949Z</time>
      </trkpt>
      <trkpt lat="41.82024" lon="19.64217">
        <ele>43.369246</ele>
        <time>2022-05-15T08:57:20.917Z</time>
      </trkpt>
      <trkpt lat="41.82035" lon="19.6422">
        <ele>43.561359</ele>
        <time>2022-05-15T08:57:24.923Z</time>
      </trkpt>
      <trkpt lat="41.82044" lon="19.64222">
        <ele>43.724558</ele>
        <time>2022-05-15T08:57:27.925Z</time>
      </trkpt>
      <trkpt lat="41.82053" lon="19.64225">
        <ele>43.894929</ele>
        <time>2022-05-15T08:57:30.920Z</time>
      </trkpt>
      <trkpt lat="41.82063" lon="19.64228">
        <ele>44.082689</ele>
        <time>2022-05-15T08:57:33.919Z</time>
      </trkpt>
      <trkpt lat="41.82073" lon="19.6423">
        <ele>44.259831</ele>
        <time>2022-05-15T08:57:36.915Z</time>
      </trkpt>
      <trkpt lat="41.82082" lon="19.64233">
        <ele>44.439505</ele>
        <time>2022-05-15T08:57:39.914Z</time>
      </trkpt>
      <trkpt lat="41.82093" lon="19.64235">
        <ele>44.63443</ele>
        <time>2022-05-15T08:57:42.943Z</time>
      </trkpt>
      <trkpt lat="41.82103" lon="19.64236">
        <ele>44.814856</ele>
        <time>2022-05-15T08:57:45.917Z</time>
      </trkpt>
      <trkpt lat="41.82113" lon="19.64238">
        <ele>44.999896</ele>
        <time>2022-05-15T08:57:48.925Z</time>
      </trkpt>
      <trkpt lat="41.82124" lon="19.64239">
        <ele>45.199577</ele>
        <time>2022-05-15T08:57:51.922Z</time>
      </trkpt>
      <trkpt lat="41.82135" lon="19.6424">
        <ele>45.389511</ele>
        <time>2022-05-15T08:57:54.929Z</time>
      </trkpt>
      <trkpt lat="41.82145" lon="19.6424">
        <ele>45.43927</ele>
        <time>2022-05-15T08:57:57.920Z</time>
      </trkpt>
      <trkpt lat="41.82155" lon="19.6424">
        <ele>45.373086</ele>
        <time>2022-05-15T08:58:00.912Z</time>
      </trkpt>
      <trkpt lat="41.82166" lon="19.64239">
        <ele>45.307559</ele>
        <time>2022-05-15T08:58:03.920Z</time>
      </trkpt>
      <trkpt lat="41.82177" lon="19.64238">
        <ele>45.235282</ele>
        <time>2022-05-15T08:58:06.920Z</time>
      </trkpt>
      <trkpt lat="41.82188" lon="19.64236">
        <ele>45.164001</ele>
        <time>2022-05-15T08:58:09.915Z</time>
      </trkpt>
      <trkpt lat="41.82199" lon="19.64233">
        <ele>45.092014</ele>
        <time>2022-05-15T08:58:12.915Z</time>
      </trkpt>
      <trkpt lat="41.82211" lon="19.64229">
        <ele>45.011903</ele>
        <time>2022-05-15T08:58:15.915Z</time>
      </trkpt>
      <trkpt lat="41.82223" lon="19.64225">
        <ele>44.933631</ele>
        <time>2022-05-15T08:58:18.923Z</time>
      </trkpt>
      <trkpt lat="41.82235" lon="19.64221">
        <ele>44.854617</ele>
        <time>2022-05-15T08:58:21.913Z</time>
      </trkpt>
      <trkpt lat="41.82247" lon="19.64216">
        <ele>44.772703</ele>
        <time>2022-05-15T08:58:24.917Z</time>
      </trkpt>
      <trkpt lat="41.82259" lon="19.64211">
        <ele>44.689421</ele>
        <time>2022-05-15T08:58:27.918Z</time>
      </trkpt>
      <trkpt lat="41.82271" lon="19.64206">
        <ele>44.612406</ele>
        <time>2022-05-15T08:58:30.926Z</time>
      </trkpt>
      <trkpt lat="41.82282" lon="19.64201">
        <ele>44.53521</ele>
        <time>2022-05-15T08:58:33.942Z</time>
      </trkpt>
      <trkpt lat="41.82294" lon="19.64196">
        <ele>44.4585</ele>
        <time>2022-05-15T08:58:36.914Z</time>
      </trkpt>
      <trkpt lat="41.82305" lon="19.64191">
        <ele>44.382672</ele>
        <time>2022-05-15T08:58:39.919Z</time>
      </trkpt>
      <trkpt lat="41.82316" lon="19.64187">
        <ele>44.370367</ele>
        <time>2022-05-15T08:58:42.915Z</time>
      </trkpt>
      <trkpt lat="41.82325" lon="19.64183">
        <ele>44.65872</ele>
        <time>2022-05-15T08:58:45.920Z</time>
      </trkpt>
      <trkpt lat="41.82335" lon="19.64179">
        <ele>44.946334</ele>
        <time>2022-05-15T08:58:48.927Z</time>
      </trkpt>
      <trkpt lat="41.82344" lon="19.64174">
        <ele>45.247731</ele>
        <time>2022-05-15T08:58:51.915Z</time>
      </trkpt>
      <trkpt lat="41.82355" lon="19.64169">
        <ele>45.560768</ele>
        <time>2022-05-15T08:58:54.911Z</time>
      </trkpt>
      <trkpt lat="41.82364" lon="19.64164">
        <ele>45.859785</ele>
        <time>2022-05-15T08:58:57.914Z</time>
      </trkpt>
      <trkpt lat="41.82374" lon="19.64159">
        <ele>46.161182</ele>
        <time>2022-05-15T08:59:00.914Z</time>
      </trkpt>
      <trkpt lat="41.82385" lon="19.64153">
        <ele>46.497029</ele>
        <time>2022-05-15T08:59:03.918Z</time>
      </trkpt>
      <trkpt lat="41.82396" lon="19.64147">
        <ele>46.840908</ele>
        <time>2022-05-15T08:59:06.915Z</time>
      </trkpt>
      <trkpt lat="41.82408" lon="19.6414">
        <ele>47.234857</ele>
        <time>2022-05-15T08:59:09.916Z</time>
      </trkpt>
      <trkpt lat="41.8242" lon="19.64133">
        <ele>47.620838</ele>
        <time>2022-05-15T08:59:12.944Z</time>
      </trkpt>
      <trkpt lat="41.82429" lon="19.64128">
        <ele>47.888757</ele>
        <time>2022-05-15T08:59:14.916Z</time>
      </trkpt>
      <trkpt lat="41.82437" lon="19.64123">
        <ele>48.153132</ele>
        <time>2022-05-15T08:59:16.915Z</time>
      </trkpt>
      <trkpt lat="41.82446" lon="19.64118">
        <ele>48.418392</ele>
        <time>2022-05-15T08:59:18.919Z</time>
      </trkpt>
      <trkpt lat="41.82454" lon="19.64113">
        <ele>48.685403</ele>
        <time>2022-05-15T08:59:20.911Z</time>
      </trkpt>
      <trkpt lat="41.82467" lon="19.64105">
        <ele>49.089897</ele>
        <time>2022-05-15T08:59:23.955Z</time>
      </trkpt>
      <trkpt lat="41.82477" lon="19.641">
        <ele>49.394863</ele>
        <time>2022-05-15T08:59:25.923Z</time>
      </trkpt>
      <trkpt lat="41.82487" lon="19.64094">
        <ele>49.211782</ele>
        <time>2022-05-15T08:59:27.924Z</time>
      </trkpt>
      <trkpt lat="41.82497" lon="19.64087">
        <ele>48.655992</ele>
        <time>2022-05-15T08:59:29.923Z</time>
      </trkpt>
      <trkpt lat="41.82506" lon="19.64081">
        <ele>48.1546</ele>
        <time>2022-05-15T08:59:31.920Z</time>
      </trkpt>
      <trkpt lat="41.82518" lon="19.64074">
        <ele>47.497514</ele>
        <time>2022-05-15T08:59:34.921Z</time>
      </trkpt>
      <trkpt lat="41.8253" lon="19.64066">
        <ele>46.83702</ele>
        <time>2022-05-15T08:59:37.919Z</time>
      </trkpt>
      <trkpt lat="41.82539" lon="19.6406">
        <ele>46.384053</ele>
        <time>2022-05-15T08:59:39.943Z</time>
      </trkpt>
      <trkpt lat="41.82547" lon="19.64055">
        <ele>45.917571</ele>
        <time>2022-05-15T08:59:41.918Z</time>
      </trkpt>
      <trkpt lat="41.82556" lon="19.64049">
        <ele>45.4315</ele>
        <time>2022-05-15T08:59:43.922Z</time>
      </trkpt>
      <trkpt lat="41.82565" lon="19.64044">
        <ele>44.973839</ele>
        <time>2022-05-15T08:59:45.923Z</time>
      </trkpt>
      <trkpt lat="41.82573" lon="19.64038">
        <ele>44.511773</ele>
        <time>2022-05-15T08:59:47.930Z</time>
      </trkpt>
      <trkpt lat="41.82582" lon="19.64032">
        <ele>44.04371</ele>
        <time>2022-05-15T08:59:49.920Z</time>
      </trkpt>
      <trkpt lat="41.8259" lon="19.64027">
        <ele>43.581644</ele>
        <time>2022-05-15T08:59:51.929Z</time>
      </trkpt>
      <trkpt lat="41.82599" lon="19.64021">
        <ele>43.120737</ele>
        <time>2022-05-15T08:59:53.920Z</time>
      </trkpt>
      <trkpt lat="41.82611" lon="19.64014">
        <ele>42.469431</ele>
        <time>2022-05-15T08:59:56.915Z</time>
      </trkpt>
      <trkpt lat="41.82622" lon="19.64006">
        <ele>41.843614</ele>
        <time>2022-05-15T08:59:59.924Z</time>
      </trkpt>
      <trkpt lat="41.82634" lon="19.64">
        <ele>41.225234</ele>
        <time>2022-05-15T09:00:02.951Z</time>
      </trkpt>
      <trkpt lat="41.82645" lon="19.63992">
        <ele>40.710582</ele>
        <time>2022-05-15T09:00:05.935Z</time>
      </trkpt>
      <trkpt lat="41.82657" lon="19.63985">
        <ele>40.651893</ele>
        <time>2022-05-15T09:00:08.921Z</time>
      </trkpt>
      <trkpt lat="41.82669" lon="19.63977">
        <ele>40.591697</ele>
        <time>2022-05-15T09:00:11.923Z</time>
      </trkpt>
      <trkpt lat="41.82681" lon="19.6397">
        <ele>40.531914</ele>
        <time>2022-05-15T09:00:14.917Z</time>
      </trkpt>
      <trkpt lat="41.8269" lon="19.63965">
        <ele>40.491038</ele>
        <time>2022-05-15T09:00:16.916Z</time>
      </trkpt>
      <trkpt lat="41.82702" lon="19.63959">
        <ele>40.431772</ele>
        <time>2022-05-15T09:00:19.924Z</time>
      </trkpt>
      <trkpt lat="41.82713" lon="19.63952">
        <ele>40.373509</ele>
        <time>2022-05-15T09:00:22.919Z</time>
      </trkpt>
      <trkpt lat="41.82725" lon="19.63945">
        <ele>40.315921</ele>
        <time>2022-05-15T09:00:25.929Z</time>
      </trkpt>
      <trkpt lat="41.82737" lon="19.63939">
        <ele>40.255878</ele>
        <time>2022-05-15T09:00:28.919Z</time>
      </trkpt>
      <trkpt lat="41.8275" lon="19.63932">
        <ele>40.195595</ele>
        <time>2022-05-15T09:00:31.925Z</time>
      </trkpt>
      <trkpt lat="41.82762" lon="19.63927">
        <ele>40.135692</ele>
        <time>2022-05-15T09:00:34.941Z</time>
      </trkpt>
      <trkpt lat="41.82771" lon="19.63923">
        <ele>40.094281</ele>
        <time>2022-05-15T09:00:36.919Z</time>
      </trkpt>
      <trkpt lat="41.8278" lon="19.6392">
        <ele>40.053259</ele>
        <time>2022-05-15T09:00:38.923Z</time>
      </trkpt>
      <trkpt lat="41.82789" lon="19.63916">
        <ele>40.011515</ele>
        <time>2022-05-15T09:00:40.960Z</time>
      </trkpt>
      <trkpt lat="41.82797" lon="19.63913">
        <ele>39.970303</ele>
        <time>2022-05-15T09:00:42.916Z</time>
      </trkpt>
      <trkpt lat="41.82806" lon="19.63909">
        <ele>39.929092</ele>
        <time>2022-05-15T09:00:44.919Z</time>
      </trkpt>
      <trkpt lat="41.82815" lon="19.63906">
        <ele>39.980762</ele>
        <time>2022-05-15T09:00:46.917Z</time>
      </trkpt>
      <trkpt lat="41.82824" lon="19.63902">
        <ele>40.146839</ele>
        <time>2022-05-15T09:00:48.932Z</time>
      </trkpt>
      <trkpt lat="41.82836" lon="19.63898">
        <ele>40.387003</ele>
        <time>2022-05-15T09:00:51.951Z</time>
      </trkpt>
      <trkpt lat="41.82849" lon="19.63893">
        <ele>40.626455</ele>
        <time>2022-05-15T09:00:54.920Z</time>
      </trkpt>
      <trkpt lat="41.82861" lon="19.63888">
        <ele>40.861405</ele>
        <time>2022-05-15T09:00:57.939Z</time>
      </trkpt>
      <trkpt lat="41.82873" lon="19.63883">
        <ele>41.091026</ele>
        <time>2022-05-15T09:01:00.919Z</time>
      </trkpt>
      <trkpt lat="41.82886" lon="19.63879">
        <ele>41.326955</ele>
        <time>2022-05-15T09:01:03.924Z</time>
      </trkpt>
      <trkpt lat="41.82895" lon="19.63877">
        <ele>41.492767</ele>
        <time>2022-05-15T09:01:05.926Z</time>
      </trkpt>
      <trkpt lat="41.82904" lon="19.63876">
        <ele>41.659412</ele>
        <time>2022-05-15T09:01:07.937Z</time>
      </trkpt>
      <trkpt lat="41.82918" lon="19.63876">
        <ele>41.910274</ele>
        <time>2022-05-15T09:01:10.938Z</time>
      </trkpt>
      <trkpt lat="41.82927" lon="19.63874">
        <ele>42.07587</ele>
        <time>2022-05-15T09:01:12.919Z</time>
      </trkpt>
      <trkpt lat="41.82936" lon="19.63872">
        <ele>42.239082</ele>
        <time>2022-05-15T09:01:14.911Z</time>
      </trkpt>
      <trkpt lat="41.82949" lon="19.6387">
        <ele>42.476767</ele>
        <time>2022-05-15T09:01:17.912Z</time>
      </trkpt>
      <trkpt lat="41.8296" lon="19.63868">
        <ele>42.6881</ele>
        <time>2022-05-15T09:01:20.919Z</time>
      </trkpt>
      <trkpt lat="41.82971" lon="19.63867">
        <ele>42.87399</ele>
        <time>2022-05-15T09:01:23.935Z</time>
      </trkpt>
      <trkpt lat="41.82981" lon="19.63866">
        <ele>43.056073</ele>
        <time>2022-05-15T09:01:28.919Z</time>
      </trkpt>
      <trkpt lat="41.82991" lon="19.63865">
        <ele>43.161031</ele>
        <time>2022-05-15T09:01:34.925Z</time>
      </trkpt>
      <trkpt lat="41.83" lon="19.63862">
        <ele>43.126688</ele>
        <time>2022-05-15T09:01:38.920Z</time>
      </trkpt>
      <trkpt lat="41.82992" lon="19.63856">
        <ele>43.090509</ele>
        <time>2022-05-15T09:01:44.941Z</time>
      </trkpt>
      <trkpt lat="41.82982" lon="19.63857">
        <ele>43.054813</ele>
        <time>2022-05-15T09:01:47.941Z</time>
      </trkpt>
      <trkpt lat="41.82971" lon="19.63859">
        <ele>43.015946</ele>
        <time>2022-05-15T09:01:50.954Z</time>
      </trkpt>
      <trkpt lat="41.82961" lon="19.63861">
        <ele>42.977154</ele>
        <time>2022-05-15T09:01:53.946Z</time>
      </trkpt>
      <trkpt lat="41.82949" lon="19.63863">
        <ele>42.935696</ele>
        <time>2022-05-15T09:01:56.976Z</time>
      </trkpt>
      <trkpt lat="41.82938" lon="19.63866">
        <ele>42.894596</ele>
        <time>2022-05-15T09:01:59.942Z</time>
      </trkpt>
      <trkpt lat="41.82926" lon="19.63867">
        <ele>42.852297</ele>
        <time>2022-05-15T09:02:02.938Z</time>
      </trkpt>
      <trkpt lat="41.82915" lon="19.63863">
        <ele>42.809204</ele>
        <time>2022-05-15T09:02:05.942Z</time>
      </trkpt>
      <trkpt lat="41.82907" lon="19.63851">
        <ele>42.764739</ele>
        <time>2022-05-15T09:02:09.000Z</time>
      </trkpt>
      <trkpt lat="41.82905" lon="19.63833">
        <ele>42.716829</ele>
        <time>2022-05-15T09:02:11.934Z</time>
      </trkpt>
      <trkpt lat="41.82908" lon="19.63818">
        <ele>42.674681</ele>
        <time>2022-05-15T09:02:14.994Z</time>
      </trkpt>
      <trkpt lat="41.82916" lon="19.63809">
        <ele>42.637266</ele>
        <time>2022-05-15T09:02:17.941Z</time>
      </trkpt>
      <trkpt lat="41.82925" lon="19.63802">
        <ele>42.599571</ele>
        <time>2022-05-15T09:02:20.958Z</time>
      </trkpt>
      <trkpt lat="41.82934" lon="19.63795">
        <ele>42.56305</ele>
        <time>2022-05-15T09:02:23.962Z</time>
      </trkpt>
      <trkpt lat="41.82943" lon="19.63788">
        <ele>42.523419</ele>
        <time>2022-05-15T09:02:26.928Z</time>
      </trkpt>
      <trkpt lat="41.82953" lon="19.63781">
        <ele>42.472127</ele>
        <time>2022-05-15T09:02:29.918Z</time>
      </trkpt>
      <trkpt lat="41.82963" lon="19.63774">
        <ele>42.421185</ele>
        <time>2022-05-15T09:02:32.919Z</time>
      </trkpt>
      <trkpt lat="41.82973" lon="19.63767">
        <ele>42.369366</ele>
        <time>2022-05-15T09:02:35.914Z</time>
      </trkpt>
      <trkpt lat="41.82983" lon="19.63761">
        <ele>42.316766</ele>
        <time>2022-05-15T09:02:38.917Z</time>
      </trkpt>
      <trkpt lat="41.82993" lon="19.63755">
        <ele>42.266003</ele>
        <time>2022-05-15T09:02:41.914Z</time>
      </trkpt>
      <trkpt lat="41.83002" lon="19.63749">
        <ele>42.219728</ele>
        <time>2022-05-15T09:02:44.920Z</time>
      </trkpt>
      <trkpt lat="41.83011" lon="19.63743">
        <ele>42.173568</ele>
        <time>2022-05-15T09:02:47.918Z</time>
      </trkpt>
      <trkpt lat="41.83021" lon="19.63737">
        <ele>42.123649</ele>
        <time>2022-05-15T09:02:50.915Z</time>
      </trkpt>
      <trkpt lat="41.83031" lon="19.63731">
        <ele>42.073423</ele>
        <time>2022-05-15T09:02:53.934Z</time>
      </trkpt>
      <trkpt lat="41.83042" lon="19.63725">
        <ele>42.020134</ele>
        <time>2022-05-15T09:02:56.933Z</time>
      </trkpt>
      <trkpt lat="41.83052" lon="19.63718">
        <ele>41.967682</ele>
        <time>2022-05-15T09:02:59.919Z</time>
      </trkpt>
      <trkpt lat="41.83063" lon="19.63712">
        <ele>41.912853</ele>
        <time>2022-05-15T09:03:02.919Z</time>
      </trkpt>
      <trkpt lat="41.83073" lon="19.63704">
        <ele>41.857691</ele>
        <time>2022-05-15T09:03:05.916Z</time>
      </trkpt>
      <trkpt lat="41.83084" lon="19.63698">
        <ele>41.80679</ele>
        <time>2022-05-15T09:03:08.918Z</time>
      </trkpt>
      <trkpt lat="41.83093" lon="19.63693">
        <ele>41.758967</ele>
        <time>2022-05-15T09:03:11.915Z</time>
      </trkpt>
      <trkpt lat="41.83102" lon="19.63686">
        <ele>41.711936</ele>
        <time>2022-05-15T09:03:14.920Z</time>
      </trkpt>
      <trkpt lat="41.83111" lon="19.6368">
        <ele>41.810357</ele>
        <time>2022-05-15T09:03:17.921Z</time>
      </trkpt>
      <trkpt lat="41.8312" lon="19.63674">
        <ele>42.001218</ele>
        <time>2022-05-15T09:03:20.923Z</time>
      </trkpt>
      <trkpt lat="41.83129" lon="19.63666">
        <ele>42.187143</ele>
        <time>2022-05-15T09:03:23.947Z</time>
      </trkpt>
      <trkpt lat="41.83138" lon="19.6366">
        <ele>42.380862</ele>
        <time>2022-05-15T09:03:26.924Z</time>
      </trkpt>
      <trkpt lat="41.83148" lon="19.63652">
        <ele>42.583817</ele>
        <time>2022-05-15T09:03:29.915Z</time>
      </trkpt>
      <trkpt lat="41.83157" lon="19.63645">
        <ele>42.793622</ele>
        <time>2022-05-15T09:03:32.934Z</time>
      </trkpt>
      <trkpt lat="41.83167" lon="19.63637">
        <ele>42.992449</ele>
        <time>2022-05-15T09:03:35.916Z</time>
      </trkpt>
      <trkpt lat="41.83175" lon="19.63629">
        <ele>43.182058</ele>
        <time>2022-05-15T09:03:38.925Z</time>
      </trkpt>
      <trkpt lat="41.83183" lon="19.63621">
        <ele>43.369098</ele>
        <time>2022-05-15T09:03:41.921Z</time>
      </trkpt>
      <trkpt lat="41.83191" lon="19.63612">
        <ele>43.559281</ele>
        <time>2022-05-15T09:03:44.915Z</time>
      </trkpt>
      <trkpt lat="41.832" lon="19.63603">
        <ele>43.760674</ele>
        <time>2022-05-15T09:03:47.914Z</time>
      </trkpt>
      <trkpt lat="41.83209" lon="19.63591">
        <ele>43.991043</ele>
        <time>2022-05-15T09:03:50.960Z</time>
      </trkpt>
      <trkpt lat="41.83218" lon="19.63579">
        <ele>44.228864</ele>
        <time>2022-05-15T09:03:53.920Z</time>
      </trkpt>
      <trkpt lat="41.83227" lon="19.63568">
        <ele>44.449806</ele>
        <time>2022-05-15T09:03:56.919Z</time>
      </trkpt>
      <trkpt lat="41.83236" lon="19.63559">
        <ele>44.661893</ele>
        <time>2022-05-15T09:03:59.920Z</time>
      </trkpt>
      <trkpt lat="41.83246" lon="19.63558">
        <ele>44.859096</ele>
        <time>2022-05-15T09:04:02.918Z</time>
      </trkpt>
      <trkpt lat="41.83255" lon="19.63568">
        <ele>45.000272</ele>
        <time>2022-05-15T09:04:05.942Z</time>
      </trkpt>
      <trkpt lat="41.83263" lon="19.6358">
        <ele>44.98095</ele>
        <time>2022-05-15T09:04:08.972Z</time>
      </trkpt>
      <trkpt lat="41.83272" lon="19.63593">
        <ele>44.960382</ele>
        <time>2022-05-15T09:04:11.936Z</time>
      </trkpt>
      <trkpt lat="41.8328" lon="19.63607">
        <ele>44.93918</ele>
        <time>2022-05-15T09:04:14.918Z</time>
      </trkpt>
      <trkpt lat="41.83289" lon="19.63619">
        <ele>44.919251</ele>
        <time>2022-05-15T09:04:17.916Z</time>
      </trkpt>
      <trkpt lat="41.83297" lon="19.63631">
        <ele>44.898994</ele>
        <time>2022-05-15T09:04:20.918Z</time>
      </trkpt>
      <trkpt lat="41.83306" lon="19.63644">
        <ele>44.878907</ele>
        <time>2022-05-15T09:04:23.932Z</time>
      </trkpt>
      <trkpt lat="41.83314" lon="19.63657">
        <ele>44.858142</ele>
        <time>2022-05-15T09:04:26.926Z</time>
      </trkpt>
      <trkpt lat="41.83323" lon="19.63669">
        <ele>44.837972</ele>
        <time>2022-05-15T09:04:29.916Z</time>
      </trkpt>
      <trkpt lat="41.83331" lon="19.63681">
        <ele>44.818544</ele>
        <time>2022-05-15T09:04:32.912Z</time>
      </trkpt>
      <trkpt lat="41.8334" lon="19.63694">
        <ele>44.797457</ele>
        <time>2022-05-15T09:04:35.912Z</time>
      </trkpt>
      <trkpt lat="41.83349" lon="19.63707">
        <ele>44.775978</ele>
        <time>2022-05-15T09:04:38.921Z</time>
      </trkpt>
      <trkpt lat="41.83356" lon="19.63716">
        <ele>44.760521</ele>
        <time>2022-05-15T09:04:40.915Z</time>
      </trkpt>
      <trkpt lat="41.83364" lon="19.63723">
        <ele>44.745745</ele>
        <time>2022-05-15T09:04:42.933Z</time>
      </trkpt>
      <trkpt lat="41.83376" lon="19.63729">
        <ele>44.724725</ele>
        <time>2022-05-15T09:04:45.934Z</time>
      </trkpt>
      <trkpt lat="41.83389" lon="19.6373">
        <ele>44.489155</ele>
        <time>2022-05-15T09:04:48.925Z</time>
      </trkpt>
      <trkpt lat="41.834" lon="19.63725">
        <ele>44.162946</ele>
        <time>2022-05-15T09:04:51.916Z</time>
      </trkpt>
      <trkpt lat="41.8341" lon="19.63718">
        <ele>43.826771</ele>
        <time>2022-05-15T09:04:54.928Z</time>
      </trkpt>
      <trkpt lat="41.83421" lon="19.63709">
        <ele>43.476522</ele>
        <time>2022-05-15T09:04:57.920Z</time>
      </trkpt>
      <trkpt lat="41.83432" lon="19.637">
        <ele>43.123674</ele>
        <time>2022-05-15T09:05:00.918Z</time>
      </trkpt>
      <trkpt lat="41.83444" lon="19.63691">
        <ele>42.744636</ele>
        <time>2022-05-15T09:05:03.925Z</time>
      </trkpt>
      <trkpt lat="41.83455" lon="19.63683">
        <ele>42.37358</ele>
        <time>2022-05-15T09:05:06.927Z</time>
      </trkpt>
      <trkpt lat="41.83467" lon="19.63675">
        <ele>42.006466</ele>
        <time>2022-05-15T09:05:09.914Z</time>
      </trkpt>
      <trkpt lat="41.83475" lon="19.63668">
        <ele>41.751296</ele>
        <time>2022-05-15T09:05:11.915Z</time>
      </trkpt>
      <trkpt lat="41.83486" lon="19.6366">
        <ele>41.39167</ele>
        <time>2022-05-15T09:05:14.923Z</time>
      </trkpt>
      <trkpt lat="41.83497" lon="19.63651">
        <ele>41.027896</ele>
        <time>2022-05-15T09:05:17.912Z</time>
      </trkpt>
      <trkpt lat="41.83509" lon="19.63643">
        <ele>40.660907</ele>
        <time>2022-05-15T09:05:20.914Z</time>
      </trkpt>
      <trkpt lat="41.83519" lon="19.63634">
        <ele>40.321752</ele>
        <time>2022-05-15T09:05:23.914Z</time>
      </trkpt>
      <trkpt lat="41.83529" lon="19.63627">
        <ele>39.990258</ele>
        <time>2022-05-15T09:05:26.918Z</time>
      </trkpt>
      <trkpt lat="41.83539" lon="19.63619">
        <ele>39.679985</ele>
        <time>2022-05-15T09:05:29.914Z</time>
      </trkpt>
      <trkpt lat="41.8355" lon="19.63611">
        <ele>39.782639</ele>
        <time>2022-05-15T09:05:32.922Z</time>
      </trkpt>
      <trkpt lat="41.8356" lon="19.63603">
        <ele>39.886162</ele>
        <time>2022-05-15T09:05:35.920Z</time>
      </trkpt>
      <trkpt lat="41.83571" lon="19.63595">
        <ele>39.989877</ele>
        <time>2022-05-15T09:05:38.925Z</time>
      </trkpt>
      <trkpt lat="41.83582" lon="19.63587">
        <ele>40.094604</ele>
        <time>2022-05-15T09:05:41.912Z</time>
      </trkpt>
      <trkpt lat="41.83592" lon="19.63579">
        <ele>40.195037</ele>
        <time>2022-05-15T09:05:44.914Z</time>
      </trkpt>
      <trkpt lat="41.83602" lon="19.63571">
        <ele>40.300555</ele>
        <time>2022-05-15T09:05:47.917Z</time>
      </trkpt>
      <trkpt lat="41.83613" lon="19.63563">
        <ele>40.402787</ele>
        <time>2022-05-15T09:05:50.920Z</time>
      </trkpt>
      <trkpt lat="41.83623" lon="19.63555">
        <ele>40.50226</ele>
        <time>2022-05-15T09:05:53.915Z</time>
      </trkpt>
      <trkpt lat="41.83633" lon="19.63547">
        <ele>40.601309</ele>
        <time>2022-05-15T09:05:56.944Z</time>
      </trkpt>
      <trkpt lat="41.83643" lon="19.6354">
        <ele>40.700039</ele>
        <time>2022-05-15T09:05:59.913Z</time>
      </trkpt>
      <trkpt lat="41.83653" lon="19.63532">
        <ele>40.796966</ele>
        <time>2022-05-15T09:06:02.920Z</time>
      </trkpt>
      <trkpt lat="41.83663" lon="19.63524">
        <ele>40.896439</ele>
        <time>2022-05-15T09:06:05.914Z</time>
      </trkpt>
      <trkpt lat="41.83673" lon="19.63517">
        <ele>40.995169</ele>
        <time>2022-05-15T09:06:08.922Z</time>
      </trkpt>
      <trkpt lat="41.83683" lon="19.63509">
        <ele>41.092838</ele>
        <time>2022-05-15T09:06:11.913Z</time>
      </trkpt>
      <trkpt lat="41.83693" lon="19.63501">
        <ele>41.197518</ele>
        <time>2022-05-15T09:06:14.914Z</time>
      </trkpt>
      <trkpt lat="41.83704" lon="19.63492">
        <ele>41.314523</ele>
        <time>2022-05-15T09:06:17.921Z</time>
      </trkpt>
      <trkpt lat="41.83714" lon="19.63484">
        <ele>41.431977</ele>
        <time>2022-05-15T09:06:20.922Z</time>
      </trkpt>
      <trkpt lat="41.83725" lon="19.63477">
        <ele>41.547698</ele>
        <time>2022-05-15T09:06:23.943Z</time>
      </trkpt>
      <trkpt lat="41.83735" lon="19.63469">
        <ele>41.660036</ele>
        <time>2022-05-15T09:06:26.911Z</time>
      </trkpt>
      <trkpt lat="41.83746" lon="19.63461">
        <ele>41.778132</ele>
        <time>2022-05-15T09:06:29.916Z</time>
      </trkpt>
      <trkpt lat="41.83757" lon="19.63453">
        <ele>41.897615</ele>
        <time>2022-05-15T09:06:32.913Z</time>
      </trkpt>
      <trkpt lat="41.83768" lon="19.63445">
        <ele>42.015373</ele>
        <time>2022-05-15T09:06:35.922Z</time>
      </trkpt>
      <trkpt lat="41.83779" lon="19.63438">
        <ele>42.133982</ele>
        <time>2022-05-15T09:06:38.919Z</time>
      </trkpt>
      <trkpt lat="41.83789" lon="19.6343">
        <ele>42.253113</ele>
        <time>2022-05-15T09:06:41.914Z</time>
      </trkpt>
      <trkpt lat="41.838" lon="19.63422">
        <ele>42.370706</ele>
        <time>2022-05-15T09:06:44.920Z</time>
      </trkpt>
      <trkpt lat="41.83811" lon="19.63413">
        <ele>42.495792</ele>
        <time>2022-05-15T09:06:47.916Z</time>
      </trkpt>
      <trkpt lat="41.83822" lon="19.63405">
        <ele>42.615155</ele>
        <time>2022-05-15T09:06:50.919Z</time>
      </trkpt>
      <trkpt lat="41.83833" lon="19.63397">
        <ele>42.731905</ele>
        <time>2022-05-15T09:06:53.918Z</time>
      </trkpt>
      <trkpt lat="41.83843" lon="19.63388">
        <ele>42.849244</ele>
        <time>2022-05-15T09:06:56.914Z</time>
      </trkpt>
      <trkpt lat="41.83854" lon="19.63381">
        <ele>42.963036</ele>
        <time>2022-05-15T09:06:59.916Z</time>
      </trkpt>
      <trkpt lat="41.83865" lon="19.63372">
        <ele>43.059634</ele>
        <time>2022-05-15T09:07:02.911Z</time>
      </trkpt>
      <trkpt lat="41.83875" lon="19.63364">
        <ele>43.154306</ele>
        <time>2022-05-15T09:07:05.920Z</time>
      </trkpt>
      <trkpt lat="41.83886" lon="19.63357">
        <ele>43.246493</ele>
        <time>2022-05-15T09:07:08.920Z</time>
      </trkpt>
      <trkpt lat="41.83896" lon="19.63349">
        <ele>43.336634</ele>
        <time>2022-05-15T09:07:11.924Z</time>
      </trkpt>
      <trkpt lat="41.83907" lon="19.63342">
        <ele>43.431838</ele>
        <time>2022-05-15T09:07:14.912Z</time>
      </trkpt>
      <trkpt lat="41.83917" lon="19.63334">
        <ele>43.524869</ele>
        <time>2022-05-15T09:07:17.920Z</time>
      </trkpt>
      <trkpt lat="41.83927" lon="19.63326">
        <ele>43.613145</ele>
        <time>2022-05-15T09:07:20.916Z</time>
      </trkpt>
      <trkpt lat="41.83935" lon="19.63317">
        <ele>43.695663</ele>
        <time>2022-05-15T09:07:23.914Z</time>
      </trkpt>
      <trkpt lat="41.83944" lon="19.63308">
        <ele>43.781277</ele>
        <time>2022-05-15T09:07:26.929Z</time>
      </trkpt>
      <trkpt lat="41.83953" lon="19.63298">
        <ele>43.874295</ele>
        <time>2022-05-15T09:07:29.920Z</time>
      </trkpt>
      <trkpt lat="41.83963" lon="19.63288">
        <ele>43.970943</ele>
        <time>2022-05-15T09:07:32.929Z</time>
      </trkpt>
      <trkpt lat="41.83972" lon="19.63277">
        <ele>44.067592</ele>
        <time>2022-05-15T09:07:35.913Z</time>
      </trkpt>
      <trkpt lat="41.83982" lon="19.63267">
        <ele>44.163999</ele>
        <time>2022-05-15T09:07:38.917Z</time>
      </trkpt>
      <trkpt lat="41.83992" lon="19.63256">
        <ele>44.263197</ele>
        <time>2022-05-15T09:07:41.913Z</time>
      </trkpt>
      <trkpt lat="41.84002" lon="19.63245">
        <ele>44.346746</ele>
        <time>2022-05-15T09:07:44.920Z</time>
      </trkpt>
      <trkpt lat="41.84011" lon="19.63235">
        <ele>44.330185</ele>
        <time>2022-05-15T09:07:47.911Z</time>
      </trkpt>
      <trkpt lat="41.84021" lon="19.63226">
        <ele>44.313659</ele>
        <time>2022-05-15T09:07:50.917Z</time>
      </trkpt>
      <trkpt lat="41.8403" lon="19.63216">
        <ele>44.297351</ele>
        <time>2022-05-15T09:07:53.952Z</time>
      </trkpt>
      <trkpt lat="41.84039" lon="19.63206">
        <ele>44.281198</ele>
        <time>2022-05-15T09:07:56.935Z</time>
      </trkpt>
      <trkpt lat="41.84049" lon="19.63196">
        <ele>44.264466</ele>
        <time>2022-05-15T09:07:59.912Z</time>
      </trkpt>
      <trkpt lat="41.84058" lon="19.63185">
        <ele>44.247475</ele>
        <time>2022-05-15T09:08:02.909Z</time>
      </trkpt>
      <trkpt lat="41.84066" lon="19.63172">
        <ele>44.230277</ele>
        <time>2022-05-15T09:08:05.911Z</time>
      </trkpt>
      <trkpt lat="41.84071" lon="19.63156">
        <ele>44.212801</ele>
        <time>2022-05-15T09:08:08.931Z</time>
      </trkpt>
      <trkpt lat="41.84071" lon="19.6314">
        <ele>44.195567</ele>
        <time>2022-05-15T09:08:11.911Z</time>
      </trkpt>
      <trkpt lat="41.84068" lon="19.63125">
        <ele>44.179688</ele>
        <time>2022-05-15T09:08:14.922Z</time>
      </trkpt>
      <trkpt lat="41.84063" lon="19.6311">
        <ele>44.162435</ele>
        <time>2022-05-15T09:08:17.924Z</time>
      </trkpt>
      <trkpt lat="41.84058" lon="19.63099">
        <ele>44.149999</ele>
        <time>2022-05-15T09:08:19.915Z</time>
      </trkpt>
      <trkpt lat="41.84051" lon="19.63084">
        <ele>44.131832</ele>
        <time>2022-05-15T09:08:22.921Z</time>
      </trkpt>
      <trkpt lat="41.84043" lon="19.63069">
        <ele>44.113172</ele>
        <time>2022-05-15T09:08:25.915Z</time>
      </trkpt>
      <trkpt lat="41.84036" lon="19.63055">
        <ele>44.053573</ele>
        <time>2022-05-15T09:08:28.923Z</time>
      </trkpt>
      <trkpt lat="41.84029" lon="19.63041">
        <ele>43.909778</ele>
        <time>2022-05-15T09:08:31.919Z</time>
      </trkpt>
      <trkpt lat="41.84022" lon="19.63027">
        <ele>43.768693</ele>
        <time>2022-05-15T09:08:34.923Z</time>
      </trkpt>
      <trkpt lat="41.84016" lon="19.63014">
        <ele>43.634272</ele>
        <time>2022-05-15T09:08:37.914Z</time>
      </trkpt>
      <trkpt lat="41.84009" lon="19.63001">
        <ele>43.500644</ele>
        <time>2022-05-15T09:08:40.915Z</time>
      </trkpt>
      <trkpt lat="41.84003" lon="19.62988">
        <ele>43.365404</ele>
        <time>2022-05-15T09:08:43.936Z</time>
      </trkpt>
      <trkpt lat="41.83997" lon="19.62974">
        <ele>43.228927</ele>
        <time>2022-05-15T09:08:46.919Z</time>
      </trkpt>
      <trkpt lat="41.8399" lon="19.6296">
        <ele>43.091383</ele>
        <time>2022-05-15T09:08:49.935Z</time>
      </trkpt>
      <trkpt lat="41.83984" lon="19.62947">
        <ele>42.957351</ele>
        <time>2022-05-15T09:08:52.919Z</time>
      </trkpt>
      <trkpt lat="41.83978" lon="19.62933">
        <ele>42.816047</ele>
        <time>2022-05-15T09:08:55.911Z</time>
      </trkpt>
      <trkpt lat="41.83971" lon="19.6292">
        <ele>42.680807</ele>
        <time>2022-05-15T09:08:58.913Z</time>
      </trkpt>
      <trkpt lat="41.83965" lon="19.62906">
        <ele>42.545168</ele>
        <time>2022-05-15T09:09:01.918Z</time>
      </trkpt>
      <trkpt lat="41.83961" lon="19.62891">
        <ele>42.410202</ele>
        <time>2022-05-15T09:09:04.937Z</time>
      </trkpt>
      <trkpt lat="41.8396" lon="19.62876">
        <ele>42.281275</ele>
        <time>2022-05-15T09:09:07.917Z</time>
      </trkpt>
      <trkpt lat="41.83965" lon="19.62863">
        <ele>42.154263</ele>
        <time>2022-05-15T09:09:10.917Z</time>
      </trkpt>
      <trkpt lat="41.8397" lon="19.62853">
        <ele>42.049487</ele>
        <time>2022-05-15T09:09:12.927Z</time>
      </trkpt>
      <trkpt lat="41.83979" lon="19.6284">
        <ele>42.024664</ele>
        <time>2022-05-15T09:09:15.913Z</time>
      </trkpt>
      <trkpt lat="41.83988" lon="19.62829">
        <ele>42.007713</ele>
        <time>2022-05-15T09:09:18.928Z</time>
      </trkpt>
      <trkpt lat="41.83999" lon="19.62819">
        <ele>41.991263</ele>
        <time>2022-05-15T09:09:21.914Z</time>
      </trkpt>
      <trkpt lat="41.84008" lon="19.62811">
        <ele>41.976408</ele>
        <time>2022-05-15T09:09:24.918Z</time>
      </trkpt>
      <trkpt lat="41.84017" lon="19.62803">
        <ele>41.961817</ele>
        <time>2022-05-15T09:09:27.911Z</time>
      </trkpt>
      <trkpt lat="41.84026" lon="19.62794">
        <ele>41.946791</ele>
        <time>2022-05-15T09:09:30.913Z</time>
      </trkpt>
      <trkpt lat="41.84035" lon="19.62786">
        <ele>41.932543</ele>
        <time>2022-05-15T09:09:33.944Z</time>
      </trkpt>
      <trkpt lat="41.84045" lon="19.62778">
        <ele>41.918177</ele>
        <time>2022-05-15T09:09:36.915Z</time>
      </trkpt>
      <trkpt lat="41.84054" lon="19.6277">
        <ele>41.903928</ele>
        <time>2022-05-15T09:09:39.911Z</time>
      </trkpt>
      <trkpt lat="41.84063" lon="19.62762">
        <ele>41.889568</ele>
        <time>2022-05-15T09:09:42.919Z</time>
      </trkpt>
      <trkpt lat="41.84072" lon="19.62755">
        <ele>41.874765</ele>
        <time>2022-05-15T09:09:45.915Z</time>
      </trkpt>
      <trkpt lat="41.84082" lon="19.62749">
        <ele>41.860637</ele>
        <time>2022-05-15T09:09:48.927Z</time>
      </trkpt>
      <trkpt lat="41.84093" lon="19.62744">
        <ele>41.845217</ele>
        <time>2022-05-15T09:09:51.911Z</time>
      </trkpt>
      <trkpt lat="41.84104" lon="19.62737">
        <ele>41.829446</ele>
        <time>2022-05-15T09:09:54.915Z</time>
      </trkpt>
      <trkpt lat="41.84114" lon="19.62731">
        <ele>41.814933</ele>
        <time>2022-05-15T09:09:57.917Z</time>
      </trkpt>
      <trkpt lat="41.84124" lon="19.62723">
        <ele>41.786686</ele>
        <time>2022-05-15T09:10:00.911Z</time>
      </trkpt>
      <trkpt lat="41.84134" lon="19.62714">
        <ele>41.701254</ele>
        <time>2022-05-15T09:10:03.909Z</time>
      </trkpt>
      <trkpt lat="41.84145" lon="19.62705">
        <ele>41.609653</ele>
        <time>2022-05-15T09:10:06.950Z</time>
      </trkpt>
      <trkpt lat="41.84153" lon="19.62698">
        <ele>41.546375</ele>
        <time>2022-05-15T09:10:08.919Z</time>
      </trkpt>
      <trkpt lat="41.84161" lon="19.62692">
        <ele>41.482066</ele>
        <time>2022-05-15T09:10:10.927Z</time>
      </trkpt>
      <trkpt lat="41.84172" lon="19.62684">
        <ele>41.392786</ele>
        <time>2022-05-15T09:10:13.917Z</time>
      </trkpt>
      <trkpt lat="41.84183" lon="19.62675">
        <ele>41.30901</ele>
        <time>2022-05-15T09:10:16.927Z</time>
      </trkpt>
      <trkpt lat="41.84193" lon="19.62667">
        <ele>41.225688</ele>
        <time>2022-05-15T09:10:19.916Z</time>
      </trkpt>
      <trkpt lat="41.84204" lon="19.62659">
        <ele>41.139261</ele>
        <time>2022-05-15T09:10:22.921Z</time>
      </trkpt>
      <trkpt lat="41.84215" lon="19.6265">
        <ele>41.049111</ele>
        <time>2022-05-15T09:10:25.931Z</time>
      </trkpt>
      <trkpt lat="41.84226" lon="19.62641">
        <ele>40.96102</ele>
        <time>2022-05-15T09:10:28.913Z</time>
      </trkpt>
      <trkpt lat="41.84237" lon="19.62633">
        <ele>40.872335</ele>
        <time>2022-05-15T09:10:31.913Z</time>
      </trkpt>
      <trkpt lat="41.84248" lon="19.62623">
        <ele>40.780138</ele>
        <time>2022-05-15T09:10:34.918Z</time>
      </trkpt>
      <trkpt lat="41.84258" lon="19.62613">
        <ele>40.692032</ele>
        <time>2022-05-15T09:10:37.915Z</time>
      </trkpt>
      <trkpt lat="41.8427" lon="19.62605">
        <ele>40.601882</ele>
        <time>2022-05-15T09:10:40.923Z</time>
      </trkpt>
      <trkpt lat="41.8428" lon="19.62595">
        <ele>40.502027</ele>
        <time>2022-05-15T09:10:43.919Z</time>
      </trkpt>
      <trkpt lat="41.8429" lon="19.62584">
        <ele>40.386601</ele>
        <time>2022-05-15T09:10:46.922Z</time>
      </trkpt>
      <trkpt lat="41.843" lon="19.62572">
        <ele>40.272053</ele>
        <time>2022-05-15T09:10:49.931Z</time>
      </trkpt>
      <trkpt lat="41.84309" lon="19.62559">
        <ele>40.153195</ele>
        <time>2022-05-15T09:10:52.926Z</time>
      </trkpt>
      <trkpt lat="41.84316" lon="19.62551">
        <ele>40.074156</ele>
        <time>2022-05-15T09:10:54.918Z</time>
      </trkpt>
      <trkpt lat="41.84322" lon="19.62542">
        <ele>39.994191</ele>
        <time>2022-05-15T09:10:56.916Z</time>
      </trkpt>
      <trkpt lat="41.84331" lon="19.62529">
        <ele>39.874867</ele>
        <time>2022-05-15T09:10:59.922Z</time>
      </trkpt>
      <trkpt lat="41.84342" lon="19.62518">
        <ele>39.757491</ele>
        <time>2022-05-15T09:11:02.915Z</time>
      </trkpt>
      <trkpt lat="41.84353" lon="19.62508">
        <ele>39.638713</ele>
        <time>2022-05-15T09:11:05.917Z</time>
      </trkpt>
      <trkpt lat="41.84361" lon="19.62501">
        <ele>39.557906</ele>
        <time>2022-05-15T09:11:07.920Z</time>
      </trkpt>
      <trkpt lat="41.84372" lon="19.62492">
        <ele>39.44036</ele>
        <time>2022-05-15T09:11:10.920Z</time>
      </trkpt>
      <trkpt lat="41.84383" lon="19.62484">
        <ele>39.328043</ele>
        <time>2022-05-15T09:11:13.912Z</time>
      </trkpt>
      <trkpt lat="41.84394" lon="19.62475">
        <ele>39.218253</ele>
        <time>2022-05-15T09:11:16.928Z</time>
      </trkpt>
      <trkpt lat="41.84404" lon="19.62466">
        <ele>39.106402</ele>
        <time>2022-05-15T09:11:19.919Z</time>
      </trkpt>
      <trkpt lat="41.84415" lon="19.62456">
        <ele>38.994155</ele>
        <time>2022-05-15T09:11:22.932Z</time>
      </trkpt>
      <trkpt lat="41.84425" lon="19.62446">
        <ele>39.067384</ele>
        <time>2022-05-15T09:11:25.915Z</time>
      </trkpt>
      <trkpt lat="41.84435" lon="19.62437">
        <ele>39.210617</ele>
        <time>2022-05-15T09:11:28.921Z</time>
      </trkpt>
      <trkpt lat="41.84444" lon="19.62426">
        <ele>39.355518</ele>
        <time>2022-05-15T09:11:31.913Z</time>
      </trkpt>
      <trkpt lat="41.84454" lon="19.62414">
        <ele>39.501492</ele>
        <time>2022-05-15T09:11:34.914Z</time>
      </trkpt>
      <trkpt lat="41.84463" lon="19.62403">
        <ele>39.645599</ele>
        <time>2022-05-15T09:11:37.913Z</time>
      </trkpt>
      <trkpt lat="41.84472" lon="19.62391">
        <ele>39.789342</ele>
        <time>2022-05-15T09:11:40.924Z</time>
      </trkpt>
      <trkpt lat="41.84481" lon="19.62379">
        <ele>39.942866</ele>
        <time>2022-05-15T09:11:43.939Z</time>
      </trkpt>
      <trkpt lat="41.84488" lon="19.62371">
        <ele>40.051782</ele>
        <time>2022-05-15T09:11:45.911Z</time>
      </trkpt>
      <trkpt lat="41.84496" lon="19.62363">
        <ele>40.158018</ele>
        <time>2022-05-15T09:11:47.921Z</time>
      </trkpt>
      <trkpt lat="41.84506" lon="19.62353">
        <ele>40.309214</ele>
        <time>2022-05-15T09:11:50.915Z</time>
      </trkpt>
      <trkpt lat="41.84516" lon="19.62342">
        <ele>40.455948</ele>
        <time>2022-05-15T09:11:53.921Z</time>
      </trkpt>
      <trkpt lat="41.84528" lon="19.62333">
        <ele>40.610087</ele>
        <time>2022-05-15T09:11:56.923Z</time>
      </trkpt>
      <trkpt lat="41.84538" lon="19.62324">
        <ele>40.754198</ele>
        <time>2022-05-15T09:11:59.919Z</time>
      </trkpt>
      <trkpt lat="41.84548" lon="19.62314">
        <ele>40.897429</ele>
        <time>2022-05-15T09:12:02.914Z</time>
      </trkpt>
      <trkpt lat="41.84558" lon="19.62305">
        <ele>41.033958</ele>
        <time>2022-05-15T09:12:05.935Z</time>
      </trkpt>
      <trkpt lat="41.84567" lon="19.62295">
        <ele>41.079398</ele>
        <time>2022-05-15T09:12:08.932Z</time>
      </trkpt>
      <trkpt lat="41.84577" lon="19.62285">
        <ele>41.119227</ele>
        <time>2022-05-15T09:12:11.912Z</time>
      </trkpt>
      <trkpt lat="41.84588" lon="19.62275">
        <ele>41.159933</ele>
        <time>2022-05-15T09:12:14.920Z</time>
      </trkpt>
      <trkpt lat="41.84598" lon="19.62265">
        <ele>41.200267</ele>
        <time>2022-05-15T09:12:17.916Z</time>
      </trkpt>
      <trkpt lat="41.84608" lon="19.62255">
        <ele>41.239344</ele>
        <time>2022-05-15T09:12:20.916Z</time>
      </trkpt>
      <trkpt lat="41.84617" lon="19.62244">
        <ele>41.278182</ele>
        <time>2022-05-15T09:12:23.912Z</time>
      </trkpt>
      <trkpt lat="41.84626" lon="19.62232">
        <ele>41.318991</ele>
        <time>2022-05-15T09:12:26.910Z</time>
      </trkpt>
      <trkpt lat="41.84634" lon="19.62218">
        <ele>41.358756</ele>
        <time>2022-05-15T09:12:29.919Z</time>
      </trkpt>
      <trkpt lat="41.84642" lon="19.62204">
        <ele>41.399053</ele>
        <time>2022-05-15T09:12:32.918Z</time>
      </trkpt>
      <trkpt lat="41.84647" lon="19.62194">
        <ele>41.427874</ele>
        <time>2022-05-15T09:12:34.927Z</time>
      </trkpt>
      <trkpt lat="41.84653" lon="19.62184">
        <ele>41.457433</ele>
        <time>2022-05-15T09:12:36.925Z</time>
      </trkpt>
      <trkpt lat="41.84659" lon="19.62175">
        <ele>41.486313</ele>
        <time>2022-05-15T09:12:38.950Z</time>
      </trkpt>
      <trkpt lat="41.84668" lon="19.62163">
        <ele>41.527785</ele>
        <time>2022-05-15T09:12:41.919Z</time>
      </trkpt>
      <trkpt lat="41.84678" lon="19.62151">
        <ele>41.567951</ele>
        <time>2022-05-15T09:12:44.920Z</time>
      </trkpt>
      <trkpt lat="41.84687" lon="19.62141">
        <ele>41.606825</ele>
        <time>2022-05-15T09:12:47.920Z</time>
      </trkpt>
      <trkpt lat="41.84697" lon="19.62131">
        <ele>41.619198</ele>
        <time>2022-05-15T09:12:50.922Z</time>
      </trkpt>
      <trkpt lat="41.84706" lon="19.6212">
        <ele>41.628257</ele>
        <time>2022-05-15T09:12:53.914Z</time>
      </trkpt>
      <trkpt lat="41.84716" lon="19.6211">
        <ele>41.637275</ele>
        <time>2022-05-15T09:12:56.915Z</time>
      </trkpt>
      <trkpt lat="41.84725" lon="19.62099">
        <ele>41.646196</ele>
        <time>2022-05-15T09:12:59.921Z</time>
      </trkpt>
      <trkpt lat="41.84735" lon="19.62088">
        <ele>41.655711</ele>
        <time>2022-05-15T09:13:02.914Z</time>
      </trkpt>
      <trkpt lat="41.84745" lon="19.62077">
        <ele>41.665227</ele>
        <time>2022-05-15T09:13:05.918Z</time>
      </trkpt>
      <trkpt lat="41.84755" lon="19.62067">
        <ele>41.674503</ele>
        <time>2022-05-15T09:13:08.928Z</time>
      </trkpt>
      <trkpt lat="41.84764" lon="19.62057">
        <ele>41.682958</ele>
        <time>2022-05-15T09:13:11.914Z</time>
      </trkpt>
      <trkpt lat="41.84774" lon="19.62047">
        <ele>41.692002</ele>
        <time>2022-05-15T09:13:14.925Z</time>
      </trkpt>
      <trkpt lat="41.84784" lon="19.62037">
        <ele>41.701362</ele>
        <time>2022-05-15T09:13:17.936Z</time>
      </trkpt>
      <trkpt lat="41.84794" lon="19.62027">
        <ele>41.710523</ele>
        <time>2022-05-15T09:13:20.914Z</time>
      </trkpt>
      <trkpt lat="41.84804" lon="19.62017">
        <ele>41.719543</ele>
        <time>2022-05-15T09:13:23.914Z</time>
      </trkpt>
      <trkpt lat="41.84813" lon="19.62006">
        <ele>41.728617</ele>
        <time>2022-05-15T09:13:26.925Z</time>
      </trkpt>
      <trkpt lat="41.84822" lon="19.61996">
        <ele>41.736927</ele>
        <time>2022-05-15T09:13:29.919Z</time>
      </trkpt>
      <trkpt lat="41.84829" lon="19.61984">
        <ele>41.772916</ele>
        <time>2022-05-15T09:13:32.914Z</time>
      </trkpt>
      <trkpt lat="41.84836" lon="19.6197">
        <ele>41.892552</ele>
        <time>2022-05-15T09:13:35.911Z</time>
      </trkpt>
      <trkpt lat="41.84841" lon="19.61953">
        <ele>42.022868</ele>
        <time>2022-05-15T09:13:38.932Z</time>
      </trkpt>
      <trkpt lat="41.84844" lon="19.61942">
        <ele>42.113724</ele>
        <time>2022-05-15T09:13:40.918Z</time>
      </trkpt>
      <trkpt lat="41.84848" lon="19.6193">
        <ele>42.201975</ele>
        <time>2022-05-15T09:13:42.924Z</time>
      </trkpt>
      <trkpt lat="41.84853" lon="19.61919">
        <ele>42.294906</ele>
        <time>2022-05-15T09:13:44.920Z</time>
      </trkpt>
      <trkpt lat="41.84858" lon="19.61909">
        <ele>42.385749</ele>
        <time>2022-05-15T09:13:46.924Z</time>
      </trkpt>
      <trkpt lat="41.84863" lon="19.619">
        <ele>42.473608</ele>
        <time>2022-05-15T09:13:48.920Z</time>
      </trkpt>
      <trkpt lat="41.84873" lon="19.61888">
        <ele>42.597573</ele>
        <time>2022-05-15T09:13:51.915Z</time>
      </trkpt>
      <trkpt lat="41.84881" lon="19.61879">
        <ele>42.706099</ele>
        <time>2022-05-15T09:13:54.925Z</time>
      </trkpt>
      <trkpt lat="41.8489" lon="19.61869">
        <ele>42.815845</ele>
        <time>2022-05-15T09:13:57.916Z</time>
      </trkpt>
      <trkpt lat="41.849" lon="19.61859">
        <ele>42.937667</ele>
        <time>2022-05-15T09:14:00.915Z</time>
      </trkpt>
      <trkpt lat="41.84909" lon="19.61848">
        <ele>43.058743</ele>
        <time>2022-05-15T09:14:03.908Z</time>
      </trkpt>
      <trkpt lat="41.84918" lon="19.61837">
        <ele>43.17982</ele>
        <time>2022-05-15T09:14:06.915Z</time>
      </trkpt>
      <trkpt lat="41.84928" lon="19.61826">
        <ele>43.305116</ele>
        <time>2022-05-15T09:14:09.911Z</time>
      </trkpt>
      <trkpt lat="41.84938" lon="19.61816">
        <ele>43.428272</ele>
        <time>2022-05-15T09:14:12.941Z</time>
      </trkpt>
      <trkpt lat="41.84948" lon="19.61804">
        <ele>43.383532</ele>
        <time>2022-05-15T09:14:15.924Z</time>
      </trkpt>
      <trkpt lat="41.84957" lon="19.61793">
        <ele>43.092119</ele>
        <time>2022-05-15T09:14:18.919Z</time>
      </trkpt>
      <trkpt lat="41.84967" lon="19.61781">
        <ele>42.79284</ele>
        <time>2022-05-15T09:14:21.924Z</time>
      </trkpt>
      <trkpt lat="41.84977" lon="19.6177">
        <ele>42.494513</ele>
        <time>2022-05-15T09:14:24.924Z</time>
      </trkpt>
      <trkpt lat="41.84986" lon="19.61759">
        <ele>42.21891</ele>
        <time>2022-05-15T09:14:27.914Z</time>
      </trkpt>
      <trkpt lat="41.84996" lon="19.61748">
        <ele>41.929702</ele>
        <time>2022-05-15T09:14:30.916Z</time>
      </trkpt>
      <trkpt lat="41.85006" lon="19.61736">
        <ele>41.62705</ele>
        <time>2022-05-15T09:14:33.915Z</time>
      </trkpt>
      <trkpt lat="41.85015" lon="19.61724">
        <ele>41.340151</ele>
        <time>2022-05-15T09:14:36.925Z</time>
      </trkpt>
      <trkpt lat="41.85025" lon="19.61713">
        <ele>41.054382</ele>
        <time>2022-05-15T09:14:39.918Z</time>
      </trkpt>
      <trkpt lat="41.85034" lon="19.61701">
        <ele>40.768168</ele>
        <time>2022-05-15T09:14:42.929Z</time>
      </trkpt>
      <trkpt lat="41.85043" lon="19.6169">
        <ele>40.491444</ele>
        <time>2022-05-15T09:14:45.935Z</time>
      </trkpt>
      <trkpt lat="41.85052" lon="19.61679">
        <ele>40.198375</ele>
        <time>2022-05-15T09:14:48.915Z</time>
      </trkpt>
      <trkpt lat="41.85062" lon="19.61667">
        <ele>39.913757</ele>
        <time>2022-05-15T09:14:51.946Z</time>
      </trkpt>
      <trkpt lat="41.85072" lon="19.61656">
        <ele>39.613685</ele>
        <time>2022-05-15T09:14:54.917Z</time>
      </trkpt>
      <trkpt lat="41.85082" lon="19.61646">
        <ele>39.477642</ele>
        <time>2022-05-15T09:14:57.922Z</time>
      </trkpt>
      <trkpt lat="41.85093" lon="19.61636">
        <ele>39.631752</ele>
        <time>2022-05-15T09:15:00.915Z</time>
      </trkpt>
      <trkpt lat="41.85103" lon="19.61627">
        <ele>39.778312</ele>
        <time>2022-05-15T09:15:03.908Z</time>
      </trkpt>
      <trkpt lat="41.85113" lon="19.61618">
        <ele>39.925374</ele>
        <time>2022-05-15T09:15:06.928Z</time>
      </trkpt>
      <trkpt lat="41.85123" lon="19.61609">
        <ele>40.070424</ele>
        <time>2022-05-15T09:15:09.920Z</time>
      </trkpt>
      <trkpt lat="41.85133" lon="19.616">
        <ele>40.219509</ele>
        <time>2022-05-15T09:15:12.932Z</time>
      </trkpt>
      <trkpt lat="41.85144" lon="19.61591">
        <ele>40.375699</ele>
        <time>2022-05-15T09:15:15.913Z</time>
      </trkpt>
      <trkpt lat="41.85152" lon="19.61584">
        <ele>40.485054</ele>
        <time>2022-05-15T09:15:17.911Z</time>
      </trkpt>
      <trkpt lat="41.85163" lon="19.61574">
        <ele>40.645231</ele>
        <time>2022-05-15T09:15:20.914Z</time>
      </trkpt>
      <trkpt lat="41.85173" lon="19.61565">
        <ele>40.790778</ele>
        <time>2022-05-15T09:15:23.912Z</time>
      </trkpt>
      <trkpt lat="41.85183" lon="19.61556">
        <ele>40.945409</ele>
        <time>2022-05-15T09:15:26.923Z</time>
      </trkpt>
      <trkpt lat="41.85193" lon="19.61546">
        <ele>41.093558</ele>
        <time>2022-05-15T09:15:29.922Z</time>
      </trkpt>
      <trkpt lat="41.85201" lon="19.61536">
        <ele>41.227399</ele>
        <time>2022-05-15T09:15:32.914Z</time>
      </trkpt>
      <trkpt lat="41.85208" lon="19.61524">
        <ele>41.363776</ele>
        <time>2022-05-15T09:15:35.924Z</time>
      </trkpt>
      <trkpt lat="41.85215" lon="19.61509">
        <ele>41.52255</ele>
        <time>2022-05-15T09:15:38.918Z</time>
      </trkpt>
      <trkpt lat="41.85222" lon="19.61501">
        <ele>41.623678</ele>
        <time>2022-05-15T09:15:40.919Z</time>
      </trkpt>
      <trkpt lat="41.8523" lon="19.61494">
        <ele>41.703113</ele>
        <time>2022-05-15T09:15:42.909Z</time>
      </trkpt>
      <trkpt lat="41.85239" lon="19.61489">
        <ele>41.78886</ele>
        <time>2022-05-15T09:15:44.911Z</time>
      </trkpt>
      <trkpt lat="41.85249" lon="19.61487">
        <ele>41.869837</ele>
        <time>2022-05-15T09:15:46.917Z</time>
      </trkpt>
      <trkpt lat="41.85258" lon="19.61485">
        <ele>41.94477</ele>
        <time>2022-05-15T09:15:48.916Z</time>
      </trkpt>
      <trkpt lat="41.85267" lon="19.61483">
        <ele>42.021252</ele>
        <time>2022-05-15T09:15:50.927Z</time>
      </trkpt>
      <trkpt lat="41.85276" lon="19.61481">
        <ele>42.099772</ele>
        <time>2022-05-15T09:15:52.918Z</time>
      </trkpt>
      <trkpt lat="41.85288" lon="19.61476">
        <ele>42.202292</ele>
        <time>2022-05-15T09:15:55.912Z</time>
      </trkpt>
      <trkpt lat="41.85299" lon="19.6147">
        <ele>42.303562</ele>
        <time>2022-05-15T09:15:58.916Z</time>
      </trkpt>
      <trkpt lat="41.8531" lon="19.61463">
        <ele>42.401288</ele>
        <time>2022-05-15T09:16:01.913Z</time>
      </trkpt>
      <trkpt lat="41.8532" lon="19.61454">
        <ele>42.499044</ele>
        <time>2022-05-15T09:16:04.924Z</time>
      </trkpt>
      <trkpt lat="41.8533" lon="19.61445">
        <ele>42.607432</ele>
        <time>2022-05-15T09:16:07.952Z</time>
      </trkpt>
      <trkpt lat="41.85342" lon="19.61435">
        <ele>42.717589</ele>
        <time>2022-05-15T09:16:10.918Z</time>
      </trkpt>
      <trkpt lat="41.85353" lon="19.61426">
        <ele>42.825308</ele>
        <time>2022-05-15T09:16:13.914Z</time>
      </trkpt>
      <trkpt lat="41.85364" lon="19.61417">
        <ele>42.933211</ele>
        <time>2022-05-15T09:16:16.915Z</time>
      </trkpt>
      <trkpt lat="41.85374" lon="19.61407">
        <ele>43.038154</ele>
        <time>2022-05-15T09:16:19.919Z</time>
      </trkpt>
      <trkpt lat="41.85384" lon="19.61399">
        <ele>43.143488</ele>
        <time>2022-05-15T09:16:22.933Z</time>
      </trkpt>
      <trkpt lat="41.85395" lon="19.61391">
        <ele>43.256896</ele>
        <time>2022-05-15T09:16:25.915Z</time>
      </trkpt>
      <trkpt lat="41.85405" lon="19.61382">
        <ele>43.374202</ele>
        <time>2022-05-15T09:16:28.914Z</time>
      </trkpt>
      <trkpt lat="41.85415" lon="19.61373">
        <ele>43.487518</ele>
        <time>2022-05-15T09:16:31.918Z</time>
      </trkpt>
      <trkpt lat="41.85425" lon="19.61365">
        <ele>43.59892</ele>
        <time>2022-05-15T09:16:34.939Z</time>
      </trkpt>
      <trkpt lat="41.85434" lon="19.61357">
        <ele>43.709888</ele>
        <time>2022-05-15T09:16:37.916Z</time>
      </trkpt>
      <trkpt lat="41.85444" lon="19.61349">
        <ele>43.818096</ele>
        <time>2022-05-15T09:16:40.923Z</time>
      </trkpt>
      <trkpt lat="41.85453" lon="19.61341">
        <ele>43.919111</ele>
        <time>2022-05-15T09:16:43.919Z</time>
      </trkpt>
      <trkpt lat="41.85462" lon="19.61334">
        <ele>44.023109</ele>
        <time>2022-05-15T09:16:46.919Z</time>
      </trkpt>
      <trkpt lat="41.85472" lon="19.61326">
        <ele>44.131317</ele>
        <time>2022-05-15T09:16:49.916Z</time>
      </trkpt>
      <trkpt lat="41.8548" lon="19.61318">
        <ele>44.229518</ele>
        <time>2022-05-15T09:16:52.933Z</time>
      </trkpt>
      <trkpt lat="41.85489" lon="19.61311">
        <ele>44.330218</ele>
        <time>2022-05-15T09:16:55.912Z</time>
      </trkpt>
      <trkpt lat="41.85499" lon="19.61303">
        <ele>44.436492</ele>
        <time>2022-05-15T09:16:58.916Z</time>
      </trkpt>
      <trkpt lat="41.85508" lon="19.61296">
        <ele>44.539942</ele>
        <time>2022-05-15T09:17:01.919Z</time>
      </trkpt>
      <trkpt lat="41.85517" lon="19.61288">
        <ele>44.64014</ele>
        <time>2022-05-15T09:17:04.912Z</time>
      </trkpt>
      <trkpt lat="41.85525" lon="19.6128">
        <ele>44.737582</ele>
        <time>2022-05-15T09:17:07.933Z</time>
      </trkpt>
      <trkpt lat="41.85533" lon="19.61272">
        <ele>44.845799</ele>
        <time>2022-05-15T09:17:10.922Z</time>
      </trkpt>
      <trkpt lat="41.85541" lon="19.61264">
        <ele>45.059455</ele>
        <time>2022-05-15T09:17:13.921Z</time>
      </trkpt>
      <trkpt lat="41.85548" lon="19.61255">
        <ele>45.259629</ele>
        <time>2022-05-15T09:17:16.922Z</time>
      </trkpt>
      <trkpt lat="41.85556" lon="19.61245">
        <ele>45.489361</ele>
        <time>2022-05-15T09:17:20.933Z</time>
      </trkpt>
      <trkpt lat="41.85564" lon="19.61235">
        <ele>45.725298</ele>
        <time>2022-05-15T09:17:24.921Z</time>
      </trkpt>
      <trkpt lat="41.85572" lon="19.61226">
        <ele>45.9545</ele>
        <time>2022-05-15T09:17:28.927Z</time>
      </trkpt>
      <trkpt lat="41.85581" lon="19.61214">
        <ele>46.210342</ele>
        <time>2022-05-15T09:17:32.917Z</time>
      </trkpt>
      <trkpt lat="41.85589" lon="19.61208">
        <ele>46.404622</ele>
        <time>2022-05-15T09:17:35.915Z</time>
      </trkpt>
      <trkpt lat="41.85597" lon="19.61202">
        <ele>46.600757</ele>
        <time>2022-05-15T09:17:38.920Z</time>
      </trkpt>
      <trkpt lat="41.85606" lon="19.61198">
        <ele>46.795879</ele>
        <time>2022-05-15T09:17:41.910Z</time>
      </trkpt>
      <trkpt lat="41.85616" lon="19.61191">
        <ele>47.042812</ele>
        <time>2022-05-15T09:17:45.940Z</time>
      </trkpt>
      <trkpt lat="41.85625" lon="19.61185">
        <ele>47.26348</ele>
        <time>2022-05-15T09:17:49.912Z</time>
      </trkpt>
      <trkpt lat="41.85634" lon="19.61178">
        <ele>47.478747</ele>
        <time>2022-05-15T09:17:53.912Z</time>
      </trkpt>
      <trkpt lat="41.85643" lon="19.61168">
        <ele>47.719519</ele>
        <time>2022-05-15T09:17:57.914Z</time>
      </trkpt>
      <trkpt lat="41.85651" lon="19.6116">
        <ele>47.923848</ele>
        <time>2022-05-15T09:18:00.921Z</time>
      </trkpt>
      <trkpt lat="41.85659" lon="19.61152">
        <ele>48.138486</ele>
        <time>2022-05-15T09:18:03.918Z</time>
      </trkpt>
      <trkpt lat="41.85668" lon="19.61142">
        <ele>48.390808</ele>
        <time>2022-05-15T09:18:06.918Z</time>
      </trkpt>
      <trkpt lat="41.85678" lon="19.61132">
        <ele>48.634977</ele>
        <time>2022-05-15T09:18:09.914Z</time>
      </trkpt>
      <trkpt lat="41.85686" lon="19.61126">
        <ele>48.627477</ele>
        <time>2022-05-15T09:18:11.916Z</time>
      </trkpt>
      <trkpt lat="41.85695" lon="19.61122">
        <ele>48.619941</ele>
        <time>2022-05-15T09:18:13.952Z</time>
      </trkpt>
      <trkpt lat="41.85706" lon="19.61117">
        <ele>48.610632</ele>
        <time>2022-05-15T09:18:15.921Z</time>
      </trkpt>
      <trkpt lat="41.85718" lon="19.61113">
        <ele>48.601067</ele>
        <time>2022-05-15T09:18:17.919Z</time>
      </trkpt>
      <trkpt lat="41.85729" lon="19.61108">
        <ele>48.591664</ele>
        <time>2022-05-15T09:18:19.911Z</time>
      </trkpt>
      <trkpt lat="41.85739" lon="19.61105">
        <ele>48.583868</ele>
        <time>2022-05-15T09:18:21.920Z</time>
      </trkpt>
      <trkpt lat="41.85749" lon="19.61102">
        <ele>48.575743</ele>
        <time>2022-05-15T09:18:23.916Z</time>
      </trkpt>
      <trkpt lat="41.85758" lon="19.61097">
        <ele>48.567716</ele>
        <time>2022-05-15T09:18:25.911Z</time>
      </trkpt>
      <trkpt lat="41.85767" lon="19.61092">
        <ele>48.559782</ele>
        <time>2022-05-15T09:18:27.913Z</time>
      </trkpt>
      <trkpt lat="41.8578" lon="19.61084">
        <ele>48.548944</ele>
        <time>2022-05-15T09:18:30.919Z</time>
      </trkpt>
      <trkpt lat="41.85788" lon="19.61074">
        <ele>48.539942</ele>
        <time>2022-05-15T09:18:33.913Z</time>
      </trkpt>
      <trkpt lat="41.85796" lon="19.61063">
        <ele>48.530779</ele>
        <time>2022-05-15T09:18:36.912Z</time>
      </trkpt>
      <trkpt lat="41.85804" lon="19.61052">
        <ele>48.522081</ele>
        <time>2022-05-15T09:18:39.918Z</time>
      </trkpt>
      <trkpt lat="41.85813" lon="19.61041">
        <ele>48.51218</ele>
        <time>2022-05-15T09:18:42.924Z</time>
      </trkpt>
      <trkpt lat="41.85822" lon="19.61031">
        <ele>48.502672</ele>
        <time>2022-05-15T09:18:45.918Z</time>
      </trkpt>
      <trkpt lat="41.85833" lon="19.61024">
        <ele>48.493301</ele>
        <time>2022-05-15T09:18:48.921Z</time>
      </trkpt>
      <trkpt lat="41.85842" lon="19.61019">
        <ele>48.277181</ele>
        <time>2022-05-15T09:18:51.926Z</time>
      </trkpt>
      <trkpt lat="41.8585" lon="19.61013">
        <ele>48.058037</ele>
        <time>2022-05-15T09:18:54.919Z</time>
      </trkpt>
      <trkpt lat="41.85859" lon="19.61008">
        <ele>47.820341</ele>
        <time>2022-05-15T09:18:57.924Z</time>
      </trkpt>
      <trkpt lat="41.85869" lon="19.61001">
        <ele>47.544758</ele>
        <time>2022-05-15T09:19:00.918Z</time>
      </trkpt>
      <trkpt lat="41.85879" lon="19.60994">
        <ele>47.268158</ele>
        <time>2022-05-15T09:19:03.951Z</time>
      </trkpt>
      <trkpt lat="41.85889" lon="19.60988">
        <ele>46.997074</ele>
        <time>2022-05-15T09:19:06.924Z</time>
      </trkpt>
      <trkpt lat="41.85898" lon="19.60982">
        <ele>46.742244</ele>
        <time>2022-05-15T09:19:09.915Z</time>
      </trkpt>
      <trkpt lat="41.85908" lon="19.60976">
        <ele>46.495589</ele>
        <time>2022-05-15T09:19:12.935Z</time>
      </trkpt>
      <trkpt lat="41.85916" lon="19.60971">
        <ele>46.262864</ele>
        <time>2022-05-15T09:19:15.923Z</time>
      </trkpt>
      <trkpt lat="41.85924" lon="19.60965">
        <ele>46.03405</ele>
        <time>2022-05-15T09:19:18.919Z</time>
      </trkpt>
      <trkpt lat="41.85935" lon="19.60957">
        <ele>45.743274</ele>
        <time>2022-05-15T09:19:22.913Z</time>
      </trkpt>
      <trkpt lat="41.85943" lon="19.60951">
        <ele>45.521361</ele>
        <time>2022-05-15T09:19:25.936Z</time>
      </trkpt>
      <trkpt lat="41.85953" lon="19.60945">
        <ele>45.246553</ele>
        <time>2022-05-15T09:19:29.914Z</time>
      </trkpt>
      <trkpt lat="41.85963" lon="19.60939">
        <ele>44.978362</ele>
        <time>2022-05-15T09:19:33.919Z</time>
      </trkpt>
      <trkpt lat="41.85973" lon="19.60932">
        <ele>44.699586</ele>
        <time>2022-05-15T09:19:37.911Z</time>
      </trkpt>
      <trkpt lat="41.85982" lon="19.60926">
        <ele>44.46434</ele>
        <time>2022-05-15T09:19:40.915Z</time>
      </trkpt>
      <trkpt lat="41.8599" lon="19.60919">
        <ele>44.224344</ele>
        <time>2022-05-15T09:19:43.913Z</time>
      </trkpt>
      <trkpt lat="41.85999" lon="19.60913">
        <ele>44.149947</ele>
        <time>2022-05-15T09:19:46.913Z</time>
      </trkpt>
      <trkpt lat="41.86009" lon="19.60906">
        <ele>44.255726</ele>
        <time>2022-05-15T09:19:49.919Z</time>
      </trkpt>
      <trkpt lat="41.8602" lon="19.60897">
        <ele>44.37011</ele>
        <time>2022-05-15T09:19:52.911Z</time>
      </trkpt>
      <trkpt lat="41.8603" lon="19.60888">
        <ele>44.483918</ele>
        <time>2022-05-15T09:19:55.912Z</time>
      </trkpt>
      <trkpt lat="41.86041" lon="19.60878">
        <ele>44.605468</ele>
        <time>2022-05-15T09:19:58.916Z</time>
      </trkpt>
      <trkpt lat="41.86049" lon="19.60868">
        <ele>44.710037</ele>
        <time>2022-05-15T09:20:01.915Z</time>
      </trkpt>
      <trkpt lat="41.86057" lon="19.60858">
        <ele>44.815339</ele>
        <time>2022-05-15T09:20:03.907Z</time>
      </trkpt>
      <trkpt lat="41.86065" lon="19.60846">
        <ele>44.91907</ele>
        <time>2022-05-15T09:20:05.912Z</time>
      </trkpt>
      <trkpt lat="41.86072" lon="19.60836">
        <ele>45.015899</ele>
        <time>2022-05-15T09:20:07.914Z</time>
      </trkpt>
      <trkpt lat="41.86078" lon="19.60826">
        <ele>45.110551</ele>
        <time>2022-05-15T09:20:09.921Z</time>
      </trkpt>
      <trkpt lat="41.86085" lon="19.60816">
        <ele>45.204034</ele>
        <time>2022-05-15T09:20:11.915Z</time>
      </trkpt>
      <trkpt lat="41.86092" lon="19.60806">
        <ele>45.295876</ele>
        <time>2022-05-15T09:20:13.912Z</time>
      </trkpt>
      <trkpt lat="41.861" lon="19.60798">
        <ele>45.38522</ele>
        <time>2022-05-15T09:20:15.918Z</time>
      </trkpt>
      <trkpt lat="41.86108" lon="19.60791">
        <ele>45.472477</ele>
        <time>2022-05-15T09:20:17.940Z</time>
      </trkpt>
      <trkpt lat="41.86116" lon="19.60785">
        <ele>45.565026</ele>
        <time>2022-05-15T09:20:19.910Z</time>
      </trkpt>
      <trkpt lat="41.86126" lon="19.6078">
        <ele>45.66097</ele>
        <time>2022-05-15T09:20:21.913Z</time>
      </trkpt>
      <trkpt lat="41.86135" lon="19.60776">
        <ele>45.752199</ele>
        <time>2022-05-15T09:20:23.948Z</time>
      </trkpt>
      <trkpt lat="41.86144" lon="19.60773">
        <ele>45.723913</ele>
        <time>2022-05-15T09:20:25.921Z</time>
      </trkpt>
      <trkpt lat="41.86156" lon="19.60768">
        <ele>45.63971</ele>
        <time>2022-05-15T09:20:28.925Z</time>
      </trkpt>
      <trkpt lat="41.86165" lon="19.60763">
        <ele>45.565543</ele>
        <time>2022-05-15T09:20:31.912Z</time>
      </trkpt>
      <trkpt lat="41.86174" lon="19.60755">
        <ele>45.487474</ele>
        <time>2022-05-15T09:20:34.948Z</time>
      </trkpt>
      <trkpt lat="41.86183" lon="19.60748">
        <ele>45.411931</ele>
        <time>2022-05-15T09:20:37.916Z</time>
      </trkpt>
      <trkpt lat="41.86192" lon="19.60738">
        <ele>45.329394</ele>
        <time>2022-05-15T09:20:40.912Z</time>
      </trkpt>
      <trkpt lat="41.86199" lon="19.6073">
        <ele>45.262255</ele>
        <time>2022-05-15T09:20:42.921Z</time>
      </trkpt>
      <trkpt lat="41.86207" lon="19.60721">
        <ele>45.189755</ele>
        <time>2022-05-15T09:20:44.920Z</time>
      </trkpt>
      <trkpt lat="41.86213" lon="19.60712">
        <ele>45.122507</ele>
        <time>2022-05-15T09:20:46.926Z</time>
      </trkpt>
      <trkpt lat="41.8622" lon="19.60703">
        <ele>45.056239</ele>
        <time>2022-05-15T09:20:48.923Z</time>
      </trkpt>
      <trkpt lat="41.86229" lon="19.60691">
        <ele>44.964027</ele>
        <time>2022-05-15T09:20:51.917Z</time>
      </trkpt>
      <trkpt lat="41.86238" lon="19.60679">
        <ele>44.869666</ele>
        <time>2022-05-15T09:20:54.918Z</time>
      </trkpt>
      <trkpt lat="41.86247" lon="19.60666">
        <ele>44.775413</ele>
        <time>2022-05-15T09:20:57.919Z</time>
      </trkpt>
      <trkpt lat="41.86256" lon="19.60654">
        <ele>44.684476</ele>
        <time>2022-05-15T09:21:00.916Z</time>
      </trkpt>
      <trkpt lat="41.86265" lon="19.60642">
        <ele>44.596936</ele>
        <time>2022-05-15T09:21:03.928Z</time>
      </trkpt>
      <trkpt lat="41.86274" lon="19.60631">
        <ele>44.50694</ele>
        <time>2022-05-15T09:21:06.924Z</time>
      </trkpt>
      <trkpt lat="41.86282" lon="19.60622">
        <ele>44.392855</ele>
        <time>2022-05-15T09:21:08.922Z</time>
      </trkpt>
      <trkpt lat="41.86289" lon="19.60614">
        <ele>44.263277</ele>
        <time>2022-05-15T09:21:10.917Z</time>
      </trkpt>
      <trkpt lat="41.86295" lon="19.60605">
        <ele>44.141131</ele>
        <time>2022-05-15T09:21:12.915Z</time>
      </trkpt>
      <trkpt lat="41.86302" lon="19.60597">
        <ele>44.019599</ele>
        <time>2022-05-15T09:21:14.920Z</time>
      </trkpt>
      <trkpt lat="41.86311" lon="19.60586">
        <ele>43.8531</ele>
        <time>2022-05-15T09:21:17.912Z</time>
      </trkpt>
      <trkpt lat="41.86321" lon="19.60574">
        <ele>43.679548</ele>
        <time>2022-05-15T09:21:20.924Z</time>
      </trkpt>
      <trkpt lat="41.8633" lon="19.60562">
        <ele>43.50759</ele>
        <time>2022-05-15T09:21:23.914Z</time>
      </trkpt>
      <trkpt lat="41.86339" lon="19.60552">
        <ele>43.341032</ele>
        <time>2022-05-15T09:21:26.914Z</time>
      </trkpt>
      <trkpt lat="41.86349" lon="19.6054">
        <ele>43.16715</ele>
        <time>2022-05-15T09:21:29.915Z</time>
      </trkpt>
      <trkpt lat="41.86359" lon="19.60528">
        <ele>42.990578</ele>
        <time>2022-05-15T09:21:32.913Z</time>
      </trkpt>
      <trkpt lat="41.86369" lon="19.60517">
        <ele>42.810646</ele>
        <time>2022-05-15T09:21:35.912Z</time>
      </trkpt>
      <trkpt lat="41.86375" lon="19.60508">
        <ele>42.687438</ele>
        <time>2022-05-15T09:21:37.912Z</time>
      </trkpt>
      <trkpt lat="41.86382" lon="19.605">
        <ele>42.561556</ele>
        <time>2022-05-15T09:21:39.926Z</time>
      </trkpt>
      <trkpt lat="41.86392" lon="19.60488">
        <ele>42.385648</ele>
        <time>2022-05-15T09:21:42.920Z</time>
      </trkpt>
      <trkpt lat="41.86401" lon="19.60477">
        <ele>42.21848</ele>
        <time>2022-05-15T09:21:45.938Z</time>
      </trkpt>
      <trkpt lat="41.86411" lon="19.60467">
        <ele>42.052176</ele>
        <time>2022-05-15T09:21:48.925Z</time>
      </trkpt>
      <trkpt lat="41.86421" lon="19.60456">
        <ele>42.043097</ele>
        <time>2022-05-15T09:21:51.911Z</time>
      </trkpt>
      <trkpt lat="41.86427" lon="19.60448">
        <ele>42.038204</ele>
        <time>2022-05-15T09:21:53.912Z</time>
      </trkpt>
      <trkpt lat="41.86437" lon="19.60436">
        <ele>42.030956</ele>
        <time>2022-05-15T09:21:56.946Z</time>
      </trkpt>
      <trkpt lat="41.86446" lon="19.60423">
        <ele>42.023718</ele>
        <time>2022-05-15T09:21:59.921Z</time>
      </trkpt>
      <trkpt lat="41.86454" lon="19.6041">
        <ele>42.016947</ele>
        <time>2022-05-15T09:22:02.922Z</time>
      </trkpt>
      <trkpt lat="41.86463" lon="19.60396">
        <ele>42.009652</ele>
        <time>2022-05-15T09:22:05.930Z</time>
      </trkpt>
      <trkpt lat="41.86468" lon="19.60386">
        <ele>42.004613</ele>
        <time>2022-05-15T09:22:07.935Z</time>
      </trkpt>
      <trkpt lat="41.86474" lon="19.60377">
        <ele>41.999631</ele>
        <time>2022-05-15T09:22:09.921Z</time>
      </trkpt>
      <trkpt lat="41.86482" lon="19.60363">
        <ele>41.992709</ele>
        <time>2022-05-15T09:22:12.919Z</time>
      </trkpt>
      <trkpt lat="41.86489" lon="19.6035">
        <ele>41.986014</ele>
        <time>2022-05-15T09:22:15.923Z</time>
      </trkpt>
      <trkpt lat="41.86497" lon="19.60337">
        <ele>41.979021</ele>
        <time>2022-05-15T09:22:18.916Z</time>
      </trkpt>
      <trkpt lat="41.86506" lon="19.60324">
        <ele>41.972102</ele>
        <time>2022-05-15T09:22:21.928Z</time>
      </trkpt>
      <trkpt lat="41.86514" lon="19.60312">
        <ele>41.965402</ele>
        <time>2022-05-15T09:22:24.933Z</time>
      </trkpt>
      <trkpt lat="41.86524" lon="19.60302">
        <ele>41.958962</ele>
        <time>2022-05-15T09:22:27.917Z</time>
      </trkpt>
      <trkpt lat="41.86533" lon="19.60293">
        <ele>41.952547</ele>
        <time>2022-05-15T09:22:30.910Z</time>
      </trkpt>
      <trkpt lat="41.86543" lon="19.60285">
        <ele>42.410379</ele>
        <time>2022-05-15T09:22:33.911Z</time>
      </trkpt>
      <trkpt lat="41.86553" lon="19.60278">
        <ele>42.879742</ele>
        <time>2022-05-15T09:22:36.916Z</time>
      </trkpt>
      <trkpt lat="41.86563" lon="19.6027">
        <ele>43.386807</ele>
        <time>2022-05-15T09:22:39.910Z</time>
      </trkpt>
      <trkpt lat="41.86573" lon="19.60262">
        <ele>43.897126</ele>
        <time>2022-05-15T09:22:42.917Z</time>
      </trkpt>
      <trkpt lat="41.86584" lon="19.60253">
        <ele>44.439106</ele>
        <time>2022-05-15T09:22:45.938Z</time>
      </trkpt>
      <trkpt lat="41.86595" lon="19.60243">
        <ele>45.000426</ele>
        <time>2022-05-15T09:22:48.920Z</time>
      </trkpt>
      <trkpt lat="41.86605" lon="19.60232">
        <ele>45.56432</ele>
        <time>2022-05-15T09:22:51.915Z</time>
      </trkpt>
      <trkpt lat="41.86615" lon="19.60221">
        <ele>46.10522</ele>
        <time>2022-05-15T09:22:54.915Z</time>
      </trkpt>
      <trkpt lat="41.86625" lon="19.60211">
        <ele>46.642821</ele>
        <time>2022-05-15T09:22:57.912Z</time>
      </trkpt>
      <trkpt lat="41.86635" lon="19.60201">
        <ele>47.176135</ele>
        <time>2022-05-15T09:23:00.920Z</time>
      </trkpt>
      <trkpt lat="41.86646" lon="19.60192">
        <ele>47.723741</ele>
        <time>2022-05-15T09:23:03.914Z</time>
      </trkpt>
      <trkpt lat="41.86655" lon="19.60187">
        <ele>48.137747</ele>
        <time>2022-05-15T09:23:05.915Z</time>
      </trkpt>
      <trkpt lat="41.86664" lon="19.60183">
        <ele>48.554022</ele>
        <time>2022-05-15T09:23:07.911Z</time>
      </trkpt>
      <trkpt lat="41.86673" lon="19.60178">
        <ele>48.957922</ele>
        <time>2022-05-15T09:23:09.925Z</time>
      </trkpt>
      <trkpt lat="41.86682" lon="19.60175">
        <ele>49.363876</ele>
        <time>2022-05-15T09:23:11.913Z</time>
      </trkpt>
      <trkpt lat="41.8669" lon="19.6017">
        <ele>49.607195</ele>
        <time>2022-05-15T09:23:13.911Z</time>
      </trkpt>
      <trkpt lat="41.86702" lon="19.60163">
        <ele>49.242589</ele>
        <time>2022-05-15T09:23:16.912Z</time>
      </trkpt>
      <trkpt lat="41.86712" lon="19.60155">
        <ele>48.919374</ele>
        <time>2022-05-15T09:23:19.939Z</time>
      </trkpt>
      <trkpt lat="41.86722" lon="19.60147">
        <ele>48.594738</ele>
        <time>2022-05-15T09:23:22.928Z</time>
      </trkpt>
      <trkpt lat="41.8673" lon="19.60136">
        <ele>48.271982</ele>
        <time>2022-05-15T09:23:25.924Z</time>
      </trkpt>
      <trkpt lat="41.86739" lon="19.60125">
        <ele>47.93237</ele>
        <time>2022-05-15T09:23:28.919Z</time>
      </trkpt>
      <trkpt lat="41.86748" lon="19.60113">
        <ele>47.572438</ele>
        <time>2022-05-15T09:23:31.923Z</time>
      </trkpt>
      <trkpt lat="41.86757" lon="19.601">
        <ele>47.201788</ele>
        <time>2022-05-15T09:23:34.919Z</time>
      </trkpt>
      <trkpt lat="41.86767" lon="19.60088">
        <ele>46.838087</ele>
        <time>2022-05-15T09:23:37.909Z</time>
      </trkpt>
      <trkpt lat="41.86776" lon="19.60077">
        <ele>46.492933</ele>
        <time>2022-05-15T09:23:40.917Z</time>
      </trkpt>
      <trkpt lat="41.86785" lon="19.60065">
        <ele>46.125208</ele>
        <time>2022-05-15T09:23:43.952Z</time>
      </trkpt>
      <trkpt lat="41.86794" lon="19.60052">
        <ele>45.756453</ele>
        <time>2022-05-15T09:23:46.957Z</time>
      </trkpt>
      <trkpt lat="41.86802" lon="19.60041">
        <ele>45.433309</ele>
        <time>2022-05-15T09:23:49.909Z</time>
      </trkpt>
      <trkpt lat="41.86809" lon="19.6003">
        <ele>45.13181</ele>
        <time>2022-05-15T09:23:52.913Z</time>
      </trkpt>
      <trkpt lat="41.86817" lon="19.6002">
        <ele>44.813913</ele>
        <time>2022-05-15T09:23:55.918Z</time>
      </trkpt>
      <trkpt lat="41.86827" lon="19.60018">
        <ele>44.62626</ele>
        <time>2022-05-15T09:23:58.936Z</time>
      </trkpt>
      <trkpt lat="41.86839" lon="19.60026">
        <ele>44.682225</ele>
        <time>2022-05-15T09:24:01.911Z</time>
      </trkpt>
      <trkpt lat="41.86848" lon="19.60033">
        <ele>44.728845</ele>
        <time>2022-05-15T09:24:03.924Z</time>
      </trkpt>
      <trkpt lat="41.86857" lon="19.60039">
        <ele>44.77443</ele>
        <time>2022-05-15T09:24:05.915Z</time>
      </trkpt>
      <trkpt lat="41.86866" lon="19.60045">
        <ele>44.818159</ele>
        <time>2022-05-15T09:24:07.910Z</time>
      </trkpt>
      <trkpt lat="41.86875" lon="19.6005">
        <ele>44.859739</ele>
        <time>2022-05-15T09:24:09.921Z</time>
      </trkpt>
      <trkpt lat="41.86887" lon="19.60057">
        <ele>44.916336</ele>
        <time>2022-05-15T09:24:12.914Z</time>
      </trkpt>
      <trkpt lat="41.86899" lon="19.60064">
        <ele>44.972001</ele>
        <time>2022-05-15T09:24:15.917Z</time>
      </trkpt>
      <trkpt lat="41.8691" lon="19.60071">
        <ele>45.025409</ele>
        <time>2022-05-15T09:24:18.923Z</time>
      </trkpt>
      <trkpt lat="41.86919" lon="19.60076">
        <ele>45.067257</ele>
        <time>2022-05-15T09:24:20.921Z</time>
      </trkpt>
      <trkpt lat="41.86927" lon="19.60082">
        <ele>45.110311</ele>
        <time>2022-05-15T09:24:22.914Z</time>
      </trkpt>
      <trkpt lat="41.86936" lon="19.60086">
        <ele>45.150045</ele>
        <time>2022-05-15T09:24:24.925Z</time>
      </trkpt>
      <trkpt lat="41.86946" lon="19.60093">
        <ele>45.201198</ele>
        <time>2022-05-15T09:24:27.908Z</time>
      </trkpt>
      <trkpt lat="41.86958" lon="19.601">
        <ele>45.255277</ele>
        <time>2022-05-15T09:24:30.943Z</time>
      </trkpt>
      <trkpt lat="41.8697" lon="19.60107">
        <ele>45.312665</ele>
        <time>2022-05-15T09:24:33.910Z</time>
      </trkpt>
      <trkpt lat="41.86982" lon="19.60115">
        <ele>45.370458</ele>
        <time>2022-05-15T09:24:36.910Z</time>
      </trkpt>
      <trkpt lat="41.86993" lon="19.60122">
        <ele>45.395299</ele>
        <time>2022-05-15T09:24:39.923Z</time>
      </trkpt>
      <trkpt lat="41.87003" lon="19.60129">
        <ele>45.388001</ele>
        <time>2022-05-15T09:24:42.914Z</time>
      </trkpt>
      <trkpt lat="41.87015" lon="19.60137">
        <ele>45.380101</ele>
        <time>2022-05-15T09:24:45.920Z</time>
      </trkpt>
      <trkpt lat="41.87023" lon="19.60142">
        <ele>45.374438</ele>
        <time>2022-05-15T09:24:47.914Z</time>
      </trkpt>
      <trkpt lat="41.87031" lon="19.60148">
        <ele>45.368774</ele>
        <time>2022-05-15T09:24:49.917Z</time>
      </trkpt>
      <trkpt lat="41.87041" lon="19.60155">
        <ele>45.36141</ele>
        <time>2022-05-15T09:24:52.921Z</time>
      </trkpt>
      <trkpt lat="41.87053" lon="19.60163">
        <ele>45.353598</ele>
        <time>2022-05-15T09:24:55.920Z</time>
      </trkpt>
      <trkpt lat="41.87062" lon="19.60166">
        <ele>45.347953</ele>
        <time>2022-05-15T09:24:57.937Z</time>
      </trkpt>
      <trkpt lat="41.87072" lon="19.60169">
        <ele>45.341271</ele>
        <time>2022-05-15T09:24:59.921Z</time>
      </trkpt>
      <trkpt lat="41.87083" lon="19.60171">
        <ele>45.334626</ele>
        <time>2022-05-15T09:25:01.912Z</time>
      </trkpt>
      <trkpt lat="41.87093" lon="19.60172">
        <ele>45.328443</ele>
        <time>2022-05-15T09:25:03.907Z</time>
      </trkpt>
      <trkpt lat="41.87102" lon="19.60174">
        <ele>45.322711</ele>
        <time>2022-05-15T09:25:05.910Z</time>
      </trkpt>
      <trkpt lat="41.87115" lon="19.60176">
        <ele>45.31472</ele>
        <time>2022-05-15T09:25:08.939Z</time>
      </trkpt>
      <trkpt lat="41.87127" lon="19.60177">
        <ele>45.307011</ele>
        <time>2022-05-15T09:25:11.928Z</time>
      </trkpt>
      <trkpt lat="41.87138" lon="19.60179">
        <ele>45.300078</ele>
        <time>2022-05-15T09:25:14.918Z</time>
      </trkpt>
      <trkpt lat="41.87148" lon="19.6018">
        <ele>45.294227</ele>
        <time>2022-05-15T09:25:17.915Z</time>
      </trkpt>
      <trkpt lat="41.87159" lon="19.60181">
        <ele>45.287395</ele>
        <time>2022-05-15T09:25:20.914Z</time>
      </trkpt>
      <trkpt lat="41.8717" lon="19.60182">
        <ele>45.175049</ele>
        <time>2022-05-15T09:25:23.913Z</time>
      </trkpt>
      <trkpt lat="41.87179" lon="19.60184">
        <ele>45.087805</ele>
        <time>2022-05-15T09:25:25.944Z</time>
      </trkpt>
      <trkpt lat="41.87193" lon="19.60186">
        <ele>44.962012</ele>
        <time>2022-05-15T09:25:28.933Z</time>
      </trkpt>
      <trkpt lat="41.87206" lon="19.60184">
        <ele>44.836277</ele>
        <time>2022-05-15T09:25:31.911Z</time>
      </trkpt>
      <trkpt lat="41.87218" lon="19.60177">
        <ele>44.711722</ele>
        <time>2022-05-15T09:25:34.919Z</time>
      </trkpt>
      <trkpt lat="41.87226" lon="19.60171">
        <ele>44.624981</ele>
        <time>2022-05-15T09:25:36.934Z</time>
      </trkpt>
      <trkpt lat="41.87236" lon="19.60161">
        <ele>44.501995</ele>
        <time>2022-05-15T09:25:39.914Z</time>
      </trkpt>
      <trkpt lat="41.87246" lon="19.60153">
        <ele>44.393193</ele>
        <time>2022-05-15T09:25:42.922Z</time>
      </trkpt>
      <trkpt lat="41.87256" lon="19.60144">
        <ele>44.279942</ele>
        <time>2022-05-15T09:25:45.916Z</time>
      </trkpt>
      <trkpt lat="41.87267" lon="19.60135">
        <ele>44.15726</ele>
        <time>2022-05-15T09:25:48.926Z</time>
      </trkpt>
      <trkpt lat="41.87278" lon="19.60126">
        <ele>44.038551</ele>
        <time>2022-05-15T09:25:51.915Z</time>
      </trkpt>
      <trkpt lat="41.87288" lon="19.60117">
        <ele>43.921066</ele>
        <time>2022-05-15T09:25:54.930Z</time>
      </trkpt>
      <trkpt lat="41.87296" lon="19.60104">
        <ele>43.799131</ele>
        <time>2022-05-15T09:25:57.916Z</time>
      </trkpt>
      <trkpt lat="41.87299" lon="19.60092">
        <ele>43.713963</ele>
        <time>2022-05-15T09:25:59.913Z</time>
      </trkpt>
      <trkpt lat="41.87303" lon="19.60076">
        <ele>43.590884</ele>
        <time>2022-05-15T09:26:02.922Z</time>
      </trkpt>
      <trkpt lat="41.87308" lon="19.60061">
        <ele>43.681283</ele>
        <time>2022-05-15T09:26:05.908Z</time>
      </trkpt>
      <trkpt lat="41.87312" lon="19.60047">
        <ele>43.782831</ele>
        <time>2022-05-15T09:26:08.939Z</time>
      </trkpt>
      <trkpt lat="41.87316" lon="19.60033">
        <ele>43.88246</ele>
        <time>2022-05-15T09:26:11.912Z</time>
      </trkpt>
      <trkpt lat="41.87319" lon="19.6002">
        <ele>43.977936</ele>
        <time>2022-05-15T09:26:14.927Z</time>
      </trkpt>
      <trkpt lat="41.87323" lon="19.60007">
        <ele>44.074385</ele>
        <time>2022-05-15T09:26:17.913Z</time>
      </trkpt>
      <trkpt lat="41.87327" lon="19.59993">
        <ele>44.175622</ele>
        <time>2022-05-15T09:26:20.940Z</time>
      </trkpt>
      <trkpt lat="41.87331" lon="19.59979">
        <ele>44.278778</ele>
        <time>2022-05-15T09:26:23.923Z</time>
      </trkpt>
      <trkpt lat="41.87335" lon="19.59966">
        <ele>44.373283</ele>
        <time>2022-05-15T09:26:26.923Z</time>
      </trkpt>
      <trkpt lat="41.87339" lon="19.59953">
        <ele>44.469444</ele>
        <time>2022-05-15T09:26:29.933Z</time>
      </trkpt>
      <trkpt lat="41.87343" lon="19.5994">
        <ele>44.568484</ele>
        <time>2022-05-15T09:26:32.919Z</time>
      </trkpt>
      <trkpt lat="41.87347" lon="19.59927">
        <ele>44.661236</ele>
        <time>2022-05-15T09:26:35.919Z</time>
      </trkpt>
      <trkpt lat="41.87352" lon="19.59915">
        <ele>44.75709</ele>
        <time>2022-05-15T09:26:38.923Z</time>
      </trkpt>
      <trkpt lat="41.87359" lon="19.59903">
        <ele>44.85908</ele>
        <time>2022-05-15T09:26:41.924Z</time>
      </trkpt>
      <trkpt lat="41.87366" lon="19.59892">
        <ele>44.959812</ele>
        <time>2022-05-15T09:26:44.928Z</time>
      </trkpt>
      <trkpt lat="41.87374" lon="19.59881">
        <ele>45.063522</ele>
        <time>2022-05-15T09:26:47.910Z</time>
      </trkpt>
      <trkpt lat="41.87382" lon="19.5987">
        <ele>45.167113</ele>
        <time>2022-05-15T09:26:50.913Z</time>
      </trkpt>
      <trkpt lat="41.8739" lon="19.59859">
        <ele>45.216661</ele>
        <time>2022-05-15T09:26:53.917Z</time>
      </trkpt>
      <trkpt lat="41.87398" lon="19.59847">
        <ele>45.1805</ele>
        <time>2022-05-15T09:26:56.947Z</time>
      </trkpt>
      <trkpt lat="41.87407" lon="19.59836">
        <ele>45.142736</ele>
        <time>2022-05-15T09:26:59.915Z</time>
      </trkpt>
      <trkpt lat="41.87415" lon="19.59825">
        <ele>45.107693</ele>
        <time>2022-05-15T09:27:02.911Z</time>
      </trkpt>
      <trkpt lat="41.87423" lon="19.59814">
        <ele>45.073137</ele>
        <time>2022-05-15T09:27:05.911Z</time>
      </trkpt>
      <trkpt lat="41.87431" lon="19.59803">
        <ele>45.037932</ele>
        <time>2022-05-15T09:27:08.917Z</time>
      </trkpt>
      <trkpt lat="41.87439" lon="19.59791">
        <ele>45.002518</ele>
        <time>2022-05-15T09:27:11.921Z</time>
      </trkpt>
      <trkpt lat="41.87448" lon="19.59781">
        <ele>44.968382</ele>
        <time>2022-05-15T09:27:14.916Z</time>
      </trkpt>
      <trkpt lat="41.87455" lon="19.5977">
        <ele>44.935203</ele>
        <time>2022-05-15T09:27:17.921Z</time>
      </trkpt>
      <trkpt lat="41.87464" lon="19.59759">
        <ele>44.898244</ele>
        <time>2022-05-15T09:27:20.922Z</time>
      </trkpt>
      <trkpt lat="41.87472" lon="19.59747">
        <ele>44.861337</ele>
        <time>2022-05-15T09:27:23.929Z</time>
      </trkpt>
      <trkpt lat="41.87481" lon="19.59736">
        <ele>44.82519</ele>
        <time>2022-05-15T09:27:26.979Z</time>
      </trkpt>
      <trkpt lat="41.87489" lon="19.59726">
        <ele>44.791076</ele>
        <time>2022-05-15T09:27:29.944Z</time>
      </trkpt>
      <trkpt lat="41.87496" lon="19.59715">
        <ele>44.759656</ele>
        <time>2022-05-15T09:27:32.947Z</time>
      </trkpt>
      <trkpt lat="41.87504" lon="19.59706">
        <ele>44.727489</ele>
        <time>2022-05-15T09:27:35.944Z</time>
      </trkpt>
      <trkpt lat="41.87512" lon="19.59695">
        <ele>44.693946</ele>
        <time>2022-05-15T09:27:38.957Z</time>
      </trkpt>
      <trkpt lat="41.8752" lon="19.59685">
        <ele>44.620974</ele>
        <time>2022-05-15T09:27:41.971Z</time>
      </trkpt>
      <trkpt lat="41.87528" lon="19.59674">
        <ele>44.536311</ele>
        <time>2022-05-15T09:27:44.950Z</time>
      </trkpt>
      <trkpt lat="41.87536" lon="19.59663">
        <ele>44.449371</ele>
        <time>2022-05-15T09:27:47.943Z</time>
      </trkpt>
      <trkpt lat="41.87544" lon="19.59652">
        <ele>44.358277</ele>
        <time>2022-05-15T09:27:50.953Z</time>
      </trkpt>
      <trkpt lat="41.87553" lon="19.59641">
        <ele>44.263028</ele>
        <time>2022-05-15T09:27:53.941Z</time>
      </trkpt>
      <trkpt lat="41.87562" lon="19.59629">
        <ele>44.171386</ele>
        <time>2022-05-15T09:27:56.957Z</time>
      </trkpt>
      <trkpt lat="41.8757" lon="19.59619">
        <ele>44.087661</ele>
        <time>2022-05-15T09:27:59.977Z</time>
      </trkpt>
      <trkpt lat="41.87578" lon="19.59609">
        <ele>44.002669</ele>
        <time>2022-05-15T09:28:02.939Z</time>
      </trkpt>
      <trkpt lat="41.87586" lon="19.59599">
        <ele>43.917678</ele>
        <time>2022-05-15T09:28:05.970Z</time>
      </trkpt>
      <trkpt lat="41.87595" lon="19.59588">
        <ele>43.830972</ele>
        <time>2022-05-15T09:28:08.950Z</time>
      </trkpt>
      <trkpt lat="41.87603" lon="19.59577">
        <ele>43.738287</ele>
        <time>2022-05-15T09:28:11.976Z</time>
      </trkpt>
      <trkpt lat="41.87612" lon="19.59565">
        <ele>43.646095</ele>
        <time>2022-05-15T09:28:14.933Z</time>
      </trkpt>
      <trkpt lat="41.8762" lon="19.59554">
        <ele>43.556348</ele>
        <time>2022-05-15T09:28:17.950Z</time>
      </trkpt>
      <trkpt lat="41.87628" lon="19.59546">
        <ele>43.483981</ele>
        <time>2022-05-15T09:28:20.936Z</time>
      </trkpt>
      <trkpt lat="41.87634" lon="19.59537">
        <ele>43.411647</ele>
        <time>2022-05-15T09:28:23.955Z</time>
      </trkpt>
      <trkpt lat="41.87642" lon="19.59527">
        <ele>43.331136</ele>
        <time>2022-05-15T09:28:26.940Z</time>
      </trkpt>
      <trkpt lat="41.8765" lon="19.59516">
        <ele>43.424115</ele>
        <time>2022-05-15T09:28:29.933Z</time>
      </trkpt>
      <trkpt lat="41.87657" lon="19.59505">
        <ele>43.548417</ele>
        <time>2022-05-15T09:28:32.942Z</time>
      </trkpt>
      <trkpt lat="41.87665" lon="19.59495">
        <ele>43.673524</ele>
        <time>2022-05-15T09:28:35.939Z</time>
      </trkpt>
      <trkpt lat="41.87673" lon="19.59484">
        <ele>43.802638</ele>
        <time>2022-05-15T09:28:38.973Z</time>
      </trkpt>
      <trkpt lat="41.87681" lon="19.59474">
        <ele>43.924133</ele>
        <time>2022-05-15T09:28:41.933Z</time>
      </trkpt>
      <trkpt lat="41.87688" lon="19.59463">
        <ele>44.044972</ele>
        <time>2022-05-15T09:28:44.953Z</time>
      </trkpt>
      <trkpt lat="41.87695" lon="19.59452">
        <ele>44.171021</ele>
        <time>2022-05-15T09:28:47.919Z</time>
      </trkpt>
      <trkpt lat="41.87702" lon="19.59439">
        <ele>44.302936</ele>
        <time>2022-05-15T09:28:50.931Z</time>
      </trkpt>
      <trkpt lat="41.87707" lon="19.59426">
        <ele>44.430252</ele>
        <time>2022-05-15T09:28:53.935Z</time>
      </trkpt>
      <trkpt lat="41.87712" lon="19.59413">
        <ele>44.556279</ele>
        <time>2022-05-15T09:28:56.929Z</time>
      </trkpt>
      <trkpt lat="41.87716" lon="19.594">
        <ele>44.678265</ele>
        <time>2022-05-15T09:28:59.948Z</time>
      </trkpt>
      <trkpt lat="41.87721" lon="19.59389">
        <ele>44.786487</ele>
        <time>2022-05-15T09:29:02.952Z</time>
      </trkpt>
      <trkpt lat="41.87727" lon="19.59378">
        <ele>44.898658</ele>
        <time>2022-05-15T09:29:05.929Z</time>
      </trkpt>
      <trkpt lat="41.87732" lon="19.59367">
        <ele>45.008023</ele>
        <time>2022-05-15T09:29:08.941Z</time>
      </trkpt>
      <trkpt lat="41.87735" lon="19.59354">
        <ele>45.122107</ele>
        <time>2022-05-15T09:29:11.932Z</time>
      </trkpt>
      <trkpt lat="41.8774" lon="19.59341">
        <ele>45.246608</ele>
        <time>2022-05-15T09:29:14.917Z</time>
      </trkpt>
      <trkpt lat="41.87745" lon="19.59329">
        <ele>45.364709</ele>
        <time>2022-05-15T09:29:17.972Z</time>
      </trkpt>
      <trkpt lat="41.8775" lon="19.59316">
        <ele>45.340522</ele>
        <time>2022-05-15T09:29:20.950Z</time>
      </trkpt>
      <trkpt lat="41.87755" lon="19.59303">
        <ele>45.315132</ele>
        <time>2022-05-15T09:29:23.943Z</time>
      </trkpt>
      <trkpt lat="41.8776" lon="19.5929">
        <ele>45.288154</ele>
        <time>2022-05-15T09:29:26.940Z</time>
      </trkpt>
      <trkpt lat="41.87766" lon="19.59277">
        <ele>45.262085</ele>
        <time>2022-05-15T09:29:29.926Z</time>
      </trkpt>
      <trkpt lat="41.87771" lon="19.59263">
        <ele>45.235818</ele>
        <time>2022-05-15T09:29:32.940Z</time>
      </trkpt>
      <trkpt lat="41.87776" lon="19.5925">
        <ele>45.209705</ele>
        <time>2022-05-15T09:29:35.938Z</time>
      </trkpt>
      <trkpt lat="41.87782" lon="19.59236">
        <ele>45.182451</ele>
        <time>2022-05-15T09:29:38.961Z</time>
      </trkpt>
      <trkpt lat="41.87787" lon="19.59223">
        <ele>45.156381</ele>
        <time>2022-05-15T09:29:41.945Z</time>
      </trkpt>
      <trkpt lat="41.87792" lon="19.5921">
        <ele>45.131468</ele>
        <time>2022-05-15T09:29:44.943Z</time>
      </trkpt>
      <trkpt lat="41.87796" lon="19.59197">
        <ele>45.106815</ele>
        <time>2022-05-15T09:29:47.952Z</time>
      </trkpt>
      <trkpt lat="41.87801" lon="19.59184">
        <ele>45.080916</ele>
        <time>2022-05-15T09:29:50.936Z</time>
      </trkpt>
      <trkpt lat="41.87807" lon="19.5917">
        <ele>45.053137</ele>
        <time>2022-05-15T09:29:53.954Z</time>
      </trkpt>
      <trkpt lat="41.87812" lon="19.59156">
        <ele>45.025574</ele>
        <time>2022-05-15T09:29:56.943Z</time>
      </trkpt>
      <trkpt lat="41.87818" lon="19.59142">
        <ele>44.999307</ele>
        <time>2022-05-15T09:29:59.990Z</time>
      </trkpt>
      <trkpt lat="41.87823" lon="19.59129">
        <ele>44.973431</ele>
        <time>2022-05-15T09:30:02.939Z</time>
      </trkpt>
      <trkpt lat="41.87828" lon="19.59115">
        <ele>44.945761</ele>
        <time>2022-05-15T09:30:05.923Z</time>
      </trkpt>
      <trkpt lat="41.87834" lon="19.59102">
        <ele>44.888239</ele>
        <time>2022-05-15T09:30:08.961Z</time>
      </trkpt>
      <trkpt lat="41.87839" lon="19.59089">
        <ele>44.830005</ele>
        <time>2022-05-15T09:30:11.943Z</time>
      </trkpt>
      <trkpt lat="41.87845" lon="19.59075">
        <ele>44.77023</ele>
        <time>2022-05-15T09:30:14.932Z</time>
      </trkpt>
      <trkpt lat="41.8785" lon="19.5906">
        <ele>44.708385</ele>
        <time>2022-05-15T09:30:18.000Z</time>
      </trkpt>
      <trkpt lat="41.87856" lon="19.59046">
        <ele>44.647644</ele>
        <time>2022-05-15T09:30:20.938Z</time>
      </trkpt>
      <trkpt lat="41.87862" lon="19.59033">
        <ele>44.587321</ele>
        <time>2022-05-15T09:30:23.952Z</time>
      </trkpt>
      <trkpt lat="41.87868" lon="19.5902">
        <ele>44.529831</ele>
        <time>2022-05-15T09:30:26.955Z</time>
      </trkpt>
      <trkpt lat="41.87874" lon="19.59009">
        <ele>44.476394</ele>
        <time>2022-05-15T09:30:29.961Z</time>
      </trkpt>
      <trkpt lat="41.87879" lon="19.58997">
        <ele>44.424077</ele>
        <time>2022-05-15T09:30:32.945Z</time>
      </trkpt>
      <trkpt lat="41.87886" lon="19.58985">
        <ele>44.366664</ele>
        <time>2022-05-15T09:30:35.937Z</time>
      </trkpt>
      <trkpt lat="41.87892" lon="19.58973">
        <ele>44.308597</ele>
        <time>2022-05-15T09:30:38.935Z</time>
      </trkpt>
      <trkpt lat="41.87898" lon="19.5896">
        <ele>44.251349</ele>
        <time>2022-05-15T09:30:41.947Z</time>
      </trkpt>
      <trkpt lat="41.87904" lon="19.58948">
        <ele>44.195666</ele>
        <time>2022-05-15T09:30:44.940Z</time>
      </trkpt>
      <trkpt lat="41.87911" lon="19.58935">
        <ele>44.135184</ele>
        <time>2022-05-15T09:30:47.954Z</time>
      </trkpt>
      <trkpt lat="41.87918" lon="19.58923">
        <ele>44.07709</ele>
        <time>2022-05-15T09:30:50.981Z</time>
      </trkpt>
      <trkpt lat="41.87924" lon="19.5891">
        <ele>44.01711</ele>
        <time>2022-05-15T09:30:53.944Z</time>
      </trkpt>
      <trkpt lat="41.87929" lon="19.58897">
        <ele>43.931694</ele>
        <time>2022-05-15T09:30:56.953Z</time>
      </trkpt>
      <trkpt lat="41.87936" lon="19.58884">
        <ele>43.840753</ele>
        <time>2022-05-15T09:30:59.948Z</time>
      </trkpt>
      <trkpt lat="41.87943" lon="19.58872">
        <ele>43.753537</ele>
        <time>2022-05-15T09:31:02.944Z</time>
      </trkpt>
      <trkpt lat="41.87949" lon="19.58861">
        <ele>43.670521</ele>
        <time>2022-05-15T09:31:05.939Z</time>
      </trkpt>
      <trkpt lat="41.87954" lon="19.5885">
        <ele>43.59257</ele>
        <time>2022-05-15T09:31:08.964Z</time>
      </trkpt>
      <trkpt lat="41.8796" lon="19.58838">
        <ele>43.512354</ele>
        <time>2022-05-15T09:31:11.944Z</time>
      </trkpt>
      <trkpt lat="41.87966" lon="19.58826">
        <ele>43.429526</ele>
        <time>2022-05-15T09:31:14.930Z</time>
      </trkpt>
      <trkpt lat="41.87972" lon="19.58814">
        <ele>43.345792</ele>
        <time>2022-05-15T09:31:17.979Z</time>
      </trkpt>
      <trkpt lat="41.87977" lon="19.58802">
        <ele>43.26098</ele>
        <time>2022-05-15T09:31:20.944Z</time>
      </trkpt>
      <trkpt lat="41.87983" lon="19.58789">
        <ele>43.176666</ele>
        <time>2022-05-15T09:31:23.942Z</time>
      </trkpt>
      <trkpt lat="41.87988" lon="19.58778">
        <ele>43.097543</ele>
        <time>2022-05-15T09:31:26.937Z</time>
      </trkpt>
      <trkpt lat="41.87994" lon="19.58766">
        <ele>43.016681</ele>
        <time>2022-05-15T09:31:29.915Z</time>
      </trkpt>
      <trkpt lat="41.88" lon="19.58753">
        <ele>42.930705</ele>
        <time>2022-05-15T09:31:32.907Z</time>
      </trkpt>
      <trkpt lat="41.88006" lon="19.5874">
        <ele>42.839668</ele>
        <time>2022-05-15T09:31:35.917Z</time>
      </trkpt>
      <trkpt lat="41.88013" lon="19.58727">
        <ele>42.742545</ele>
        <time>2022-05-15T09:31:38.937Z</time>
      </trkpt>
      <trkpt lat="41.8802" lon="19.58713">
        <ele>42.646626</ele>
        <time>2022-05-15T09:31:41.959Z</time>
      </trkpt>
      <trkpt lat="41.88025" lon="19.58699">
        <ele>42.650192</ele>
        <time>2022-05-15T09:31:44.942Z</time>
      </trkpt>
      <trkpt lat="41.88031" lon="19.58685">
        <ele>42.704658</ele>
        <time>2022-05-15T09:31:47.940Z</time>
      </trkpt>
      <trkpt lat="41.8804" lon="19.58673">
        <ele>42.759061</ele>
        <time>2022-05-15T09:31:50.927Z</time>
      </trkpt>
      <trkpt lat="41.88049" lon="19.58665">
        <ele>42.806423</ele>
        <time>2022-05-15T09:31:53.925Z</time>
      </trkpt>
      <trkpt lat="41.88061" lon="19.5866">
        <ele>42.860618</ele>
        <time>2022-05-15T09:31:56.944Z</time>
      </trkpt>
      <trkpt lat="41.8807" lon="19.58658">
        <ele>42.904576</ele>
        <time>2022-05-15T09:31:58.939Z</time>
      </trkpt>
      <trkpt lat="41.88083" lon="19.58659">
        <ele>42.962548</ele>
        <time>2022-05-15T09:32:01.937Z</time>
      </trkpt>
      <trkpt lat="41.88094" lon="19.5866">
        <ele>43.010462</ele>
        <time>2022-05-15T09:32:04.925Z</time>
      </trkpt>
      <trkpt lat="41.88105" lon="19.58663">
        <ele>43.059547</ele>
        <time>2022-05-15T09:32:07.953Z</time>
      </trkpt>
      <trkpt lat="41.88116" lon="19.58666">
        <ele>43.108767</ele>
        <time>2022-05-15T09:32:10.932Z</time>
      </trkpt>
      <trkpt lat="41.88127" lon="19.58669">
        <ele>43.159164</ele>
        <time>2022-05-15T09:32:13.943Z</time>
      </trkpt>
      <trkpt lat="41.88138" lon="19.58672">
        <ele>43.209832</ele>
        <time>2022-05-15T09:32:16.917Z</time>
      </trkpt>
      <trkpt lat="41.88148" lon="19.58674">
        <ele>43.2556</ele>
        <time>2022-05-15T09:32:19.951Z</time>
      </trkpt>
      <trkpt lat="41.88158" lon="19.58676">
        <ele>43.300611</ele>
        <time>2022-05-15T09:32:22.933Z</time>
      </trkpt>
      <trkpt lat="41.88168" lon="19.58678">
        <ele>43.346505</ele>
        <time>2022-05-15T09:32:25.978Z</time>
      </trkpt>
      <trkpt lat="41.88179" lon="19.5868">
        <ele>43.39447</ele>
        <time>2022-05-15T09:32:28.944Z</time>
      </trkpt>
      <trkpt lat="41.8819" lon="19.58683">
        <ele>43.414263</ele>
        <time>2022-05-15T09:32:31.983Z</time>
      </trkpt>
      <trkpt lat="41.882" lon="19.58686">
        <ele>43.407847</ele>
        <time>2022-05-15T09:32:34.933Z</time>
      </trkpt>
      <trkpt lat="41.88211" lon="19.58688">
        <ele>43.401435</ele>
        <time>2022-05-15T09:32:37.922Z</time>
      </trkpt>
      <trkpt lat="41.88222" lon="19.5869">
        <ele>43.395222</ele>
        <time>2022-05-15T09:32:40.949Z</time>
      </trkpt>
      <trkpt lat="41.88233" lon="19.58693">
        <ele>43.388928</ele>
        <time>2022-05-15T09:32:43.938Z</time>
      </trkpt>
      <trkpt lat="41.88244" lon="19.5869">
        <ele>43.382269</ele>
        <time>2022-05-15T09:32:46.932Z</time>
      </trkpt>
      <trkpt lat="41.88248" lon="19.58677">
        <ele>43.376071</ele>
        <time>2022-05-15T09:32:49.942Z</time>
      </trkpt>
      <trkpt lat="41.88249" lon="19.58662">
        <ele>43.369814</ele>
        <time>2022-05-15T09:32:52.941Z</time>
      </trkpt>
      <trkpt lat="41.88249" lon="19.58648">
        <ele>43.36354</ele>
        <time>2022-05-15T09:32:55.946Z</time>
      </trkpt>
      <trkpt lat="41.88248" lon="19.58633">
        <ele>43.357266</ele>
        <time>2022-05-15T09:32:58.944Z</time>
      </trkpt>
      <trkpt lat="41.8825" lon="19.58619">
        <ele>43.351117</ele>
        <time>2022-05-15T09:33:01.939Z</time>
      </trkpt>
      <trkpt lat="41.88251" lon="19.58605">
        <ele>43.345121</ele>
        <time>2022-05-15T09:33:04.943Z</time>
      </trkpt>
      <trkpt lat="41.88253" lon="19.5859">
        <ele>43.338673</ele>
        <time>2022-05-15T09:33:07.936Z</time>
      </trkpt>
      <trkpt lat="41.88255" lon="19.58575">
        <ele>43.332046</ele>
        <time>2022-05-15T09:33:10.932Z</time>
      </trkpt>
      <trkpt lat="41.88258" lon="19.58561">
        <ele>43.325694</ele>
        <time>2022-05-15T09:33:13.962Z</time>
      </trkpt>
      <trkpt lat="41.88259" lon="19.58546">
        <ele>43.319316</ele>
        <time>2022-05-15T09:33:16.979Z</time>
      </trkpt>
      <trkpt lat="41.88261" lon="19.58531">
        <ele>43.286346</ele>
        <time>2022-05-15T09:33:19.939Z</time>
      </trkpt>
      <trkpt lat="41.88263" lon="19.58516">
        <ele>43.121849</ele>
        <time>2022-05-15T09:33:22.944Z</time>
      </trkpt>
      <trkpt lat="41.88265" lon="19.58501">
        <ele>42.954941</ele>
        <time>2022-05-15T09:33:25.944Z</time>
      </trkpt>
      <trkpt lat="41.88268" lon="19.58486">
        <ele>42.780914</ele>
        <time>2022-05-15T09:33:28.932Z</time>
      </trkpt>
      <trkpt lat="41.88274" lon="19.58471">
        <ele>42.601999</ele>
        <time>2022-05-15T09:33:31.932Z</time>
      </trkpt>
      <trkpt lat="41.88282" lon="19.58458">
        <ele>42.414542</ele>
        <time>2022-05-15T09:33:34.938Z</time>
      </trkpt>
      <trkpt lat="41.8829" lon="19.58446">
        <ele>42.238324</ele>
        <time>2022-05-15T09:33:37.937Z</time>
      </trkpt>
      <trkpt lat="41.88298" lon="19.58437">
        <ele>42.08484</ele>
        <time>2022-05-15T09:33:40.950Z</time>
      </trkpt>
      <trkpt lat="41.88306" lon="19.58426">
        <ele>41.910885</ele>
        <time>2022-05-15T09:33:44.931Z</time>
      </trkpt>
      <trkpt lat="41.88314" lon="19.58416">
        <ele>41.749363</ele>
        <time>2022-05-15T09:33:47.935Z</time>
      </trkpt>
      <trkpt lat="41.88324" lon="19.58404">
        <ele>41.557822</ele>
        <time>2022-05-15T09:33:50.934Z</time>
      </trkpt>
      <trkpt lat="41.8833" lon="19.58395">
        <ele>41.421009</ele>
        <time>2022-05-15T09:33:52.935Z</time>
      </trkpt>
      <trkpt lat="41.88337" lon="19.58387">
        <ele>41.287997</ele>
        <time>2022-05-15T09:33:54.931Z</time>
      </trkpt>
      <trkpt lat="41.88346" lon="19.58374">
        <ele>41.098322</ele>
        <time>2022-05-15T09:33:57.976Z</time>
      </trkpt>
      <trkpt lat="41.88354" lon="19.58363">
        <ele>40.920564</ele>
        <time>2022-05-15T09:34:00.945Z</time>
      </trkpt>
      <trkpt lat="41.88363" lon="19.58352">
        <ele>40.747975</ele>
        <time>2022-05-15T09:34:03.965Z</time>
      </trkpt>
      <trkpt lat="41.8837" lon="19.5834">
        <ele>40.821014</ele>
        <time>2022-05-15T09:34:06.933Z</time>
      </trkpt>
      <trkpt lat="41.88378" lon="19.5833">
        <ele>41.103912</ele>
        <time>2022-05-15T09:34:09.954Z</time>
      </trkpt>
      <trkpt lat="41.88386" lon="19.58319">
        <ele>41.396754</ele>
        <time>2022-05-15T09:34:12.940Z</time>
      </trkpt>
      <trkpt lat="41.88394" lon="19.58309">
        <ele>41.681425</ele>
        <time>2022-05-15T09:34:15.938Z</time>
      </trkpt>
      <trkpt lat="41.88402" lon="19.58299">
        <ele>41.958988</ele>
        <time>2022-05-15T09:34:18.954Z</time>
      </trkpt>
      <trkpt lat="41.8841" lon="19.58288">
        <ele>42.238746</ele>
        <time>2022-05-15T09:34:21.940Z</time>
      </trkpt>
      <trkpt lat="41.88418" lon="19.58278">
        <ele>42.520255</ele>
        <time>2022-05-15T09:34:24.932Z</time>
      </trkpt>
      <trkpt lat="41.88426" lon="19.58267">
        <ele>42.803094</ele>
        <time>2022-05-15T09:34:27.936Z</time>
      </trkpt>
      <trkpt lat="41.88433" lon="19.58257">
        <ele>43.080506</ele>
        <time>2022-05-15T09:34:30.939Z</time>
      </trkpt>
      <trkpt lat="41.88441" lon="19.58247">
        <ele>43.349729</ele>
        <time>2022-05-15T09:34:33.934Z</time>
      </trkpt>
      <trkpt lat="41.88448" lon="19.58239">
        <ele>43.587443</ele>
        <time>2022-05-15T09:34:36.949Z</time>
      </trkpt>
      <trkpt lat="41.88456" lon="19.58232">
        <ele>43.842181</ele>
        <time>2022-05-15T09:34:39.989Z</time>
      </trkpt>
      <trkpt lat="41.88466" lon="19.58225">
        <ele>44.121951</ele>
        <time>2022-05-15T09:34:42.922Z</time>
      </trkpt>
      <trkpt lat="41.88478" lon="19.58217">
        <ele>44.453644</ele>
        <time>2022-05-15T09:34:45.951Z</time>
      </trkpt>
      <trkpt lat="41.88488" lon="19.58209">
        <ele>44.768633</ele>
        <time>2022-05-15T09:34:48.957Z</time>
      </trkpt>
      <trkpt lat="41.885" lon="19.58201">
        <ele>45.092619</ele>
        <time>2022-05-15T09:34:51.935Z</time>
      </trkpt>
      <trkpt lat="41.88511" lon="19.58193">
        <ele>45.171079</ele>
        <time>2022-05-15T09:34:54.940Z</time>
      </trkpt>
      <trkpt lat="41.88522" lon="19.58185">
        <ele>44.967726</ele>
        <time>2022-05-15T09:34:57.929Z</time>
      </trkpt>
      <trkpt lat="41.88533" lon="19.58177">
        <ele>44.768316</ele>
        <time>2022-05-15T09:35:00.945Z</time>
      </trkpt>
      <trkpt lat="41.88543" lon="19.58171">
        <ele>44.586274</ele>
        <time>2022-05-15T09:35:03.939Z</time>
      </trkpt>
      <trkpt lat="41.88553" lon="19.58164">
        <ele>44.413324</ele>
        <time>2022-05-15T09:35:06.931Z</time>
      </trkpt>
      <trkpt lat="41.88562" lon="19.58157">
        <ele>44.246586</ele>
        <time>2022-05-15T09:35:09.989Z</time>
      </trkpt>
      <trkpt lat="41.88572" lon="19.58151">
        <ele>44.071456</ele>
        <time>2022-05-15T09:35:12.948Z</time>
      </trkpt>
      <trkpt lat="41.88584" lon="19.58143">
        <ele>43.857961</ele>
        <time>2022-05-15T09:35:15.950Z</time>
      </trkpt>
      <trkpt lat="41.88596" lon="19.58135">
        <ele>43.650711</ele>
        <time>2022-05-15T09:35:18.974Z</time>
      </trkpt>
      <trkpt lat="41.88606" lon="19.58128">
        <ele>43.467236</ele>
        <time>2022-05-15T09:35:21.936Z</time>
      </trkpt>
      <trkpt lat="41.88616" lon="19.58121">
        <ele>43.288311</ele>
        <time>2022-05-15T09:35:24.932Z</time>
      </trkpt>
      <trkpt lat="41.88625" lon="19.58112">
        <ele>43.096489</ele>
        <time>2022-05-15T09:35:27.929Z</time>
      </trkpt>
      <trkpt lat="41.88634" lon="19.58102">
        <ele>42.920174</ele>
        <time>2022-05-15T09:35:30.943Z</time>
      </trkpt>
      <trkpt lat="41.88642" lon="19.58092">
        <ele>42.746694</ele>
        <time>2022-05-15T09:35:33.936Z</time>
      </trkpt>
      <trkpt lat="41.88651" lon="19.58082">
        <ele>42.564071</ele>
        <time>2022-05-15T09:35:36.953Z</time>
      </trkpt>
      <trkpt lat="41.88659" lon="19.58072">
        <ele>42.389784</ele>
        <time>2022-05-15T09:35:39.943Z</time>
      </trkpt>
      <trkpt lat="41.88667" lon="19.58063">
        <ele>42.35559</ele>
        <time>2022-05-15T09:35:42.941Z</time>
      </trkpt>
      <trkpt lat="41.88674" lon="19.58053">
        <ele>42.322184</ele>
        <time>2022-05-15T09:35:45.933Z</time>
      </trkpt>
      <trkpt lat="41.88683" lon="19.58042">
        <ele>42.281243</ele>
        <time>2022-05-15T09:35:48.956Z</time>
      </trkpt>
      <trkpt lat="41.88693" lon="19.58031">
        <ele>42.238831</ele>
        <time>2022-05-15T09:35:51.952Z</time>
      </trkpt>
      <trkpt lat="41.88702" lon="19.5802">
        <ele>42.197489</ele>
        <time>2022-05-15T09:35:54.935Z</time>
      </trkpt>
      <trkpt lat="41.88711" lon="19.58009">
        <ele>42.158036</ele>
        <time>2022-05-15T09:35:57.979Z</time>
      </trkpt>
      <trkpt lat="41.88719" lon="19.58">
        <ele>42.122766</ele>
        <time>2022-05-15T09:36:00.943Z</time>
      </trkpt>
      <trkpt lat="41.88727" lon="19.57989">
        <ele>42.085041</ele>
        <time>2022-05-15T09:36:03.927Z</time>
      </trkpt>
      <trkpt lat="41.88736" lon="19.57979">
        <ele>42.045998</ele>
        <time>2022-05-15T09:36:06.951Z</time>
      </trkpt>
      <trkpt lat="41.88744" lon="19.57969">
        <ele>42.008763</ele>
        <time>2022-05-15T09:36:09.940Z</time>
      </trkpt>
      <trkpt lat="41.88753" lon="19.57958">
        <ele>41.969554</ele>
        <time>2022-05-15T09:36:12.942Z</time>
      </trkpt>
      <trkpt lat="41.88762" lon="19.57947">
        <ele>41.930347</ele>
        <time>2022-05-15T09:36:15.952Z</time>
      </trkpt>
      <trkpt lat="41.8877" lon="19.57937">
        <ele>41.893523</ele>
        <time>2022-05-15T09:36:18.930Z</time>
      </trkpt>
      <trkpt lat="41.88778" lon="19.57927">
        <ele>41.857425</ele>
        <time>2022-05-15T09:36:21.940Z</time>
      </trkpt>
      <trkpt lat="41.88787" lon="19.57917">
        <ele>41.81904</ele>
        <time>2022-05-15T09:36:24.943Z</time>
      </trkpt>
      <trkpt lat="41.88796" lon="19.57905">
        <ele>41.882668</ele>
        <time>2022-05-15T09:36:27.936Z</time>
      </trkpt>
      <trkpt lat="41.88805" lon="19.57894">
        <ele>42.066597</ele>
        <time>2022-05-15T09:36:30.952Z</time>
      </trkpt>
      <trkpt lat="41.88813" lon="19.57885">
        <ele>42.218892</ele>
        <time>2022-05-15T09:36:33.951Z</time>
      </trkpt>
      <trkpt lat="41.88821" lon="19.57876">
        <ele>42.391227</ele>
        <time>2022-05-15T09:36:37.940Z</time>
      </trkpt>
      <trkpt lat="41.8883" lon="19.57866">
        <ele>42.553842</ele>
        <time>2022-05-15T09:36:40.976Z</time>
      </trkpt>
      <trkpt lat="41.88839" lon="19.57856">
        <ele>42.737733</ele>
        <time>2022-05-15T09:36:43.952Z</time>
      </trkpt>
      <trkpt lat="41.88846" lon="19.57848">
        <ele>42.883972</ele>
        <time>2022-05-15T09:36:45.943Z</time>
      </trkpt>
      <trkpt lat="41.88853" lon="19.57839">
        <ele>43.02569</ele>
        <time>2022-05-15T09:36:47.940Z</time>
      </trkpt>
      <trkpt lat="41.8886" lon="19.57831">
        <ele>43.164469</ele>
        <time>2022-05-15T09:36:49.948Z</time>
      </trkpt>
      <trkpt lat="41.8887" lon="19.57819">
        <ele>43.366615</ele>
        <time>2022-05-15T09:36:52.981Z</time>
      </trkpt>
      <trkpt lat="41.88878" lon="19.57808">
        <ele>43.537013</ele>
        <time>2022-05-15T09:36:55.977Z</time>
      </trkpt>
      <trkpt lat="41.88886" lon="19.57799">
        <ele>43.698747</ele>
        <time>2022-05-15T09:36:58.947Z</time>
      </trkpt>
      <trkpt lat="41.88893" lon="19.5779">
        <ele>43.855552</ele>
        <time>2022-05-15T09:37:01.947Z</time>
      </trkpt>
      <trkpt lat="41.88901" lon="19.5778">
        <ele>44.014603</ele>
        <time>2022-05-15T09:37:04.944Z</time>
      </trkpt>
      <trkpt lat="41.8891" lon="19.5777">
        <ele>44.182331</ele>
        <time>2022-05-15T09:37:07.954Z</time>
      </trkpt>
      <trkpt lat="41.88918" lon="19.5776">
        <ele>44.36212</ele>
        <time>2022-05-15T09:37:10.953Z</time>
      </trkpt>
      <trkpt lat="41.88927" lon="19.57749">
        <ele>44.524796</ele>
        <time>2022-05-15T09:37:13.942Z</time>
      </trkpt>
      <trkpt lat="41.88935" lon="19.57739">
        <ele>44.510014</ele>
        <time>2022-05-15T09:37:16.953Z</time>
      </trkpt>
      <trkpt lat="41.88944" lon="19.57729">
        <ele>44.495127</ele>
        <time>2022-05-15T09:37:19.933Z</time>
      </trkpt>
      <trkpt lat="41.88952" lon="19.57719">
        <ele>44.479884</ele>
        <time>2022-05-15T09:37:22.934Z</time>
      </trkpt>
      <trkpt lat="41.8896" lon="19.57709">
        <ele>44.464938</ele>
        <time>2022-05-15T09:37:25.934Z</time>
      </trkpt>
      <trkpt lat="41.88969" lon="19.57698">
        <ele>44.449161</ele>
        <time>2022-05-15T09:37:28.978Z</time>
      </trkpt>
      <trkpt lat="41.88977" lon="19.57687">
        <ele>44.434177</ele>
        <time>2022-05-15T09:37:31.947Z</time>
      </trkpt>
      <trkpt lat="41.88985" lon="19.57679">
        <ele>44.42114</ele>
        <time>2022-05-15T09:37:34.974Z</time>
      </trkpt>
      <trkpt lat="41.88993" lon="19.57668">
        <ele>44.405997</ele>
        <time>2022-05-15T09:37:37.944Z</time>
      </trkpt>
      <trkpt lat="41.89003" lon="19.57657">
        <ele>44.388607</ele>
        <time>2022-05-15T09:37:40.966Z</time>
      </trkpt>
      <trkpt lat="41.89013" lon="19.57645">
        <ele>44.371349</ele>
        <time>2022-05-15T09:37:43.945Z</time>
      </trkpt>
      <trkpt lat="41.89022" lon="19.57635">
        <ele>44.355511</ele>
        <time>2022-05-15T09:37:46.943Z</time>
      </trkpt>
      <trkpt lat="41.89029" lon="19.57625">
        <ele>44.341718</ele>
        <time>2022-05-15T09:37:49.924Z</time>
      </trkpt>
      <trkpt lat="41.89036" lon="19.57617">
        <ele>44.329639</ele>
        <time>2022-05-15T09:37:52.943Z</time>
      </trkpt>
      <trkpt lat="41.89044" lon="19.57607">
        <ele>44.315352</ele>
        <time>2022-05-15T09:37:59.936Z</time>
      </trkpt>
      <trkpt lat="41.89052" lon="19.57598">
        <ele>44.301716</ele>
        <time>2022-05-15T09:38:03.934Z</time>
      </trkpt>
      <trkpt lat="41.89059" lon="19.5759">
        <ele>44.288881</ele>
        <time>2022-05-15T09:38:06.942Z</time>
      </trkpt>
      <trkpt lat="41.89067" lon="19.5758">
        <ele>44.126438</ele>
        <time>2022-05-15T09:38:09.933Z</time>
      </trkpt>
      <trkpt lat="41.89075" lon="19.57571">
        <ele>43.950463</ele>
        <time>2022-05-15T09:38:12.937Z</time>
      </trkpt>
      <trkpt lat="41.89082" lon="19.57562">
        <ele>43.783748</ele>
        <time>2022-05-15T09:38:15.940Z</time>
      </trkpt>
      <trkpt lat="41.89091" lon="19.57551">
        <ele>43.578267</ele>
        <time>2022-05-15T09:38:19.945Z</time>
      </trkpt>
      <trkpt lat="41.89099" lon="19.57543">
        <ele>43.406876</ele>
        <time>2022-05-15T09:38:22.935Z</time>
      </trkpt>
      <trkpt lat="41.89107" lon="19.57534">
        <ele>43.240293</ele>
        <time>2022-05-15T09:38:25.943Z</time>
      </trkpt>
      <trkpt lat="41.89115" lon="19.57526">
        <ele>43.060028</ele>
        <time>2022-05-15T09:38:28.938Z</time>
      </trkpt>
      <trkpt lat="41.89124" lon="19.57518">
        <ele>42.874237</ele>
        <time>2022-05-15T09:38:31.948Z</time>
      </trkpt>
      <trkpt lat="41.89133" lon="19.57509">
        <ele>42.701681</ele>
        <time>2022-05-15T09:38:34.943Z</time>
      </trkpt>
      <trkpt lat="41.89141" lon="19.57501">
        <ele>42.530087</ele>
        <time>2022-05-15T09:38:37.933Z</time>
      </trkpt>
      <trkpt lat="41.8915" lon="19.57492">
        <ele>42.336816</ele>
        <time>2022-05-15T09:38:40.930Z</time>
      </trkpt>
      <trkpt lat="41.89159" lon="19.57482">
        <ele>42.138149</ele>
        <time>2022-05-15T09:38:43.945Z</time>
      </trkpt>
      <trkpt lat="41.89167" lon="19.57474">
        <ele>41.962851</ele>
        <time>2022-05-15T09:38:46.929Z</time>
      </trkpt>
      <trkpt lat="41.89175" lon="19.57467">
        <ele>41.80509</ele>
        <time>2022-05-15T09:38:49.956Z</time>
      </trkpt>
      <trkpt lat="41.89183" lon="19.57459">
        <ele>41.641595</ele>
        <time>2022-05-15T09:38:52.969Z</time>
      </trkpt>
      <trkpt lat="41.89191" lon="19.5745">
        <ele>41.46542</ele>
        <time>2022-05-15T09:38:55.942Z</time>
      </trkpt>
      <trkpt lat="41.892" lon="19.57442">
        <ele>41.280791</ele>
        <time>2022-05-15T09:38:58.929Z</time>
      </trkpt>
      <trkpt lat="41.89209" lon="19.57432">
        <ele>41.284871</ele>
        <time>2022-05-15T09:39:01.952Z</time>
      </trkpt>
      <trkpt lat="41.8922" lon="19.57423">
        <ele>41.345973</ele>
        <time>2022-05-15T09:39:04.945Z</time>
      </trkpt>
      <trkpt lat="41.8923" lon="19.57413">
        <ele>41.408129</ele>
        <time>2022-05-15T09:39:07.934Z</time>
      </trkpt>
      <trkpt lat="41.8924" lon="19.57404">
        <ele>41.468407</ele>
        <time>2022-05-15T09:39:10.946Z</time>
      </trkpt>
      <trkpt lat="41.89249" lon="19.57395">
        <ele>41.524777</ele>
        <time>2022-05-15T09:39:13.944Z</time>
      </trkpt>
      <trkpt lat="41.89259" lon="19.57388">
        <ele>41.580622</ele>
        <time>2022-05-15T09:39:16.924Z</time>
      </trkpt>
      <trkpt lat="41.89269" lon="19.57381">
        <ele>41.638613</ele>
        <time>2022-05-15T09:39:19.926Z</time>
      </trkpt>
      <trkpt lat="41.8928" lon="19.57374">
        <ele>41.696269</ele>
        <time>2022-05-15T09:39:22.944Z</time>
      </trkpt>
      <trkpt lat="41.89291" lon="19.57368">
        <ele>41.75484</ele>
        <time>2022-05-15T09:39:25.945Z</time>
      </trkpt>
      <trkpt lat="41.89301" lon="19.57362">
        <ele>41.810031</ele>
        <time>2022-05-15T09:39:28.947Z</time>
      </trkpt>
      <trkpt lat="41.89311" lon="19.57356">
        <ele>41.865296</ele>
        <time>2022-05-15T09:39:31.953Z</time>
      </trkpt>
      <trkpt lat="41.89322" lon="19.5735">
        <ele>41.923223</ele>
        <time>2022-05-15T09:39:34.942Z</time>
      </trkpt>
      <trkpt lat="41.89332" lon="19.57345">
        <ele>41.978122</ele>
        <time>2022-05-15T09:39:37.943Z</time>
      </trkpt>
      <trkpt lat="41.89342" lon="19.57339">
        <ele>42.032711</ele>
        <time>2022-05-15T09:39:40.948Z</time>
      </trkpt>
      <trkpt lat="41.89353" lon="19.57333">
        <ele>42.088667</ele>
        <time>2022-05-15T09:39:43.932Z</time>
      </trkpt>
      <trkpt lat="41.89364" lon="19.57327">
        <ele>42.134309</ele>
        <time>2022-05-15T09:39:46.944Z</time>
      </trkpt>
      <trkpt lat="41.89374" lon="19.57321">
        <ele>42.151208</ele>
        <time>2022-05-15T09:39:49.972Z</time>
      </trkpt>
      <trkpt lat="41.89384" lon="19.57315">
        <ele>42.16722</ele>
        <time>2022-05-15T09:39:52.956Z</time>
      </trkpt>
      <trkpt lat="41.89394" lon="19.57309">
        <ele>42.182404</ele>
        <time>2022-05-15T09:39:55.957Z</time>
      </trkpt>
      <trkpt lat="41.89404" lon="19.57303">
        <ele>42.19899</ele>
        <time>2022-05-15T09:39:58.938Z</time>
      </trkpt>
      <trkpt lat="41.89415" lon="19.57298">
        <ele>42.215124</ele>
        <time>2022-05-15T09:40:01.942Z</time>
      </trkpt>
      <trkpt lat="41.89425" lon="19.57293">
        <ele>42.231431</ele>
        <time>2022-05-15T09:40:04.938Z</time>
      </trkpt>
      <trkpt lat="41.89436" lon="19.57287">
        <ele>42.247937</ele>
        <time>2022-05-15T09:40:07.946Z</time>
      </trkpt>
      <trkpt lat="41.89446" lon="19.57281">
        <ele>42.264037</ele>
        <time>2022-05-15T09:40:10.950Z</time>
      </trkpt>
      <trkpt lat="41.89456" lon="19.57275">
        <ele>42.279606</ele>
        <time>2022-05-15T09:40:13.956Z</time>
      </trkpt>
      <trkpt lat="41.89466" lon="19.5727">
        <ele>42.295157</ele>
        <time>2022-05-15T09:40:16.943Z</time>
      </trkpt>
      <trkpt lat="41.89475" lon="19.57264">
        <ele>42.310381</ele>
        <time>2022-05-15T09:40:19.939Z</time>
      </trkpt>
      <trkpt lat="41.89486" lon="19.57259">
        <ele>42.326068</ele>
        <time>2022-05-15T09:40:22.965Z</time>
      </trkpt>
      <trkpt lat="41.89495" lon="19.57254">
        <ele>42.340902</ele>
        <time>2022-05-15T09:40:25.951Z</time>
      </trkpt>
      <trkpt lat="41.89505" lon="19.57249">
        <ele>42.356706</ele>
        <time>2022-05-15T09:40:28.944Z</time>
      </trkpt>
      <trkpt lat="41.89515" lon="19.57243">
        <ele>42.37286</ele>
        <time>2022-05-15T09:40:31.949Z</time>
      </trkpt>
      <trkpt lat="41.89526" lon="19.57238">
        <ele>42.38884</ele>
        <time>2022-05-15T09:40:34.932Z</time>
      </trkpt>
      <trkpt lat="41.89536" lon="19.57232">
        <ele>42.43342</ele>
        <time>2022-05-15T09:40:37.950Z</time>
      </trkpt>
      <trkpt lat="41.89546" lon="19.57227">
        <ele>42.481648</ele>
        <time>2022-05-15T09:40:40.949Z</time>
      </trkpt>
      <trkpt lat="41.89557" lon="19.57221">
        <ele>42.530844</ele>
        <time>2022-05-15T09:40:43.959Z</time>
      </trkpt>
      <trkpt lat="41.89567" lon="19.57216">
        <ele>42.577788</ele>
        <time>2022-05-15T09:40:46.948Z</time>
      </trkpt>
      <trkpt lat="41.89577" lon="19.5721">
        <ele>42.622574</ele>
        <time>2022-05-15T09:40:49.989Z</time>
      </trkpt>
      <trkpt lat="41.89586" lon="19.57205">
        <ele>42.667845</ele>
        <time>2022-05-15T09:40:52.945Z</time>
      </trkpt>
      <trkpt lat="41.89596" lon="19.572">
        <ele>42.713582</ele>
        <time>2022-05-15T09:40:55.978Z</time>
      </trkpt>
      <trkpt lat="41.89607" lon="19.57195">
        <ele>42.762143</ele>
        <time>2022-05-15T09:40:58.931Z</time>
      </trkpt>
      <trkpt lat="41.89617" lon="19.5719">
        <ele>42.809895</ele>
        <time>2022-05-15T09:41:01.947Z</time>
      </trkpt>
      <trkpt lat="41.89627" lon="19.57184">
        <ele>42.857014</ele>
        <time>2022-05-15T09:41:04.941Z</time>
      </trkpt>
      <trkpt lat="41.89637" lon="19.57179">
        <ele>42.901797</ele>
        <time>2022-05-15T09:41:07.933Z</time>
      </trkpt>
      <trkpt lat="41.89647" lon="19.57174">
        <ele>42.949729</ele>
        <time>2022-05-15T09:41:10.949Z</time>
      </trkpt>
      <trkpt lat="41.89658" lon="19.57168">
        <ele>43.000368</ele>
        <time>2022-05-15T09:41:13.952Z</time>
      </trkpt>
      <trkpt lat="41.89669" lon="19.57162">
        <ele>43.051411</ele>
        <time>2022-05-15T09:41:16.937Z</time>
      </trkpt>
      <trkpt lat="41.8968" lon="19.57156">
        <ele>43.102409</ele>
        <time>2022-05-15T09:41:19.934Z</time>
      </trkpt>
      <trkpt lat="41.8969" lon="19.5715">
        <ele>43.152064</ele>
        <time>2022-05-15T09:41:22.948Z</time>
      </trkpt>
      <trkpt lat="41.89701" lon="19.57144">
        <ele>43.197438</ele>
        <time>2022-05-15T09:41:25.943Z</time>
      </trkpt>
      <trkpt lat="41.89711" lon="19.57138">
        <ele>43.240539</ele>
        <time>2022-05-15T09:41:28.944Z</time>
      </trkpt>
      <trkpt lat="41.89722" lon="19.57132">
        <ele>43.283901</ele>
        <time>2022-05-15T09:41:31.951Z</time>
      </trkpt>
      <trkpt lat="41.89732" lon="19.57127">
        <ele>43.326071</ele>
        <time>2022-05-15T09:41:34.984Z</time>
      </trkpt>
      <trkpt lat="41.89742" lon="19.57121">
        <ele>43.368481</ele>
        <time>2022-05-15T09:41:37.947Z</time>
      </trkpt>
      <trkpt lat="41.89752" lon="19.57115">
        <ele>43.41199</ele>
        <time>2022-05-15T09:41:40.931Z</time>
      </trkpt>
      <trkpt lat="41.89762" lon="19.5711">
        <ele>43.45288</ele>
        <time>2022-05-15T09:41:43.953Z</time>
      </trkpt>
      <trkpt lat="41.89773" lon="19.57104">
        <ele>43.496287</ele>
        <time>2022-05-15T09:41:46.932Z</time>
      </trkpt>
      <trkpt lat="41.89783" lon="19.57099">
        <ele>43.538371</ele>
        <time>2022-05-15T09:41:49.934Z</time>
      </trkpt>
      <trkpt lat="41.89793" lon="19.57093">
        <ele>43.580916</ele>
        <time>2022-05-15T09:41:52.936Z</time>
      </trkpt>
      <trkpt lat="41.89803" lon="19.57087">
        <ele>43.621694</ele>
        <time>2022-05-15T09:41:55.934Z</time>
      </trkpt>
      <trkpt lat="41.89813" lon="19.57082">
        <ele>43.660727</ele>
        <time>2022-05-15T09:41:58.982Z</time>
      </trkpt>
      <trkpt lat="41.89822" lon="19.57077">
        <ele>43.701428</ele>
        <time>2022-05-15T09:42:01.931Z</time>
      </trkpt>
      <trkpt lat="41.89833" lon="19.57071">
        <ele>43.74664</ele>
        <time>2022-05-15T09:42:04.929Z</time>
      </trkpt>
      <trkpt lat="41.89844" lon="19.57065">
        <ele>43.792141</ele>
        <time>2022-05-15T09:42:07.946Z</time>
      </trkpt>
      <trkpt lat="41.89855" lon="19.57059">
        <ele>43.836172</ele>
        <time>2022-05-15T09:42:10.933Z</time>
      </trkpt>
      <trkpt lat="41.89865" lon="19.57053">
        <ele>43.919065</ele>
        <time>2022-05-15T09:42:13.941Z</time>
      </trkpt>
      <trkpt lat="41.89875" lon="19.57048">
        <ele>44.033871</ele>
        <time>2022-05-15T09:42:16.953Z</time>
      </trkpt>
      <trkpt lat="41.89885" lon="19.57041">
        <ele>44.165178</ele>
        <time>2022-05-15T09:42:19.932Z</time>
      </trkpt>
      <trkpt lat="41.89897" lon="19.57033">
        <ele>44.312591</ele>
        <time>2022-05-15T09:42:22.933Z</time>
      </trkpt>
      <trkpt lat="41.89909" lon="19.57026">
        <ele>44.463775</ele>
        <time>2022-05-15T09:42:25.939Z</time>
      </trkpt>
      <trkpt lat="41.8992" lon="19.57017">
        <ele>44.608271</ele>
        <time>2022-05-15T09:42:28.948Z</time>
      </trkpt>
      <trkpt lat="41.89931" lon="19.57009">
        <ele>44.744004</ele>
        <time>2022-05-15T09:42:31.936Z</time>
      </trkpt>
      <trkpt lat="41.89941" lon="19.57">
        <ele>44.88571</ele>
        <time>2022-05-15T09:42:34.946Z</time>
      </trkpt>
      <trkpt lat="41.89952" lon="19.5699">
        <ele>45.029726</ele>
        <time>2022-05-15T09:42:37.951Z</time>
      </trkpt>
      <trkpt lat="41.89961" lon="19.5698">
        <ele>45.162366</ele>
        <time>2022-05-15T09:42:40.949Z</time>
      </trkpt>
      <trkpt lat="41.89971" lon="19.56969">
        <ele>45.305901</ele>
        <time>2022-05-15T09:42:43.942Z</time>
      </trkpt>
      <trkpt lat="41.89979" lon="19.56956">
        <ele>45.44973</ele>
        <time>2022-05-15T09:42:46.939Z</time>
      </trkpt>
      <trkpt lat="41.89988" lon="19.56944">
        <ele>45.594166</ele>
        <time>2022-05-15T09:42:49.951Z</time>
      </trkpt>
      <trkpt lat="41.89997" lon="19.56934">
        <ele>45.7266</ele>
        <time>2022-05-15T09:42:52.976Z</time>
      </trkpt>
      <trkpt lat="41.90005" lon="19.56925">
        <ele>45.845063</ele>
        <time>2022-05-15T09:42:55.932Z</time>
      </trkpt>
      <trkpt lat="41.90014" lon="19.56915">
        <ele>45.803492</ele>
        <time>2022-05-15T09:42:58.951Z</time>
      </trkpt>
      <trkpt lat="41.90023" lon="19.56905">
        <ele>45.685372</ele>
        <time>2022-05-15T09:43:01.941Z</time>
      </trkpt>
      <trkpt lat="41.9003" lon="19.56894">
        <ele>45.57383</ele>
        <time>2022-05-15T09:43:04.944Z</time>
      </trkpt>
      <trkpt lat="41.90036" lon="19.56882">
        <ele>45.463697</ele>
        <time>2022-05-15T09:43:07.955Z</time>
      </trkpt>
      <trkpt lat="41.90041" lon="19.56871">
        <ele>45.367363</ele>
        <time>2022-05-15T09:43:10.936Z</time>
      </trkpt>
      <trkpt lat="41.90047" lon="19.56859">
        <ele>45.256096</ele>
        <time>2022-05-15T09:43:14.953Z</time>
      </trkpt>
      <trkpt lat="41.90052" lon="19.56836">
        <ele>45.079641</ele>
        <time>2022-05-15T09:45:15.923Z</time>
      </trkpt>
      <trkpt lat="41.90056" lon="19.56824">
        <ele>44.973167</ele>
        <time>2022-05-15T09:45:19.907Z</time>
      </trkpt>
      <trkpt lat="41.90061" lon="19.56809">
        <ele>44.854065</ele>
        <time>2022-05-15T09:45:23.917Z</time>
      </trkpt>
      <trkpt lat="41.90065" lon="19.56798">
        <ele>44.760568</ele>
        <time>2022-05-15T09:45:26.950Z</time>
      </trkpt>
      <trkpt lat="41.90069" lon="19.56786">
        <ele>44.659342</ele>
        <time>2022-05-15T09:45:30.912Z</time>
      </trkpt>
      <trkpt lat="41.90075" lon="19.56773">
        <ele>44.542826</ele>
        <time>2022-05-15T09:45:34.911Z</time>
      </trkpt>
      <trkpt lat="41.9008" lon="19.56762">
        <ele>44.448221</ele>
        <time>2022-05-15T09:45:37.942Z</time>
      </trkpt>
      <trkpt lat="41.90086" lon="19.56752">
        <ele>44.350899</ele>
        <time>2022-05-15T09:45:40.910Z</time>
      </trkpt>
      <trkpt lat="41.90092" lon="19.56741">
        <ele>44.246614</ele>
        <time>2022-05-15T09:45:43.918Z</time>
      </trkpt>
      <trkpt lat="41.901" lon="19.56731">
        <ele>44.13862</ele>
        <time>2022-05-15T09:45:46.923Z</time>
      </trkpt>
      <trkpt lat="41.90107" lon="19.5672">
        <ele>44.076259</ele>
        <time>2022-05-15T09:45:49.931Z</time>
      </trkpt>
      <trkpt lat="41.90116" lon="19.5671">
        <ele>44.178438</ele>
        <time>2022-05-15T09:45:52.913Z</time>
      </trkpt>
      <trkpt lat="41.90124" lon="19.56701">
        <ele>44.274063</ele>
        <time>2022-05-15T09:45:55.916Z</time>
      </trkpt>
      <trkpt lat="41.90132" lon="19.56694">
        <ele>44.36353</ele>
        <time>2022-05-15T09:45:58.918Z</time>
      </trkpt>
      <trkpt lat="41.90141" lon="19.56687">
        <ele>44.454243</ele>
        <time>2022-05-15T09:46:01.915Z</time>
      </trkpt>
      <trkpt lat="41.90151" lon="19.56681">
        <ele>44.549745</ele>
        <time>2022-05-15T09:46:04.908Z</time>
      </trkpt>
      <trkpt lat="41.90162" lon="19.56675">
        <ele>44.653899</ele>
        <time>2022-05-15T09:46:07.979Z</time>
      </trkpt>
      <trkpt lat="41.90172" lon="19.56669">
        <ele>44.752393</ele>
        <time>2022-05-15T09:46:10.919Z</time>
      </trkpt>
      <trkpt lat="41.90182" lon="19.56663">
        <ele>44.848128</ele>
        <time>2022-05-15T09:46:13.914Z</time>
      </trkpt>
      <trkpt lat="41.90192" lon="19.56657">
        <ele>44.94497</ele>
        <time>2022-05-15T09:46:16.908Z</time>
      </trkpt>
      <trkpt lat="41.90198" lon="19.56647">
        <ele>45.033993</ele>
        <time>2022-05-15T09:46:19.907Z</time>
      </trkpt>
      <trkpt lat="41.90197" lon="19.56634">
        <ele>45.121807</ele>
        <time>2022-05-15T09:46:22.922Z</time>
      </trkpt>
      <trkpt lat="41.90192" lon="19.56619">
        <ele>45.22937</ele>
        <time>2022-05-15T09:46:25.915Z</time>
      </trkpt>
      <trkpt lat="41.90189" lon="19.56604">
        <ele>45.33459</ele>
        <time>2022-05-15T09:46:28.923Z</time>
      </trkpt>
      <trkpt lat="41.90185" lon="19.56589">
        <ele>45.437273</ele>
        <time>2022-05-15T09:46:31.907Z</time>
      </trkpt>
      <trkpt lat="41.90182" lon="19.56577">
        <ele>45.527066</ele>
        <time>2022-05-15T09:46:34.911Z</time>
      </trkpt>
      <trkpt lat="41.90179" lon="19.56562">
        <ele>45.629357</ele>
        <time>2022-05-15T09:46:37.914Z</time>
      </trkpt>
      <trkpt lat="41.90177" lon="19.5655">
        <ele>45.704517</ele>
        <time>2022-05-15T09:46:40.911Z</time>
      </trkpt>
      <trkpt lat="41.90182" lon="19.56539">
        <ele>45.781426</ele>
        <time>2022-05-15T09:46:44.911Z</time>
      </trkpt>
      <trkpt lat="41.9019" lon="19.56534">
        <ele>45.857322</ele>
        <time>2022-05-15T09:46:47.910Z</time>
      </trkpt>
      <trkpt lat="41.90199" lon="19.56528">
        <ele>45.937606</ele>
        <time>2022-05-15T09:46:50.911Z</time>
      </trkpt>
      <trkpt lat="41.90208" lon="19.56521">
        <ele>46.018255</ele>
        <time>2022-05-15T09:46:53.911Z</time>
      </trkpt>
      <trkpt lat="41.90217" lon="19.56515">
        <ele>46.100456</ele>
        <time>2022-05-15T09:46:56.912Z</time>
      </trkpt>
      <trkpt lat="41.90227" lon="19.56508">
        <ele>46.189299</ele>
        <time>2022-05-15T09:46:59.910Z</time>
      </trkpt>
      <trkpt lat="41.90235" lon="19.56502">
        <ele>46.261473</ele>
        <time>2022-05-15T09:47:01.916Z</time>
      </trkpt>
      <trkpt lat="41.90243" lon="19.56496">
        <ele>46.334521</ele>
        <time>2022-05-15T09:47:03.919Z</time>
      </trkpt>
      <trkpt lat="41.90254" lon="19.56487">
        <ele>46.438345</ele>
        <time>2022-05-15T09:47:06.916Z</time>
      </trkpt>
      <trkpt lat="41.90265" lon="19.56478">
        <ele>46.542062</ele>
        <time>2022-05-15T09:47:09.921Z</time>
      </trkpt>
      <trkpt lat="41.90277" lon="19.56469">
        <ele>46.649451</ele>
        <time>2022-05-15T09:47:12.909Z</time>
      </trkpt>
      <trkpt lat="41.90285" lon="19.56463">
        <ele>46.722903</ele>
        <time>2022-05-15T09:47:14.911Z</time>
      </trkpt>
      <trkpt lat="41.90296" lon="19.56454">
        <ele>46.825104</ele>
        <time>2022-05-15T09:47:17.934Z</time>
      </trkpt>
      <trkpt lat="41.90307" lon="19.56446">
        <ele>46.932322</ele>
        <time>2022-05-15T09:47:20.918Z</time>
      </trkpt>
      <trkpt lat="41.90316" lon="19.5644">
        <ele>47.012694</ele>
        <time>2022-05-15T09:47:22.917Z</time>
      </trkpt>
      <trkpt lat="41.90325" lon="19.56433">
        <ele>47.090707</ele>
        <time>2022-05-15T09:47:24.911Z</time>
      </trkpt>
      <trkpt lat="41.90333" lon="19.56427">
        <ele>47.07192</ele>
        <time>2022-05-15T09:47:26.919Z</time>
      </trkpt>
      <trkpt lat="41.90341" lon="19.56421">
        <ele>47.035726</ele>
        <time>2022-05-15T09:47:28.923Z</time>
      </trkpt>
      <trkpt lat="41.90349" lon="19.56414">
        <ele>47.001184</ele>
        <time>2022-05-15T09:47:30.921Z</time>
      </trkpt>
      <trkpt lat="41.90357" lon="19.56408">
        <ele>46.965322</ele>
        <time>2022-05-15T09:47:32.923Z</time>
      </trkpt>
      <trkpt lat="41.90365" lon="19.56402">
        <ele>46.930675</ele>
        <time>2022-05-15T09:47:34.922Z</time>
      </trkpt>
      <trkpt lat="41.90373" lon="19.56396">
        <ele>46.895755</ele>
        <time>2022-05-15T09:47:36.911Z</time>
      </trkpt>
      <trkpt lat="41.90381" lon="19.5639">
        <ele>46.861541</ele>
        <time>2022-05-15T09:47:38.920Z</time>
      </trkpt>
      <trkpt lat="41.90391" lon="19.56383">
        <ele>46.817611</ele>
        <time>2022-05-15T09:47:41.919Z</time>
      </trkpt>
      <trkpt lat="41.90402" lon="19.56374">
        <ele>46.768797</ele>
        <time>2022-05-15T09:47:44.919Z</time>
      </trkpt>
      <trkpt lat="41.90413" lon="19.56366">
        <ele>46.719299</ele>
        <time>2022-05-15T09:47:47.931Z</time>
      </trkpt>
      <trkpt lat="41.90423" lon="19.56355">
        <ele>46.669861</ele>
        <time>2022-05-15T09:47:50.921Z</time>
      </trkpt>
      <trkpt lat="41.9043" lon="19.56346">
        <ele>46.634073</ele>
        <time>2022-05-15T09:47:52.920Z</time>
      </trkpt>
      <trkpt lat="41.90437" lon="19.56337">
        <ele>46.597449</ele>
        <time>2022-05-15T09:47:54.914Z</time>
      </trkpt>
      <trkpt lat="41.90446" lon="19.56324">
        <ele>46.54615</ele>
        <time>2022-05-15T09:47:57.923Z</time>
      </trkpt>
      <trkpt lat="41.90453" lon="19.56315">
        <ele>46.508817</ele>
        <time>2022-05-15T09:47:59.934Z</time>
      </trkpt>
      <trkpt lat="41.9046" lon="19.56305">
        <ele>46.47242</ele>
        <time>2022-05-15T09:48:01.928Z</time>
      </trkpt>
      <trkpt lat="41.90466" lon="19.56296">
        <ele>46.436957</ele>
        <time>2022-05-15T09:48:03.912Z</time>
      </trkpt>
      <trkpt lat="41.90475" lon="19.56283">
        <ele>46.512067</ele>
        <time>2022-05-15T09:48:06.916Z</time>
      </trkpt>
      <trkpt lat="41.90482" lon="19.56272">
        <ele>46.654963</ele>
        <time>2022-05-15T09:48:09.915Z</time>
      </trkpt>
      <trkpt lat="41.9049" lon="19.56261">
        <ele>46.811843</ele>
        <time>2022-05-15T09:48:12.916Z</time>
      </trkpt>
      <trkpt lat="41.90497" lon="19.56252">
        <ele>46.929324</ele>
        <time>2022-05-15T09:48:14.915Z</time>
      </trkpt>
      <trkpt lat="41.90506" lon="19.56239">
        <ele>47.101497</ele>
        <time>2022-05-15T09:48:17.917Z</time>
      </trkpt>
      <trkpt lat="41.90515" lon="19.56227">
        <ele>47.265921</ele>
        <time>2022-05-15T09:48:20.913Z</time>
      </trkpt>
      <trkpt lat="41.90525" lon="19.56217">
        <ele>47.424397</ele>
        <time>2022-05-15T09:48:23.908Z</time>
      </trkpt>
      <trkpt lat="41.90535" lon="19.56207">
        <ele>47.58404</ele>
        <time>2022-05-15T09:48:26.942Z</time>
      </trkpt>
      <trkpt lat="41.90545" lon="19.56198">
        <ele>47.748492</ele>
        <time>2022-05-15T09:48:29.939Z</time>
      </trkpt>
      <trkpt lat="41.90556" lon="19.56188">
        <ele>47.917783</ele>
        <time>2022-05-15T09:48:32.955Z</time>
      </trkpt>
      <trkpt lat="41.90564" lon="19.56181">
        <ele>48.037628</ele>
        <time>2022-05-15T09:48:34.950Z</time>
      </trkpt>
      <trkpt lat="41.90571" lon="19.56174">
        <ele>48.154318</ele>
        <time>2022-05-15T09:48:36.939Z</time>
      </trkpt>
      <trkpt lat="41.90581" lon="19.56164">
        <ele>48.315023</ele>
        <time>2022-05-15T09:48:40.008Z</time>
      </trkpt>
      <trkpt lat="41.90592" lon="19.56154">
        <ele>48.48702</ele>
        <time>2022-05-15T09:48:42.935Z</time>
      </trkpt>
      <trkpt lat="41.90599" lon="19.56147">
        <ele>48.604762</ele>
        <time>2022-05-15T09:48:44.936Z</time>
      </trkpt>
      <trkpt lat="41.90607" lon="19.5614">
        <ele>48.721919</ele>
        <time>2022-05-15T09:48:46.956Z</time>
      </trkpt>
      <trkpt lat="41.90614" lon="19.56133">
        <ele>48.836472</ele>
        <time>2022-05-15T09:48:48.941Z</time>
      </trkpt>
      <trkpt lat="41.90622" lon="19.56126">
        <ele>48.949091</ele>
        <time>2022-05-15T09:48:50.937Z</time>
      </trkpt>
      <trkpt lat="41.90632" lon="19.56116">
        <ele>49.109636</ele>
        <time>2022-05-15T09:48:53.915Z</time>
      </trkpt>
      <trkpt lat="41.90643" lon="19.56105">
        <ele>49.282167</ele>
        <time>2022-05-15T09:48:56.934Z</time>
      </trkpt>
      <trkpt lat="41.90652" lon="19.56097">
        <ele>49.415335</ele>
        <time>2022-05-15T09:48:58.956Z</time>
      </trkpt>
      <trkpt lat="41.9066" lon="19.56089">
        <ele>49.537256</ele>
        <time>2022-05-15T09:49:00.953Z</time>
      </trkpt>
      <trkpt lat="41.90667" lon="19.56082">
        <ele>49.64943</ele>
        <time>2022-05-15T09:49:02.931Z</time>
      </trkpt>
      <trkpt lat="41.90678" lon="19.56072">
        <ele>49.813074</ele>
        <time>2022-05-15T09:49:05.936Z</time>
      </trkpt>
      <trkpt lat="41.90689" lon="19.56062">
        <ele>49.976231</ele>
        <time>2022-05-15T09:49:08.966Z</time>
      </trkpt>
      <trkpt lat="41.907" lon="19.56051">
        <ele>50.141671</ele>
        <time>2022-05-15T09:49:11.930Z</time>
      </trkpt>
      <trkpt lat="41.90711" lon="19.56041">
        <ele>50.306849</ele>
        <time>2022-05-15T09:49:14.943Z</time>
      </trkpt>
      <trkpt lat="41.90719" lon="19.56036">
        <ele>50.421135</ele>
        <time>2022-05-15T09:49:16.948Z</time>
      </trkpt>
      <trkpt lat="41.90728" lon="19.5603">
        <ele>50.539986</ele>
        <time>2022-05-15T09:49:18.977Z</time>
      </trkpt>
      <trkpt lat="41.90739" lon="19.56023">
        <ele>50.697795</ele>
        <time>2022-05-15T09:49:21.920Z</time>
      </trkpt>
      <trkpt lat="41.90751" lon="19.56016">
        <ele>50.86049</ele>
        <time>2022-05-15T09:49:24.937Z</time>
      </trkpt>
      <trkpt lat="41.9076" lon="19.56011">
        <ele>50.981154</ele>
        <time>2022-05-15T09:49:26.938Z</time>
      </trkpt>
      <trkpt lat="41.90771" lon="19.56005">
        <ele>50.64913</ele>
        <time>2022-05-15T09:49:29.933Z</time>
      </trkpt>
      <trkpt lat="41.9078" lon="19.56">
        <ele>50.396994</ele>
        <time>2022-05-15T09:49:31.941Z</time>
      </trkpt>
      <trkpt lat="41.90789" lon="19.55994">
        <ele>50.111454</ele>
        <time>2022-05-15T09:49:33.960Z</time>
      </trkpt>
      <trkpt lat="41.90798" lon="19.55989">
        <ele>49.839227</ele>
        <time>2022-05-15T09:49:35.939Z</time>
      </trkpt>
      <trkpt lat="41.90807" lon="19.55983">
        <ele>49.569541</ele>
        <time>2022-05-15T09:49:37.945Z</time>
      </trkpt>
      <trkpt lat="41.90816" lon="19.55979">
        <ele>49.30827</ele>
        <time>2022-05-15T09:49:39.999Z</time>
      </trkpt>
      <trkpt lat="41.90826" lon="19.55976">
        <ele>49.039121</ele>
        <time>2022-05-15T09:49:41.941Z</time>
      </trkpt>
      <trkpt lat="41.90836" lon="19.55974">
        <ele>48.775432</ele>
        <time>2022-05-15T09:49:43.942Z</time>
      </trkpt>
      <trkpt lat="41.90845" lon="19.55972">
        <ele>48.505142</ele>
        <time>2022-05-15T09:49:45.939Z</time>
      </trkpt>
      <trkpt lat="41.90855" lon="19.5597">
        <ele>48.244815</ele>
        <time>2022-05-15T09:49:47.952Z</time>
      </trkpt>
      <trkpt lat="41.90864" lon="19.55968">
        <ele>47.988084</ele>
        <time>2022-05-15T09:49:49.965Z</time>
      </trkpt>
      <trkpt lat="41.90878" lon="19.55966">
        <ele>47.616106</ele>
        <time>2022-05-15T09:49:52.934Z</time>
      </trkpt>
      <trkpt lat="41.90887" lon="19.55965">
        <ele>47.367503</ele>
        <time>2022-05-15T09:49:54.964Z</time>
      </trkpt>
      <trkpt lat="41.909" lon="19.55963">
        <ele>47.00143</ele>
        <time>2022-05-15T09:49:57.943Z</time>
      </trkpt>
      <trkpt lat="41.90913" lon="19.5596">
        <ele>46.639783</ele>
        <time>2022-05-15T09:50:00.937Z</time>
      </trkpt>
      <trkpt lat="41.90926" lon="19.55958">
        <ele>46.28383</ele>
        <time>2022-05-15T09:50:03.940Z</time>
      </trkpt>
      <trkpt lat="41.90939" lon="19.55956">
        <ele>46.129331</ele>
        <time>2022-05-15T09:50:06.944Z</time>
      </trkpt>
      <trkpt lat="41.90951" lon="19.55954">
        <ele>46.303319</ele>
        <time>2022-05-15T09:50:09.931Z</time>
      </trkpt>
      <trkpt lat="41.90964" lon="19.55952">
        <ele>46.4813</ele>
        <time>2022-05-15T09:50:12.943Z</time>
      </trkpt>
      <trkpt lat="41.90977" lon="19.55951">
        <ele>46.651937</ele>
        <time>2022-05-15T09:50:15.925Z</time>
      </trkpt>
      <trkpt lat="41.90989" lon="19.55949">
        <ele>46.829</ele>
        <time>2022-05-15T09:50:18.952Z</time>
      </trkpt>
      <trkpt lat="41.91002" lon="19.55948">
        <ele>47.001007</ele>
        <time>2022-05-15T09:50:21.933Z</time>
      </trkpt>
      <trkpt lat="41.91015" lon="19.55949">
        <ele>47.175467</ele>
        <time>2022-05-15T09:50:24.929Z</time>
      </trkpt>
      <trkpt lat="41.91028" lon="19.5595">
        <ele>47.354209</ele>
        <time>2022-05-15T09:50:27.938Z</time>
      </trkpt>
      <trkpt lat="41.91041" lon="19.55951">
        <ele>47.539123</ele>
        <time>2022-05-15T09:50:30.948Z</time>
      </trkpt>
      <trkpt lat="41.91054" lon="19.55952">
        <ele>47.712436</ele>
        <time>2022-05-15T09:50:33.918Z</time>
      </trkpt>
      <trkpt lat="41.91065" lon="19.55953">
        <ele>47.865266</ele>
        <time>2022-05-15T09:50:36.939Z</time>
      </trkpt>
      <trkpt lat="41.91075" lon="19.55955">
        <ele>48.003037</ele>
        <time>2022-05-15T09:50:39.939Z</time>
      </trkpt>
      <trkpt lat="41.91087" lon="19.55956">
        <ele>48.173991</ele>
        <time>2022-05-15T09:50:42.936Z</time>
      </trkpt>
      <trkpt lat="41.91097" lon="19.55957">
        <ele>48.305219</ele>
        <time>2022-05-15T09:50:44.930Z</time>
      </trkpt>
      <trkpt lat="41.91107" lon="19.55959">
        <ele>48.445812</ele>
        <time>2022-05-15T09:50:46.942Z</time>
      </trkpt>
      <trkpt lat="41.91117" lon="19.5596">
        <ele>48.450741</ele>
        <time>2022-05-15T09:50:48.991Z</time>
      </trkpt>
      <trkpt lat="41.91126" lon="19.55961">
        <ele>48.258692</ele>
        <time>2022-05-15T09:50:50.953Z</time>
      </trkpt>
      <trkpt lat="41.91136" lon="19.55962">
        <ele>48.066374</ele>
        <time>2022-05-15T09:50:52.925Z</time>
      </trkpt>
      <trkpt lat="41.91145" lon="19.55962">
        <ele>47.881055</ele>
        <time>2022-05-15T09:50:54.942Z</time>
      </trkpt>
      <trkpt lat="41.91158" lon="19.55964">
        <ele>47.604503</ele>
        <time>2022-05-15T09:50:57.956Z</time>
      </trkpt>
      <trkpt lat="41.91171" lon="19.55964">
        <ele>47.334688</ele>
        <time>2022-05-15T09:51:00.926Z</time>
      </trkpt>
      <trkpt lat="41.91184" lon="19.55965">
        <ele>47.066732</ele>
        <time>2022-05-15T09:51:03.945Z</time>
      </trkpt>
      <trkpt lat="41.91197" lon="19.55966">
        <ele>46.79686</ele>
        <time>2022-05-15T09:51:06.920Z</time>
      </trkpt>
      <trkpt lat="41.9121" lon="19.55967">
        <ele>46.532736</ele>
        <time>2022-05-15T09:51:09.931Z</time>
      </trkpt>
      <trkpt lat="41.91219" lon="19.55969">
        <ele>46.345202</ele>
        <time>2022-05-15T09:51:11.930Z</time>
      </trkpt>
      <trkpt lat="41.91232" lon="19.55974">
        <ele>46.061724</ele>
        <time>2022-05-15T09:51:14.972Z</time>
      </trkpt>
      <trkpt lat="41.91241" lon="19.55978">
        <ele>45.871944</ele>
        <time>2022-05-15T09:51:16.952Z</time>
      </trkpt>
      <trkpt lat="41.91249" lon="19.55982">
        <ele>45.686912</ele>
        <time>2022-05-15T09:51:18.950Z</time>
      </trkpt>
      <trkpt lat="41.91262" lon="19.55988">
        <ele>45.416494</ele>
        <time>2022-05-15T09:51:21.984Z</time>
      </trkpt>
      <trkpt lat="41.91274" lon="19.55995">
        <ele>45.153979</ele>
        <time>2022-05-15T09:51:24.936Z</time>
      </trkpt>
      <trkpt lat="41.91286" lon="19.56002">
        <ele>44.885899</ele>
        <time>2022-05-15T09:51:27.943Z</time>
      </trkpt>
      <trkpt lat="41.91297" lon="19.56008">
        <ele>44.860027</ele>
        <time>2022-05-15T09:51:30.948Z</time>
      </trkpt>
      <trkpt lat="41.91309" lon="19.56015">
        <ele>44.901085</ele>
        <time>2022-05-15T09:51:33.944Z</time>
      </trkpt>
      <trkpt lat="41.91317" lon="19.56019">
        <ele>44.929979</ele>
        <time>2022-05-15T09:51:35.934Z</time>
      </trkpt>
      <trkpt lat="41.91326" lon="19.56023">
        <ele>44.959014</ele>
        <time>2022-05-15T09:51:37.927Z</time>
      </trkpt>
      <trkpt lat="41.91338" lon="19.56027">
        <ele>44.998886</ele>
        <time>2022-05-15T09:51:40.936Z</time>
      </trkpt>
      <trkpt lat="41.91347" lon="19.5603">
        <ele>45.027488</ele>
        <time>2022-05-15T09:51:42.959Z</time>
      </trkpt>
      <trkpt lat="41.91356" lon="19.56031">
        <ele>45.056835</ele>
        <time>2022-05-15T09:51:44.963Z</time>
      </trkpt>
      <trkpt lat="41.91365" lon="19.56033">
        <ele>45.088144</ele>
        <time>2022-05-15T09:51:46.911Z</time>
      </trkpt>
      <trkpt lat="41.91374" lon="19.56035">
        <ele>45.117175</ele>
        <time>2022-05-15T09:51:48.918Z</time>
      </trkpt>
      <trkpt lat="41.91387" lon="19.56038">
        <ele>45.158725</ele>
        <time>2022-05-15T09:51:51.922Z</time>
      </trkpt>
      <trkpt lat="41.914" lon="19.5604">
        <ele>45.198946</ele>
        <time>2022-05-15T09:51:54.932Z</time>
      </trkpt>
      <trkpt lat="41.91412" lon="19.56041">
        <ele>45.238554</ele>
        <time>2022-05-15T09:51:57.908Z</time>
      </trkpt>
      <trkpt lat="41.91425" lon="19.5604">
        <ele>45.279461</ele>
        <time>2022-05-15T09:52:00.907Z</time>
      </trkpt>
      <trkpt lat="41.91438" lon="19.56038">
        <ele>45.320434</ele>
        <time>2022-05-15T09:52:03.915Z</time>
      </trkpt>
      <trkpt lat="41.91451" lon="19.56037">
        <ele>45.362934</ele>
        <time>2022-05-15T09:52:06.916Z</time>
      </trkpt>
      <trkpt lat="41.91461" lon="19.56038">
        <ele>45.394223</ele>
        <time>2022-05-15T09:52:08.918Z</time>
      </trkpt>
      <trkpt lat="41.91471" lon="19.5604">
        <ele>45.41669</ele>
        <time>2022-05-15T09:52:10.909Z</time>
      </trkpt>
      <trkpt lat="41.9148" lon="19.56044">
        <ele>45.434688</ele>
        <time>2022-05-15T09:52:12.909Z</time>
      </trkpt>
      <trkpt lat="41.91488" lon="19.56049">
        <ele>45.452728</ele>
        <time>2022-05-15T09:52:14.913Z</time>
      </trkpt>
      <trkpt lat="41.91497" lon="19.56054">
        <ele>45.470244</ele>
        <time>2022-05-15T09:52:16.938Z</time>
      </trkpt>
      <trkpt lat="41.91506" lon="19.56059">
        <ele>45.488285</ele>
        <time>2022-05-15T09:52:18.916Z</time>
      </trkpt>
      <trkpt lat="41.91514" lon="19.56063">
        <ele>45.505712</ele>
        <time>2022-05-15T09:52:20.911Z</time>
      </trkpt>
      <trkpt lat="41.91523" lon="19.56068">
        <ele>45.52405</ele>
        <time>2022-05-15T09:52:22.905Z</time>
      </trkpt>
      <trkpt lat="41.91532" lon="19.56074">
        <ele>45.541407</ele>
        <time>2022-05-15T09:52:24.910Z</time>
      </trkpt>
      <trkpt lat="41.91543" lon="19.56082">
        <ele>45.566306</ele>
        <time>2022-05-15T09:52:27.935Z</time>
      </trkpt>
      <trkpt lat="41.91553" lon="19.56094">
        <ele>45.591016</ele>
        <time>2022-05-15T09:52:30.912Z</time>
      </trkpt>
      <trkpt lat="41.91562" lon="19.56105">
        <ele>45.615281</ele>
        <time>2022-05-15T09:52:33.914Z</time>
      </trkpt>
      <trkpt lat="41.91572" lon="19.56117">
        <ele>45.639601</ele>
        <time>2022-05-15T09:52:36.910Z</time>
      </trkpt>
      <trkpt lat="41.91581" lon="19.56129">
        <ele>45.66359</ele>
        <time>2022-05-15T09:52:39.909Z</time>
      </trkpt>
      <trkpt lat="41.9159" lon="19.5614">
        <ele>45.68757</ele>
        <time>2022-05-15T09:52:42.913Z</time>
      </trkpt>
      <trkpt lat="41.916" lon="19.56152">
        <ele>45.712165</ele>
        <time>2022-05-15T09:52:45.924Z</time>
      </trkpt>
      <trkpt lat="41.91609" lon="19.56164">
        <ele>45.73657</ele>
        <time>2022-05-15T09:52:48.914Z</time>
      </trkpt>
      <trkpt lat="41.9162" lon="19.56175">
        <ele>45.754239</ele>
        <time>2022-05-15T09:52:51.915Z</time>
      </trkpt>
      <trkpt lat="41.9163" lon="19.56185">
        <ele>45.768546</ele>
        <time>2022-05-15T09:52:54.915Z</time>
      </trkpt>
      <trkpt lat="41.9164" lon="19.56195">
        <ele>45.782965</ele>
        <time>2022-05-15T09:52:57.914Z</time>
      </trkpt>
      <trkpt lat="41.91651" lon="19.56205">
        <ele>45.797572</ele>
        <time>2022-05-15T09:53:00.906Z</time>
      </trkpt>
      <trkpt lat="41.91662" lon="19.56215">
        <ele>45.812456</ele>
        <time>2022-05-15T09:53:03.911Z</time>
      </trkpt>
      <trkpt lat="41.91673" lon="19.56225">
        <ele>45.82715</ele>
        <time>2022-05-15T09:53:06.919Z</time>
      </trkpt>
      <trkpt lat="41.91684" lon="19.56234">
        <ele>45.841891</ele>
        <time>2022-05-15T09:53:09.934Z</time>
      </trkpt>
      <trkpt lat="41.91696" lon="19.56244">
        <ele>45.857067</ele>
        <time>2022-05-15T09:53:12.921Z</time>
      </trkpt>
      <trkpt lat="41.91703" lon="19.5625">
        <ele>45.867137</ele>
        <time>2022-05-15T09:53:14.913Z</time>
      </trkpt>
      <trkpt lat="41.91715" lon="19.56258">
        <ele>45.882021</ele>
        <time>2022-05-15T09:53:17.915Z</time>
      </trkpt>
      <trkpt lat="41.91726" lon="19.56267">
        <ele>45.896889</ele>
        <time>2022-05-15T09:53:20.911Z</time>
      </trkpt>
      <trkpt lat="41.91738" lon="19.56276">
        <ele>45.911751</ele>
        <time>2022-05-15T09:53:23.913Z</time>
      </trkpt>
      <trkpt lat="41.91746" lon="19.56282">
        <ele>45.92213</ele>
        <time>2022-05-15T09:53:25.911Z</time>
      </trkpt>
      <trkpt lat="41.91754" lon="19.56289">
        <ele>45.932686</ele>
        <time>2022-05-15T09:53:27.921Z</time>
      </trkpt>
      <trkpt lat="41.91762" lon="19.56296">
        <ele>45.942916</ele>
        <time>2022-05-15T09:53:29.921Z</time>
      </trkpt>
      <trkpt lat="41.91771" lon="19.56307">
        <ele>45.994463</ele>
        <time>2022-05-15T09:53:32.915Z</time>
      </trkpt>
      <trkpt lat="41.91781" lon="19.56317">
        <ele>46.054205</ele>
        <time>2022-05-15T09:53:35.921Z</time>
      </trkpt>
      <trkpt lat="41.91791" lon="19.56327">
        <ele>46.113731</ele>
        <time>2022-05-15T09:53:38.917Z</time>
      </trkpt>
      <trkpt lat="41.91802" lon="19.56335">
        <ele>46.174733</ele>
        <time>2022-05-15T09:53:41.916Z</time>
      </trkpt>
      <trkpt lat="41.91814" lon="19.5634">
        <ele>46.234552</ele>
        <time>2022-05-15T09:53:44.910Z</time>
      </trkpt>
      <trkpt lat="41.91826" lon="19.56342">
        <ele>46.291426</ele>
        <time>2022-05-15T09:53:47.911Z</time>
      </trkpt>
      <trkpt lat="41.91838" lon="19.56342">
        <ele>46.346506</ele>
        <time>2022-05-15T09:53:50.910Z</time>
      </trkpt>
      <trkpt lat="41.9185" lon="19.56341">
        <ele>46.407365</ele>
        <time>2022-05-15T09:53:53.930Z</time>
      </trkpt>
      <trkpt lat="41.91863" lon="19.56339">
        <ele>46.469376</ele>
        <time>2022-05-15T09:53:56.915Z</time>
      </trkpt>
      <trkpt lat="41.91876" lon="19.56338">
        <ele>46.529346</ele>
        <time>2022-05-15T09:53:59.907Z</time>
      </trkpt>
      <trkpt lat="41.91888" lon="19.56337">
        <ele>46.589481</ele>
        <time>2022-05-15T09:54:02.915Z</time>
      </trkpt>
      <trkpt lat="41.91901" lon="19.56336">
        <ele>46.650479</ele>
        <time>2022-05-15T09:54:05.914Z</time>
      </trkpt>
      <trkpt lat="41.91913" lon="19.56332">
        <ele>46.707121</ele>
        <time>2022-05-15T09:54:08.924Z</time>
      </trkpt>
      <trkpt lat="41.91924" lon="19.56328">
        <ele>46.765673</ele>
        <time>2022-05-15T09:54:11.938Z</time>
      </trkpt>
      <trkpt lat="41.91936" lon="19.56324">
        <ele>46.820077</ele>
        <time>2022-05-15T09:54:14.910Z</time>
      </trkpt>
      <trkpt lat="41.91948" lon="19.56319">
        <ele>46.863546</ele>
        <time>2022-05-15T09:54:17.921Z</time>
      </trkpt>
      <trkpt lat="41.9196" lon="19.56315">
        <ele>46.906657</ele>
        <time>2022-05-15T09:54:20.912Z</time>
      </trkpt>
      <trkpt lat="41.91972" lon="19.56312">
        <ele>46.94932</ele>
        <time>2022-05-15T09:54:23.913Z</time>
      </trkpt>
      <trkpt lat="41.91985" lon="19.5631">
        <ele>46.99417</ele>
        <time>2022-05-15T09:54:26.906Z</time>
      </trkpt>
      <trkpt lat="41.91997" lon="19.56311">
        <ele>47.039649</ele>
        <time>2022-05-15T09:54:29.913Z</time>
      </trkpt>
      <trkpt lat="41.9201" lon="19.56313">
        <ele>47.08518</ele>
        <time>2022-05-15T09:54:32.915Z</time>
      </trkpt>
      <trkpt lat="41.92023" lon="19.56314">
        <ele>47.128649</ele>
        <time>2022-05-15T09:54:35.923Z</time>
      </trkpt>
      <trkpt lat="41.92035" lon="19.56316">
        <ele>47.171394</ele>
        <time>2022-05-15T09:54:38.914Z</time>
      </trkpt>
      <trkpt lat="41.92047" lon="19.56317">
        <ele>47.215484</ele>
        <time>2022-05-15T09:54:41.913Z</time>
      </trkpt>
      <trkpt lat="41.9206" lon="19.56318">
        <ele>47.259206</ele>
        <time>2022-05-15T09:54:44.921Z</time>
      </trkpt>
      <trkpt lat="41.92072" lon="19.56319">
        <ele>47.301188</ele>
        <time>2022-05-15T09:54:47.925Z</time>
      </trkpt>
      <trkpt lat="41.92083" lon="19.5632">
        <ele>47.342436</ele>
        <time>2022-05-15T09:54:50.936Z</time>
      </trkpt>
      <trkpt lat="41.92095" lon="19.56321">
        <ele>47.384107</ele>
        <time>2022-05-15T09:54:53.913Z</time>
      </trkpt>
      <trkpt lat="41.92107" lon="19.56322">
        <ele>47.42615</ele>
        <time>2022-05-15T09:54:56.917Z</time>
      </trkpt>
      <trkpt lat="41.92119" lon="19.56324">
        <ele>47.432947</ele>
        <time>2022-05-15T09:54:59.908Z</time>
      </trkpt>
      <trkpt lat="41.92132" lon="19.56328">
        <ele>47.422438</ele>
        <time>2022-05-15T09:55:02.909Z</time>
      </trkpt>
      <trkpt lat="41.92143" lon="19.56333">
        <ele>47.411904</ele>
        <time>2022-05-15T09:55:05.909Z</time>
      </trkpt>
      <trkpt lat="41.92155" lon="19.56338">
        <ele>47.401908</ele>
        <time>2022-05-15T09:55:08.912Z</time>
      </trkpt>
      <trkpt lat="41.92166" lon="19.56343">
        <ele>47.391771</ele>
        <time>2022-05-15T09:55:11.912Z</time>
      </trkpt>
      <trkpt lat="41.92178" lon="19.56348">
        <ele>47.381429</ele>
        <time>2022-05-15T09:55:14.914Z</time>
      </trkpt>
      <trkpt lat="41.9219" lon="19.5635">
        <ele>47.371289</ele>
        <time>2022-05-15T09:55:17.936Z</time>
      </trkpt>
      <trkpt lat="41.92202" lon="19.5635">
        <ele>47.360954</ele>
        <time>2022-05-15T09:55:20.922Z</time>
      </trkpt>
      <trkpt lat="41.92214" lon="19.56348">
        <ele>47.351175</ele>
        <time>2022-05-15T09:55:23.921Z</time>
      </trkpt>
      <trkpt lat="41.92225" lon="19.56344">
        <ele>47.341387</ele>
        <time>2022-05-15T09:55:26.916Z</time>
      </trkpt>
      <trkpt lat="41.92236" lon="19.5634">
        <ele>47.331796</ele>
        <time>2022-05-15T09:55:29.913Z</time>
      </trkpt>
      <trkpt lat="41.92247" lon="19.56335">
        <ele>47.322138</ele>
        <time>2022-05-15T09:55:32.909Z</time>
      </trkpt>
      <trkpt lat="41.92258" lon="19.5633">
        <ele>47.311881</ele>
        <time>2022-05-15T09:55:35.918Z</time>
      </trkpt>
      <trkpt lat="41.9227" lon="19.56324">
        <ele>47.301762</ele>
        <time>2022-05-15T09:55:38.919Z</time>
      </trkpt>
      <trkpt lat="41.92281" lon="19.56318">
        <ele>47.291201</ele>
        <time>2022-05-15T09:55:41.914Z</time>
      </trkpt>
      <trkpt lat="41.92294" lon="19.56312">
        <ele>47.369159</ele>
        <time>2022-05-15T09:55:44.923Z</time>
      </trkpt>
      <trkpt lat="41.92306" lon="19.56305">
        <ele>47.472489</ele>
        <time>2022-05-15T09:55:47.917Z</time>
      </trkpt>
      <trkpt lat="41.92318" lon="19.56298">
        <ele>47.573516</ele>
        <time>2022-05-15T09:55:50.918Z</time>
      </trkpt>
      <trkpt lat="41.92331" lon="19.56292">
        <ele>47.68035</ele>
        <time>2022-05-15T09:55:53.925Z</time>
      </trkpt>
      <trkpt lat="41.9234" lon="19.56288">
        <ele>47.752711</ele>
        <time>2022-05-15T09:55:55.932Z</time>
      </trkpt>
      <trkpt lat="41.92348" lon="19.56284">
        <ele>47.823607</ele>
        <time>2022-05-15T09:55:57.932Z</time>
      </trkpt>
      <trkpt lat="41.92357" lon="19.56281">
        <ele>47.893023</ele>
        <time>2022-05-15T09:55:59.918Z</time>
      </trkpt>
      <trkpt lat="41.92369" lon="19.56275">
        <ele>47.991545</ele>
        <time>2022-05-15T09:56:02.941Z</time>
      </trkpt>
      <trkpt lat="41.9238" lon="19.56271">
        <ele>48.078635</ele>
        <time>2022-05-15T09:56:05.928Z</time>
      </trkpt>
      <trkpt lat="41.92391" lon="19.56266">
        <ele>48.169623</ele>
        <time>2022-05-15T09:56:08.938Z</time>
      </trkpt>
      <trkpt lat="41.92402" lon="19.56262">
        <ele>48.262523</ele>
        <time>2022-05-15T09:56:11.911Z</time>
      </trkpt>
      <trkpt lat="41.92412" lon="19.56259">
        <ele>48.342886</ele>
        <time>2022-05-15T09:56:13.918Z</time>
      </trkpt>
      <trkpt lat="41.92422" lon="19.56255">
        <ele>48.420412</ele>
        <time>2022-05-15T09:56:15.924Z</time>
      </trkpt>
      <trkpt lat="41.92431" lon="19.5625">
        <ele>48.498849</ele>
        <time>2022-05-15T09:56:17.909Z</time>
      </trkpt>
      <trkpt lat="41.9244" lon="19.56245">
        <ele>48.569992</ele>
        <time>2022-05-15T09:56:19.935Z</time>
      </trkpt>
      <trkpt lat="41.92452" lon="19.56239">
        <ele>48.673399</ele>
        <time>2022-05-15T09:56:22.918Z</time>
      </trkpt>
      <trkpt lat="41.92464" lon="19.56232">
        <ele>48.462615</ele>
        <time>2022-05-15T09:56:25.923Z</time>
      </trkpt>
      <trkpt lat="41.92475" lon="19.56226">
        <ele>48.217695</ele>
        <time>2022-05-15T09:56:28.915Z</time>
      </trkpt>
      <trkpt lat="41.92486" lon="19.56219">
        <ele>47.973468</ele>
        <time>2022-05-15T09:56:31.917Z</time>
      </trkpt>
      <trkpt lat="41.92497" lon="19.56212">
        <ele>47.722439</ele>
        <time>2022-05-15T09:56:34.927Z</time>
      </trkpt>
      <trkpt lat="41.92508" lon="19.56204">
        <ele>47.471205</ele>
        <time>2022-05-15T09:56:37.911Z</time>
      </trkpt>
      <trkpt lat="41.92517" lon="19.56195">
        <ele>47.233475</ele>
        <time>2022-05-15T09:56:40.917Z</time>
      </trkpt>
      <trkpt lat="41.92524" lon="19.56182">
        <ele>47.001872</ele>
        <time>2022-05-15T09:56:43.917Z</time>
      </trkpt>
      <trkpt lat="41.92529" lon="19.56168">
        <ele>46.757584</ele>
        <time>2022-05-15T09:56:46.911Z</time>
      </trkpt>
      <trkpt lat="41.92534" lon="19.56151">
        <ele>46.491924</ele>
        <time>2022-05-15T09:56:49.921Z</time>
      </trkpt>
      <trkpt lat="41.92537" lon="19.56135">
        <ele>46.244791</ele>
        <time>2022-05-15T09:56:52.913Z</time>
      </trkpt>
      <trkpt lat="41.9254" lon="19.56121">
        <ele>46.012725</ele>
        <time>2022-05-15T09:56:55.926Z</time>
      </trkpt>
      <trkpt lat="41.92543" lon="19.56106">
        <ele>45.781239</ele>
        <time>2022-05-15T09:56:58.942Z</time>
      </trkpt>
      <trkpt lat="41.92547" lon="19.56091">
        <ele>45.547726</ele>
        <time>2022-05-15T09:57:01.916Z</time>
      </trkpt>
      <trkpt lat="41.92551" lon="19.56076">
        <ele>45.306149</ele>
        <time>2022-05-15T09:57:04.919Z</time>
      </trkpt>
      <trkpt lat="41.92555" lon="19.56061">
        <ele>45.061789</ele>
        <time>2022-05-15T09:57:07.931Z</time>
      </trkpt>
      <trkpt lat="41.92559" lon="19.56047">
        <ele>45.097663</ele>
        <time>2022-05-15T09:57:10.915Z</time>
      </trkpt>
      <trkpt lat="41.92562" lon="19.56033">
        <ele>45.172578</ele>
        <time>2022-05-15T09:57:13.914Z</time>
      </trkpt>
      <trkpt lat="41.92566" lon="19.56018">
        <ele>45.249387</ele>
        <time>2022-05-15T09:57:16.909Z</time>
      </trkpt>
      <trkpt lat="41.9257" lon="19.56004">
        <ele>45.324998</ele>
        <time>2022-05-15T09:57:19.919Z</time>
      </trkpt>
      <trkpt lat="41.92574" lon="19.5599">
        <ele>45.402485</ele>
        <time>2022-05-15T09:57:22.925Z</time>
      </trkpt>
      <trkpt lat="41.92578" lon="19.55976">
        <ele>45.476705</ele>
        <time>2022-05-15T09:57:25.928Z</time>
      </trkpt>
      <trkpt lat="41.92582" lon="19.55962">
        <ele>45.552342</ele>
        <time>2022-05-15T09:57:28.914Z</time>
      </trkpt>
      <trkpt lat="41.92586" lon="19.55947">
        <ele>45.629598</ele>
        <time>2022-05-15T09:57:31.957Z</time>
      </trkpt>
      <trkpt lat="41.9259" lon="19.55932">
        <ele>45.710143</ele>
        <time>2022-05-15T09:57:34.919Z</time>
      </trkpt>
      <trkpt lat="41.92594" lon="19.55918">
        <ele>45.785284</ele>
        <time>2022-05-15T09:57:37.911Z</time>
      </trkpt>
      <trkpt lat="41.92597" lon="19.55905">
        <ele>45.855749</ele>
        <time>2022-05-15T09:57:40.908Z</time>
      </trkpt>
      <trkpt lat="41.92601" lon="19.55892">
        <ele>45.925775</ele>
        <time>2022-05-15T09:57:43.909Z</time>
      </trkpt>
      <trkpt lat="41.92605" lon="19.55881">
        <ele>45.98829</ele>
        <time>2022-05-15T09:57:46.910Z</time>
      </trkpt>
      <trkpt lat="41.92611" lon="19.55869">
        <ele>46.057489</ele>
        <time>2022-05-15T09:57:51.924Z</time>
      </trkpt>
      <trkpt lat="41.92613" lon="19.55845">
        <ele>46.181139</ele>
        <time>2022-05-15T10:21:34.946Z</time>
      </trkpt>
      <trkpt lat="41.92616" lon="19.5583">
        <ele>46.250941</ele>
        <time>2022-05-15T10:21:38.945Z</time>
      </trkpt>
      <trkpt lat="41.92619" lon="19.55815">
        <ele>46.286479</ele>
        <time>2022-05-15T10:21:42.929Z</time>
      </trkpt>
      <trkpt lat="41.9262" lon="19.55803">
        <ele>46.31541</ele>
        <time>2022-05-15T10:21:45.961Z</time>
      </trkpt>
      <trkpt lat="41.92621" lon="19.5579">
        <ele>46.345953</ele>
        <time>2022-05-15T10:21:48.956Z</time>
      </trkpt>
      <trkpt lat="41.92622" lon="19.55777">
        <ele>46.376758</ele>
        <time>2022-05-15T10:21:51.952Z</time>
      </trkpt>
      <trkpt lat="41.92624" lon="19.55765">
        <ele>46.405958</ele>
        <time>2022-05-15T10:21:54.963Z</time>
      </trkpt>
      <trkpt lat="41.92625" lon="19.55749">
        <ele>46.444509</ele>
        <time>2022-05-15T10:21:58.945Z</time>
      </trkpt>
      <trkpt lat="41.92624" lon="19.55735">
        <ele>46.475413</ele>
        <time>2022-05-15T10:22:01.943Z</time>
      </trkpt>
      <trkpt lat="41.92623" lon="19.55723">
        <ele>46.506141</ele>
        <time>2022-05-15T10:22:04.932Z</time>
      </trkpt>
      <trkpt lat="41.92621" lon="19.55709">
        <ele>46.538326</ele>
        <time>2022-05-15T10:22:07.963Z</time>
      </trkpt>
      <trkpt lat="41.92618" lon="19.55695">
        <ele>46.571804</ele>
        <time>2022-05-15T10:22:10.986Z</time>
      </trkpt>
      <trkpt lat="41.92615" lon="19.55681">
        <ele>46.60674</ele>
        <time>2022-05-15T10:22:13.934Z</time>
      </trkpt>
      <trkpt lat="41.92612" lon="19.55666">
        <ele>46.643879</ele>
        <time>2022-05-15T10:22:16.988Z</time>
      </trkpt>
      <trkpt lat="41.9261" lon="19.55651">
        <ele>46.680342</ele>
        <time>2022-05-15T10:22:19.937Z</time>
      </trkpt>
      <trkpt lat="41.92608" lon="19.55636">
        <ele>46.714992</ele>
        <time>2022-05-15T10:22:22.953Z</time>
      </trkpt>
      <trkpt lat="41.92605" lon="19.55622">
        <ele>46.750466</ele>
        <time>2022-05-15T10:22:25.934Z</time>
      </trkpt>
      <trkpt lat="41.92604" lon="19.55607">
        <ele>46.786026</ele>
        <time>2022-05-15T10:22:28.954Z</time>
      </trkpt>
      <trkpt lat="41.92604" lon="19.55591">
        <ele>46.820662</ele>
        <time>2022-05-15T10:22:31.945Z</time>
      </trkpt>
      <trkpt lat="41.92604" lon="19.55574">
        <ele>46.849023</ele>
        <time>2022-05-15T10:22:34.946Z</time>
      </trkpt>
      <trkpt lat="41.92606" lon="19.55558">
        <ele>46.876297</ele>
        <time>2022-05-15T10:22:37.935Z</time>
      </trkpt>
      <trkpt lat="41.92611" lon="19.55545">
        <ele>46.902726</ele>
        <time>2022-05-15T10:22:40.952Z</time>
      </trkpt>
      <trkpt lat="41.92617" lon="19.55531">
        <ele>46.928912</ele>
        <time>2022-05-15T10:22:43.942Z</time>
      </trkpt>
      <trkpt lat="41.92622" lon="19.55519">
        <ele>46.953403</ele>
        <time>2022-05-15T10:22:46.943Z</time>
      </trkpt>
      <trkpt lat="41.92628" lon="19.55507">
        <ele>46.977315</ele>
        <time>2022-05-15T10:22:49.932Z</time>
      </trkpt>
      <trkpt lat="41.92633" lon="19.55495">
        <ele>47.001261</ele>
        <time>2022-05-15T10:22:52.940Z</time>
      </trkpt>
      <trkpt lat="41.92639" lon="19.55483">
        <ele>47.025977</ele>
        <time>2022-05-15T10:22:55.952Z</time>
      </trkpt>
      <trkpt lat="41.92644" lon="19.55469">
        <ele>47.051905</ele>
        <time>2022-05-15T10:22:58.949Z</time>
      </trkpt>
      <trkpt lat="41.9265" lon="19.55455">
        <ele>47.080332</ele>
        <time>2022-05-15T10:23:01.979Z</time>
      </trkpt>
      <trkpt lat="41.92656" lon="19.5544">
        <ele>47.109687</ele>
        <time>2022-05-15T10:23:04.950Z</time>
      </trkpt>
      <trkpt lat="41.92662" lon="19.55425">
        <ele>47.137735</ele>
        <time>2022-05-15T10:23:07.931Z</time>
      </trkpt>
      <trkpt lat="41.92668" lon="19.55411">
        <ele>47.16519</ele>
        <time>2022-05-15T10:23:10.939Z</time>
      </trkpt>
      <trkpt lat="41.92674" lon="19.55398">
        <ele>47.192382</ele>
        <time>2022-05-15T10:23:13.931Z</time>
      </trkpt>
      <trkpt lat="41.9268" lon="19.55384">
        <ele>47.218426</ele>
        <time>2022-05-15T10:23:16.954Z</time>
      </trkpt>
      <trkpt lat="41.92686" lon="19.55373">
        <ele>47.173321</ele>
        <time>2022-05-15T10:23:19.940Z</time>
      </trkpt>
      <trkpt lat="41.92693" lon="19.55362">
        <ele>47.092686</ele>
        <time>2022-05-15T10:23:22.965Z</time>
      </trkpt>
      <trkpt lat="41.92699" lon="19.55351">
        <ele>47.012448</ele>
        <time>2022-05-15T10:23:25.937Z</time>
      </trkpt>
      <trkpt lat="41.92707" lon="19.5534">
        <ele>46.927485</ele>
        <time>2022-05-15T10:23:28.935Z</time>
      </trkpt>
      <trkpt lat="41.92714" lon="19.55329">
        <ele>46.839794</ele>
        <time>2022-05-15T10:23:31.969Z</time>
      </trkpt>
      <trkpt lat="41.92722" lon="19.55317">
        <ele>46.753969</ele>
        <time>2022-05-15T10:23:34.972Z</time>
      </trkpt>
      <trkpt lat="41.92729" lon="19.55306">
        <ele>46.668576</ele>
        <time>2022-05-15T10:23:37.945Z</time>
      </trkpt>
      <trkpt lat="41.92736" lon="19.55295">
        <ele>46.584377</ele>
        <time>2022-05-15T10:23:40.991Z</time>
      </trkpt>
      <trkpt lat="41.92743" lon="19.55285">
        <ele>46.502898</ele>
        <time>2022-05-15T10:23:43.940Z</time>
      </trkpt>
      <trkpt lat="41.92751" lon="19.55273">
        <ele>46.412831</ele>
        <time>2022-05-15T10:23:46.933Z</time>
      </trkpt>
      <trkpt lat="41.92759" lon="19.55261">
        <ele>46.322337</ele>
        <time>2022-05-15T10:23:49.932Z</time>
      </trkpt>
      <trkpt lat="41.92767" lon="19.55249">
        <ele>46.233632</ele>
        <time>2022-05-15T10:23:52.942Z</time>
      </trkpt>
      <trkpt lat="41.92775" lon="19.55239">
        <ele>46.147617</ele>
        <time>2022-05-15T10:23:55.931Z</time>
      </trkpt>
      <trkpt lat="41.92782" lon="19.55228">
        <ele>46.0629</ele>
        <time>2022-05-15T10:23:58.952Z</time>
      </trkpt>
      <trkpt lat="41.92789" lon="19.55217">
        <ele>45.980154</ele>
        <time>2022-05-15T10:24:01.942Z</time>
      </trkpt>
      <trkpt lat="41.92797" lon="19.55206">
        <ele>45.896156</ele>
        <time>2022-05-15T10:24:04.936Z</time>
      </trkpt>
      <trkpt lat="41.92804" lon="19.55195">
        <ele>45.926006</ele>
        <time>2022-05-15T10:24:07.936Z</time>
      </trkpt>
      <trkpt lat="41.92812" lon="19.55185">
        <ele>46.108828</ele>
        <time>2022-05-15T10:24:10.953Z</time>
      </trkpt>
      <trkpt lat="41.9282" lon="19.55175">
        <ele>46.291996</ele>
        <time>2022-05-15T10:24:13.973Z</time>
      </trkpt>
      <trkpt lat="41.92828" lon="19.55165">
        <ele>46.478032</ele>
        <time>2022-05-15T10:24:16.922Z</time>
      </trkpt>
      <trkpt lat="41.92837" lon="19.55157">
        <ele>46.664413</ele>
        <time>2022-05-15T10:24:19.923Z</time>
      </trkpt>
      <trkpt lat="41.92846" lon="19.55147">
        <ele>46.857002</ele>
        <time>2022-05-15T10:24:22.932Z</time>
      </trkpt>
      <trkpt lat="41.92854" lon="19.55138">
        <ele>47.041885</ele>
        <time>2022-05-15T10:24:25.949Z</time>
      </trkpt>
      <trkpt lat="41.92864" lon="19.5513">
        <ele>47.229509</ele>
        <time>2022-05-15T10:24:28.952Z</time>
      </trkpt>
      <trkpt lat="41.92874" lon="19.55122">
        <ele>47.430824</ele>
        <time>2022-05-15T10:24:31.959Z</time>
      </trkpt>
      <trkpt lat="41.92883" lon="19.55114">
        <ele>47.624052</ele>
        <time>2022-05-15T10:24:34.972Z</time>
      </trkpt>
      <trkpt lat="41.92893" lon="19.55107">
        <ele>47.79976</ele>
        <time>2022-05-15T10:24:37.933Z</time>
      </trkpt>
      <trkpt lat="41.92903" lon="19.55101">
        <ele>47.992675</ele>
        <time>2022-05-15T10:24:40.956Z</time>
      </trkpt>
      <trkpt lat="41.92913" lon="19.55094">
        <ele>48.181881</ele>
        <time>2022-05-15T10:24:43.960Z</time>
      </trkpt>
      <trkpt lat="41.92922" lon="19.55088">
        <ele>48.356631</ele>
        <time>2022-05-15T10:24:46.955Z</time>
      </trkpt>
      <trkpt lat="41.92932" lon="19.55082">
        <ele>48.537614</ele>
        <time>2022-05-15T10:24:49.962Z</time>
      </trkpt>
      <trkpt lat="41.92942" lon="19.55076">
        <ele>48.728874</ele>
        <time>2022-05-15T10:24:52.942Z</time>
      </trkpt>
      <trkpt lat="41.92952" lon="19.55069">
        <ele>48.911483</ele>
        <time>2022-05-15T10:24:55.926Z</time>
      </trkpt>
      <trkpt lat="41.92961" lon="19.55063">
        <ele>49.03008</ele>
        <time>2022-05-15T10:24:58.944Z</time>
      </trkpt>
      <trkpt lat="41.92971" lon="19.55056">
        <ele>49.150275</ele>
        <time>2022-05-15T10:25:01.941Z</time>
      </trkpt>
      <trkpt lat="41.92981" lon="19.5505">
        <ele>49.270835</ele>
        <time>2022-05-15T10:25:04.930Z</time>
      </trkpt>
      <trkpt lat="41.92991" lon="19.55043">
        <ele>49.391395</ele>
        <time>2022-05-15T10:25:07.941Z</time>
      </trkpt>
      <trkpt lat="41.93001" lon="19.55037">
        <ele>49.510176</ele>
        <time>2022-05-15T10:25:10.942Z</time>
      </trkpt>
      <trkpt lat="41.9301" lon="19.55031">
        <ele>49.629148</ele>
        <time>2022-05-15T10:25:13.925Z</time>
      </trkpt>
      <trkpt lat="41.93021" lon="19.55026">
        <ele>49.754782</ele>
        <time>2022-05-15T10:25:16.921Z</time>
      </trkpt>
      <trkpt lat="41.93031" lon="19.55017">
        <ele>49.881693</ele>
        <time>2022-05-15T10:25:19.948Z</time>
      </trkpt>
      <trkpt lat="41.93041" lon="19.55009">
        <ele>50.011722</ele>
        <time>2022-05-15T10:25:22.920Z</time>
      </trkpt>
      <trkpt lat="41.9305" lon="19.55001">
        <ele>50.126321</ele>
        <time>2022-05-15T10:25:25.945Z</time>
      </trkpt>
      <trkpt lat="41.9306" lon="19.54995">
        <ele>50.24984</ele>
        <time>2022-05-15T10:25:28.954Z</time>
      </trkpt>
      <trkpt lat="41.9307" lon="19.54989">
        <ele>50.372964</ele>
        <time>2022-05-15T10:25:31.927Z</time>
      </trkpt>
      <trkpt lat="41.93081" lon="19.54983">
        <ele>50.502252</ele>
        <time>2022-05-15T10:25:34.945Z</time>
      </trkpt>
      <trkpt lat="41.93093" lon="19.54978">
        <ele>50.644825</ele>
        <time>2022-05-15T10:25:37.933Z</time>
      </trkpt>
      <trkpt lat="41.93105" lon="19.54972">
        <ele>50.786676</ele>
        <time>2022-05-15T10:25:40.928Z</time>
      </trkpt>
      <trkpt lat="41.93118" lon="19.54967">
        <ele>50.773666</ele>
        <time>2022-05-15T10:25:43.935Z</time>
      </trkpt>
      <trkpt lat="41.9313" lon="19.54961">
        <ele>50.43587</ele>
        <time>2022-05-15T10:25:46.947Z</time>
      </trkpt>
      <trkpt lat="41.93141" lon="19.54956">
        <ele>50.113876</ele>
        <time>2022-05-15T10:25:49.948Z</time>
      </trkpt>
      <trkpt lat="41.93152" lon="19.54951">
        <ele>49.793159</ele>
        <time>2022-05-15T10:25:52.950Z</time>
      </trkpt>
      <trkpt lat="41.93164" lon="19.54946">
        <ele>49.473064</ele>
        <time>2022-05-15T10:25:55.976Z</time>
      </trkpt>
      <trkpt lat="41.93175" lon="19.5494">
        <ele>49.154084</ele>
        <time>2022-05-15T10:25:58.951Z</time>
      </trkpt>
      <trkpt lat="41.93187" lon="19.54935">
        <ele>48.829509</ele>
        <time>2022-05-15T10:26:01.940Z</time>
      </trkpt>
      <trkpt lat="41.93198" lon="19.5493">
        <ele>48.508793</ele>
        <time>2022-05-15T10:26:04.938Z</time>
      </trkpt>
      <trkpt lat="41.9321" lon="19.54924">
        <ele>48.176599</ele>
        <time>2022-05-15T10:26:07.953Z</time>
      </trkpt>
      <trkpt lat="41.93222" lon="19.54919">
        <ele>47.839381</ele>
        <time>2022-05-15T10:26:10.946Z</time>
      </trkpt>
      <trkpt lat="41.93233" lon="19.54913">
        <ele>47.501492</ele>
        <time>2022-05-15T10:26:13.930Z</time>
      </trkpt>
      <trkpt lat="41.93244" lon="19.54907">
        <ele>47.186082</ele>
        <time>2022-05-15T10:26:16.934Z</time>
      </trkpt>
      <trkpt lat="41.93256" lon="19.54901">
        <ele>46.853586</ele>
        <time>2022-05-15T10:26:19.942Z</time>
      </trkpt>
      <trkpt lat="41.93268" lon="19.54896">
        <ele>46.525243</ele>
        <time>2022-05-15T10:26:22.942Z</time>
      </trkpt>
      <trkpt lat="41.93279" lon="19.54889">
        <ele>46.195232</ele>
        <time>2022-05-15T10:26:25.960Z</time>
      </trkpt>
      <trkpt lat="41.9329" lon="19.54883">
        <ele>46.026345</ele>
        <time>2022-05-15T10:26:28.944Z</time>
      </trkpt>
      <trkpt lat="41.93301" lon="19.54876">
        <ele>45.944171</ele>
        <time>2022-05-15T10:26:31.943Z</time>
      </trkpt>
      <trkpt lat="41.93312" lon="19.54867">
        <ele>45.853632</ele>
        <time>2022-05-15T10:26:34.939Z</time>
      </trkpt>
      <trkpt lat="41.93321" lon="19.54857">
        <ele>45.76843</ele>
        <time>2022-05-15T10:26:37.938Z</time>
      </trkpt>
      <trkpt lat="41.9333" lon="19.54847">
        <ele>45.684226</ele>
        <time>2022-05-15T10:26:40.972Z</time>
      </trkpt>
      <trkpt lat="41.9334" lon="19.54836">
        <ele>45.596941</ele>
        <time>2022-05-15T10:26:43.939Z</time>
      </trkpt>
      <trkpt lat="41.93347" lon="19.54828">
        <ele>45.532614</ele>
        <time>2022-05-15T10:26:45.951Z</time>
      </trkpt>
      <trkpt lat="41.93354" lon="19.5482">
        <ele>45.466964</ele>
        <time>2022-05-15T10:26:47.946Z</time>
      </trkpt>
      <trkpt lat="41.93362" lon="19.54813">
        <ele>45.400256</ele>
        <time>2022-05-15T10:26:49.934Z</time>
      </trkpt>
      <trkpt lat="41.9337" lon="19.54806">
        <ele>45.333589</ele>
        <time>2022-05-15T10:26:51.968Z</time>
      </trkpt>
      <trkpt lat="41.93378" lon="19.54799">
        <ele>45.269413</ele>
        <time>2022-05-15T10:26:53.940Z</time>
      </trkpt>
      <trkpt lat="41.9339" lon="19.54792">
        <ele>45.179996</ele>
        <time>2022-05-15T10:26:56.948Z</time>
      </trkpt>
      <trkpt lat="41.93401" lon="19.54785">
        <ele>45.091587</ele>
        <time>2022-05-15T10:26:59.970Z</time>
      </trkpt>
      <trkpt lat="41.93412" lon="19.54776">
        <ele>45.002118</ele>
        <time>2022-05-15T10:27:02.978Z</time>
      </trkpt>
      <trkpt lat="41.93422" lon="19.54768">
        <ele>44.916399</ele>
        <time>2022-05-15T10:27:05.948Z</time>
      </trkpt>
      <trkpt lat="41.93432" lon="19.5476">
        <ele>44.835452</ele>
        <time>2022-05-15T10:27:08.996Z</time>
      </trkpt>
      <trkpt lat="41.93443" lon="19.54752">
        <ele>44.83098</ele>
        <time>2022-05-15T10:27:11.937Z</time>
      </trkpt>
      <trkpt lat="41.93453" lon="19.54743">
        <ele>44.846478</ele>
        <time>2022-05-15T10:27:14.967Z</time>
      </trkpt>
      <trkpt lat="41.93462" lon="19.54736">
        <ele>44.860123</ele>
        <time>2022-05-15T10:27:17.928Z</time>
      </trkpt>
      <trkpt lat="41.93471" lon="19.54728">
        <ele>44.873134</ele>
        <time>2022-05-15T10:27:20.958Z</time>
      </trkpt>
      <trkpt lat="41.93482" lon="19.5472">
        <ele>44.888175</ele>
        <time>2022-05-15T10:27:23.935Z</time>
      </trkpt>
      <trkpt lat="41.93493" lon="19.54711">
        <ele>44.904723</ele>
        <time>2022-05-15T10:27:26.933Z</time>
      </trkpt>
      <trkpt lat="41.93501" lon="19.54704">
        <ele>44.916423</ele>
        <time>2022-05-15T10:27:28.963Z</time>
      </trkpt>
      <trkpt lat="41.93509" lon="19.54697">
        <ele>44.928967</ele>
        <time>2022-05-15T10:27:30.978Z</time>
      </trkpt>
      <trkpt lat="41.93518" lon="19.54691">
        <ele>44.941094</ele>
        <time>2022-05-15T10:27:32.943Z</time>
      </trkpt>
      <trkpt lat="41.93526" lon="19.54685">
        <ele>44.952479</ele>
        <time>2022-05-15T10:27:34.952Z</time>
      </trkpt>
      <trkpt lat="41.93537" lon="19.54677">
        <ele>44.968234</ele>
        <time>2022-05-15T10:27:37.939Z</time>
      </trkpt>
      <trkpt lat="41.93548" lon="19.54668">
        <ele>44.984685</ele>
        <time>2022-05-15T10:27:40.925Z</time>
      </trkpt>
      <trkpt lat="41.93559" lon="19.54659">
        <ele>45.001198</ele>
        <time>2022-05-15T10:27:43.942Z</time>
      </trkpt>
      <trkpt lat="41.9357" lon="19.5465">
        <ele>45.017327</ele>
        <time>2022-05-15T10:27:46.934Z</time>
      </trkpt>
      <trkpt lat="41.93581" lon="19.54642">
        <ele>45.032399</ele>
        <time>2022-05-15T10:27:49.929Z</time>
      </trkpt>
      <trkpt lat="41.93592" lon="19.54633">
        <ele>45.036722</ele>
        <time>2022-05-15T10:27:52.934Z</time>
      </trkpt>
      <trkpt lat="41.93602" lon="19.54626">
        <ele>45.008939</ele>
        <time>2022-05-15T10:27:55.956Z</time>
      </trkpt>
      <trkpt lat="41.93612" lon="19.54618">
        <ele>44.981184</ele>
        <time>2022-05-15T10:27:58.941Z</time>
      </trkpt>
      <trkpt lat="41.93621" lon="19.5461">
        <ele>44.953954</ele>
        <time>2022-05-15T10:28:01.941Z</time>
      </trkpt>
      <trkpt lat="41.93631" lon="19.54602">
        <ele>44.927276</ele>
        <time>2022-05-15T10:28:04.950Z</time>
      </trkpt>
      <trkpt lat="41.9364" lon="19.54594">
        <ele>44.899661</ele>
        <time>2022-05-15T10:28:07.929Z</time>
      </trkpt>
      <trkpt lat="41.9365" lon="19.54585">
        <ele>44.871747</ele>
        <time>2022-05-15T10:28:10.944Z</time>
      </trkpt>
      <trkpt lat="41.9366" lon="19.54576">
        <ele>44.841834</ele>
        <time>2022-05-15T10:28:13.954Z</time>
      </trkpt>
      <trkpt lat="41.93671" lon="19.54567">
        <ele>44.810807</ele>
        <time>2022-05-15T10:28:16.947Z</time>
      </trkpt>
      <trkpt lat="41.93683" lon="19.54559">
        <ele>44.780442</ele>
        <time>2022-05-15T10:28:19.927Z</time>
      </trkpt>
      <trkpt lat="41.93695" lon="19.54552">
        <ele>44.748244</ele>
        <time>2022-05-15T10:28:22.936Z</time>
      </trkpt>
      <trkpt lat="41.93706" lon="19.54546">
        <ele>44.719335</ele>
        <time>2022-05-15T10:28:25.939Z</time>
      </trkpt>
      <trkpt lat="41.93716" lon="19.54539">
        <ele>44.692054</ele>
        <time>2022-05-15T10:28:28.933Z</time>
      </trkpt>
      <trkpt lat="41.93726" lon="19.54534">
        <ele>44.667194</ele>
        <time>2022-05-15T10:28:31.952Z</time>
      </trkpt>
      <trkpt lat="41.93736" lon="19.54528">
        <ele>44.641147</ele>
        <time>2022-05-15T10:28:34.947Z</time>
      </trkpt>
      <trkpt lat="41.93747" lon="19.54522">
        <ele>44.6121</ele>
        <time>2022-05-15T10:28:37.916Z</time>
      </trkpt>
      <trkpt lat="41.93758" lon="19.54515">
        <ele>44.778909</ele>
        <time>2022-05-15T10:28:40.933Z</time>
      </trkpt>
      <trkpt lat="41.93769" lon="19.54509">
        <ele>44.954412</ele>
        <time>2022-05-15T10:28:43.958Z</time>
      </trkpt>
      <trkpt lat="41.9378" lon="19.54501">
        <ele>45.134862</ele>
        <time>2022-05-15T10:28:46.937Z</time>
      </trkpt>
      <trkpt lat="41.93791" lon="19.54492">
        <ele>45.317794</ele>
        <time>2022-05-15T10:28:49.989Z</time>
      </trkpt>
      <trkpt lat="41.93802" lon="19.54483">
        <ele>45.506399</ele>
        <time>2022-05-15T10:28:52.940Z</time>
      </trkpt>
      <trkpt lat="41.93813" lon="19.54474">
        <ele>45.689331</ele>
        <time>2022-05-15T10:28:55.919Z</time>
      </trkpt>
      <trkpt lat="41.93823" lon="19.54466">
        <ele>45.860707</ele>
        <time>2022-05-15T10:28:58.966Z</time>
      </trkpt>
      <trkpt lat="41.93832" lon="19.54457">
        <ele>46.019792</ele>
        <time>2022-05-15T10:29:01.942Z</time>
      </trkpt>
      <trkpt lat="41.9384" lon="19.54448">
        <ele>46.167684</ele>
        <time>2022-05-15T10:29:04.944Z</time>
      </trkpt>
      <trkpt lat="41.93846" lon="19.54438">
        <ele>46.300878</ele>
        <time>2022-05-15T10:29:07.972Z</time>
      </trkpt>
      <trkpt lat="41.9385" lon="19.54426">
        <ele>46.443188</ele>
        <time>2022-05-15T10:29:10.944Z</time>
      </trkpt>
      <trkpt lat="41.93854" lon="19.54412">
        <ele>46.602182</ele>
        <time>2022-05-15T10:29:13.968Z</time>
      </trkpt>
      <trkpt lat="41.93857" lon="19.54399">
        <ele>46.747612</ele>
        <time>2022-05-15T10:29:16.931Z</time>
      </trkpt>
      <trkpt lat="41.93858" lon="19.54386">
        <ele>46.889475</ele>
        <time>2022-05-15T10:29:19.943Z</time>
      </trkpt>
      <trkpt lat="41.93859" lon="19.54372">
        <ele>47.036224</ele>
        <time>2022-05-15T10:29:22.933Z</time>
      </trkpt>
      <trkpt lat="41.9386" lon="19.54359">
        <ele>47.179988</ele>
        <time>2022-05-15T10:29:25.953Z</time>
      </trkpt>
      <trkpt lat="41.93861" lon="19.54345">
        <ele>47.256706</ele>
        <time>2022-05-15T10:29:28.963Z</time>
      </trkpt>
      <trkpt lat="41.93862" lon="19.54332">
        <ele>47.321535</ele>
        <time>2022-05-15T10:29:31.948Z</time>
      </trkpt>
      <trkpt lat="41.93865" lon="19.54319">
        <ele>47.385786</ele>
        <time>2022-05-15T10:29:34.941Z</time>
      </trkpt>
      <trkpt lat="41.93869" lon="19.54306">
        <ele>47.451807</ele>
        <time>2022-05-15T10:29:37.941Z</time>
      </trkpt>
      <trkpt lat="41.93874" lon="19.54294">
        <ele>47.520205</ele>
        <time>2022-05-15T10:29:40.957Z</time>
      </trkpt>
      <trkpt lat="41.9388" lon="19.54282">
        <ele>47.590286</ele>
        <time>2022-05-15T10:29:43.943Z</time>
      </trkpt>
      <trkpt lat="41.93886" lon="19.5427">
        <ele>47.662595</ele>
        <time>2022-05-15T10:29:46.925Z</time>
      </trkpt>
      <trkpt lat="41.93893" lon="19.54258">
        <ele>47.733463</ele>
        <time>2022-05-15T10:29:49.945Z</time>
      </trkpt>
      <trkpt lat="41.939" lon="19.54248">
        <ele>47.802564</ele>
        <time>2022-05-15T10:29:52.949Z</time>
      </trkpt>
      <trkpt lat="41.93907" lon="19.54236">
        <ele>47.872166</ele>
        <time>2022-05-15T10:29:55.932Z</time>
      </trkpt>
      <trkpt lat="41.93912" lon="19.54223">
        <ele>47.943501</ele>
        <time>2022-05-15T10:29:58.940Z</time>
      </trkpt>
      <trkpt lat="41.93917" lon="19.54208">
        <ele>48.022322</ele>
        <time>2022-05-15T10:30:01.939Z</time>
      </trkpt>
      <trkpt lat="41.9392" lon="19.54191">
        <ele>48.105937</ele>
        <time>2022-05-15T10:30:04.930Z</time>
      </trkpt>
      <trkpt lat="41.93923" lon="19.54174">
        <ele>48.19173</ele>
        <time>2022-05-15T10:30:07.968Z</time>
      </trkpt>
      <trkpt lat="41.93925" lon="19.54162">
        <ele>48.251609</ele>
        <time>2022-05-15T10:30:09.947Z</time>
      </trkpt>
      <trkpt lat="41.93928" lon="19.5415">
        <ele>48.312027</ele>
        <time>2022-05-15T10:30:11.942Z</time>
      </trkpt>
      <trkpt lat="41.93931" lon="19.54138">
        <ele>48.361063</ele>
        <time>2022-05-15T10:30:13.933Z</time>
      </trkpt>
      <trkpt lat="41.93934" lon="19.54126">
        <ele>48.343704</ele>
        <time>2022-05-15T10:30:15.942Z</time>
      </trkpt>
      <trkpt lat="41.93937" lon="19.54115">
        <ele>48.326129</ele>
        <time>2022-05-15T10:30:17.952Z</time>
      </trkpt>
      <trkpt lat="41.93943" lon="19.54099">
        <ele>48.300482</ele>
        <time>2022-05-15T10:30:20.931Z</time>
      </trkpt>
      <trkpt lat="41.93948" lon="19.54083">
        <ele>48.274941</ele>
        <time>2022-05-15T10:30:23.947Z</time>
      </trkpt>
      <trkpt lat="41.93952" lon="19.54071">
        <ele>48.256534</ele>
        <time>2022-05-15T10:30:25.946Z</time>
      </trkpt>
      <trkpt lat="41.93956" lon="19.54059">
        <ele>48.237601</ele>
        <time>2022-05-15T10:30:27.972Z</time>
      </trkpt>
      <trkpt lat="41.9396" lon="19.54048">
        <ele>48.219679</ele>
        <time>2022-05-15T10:30:30.013Z</time>
      </trkpt>
      <trkpt lat="41.93964" lon="19.54036">
        <ele>48.201558</ele>
        <time>2022-05-15T10:30:31.933Z</time>
      </trkpt>
      <trkpt lat="41.93968" lon="19.54025">
        <ele>48.183569</ele>
        <time>2022-05-15T10:30:33.932Z</time>
      </trkpt>
      <trkpt lat="41.93971" lon="19.54013">
        <ele>48.166105</ele>
        <time>2022-05-15T10:30:35.928Z</time>
      </trkpt>
      <trkpt lat="41.93975" lon="19.54002">
        <ele>48.148379</ele>
        <time>2022-05-15T10:30:37.942Z</time>
      </trkpt>
      <trkpt lat="41.93979" lon="19.53991">
        <ele>48.130522</ele>
        <time>2022-05-15T10:30:39.919Z</time>
      </trkpt>
      <trkpt lat="41.93982" lon="19.53979">
        <ele>48.111872</ele>
        <time>2022-05-15T10:30:41.970Z</time>
      </trkpt>
      <trkpt lat="41.93986" lon="19.53967">
        <ele>48.0935</ele>
        <time>2022-05-15T10:30:43.944Z</time>
      </trkpt>
      <trkpt lat="41.9399" lon="19.53955">
        <ele>48.074922</ele>
        <time>2022-05-15T10:30:45.932Z</time>
      </trkpt>
      <trkpt lat="41.93993" lon="19.53943">
        <ele>48.056405</ele>
        <time>2022-05-15T10:30:47.957Z</time>
      </trkpt>
      <trkpt lat="41.93997" lon="19.53931">
        <ele>48.038492</ele>
        <time>2022-05-15T10:30:49.937Z</time>
      </trkpt>
      <trkpt lat="41.94" lon="19.5392">
        <ele>48.020527</ele>
        <time>2022-05-15T10:30:51.940Z</time>
      </trkpt>
      <trkpt lat="41.94003" lon="19.53908">
        <ele>48.047046</ele>
        <time>2022-05-15T10:30:53.952Z</time>
      </trkpt>
      <trkpt lat="41.94005" lon="19.53897">
        <ele>48.087066</ele>
        <time>2022-05-15T10:30:55.928Z</time>
      </trkpt>
      <trkpt lat="41.94008" lon="19.53884">
        <ele>48.128133</ele>
        <time>2022-05-15T10:30:57.960Z</time>
      </trkpt>
      <trkpt lat="41.9401" lon="19.53872">
        <ele>48.169099</ele>
        <time>2022-05-15T10:30:59.927Z</time>
      </trkpt>
      <trkpt lat="41.94013" lon="19.53856">
        <ele>48.224984</ele>
        <time>2022-05-15T10:31:02.927Z</time>
      </trkpt>
      <trkpt lat="41.94016" lon="19.53839">
        <ele>48.280869</ele>
        <time>2022-05-15T10:31:06.011Z</time>
      </trkpt>
      <trkpt lat="41.94018" lon="19.53822">
        <ele>48.336365</ele>
        <time>2022-05-15T10:31:08.970Z</time>
      </trkpt>
      <trkpt lat="41.94021" lon="19.53806">
        <ele>48.39217</ele>
        <time>2022-05-15T10:31:11.945Z</time>
      </trkpt>
      <trkpt lat="41.94022" lon="19.53789">
        <ele>48.446405</ele>
        <time>2022-05-15T10:31:14.924Z</time>
      </trkpt>
      <trkpt lat="41.94022" lon="19.53772">
        <ele>48.502104</ele>
        <time>2022-05-15T10:31:17.930Z</time>
      </trkpt>
      <trkpt lat="41.94024" lon="19.53756">
        <ele>48.555647</ele>
        <time>2022-05-15T10:31:20.915Z</time>
      </trkpt>
      <trkpt lat="41.94024" lon="19.53739">
        <ele>48.610366</ele>
        <time>2022-05-15T10:31:23.930Z</time>
      </trkpt>
      <trkpt lat="41.94025" lon="19.53723">
        <ele>48.664132</ele>
        <time>2022-05-15T10:31:26.973Z</time>
      </trkpt>
      <trkpt lat="41.94026" lon="19.53708">
        <ele>48.712947</ele>
        <time>2022-05-15T10:31:29.920Z</time>
      </trkpt>
      <trkpt lat="41.94026" lon="19.53694">
        <ele>48.758823</ele>
        <time>2022-05-15T10:31:32.914Z</time>
      </trkpt>
      <trkpt lat="41.94027" lon="19.5368">
        <ele>48.805025</ele>
        <time>2022-05-15T10:31:35.939Z</time>
      </trkpt>
      <trkpt lat="41.94028" lon="19.53666">
        <ele>48.95842</ele>
        <time>2022-05-15T10:31:38.964Z</time>
      </trkpt>
      <trkpt lat="41.9403" lon="19.53652">
        <ele>49.117244</ele>
        <time>2022-05-15T10:31:41.930Z</time>
      </trkpt>
      <trkpt lat="41.94032" lon="19.53638">
        <ele>49.269697</ele>
        <time>2022-05-15T10:31:44.935Z</time>
      </trkpt>
      <trkpt lat="41.94035" lon="19.53626">
        <ele>49.41541</ele>
        <time>2022-05-15T10:31:47.923Z</time>
      </trkpt>
      <trkpt lat="41.94038" lon="19.53614">
        <ele>49.557318</ele>
        <time>2022-05-15T10:31:50.923Z</time>
      </trkpt>
      <trkpt lat="41.94043" lon="19.536">
        <ele>49.737167</ele>
        <time>2022-05-15T10:31:54.940Z</time>
      </trkpt>
      <trkpt lat="41.9405" lon="19.53587">
        <ele>49.914537</ele>
        <time>2022-05-15T10:31:58.957Z</time>
      </trkpt>
      <trkpt lat="41.94056" lon="19.53574">
        <ele>50.084381</ele>
        <time>2022-05-15T10:32:02.920Z</time>
      </trkpt>
      <trkpt lat="41.94064" lon="19.53563">
        <ele>50.264304</ele>
        <time>2022-05-15T10:32:06.964Z</time>
      </trkpt>
      <trkpt lat="41.94072" lon="19.53555">
        <ele>50.408865</ele>
        <time>2022-05-15T10:32:09.935Z</time>
      </trkpt>
      <trkpt lat="41.94081" lon="19.53548">
        <ele>50.564909</ele>
        <time>2022-05-15T10:32:12.945Z</time>
      </trkpt>
      <trkpt lat="41.94091" lon="19.53541">
        <ele>50.741427</ele>
        <time>2022-05-15T10:32:15.949Z</time>
      </trkpt>
      <trkpt lat="41.94103" lon="19.53533">
        <ele>50.935519</ele>
        <time>2022-05-15T10:32:18.933Z</time>
      </trkpt>
      <trkpt lat="41.94114" lon="19.53524">
        <ele>51.136537</ele>
        <time>2022-05-15T10:32:21.930Z</time>
      </trkpt>
      <trkpt lat="41.94123" lon="19.53519">
        <ele>51.282143</ele>
        <time>2022-05-15T10:32:23.916Z</time>
      </trkpt>
      <trkpt lat="41.94132" lon="19.53512">
        <ele>51.436753</ele>
        <time>2022-05-15T10:32:25.946Z</time>
      </trkpt>
      <trkpt lat="41.94141" lon="19.53506">
        <ele>51.472662</ele>
        <time>2022-05-15T10:32:27.927Z</time>
      </trkpt>
      <trkpt lat="41.94149" lon="19.535">
        <ele>51.333017</ele>
        <time>2022-05-15T10:32:29.913Z</time>
      </trkpt>
      <trkpt lat="41.94158" lon="19.53495">
        <ele>51.184867</ele>
        <time>2022-05-15T10:32:31.926Z</time>
      </trkpt>
      <trkpt lat="41.94168" lon="19.5349">
        <ele>51.02897</ele>
        <time>2022-05-15T10:32:33.941Z</time>
      </trkpt>
      <trkpt lat="41.94178" lon="19.53486">
        <ele>50.869459</ele>
        <time>2022-05-15T10:32:35.926Z</time>
      </trkpt>
      <trkpt lat="41.94188" lon="19.53483">
        <ele>50.716414</ele>
        <time>2022-05-15T10:32:37.939Z</time>
      </trkpt>
      <trkpt lat="41.94201" lon="19.53481">
        <ele>50.526043</ele>
        <time>2022-05-15T10:32:40.924Z</time>
      </trkpt>
      <trkpt lat="41.94213" lon="19.53479">
        <ele>50.347702</ele>
        <time>2022-05-15T10:32:43.933Z</time>
      </trkpt>
      <trkpt lat="41.94223" lon="19.53478">
        <ele>50.185422</ele>
        <time>2022-05-15T10:32:46.947Z</time>
      </trkpt>
      <trkpt lat="41.94235" lon="19.53476">
        <ele>50.00451</ele>
        <time>2022-05-15T10:32:49.937Z</time>
      </trkpt>
      <trkpt lat="41.94248" lon="19.53475">
        <ele>49.816478</ele>
        <time>2022-05-15T10:32:52.948Z</time>
      </trkpt>
      <trkpt lat="41.94261" lon="19.53473">
        <ele>49.622041</ele>
        <time>2022-05-15T10:32:55.964Z</time>
      </trkpt>
      <trkpt lat="41.94273" lon="19.53471">
        <ele>49.433432</ele>
        <time>2022-05-15T10:32:58.935Z</time>
      </trkpt>
      <trkpt lat="41.94285" lon="19.53469">
        <ele>49.251151</ele>
        <time>2022-05-15T10:33:01.939Z</time>
      </trkpt>
      <trkpt lat="41.94297" lon="19.53467">
        <ele>49.074706</ele>
        <time>2022-05-15T10:33:04.936Z</time>
      </trkpt>
      <trkpt lat="41.94309" lon="19.53466">
        <ele>48.889326</ele>
        <time>2022-05-15T10:33:07.929Z</time>
      </trkpt>
      <trkpt lat="41.94321" lon="19.53463">
        <ele>48.837654</ele>
        <time>2022-05-15T10:33:10.968Z</time>
      </trkpt>
      <trkpt lat="41.94333" lon="19.53462">
        <ele>48.841732</ele>
        <time>2022-05-15T10:33:13.926Z</time>
      </trkpt>
      <trkpt lat="41.94345" lon="19.5346">
        <ele>48.845813</ele>
        <time>2022-05-15T10:33:16.929Z</time>
      </trkpt>
      <trkpt lat="41.94356" lon="19.53457">
        <ele>48.849696</ele>
        <time>2022-05-15T10:33:19.930Z</time>
      </trkpt>
      <trkpt lat="41.94368" lon="19.53456">
        <ele>48.853761</ele>
        <time>2022-05-15T10:33:22.943Z</time>
      </trkpt>
      <trkpt lat="41.9438" lon="19.53455">
        <ele>48.85806</ele>
        <time>2022-05-15T10:33:25.928Z</time>
      </trkpt>
      <trkpt lat="41.94392" lon="19.53454">
        <ele>48.862289</ele>
        <time>2022-05-15T10:33:28.952Z</time>
      </trkpt>
      <trkpt lat="41.94405" lon="19.53452">
        <ele>48.866811</ele>
        <time>2022-05-15T10:33:31.928Z</time>
      </trkpt>
      <trkpt lat="41.94418" lon="19.53451">
        <ele>48.871085</ele>
        <time>2022-05-15T10:33:34.959Z</time>
      </trkpt>
      <trkpt lat="41.9443" lon="19.53449">
        <ele>48.875362</ele>
        <time>2022-05-15T10:33:37.924Z</time>
      </trkpt>
      <trkpt lat="41.94442" lon="19.53447">
        <ele>48.879641</ele>
        <time>2022-05-15T10:33:40.973Z</time>
      </trkpt>
      <trkpt lat="41.94454" lon="19.53446">
        <ele>48.883878</ele>
        <time>2022-05-15T10:33:43.943Z</time>
      </trkpt>
      <trkpt lat="41.94466" lon="19.53445">
        <ele>48.888012</ele>
        <time>2022-05-15T10:33:46.929Z</time>
      </trkpt>
      <trkpt lat="41.94478" lon="19.53443">
        <ele>48.892091</ele>
        <time>2022-05-15T10:33:49.936Z</time>
      </trkpt>
      <trkpt lat="41.94489" lon="19.5344">
        <ele>48.896046</ele>
        <time>2022-05-15T10:33:52.955Z</time>
      </trkpt>
      <trkpt lat="41.94501" lon="19.53437">
        <ele>48.898466</ele>
        <time>2022-05-15T10:33:55.935Z</time>
      </trkpt>
      <trkpt lat="41.94512" lon="19.53433">
        <ele>48.900501</ele>
        <time>2022-05-15T10:33:58.950Z</time>
      </trkpt>
      <trkpt lat="41.94523" lon="19.53426">
        <ele>48.902581</ele>
        <time>2022-05-15T10:34:01.937Z</time>
      </trkpt>
      <trkpt lat="41.94534" lon="19.53419">
        <ele>48.904605</ele>
        <time>2022-05-15T10:34:04.943Z</time>
      </trkpt>
      <trkpt lat="41.94544" lon="19.53411">
        <ele>48.906687</ele>
        <time>2022-05-15T10:34:07.944Z</time>
      </trkpt>
      <trkpt lat="41.94555" lon="19.53402">
        <ele>48.908805</ele>
        <time>2022-05-15T10:34:10.939Z</time>
      </trkpt>
      <trkpt lat="41.94566" lon="19.53393">
        <ele>48.910998</ele>
        <time>2022-05-15T10:34:13.974Z</time>
      </trkpt>
      <trkpt lat="41.94573" lon="19.53387">
        <ele>48.912561</ele>
        <time>2022-05-15T10:34:15.963Z</time>
      </trkpt>
      <trkpt lat="41.94585" lon="19.53377">
        <ele>48.91487</ele>
        <time>2022-05-15T10:34:18.958Z</time>
      </trkpt>
      <trkpt lat="41.94596" lon="19.53369">
        <ele>48.916999</ele>
        <time>2022-05-15T10:34:21.962Z</time>
      </trkpt>
      <trkpt lat="41.94607" lon="19.53361">
        <ele>48.919124</ele>
        <time>2022-05-15T10:34:24.967Z</time>
      </trkpt>
      <trkpt lat="41.94618" lon="19.53353">
        <ele>48.921268</ele>
        <time>2022-05-15T10:34:27.951Z</time>
      </trkpt>
      <trkpt lat="41.94628" lon="19.53344">
        <ele>48.923426</ele>
        <time>2022-05-15T10:34:30.949Z</time>
      </trkpt>
      <trkpt lat="41.94639" lon="19.53335">
        <ele>48.925554</ele>
        <time>2022-05-15T10:34:33.947Z</time>
      </trkpt>
      <trkpt lat="41.9465" lon="19.53326">
        <ele>48.927767</ele>
        <time>2022-05-15T10:34:36.951Z</time>
      </trkpt>
      <trkpt lat="41.94661" lon="19.53317">
        <ele>48.933014</ele>
        <time>2022-05-15T10:34:39.942Z</time>
      </trkpt>
      <trkpt lat="41.94673" lon="19.5331">
        <ele>48.938146</ele>
        <time>2022-05-15T10:34:42.930Z</time>
      </trkpt>
      <trkpt lat="41.94684" lon="19.53302">
        <ele>48.943304</ele>
        <time>2022-05-15T10:34:45.938Z</time>
      </trkpt>
      <trkpt lat="41.94696" lon="19.53294">
        <ele>48.94853</ele>
        <time>2022-05-15T10:34:48.944Z</time>
      </trkpt>
      <trkpt lat="41.94707" lon="19.53286">
        <ele>48.953578</ele>
        <time>2022-05-15T10:34:51.966Z</time>
      </trkpt>
      <trkpt lat="41.94718" lon="19.53278">
        <ele>48.958656</ele>
        <time>2022-05-15T10:34:54.933Z</time>
      </trkpt>
      <trkpt lat="41.94729" lon="19.53269">
        <ele>48.963908</ele>
        <time>2022-05-15T10:34:57.983Z</time>
      </trkpt>
      <trkpt lat="41.9474" lon="19.53261">
        <ele>48.969041</ele>
        <time>2022-05-15T10:35:00.931Z</time>
      </trkpt>
      <trkpt lat="41.94751" lon="19.53252">
        <ele>48.974239</ele>
        <time>2022-05-15T10:35:03.947Z</time>
      </trkpt>
      <trkpt lat="41.94762" lon="19.53243">
        <ele>48.979426</ele>
        <time>2022-05-15T10:35:06.951Z</time>
      </trkpt>
      <trkpt lat="41.94773" lon="19.53235">
        <ele>48.984468</ele>
        <time>2022-05-15T10:35:09.944Z</time>
      </trkpt>
      <trkpt lat="41.94784" lon="19.53226">
        <ele>48.98964</ele>
        <time>2022-05-15T10:35:12.947Z</time>
      </trkpt>
      <trkpt lat="41.94795" lon="19.53218">
        <ele>48.994554</ele>
        <time>2022-05-15T10:35:15.940Z</time>
      </trkpt>
      <trkpt lat="41.94806" lon="19.53209">
        <ele>48.999688</ele>
        <time>2022-05-15T10:35:18.942Z</time>
      </trkpt>
      <trkpt lat="41.94817" lon="19.532">
        <ele>49.075905</ele>
        <time>2022-05-15T10:35:21.933Z</time>
      </trkpt>
      <trkpt lat="41.94828" lon="19.53192">
        <ele>49.157377</ele>
        <time>2022-05-15T10:35:24.933Z</time>
      </trkpt>
      <trkpt lat="41.94838" lon="19.53183">
        <ele>49.234713</ele>
        <time>2022-05-15T10:35:27.938Z</time>
      </trkpt>
      <trkpt lat="41.94848" lon="19.53176">
        <ele>49.306461</ele>
        <time>2022-05-15T10:35:30.948Z</time>
      </trkpt>
      <trkpt lat="41.94857" lon="19.53168">
        <ele>49.378765</ele>
        <time>2022-05-15T10:35:33.963Z</time>
      </trkpt>
      <trkpt lat="41.94868" lon="19.5316">
        <ele>49.46183</ele>
        <time>2022-05-15T10:35:36.929Z</time>
      </trkpt>
      <trkpt lat="41.94877" lon="19.53153">
        <ele>49.525603</ele>
        <time>2022-05-15T10:35:38.951Z</time>
      </trkpt>
      <trkpt lat="41.94886" lon="19.53146">
        <ele>49.591397</ele>
        <time>2022-05-15T10:35:40.934Z</time>
      </trkpt>
      <trkpt lat="41.94894" lon="19.5314">
        <ele>49.650627</ele>
        <time>2022-05-15T10:35:42.999Z</time>
      </trkpt>
      <trkpt lat="41.94905" lon="19.5313">
        <ele>49.737853</ele>
        <time>2022-05-15T10:35:45.930Z</time>
      </trkpt>
      <trkpt lat="41.94917" lon="19.53121">
        <ele>49.82373</ele>
        <time>2022-05-15T10:35:48.950Z</time>
      </trkpt>
      <trkpt lat="41.94928" lon="19.53112">
        <ele>49.909185</ele>
        <time>2022-05-15T10:35:51.946Z</time>
      </trkpt>
      <trkpt lat="41.94939" lon="19.53103">
        <ele>49.993963</ele>
        <time>2022-05-15T10:35:54.946Z</time>
      </trkpt>
      <trkpt lat="41.9495" lon="19.53094">
        <ele>50.074317</ele>
        <time>2022-05-15T10:35:57.946Z</time>
      </trkpt>
      <trkpt lat="41.9496" lon="19.53087">
        <ele>50.149189</ele>
        <time>2022-05-15T10:36:00.946Z</time>
      </trkpt>
      <trkpt lat="41.94972" lon="19.53078">
        <ele>50.145976</ele>
        <time>2022-05-15T10:36:03.932Z</time>
      </trkpt>
      <trkpt lat="41.94982" lon="19.53069">
        <ele>50.132248</ele>
        <time>2022-05-15T10:36:06.930Z</time>
      </trkpt>
      <trkpt lat="41.94993" lon="19.53061">
        <ele>50.118848</ele>
        <time>2022-05-15T10:36:09.949Z</time>
      </trkpt>
      <trkpt lat="41.95004" lon="19.53053">
        <ele>50.104974</ele>
        <time>2022-05-15T10:36:12.935Z</time>
      </trkpt>
      <trkpt lat="41.95012" lon="19.53047">
        <ele>50.094891</ele>
        <time>2022-05-15T10:36:14.928Z</time>
      </trkpt>
      <trkpt lat="41.9502" lon="19.53041">
        <ele>50.084634</ele>
        <time>2022-05-15T10:36:16.939Z</time>
      </trkpt>
      <trkpt lat="41.95029" lon="19.53035">
        <ele>50.07405</ele>
        <time>2022-05-15T10:36:18.950Z</time>
      </trkpt>
      <trkpt lat="41.9504" lon="19.53025">
        <ele>50.05954</ele>
        <time>2022-05-15T10:36:21.944Z</time>
      </trkpt>
      <trkpt lat="41.95048" lon="19.53019">
        <ele>50.049717</ele>
        <time>2022-05-15T10:36:23.940Z</time>
      </trkpt>
      <trkpt lat="41.95059" lon="19.5301">
        <ele>50.035424</ele>
        <time>2022-05-15T10:36:26.969Z</time>
      </trkpt>
      <trkpt lat="41.9507" lon="19.53002">
        <ele>50.021443</ele>
        <time>2022-05-15T10:36:29.961Z</time>
      </trkpt>
      <trkpt lat="41.95078" lon="19.52996">
        <ele>50.011526</ele>
        <time>2022-05-15T10:36:31.942Z</time>
      </trkpt>
      <trkpt lat="41.9509" lon="19.52987">
        <ele>49.996948</ele>
        <time>2022-05-15T10:36:34.919Z</time>
      </trkpt>
      <trkpt lat="41.95101" lon="19.52978">
        <ele>49.982385</ele>
        <time>2022-05-15T10:36:37.998Z</time>
      </trkpt>
      <trkpt lat="41.95113" lon="19.52969">
        <ele>49.967726</ele>
        <time>2022-05-15T10:36:40.948Z</time>
      </trkpt>
      <trkpt lat="41.95124" lon="19.5296">
        <ele>50.009167</ele>
        <time>2022-05-15T10:36:43.931Z</time>
      </trkpt>
      <trkpt lat="41.95135" lon="19.52951">
        <ele>50.093384</ele>
        <time>2022-05-15T10:36:47.031Z</time>
      </trkpt>
      <trkpt lat="41.95146" lon="19.52942">
        <ele>50.176936</ele>
        <time>2022-05-15T10:36:49.929Z</time>
      </trkpt>
      <trkpt lat="41.95156" lon="19.52934">
        <ele>50.256256</ele>
        <time>2022-05-15T10:36:52.935Z</time>
      </trkpt>
      <trkpt lat="41.95167" lon="19.52925">
        <ele>50.339001</ele>
        <time>2022-05-15T10:36:55.944Z</time>
      </trkpt>
      <trkpt lat="41.95179" lon="19.52915">
        <ele>50.425319</ele>
        <time>2022-05-15T10:36:58.934Z</time>
      </trkpt>
      <trkpt lat="41.95189" lon="19.52907">
        <ele>50.507055</ele>
        <time>2022-05-15T10:37:01.933Z</time>
      </trkpt>
      <trkpt lat="41.95199" lon="19.52899">
        <ele>50.57932</ele>
        <time>2022-05-15T10:37:04.948Z</time>
      </trkpt>
      <trkpt lat="41.95209" lon="19.52891">
        <ele>50.65357</ele>
        <time>2022-05-15T10:37:07.936Z</time>
      </trkpt>
      <trkpt lat="41.95219" lon="19.52883">
        <ele>50.72726</ele>
        <time>2022-05-15T10:37:10.945Z</time>
      </trkpt>
      <trkpt lat="41.95228" lon="19.52877">
        <ele>50.795233</ele>
        <time>2022-05-15T10:37:13.946Z</time>
      </trkpt>
      <trkpt lat="41.95238" lon="19.52872">
        <ele>50.862246</ele>
        <time>2022-05-15T10:37:16.950Z</time>
      </trkpt>
      <trkpt lat="41.95248" lon="19.5287">
        <ele>50.929166</ele>
        <time>2022-05-15T10:37:19.946Z</time>
      </trkpt>
      <trkpt lat="41.95258" lon="19.52872">
        <ele>50.997182</ele>
        <time>2022-05-15T10:37:22.936Z</time>
      </trkpt>
      <trkpt lat="41.95269" lon="19.52876">
        <ele>51.067903</ele>
        <time>2022-05-15T10:37:25.926Z</time>
      </trkpt>
      <trkpt lat="41.95279" lon="19.52879">
        <ele>51.141654</ele>
        <time>2022-05-15T10:37:28.980Z</time>
      </trkpt>
      <trkpt lat="41.95289" lon="19.52883">
        <ele>51.246256</ele>
        <time>2022-05-15T10:37:31.943Z</time>
      </trkpt>
      <trkpt lat="41.95298" lon="19.52887">
        <ele>51.353079</ele>
        <time>2022-05-15T10:37:34.943Z</time>
      </trkpt>
      <trkpt lat="41.95308" lon="19.52891">
        <ele>51.459679</ele>
        <time>2022-05-15T10:37:37.931Z</time>
      </trkpt>
      <trkpt lat="41.95318" lon="19.52895">
        <ele>51.566061</ele>
        <time>2022-05-15T10:37:40.940Z</time>
      </trkpt>
      <trkpt lat="41.95327" lon="19.52899">
        <ele>51.66944</ele>
        <time>2022-05-15T10:37:43.932Z</time>
      </trkpt>
      <trkpt lat="41.95338" lon="19.52903">
        <ele>51.782055</ele>
        <time>2022-05-15T10:37:46.971Z</time>
      </trkpt>
      <trkpt lat="41.95348" lon="19.52907">
        <ele>51.889339</ele>
        <time>2022-05-15T10:37:49.943Z</time>
      </trkpt>
      <trkpt lat="41.95357" lon="19.52912">
        <ele>51.999806</ele>
        <time>2022-05-15T10:37:52.933Z</time>
      </trkpt>
      <trkpt lat="41.95367" lon="19.52918">
        <ele>52.113716</ele>
        <time>2022-05-15T10:37:55.964Z</time>
      </trkpt>
      <trkpt lat="41.95377" lon="19.52927">
        <ele>52.231045</ele>
        <time>2022-05-15T10:37:58.943Z</time>
      </trkpt>
      <trkpt lat="41.95387" lon="19.52936">
        <ele>52.356211</ele>
        <time>2022-05-15T10:38:01.932Z</time>
      </trkpt>
      <trkpt lat="41.95396" lon="19.52945">
        <ele>52.480875</ele>
        <time>2022-05-15T10:38:04.941Z</time>
      </trkpt>
      <trkpt lat="41.95405" lon="19.52955">
        <ele>52.601351</ele>
        <time>2022-05-15T10:38:07.940Z</time>
      </trkpt>
      <trkpt lat="41.95414" lon="19.52965">
        <ele>52.720529</ele>
        <time>2022-05-15T10:38:10.931Z</time>
      </trkpt>
      <trkpt lat="41.95423" lon="19.52975">
        <ele>52.842304</ele>
        <time>2022-05-15T10:38:13.944Z</time>
      </trkpt>
      <trkpt lat="41.95432" lon="19.52985">
        <ele>52.962287</ele>
        <time>2022-05-15T10:38:16.950Z</time>
      </trkpt>
      <trkpt lat="41.95441" lon="19.52994">
        <ele>53.024731</ele>
        <time>2022-05-15T10:38:19.932Z</time>
      </trkpt>
      <trkpt lat="41.9545" lon="19.53004">
        <ele>53.055674</ele>
        <time>2022-05-15T10:38:22.932Z</time>
      </trkpt>
      <trkpt lat="41.95459" lon="19.53014">
        <ele>53.086908</ele>
        <time>2022-05-15T10:38:25.927Z</time>
      </trkpt>
      <trkpt lat="41.95468" lon="19.53024">
        <ele>53.117645</ele>
        <time>2022-05-15T10:38:28.968Z</time>
      </trkpt>
      <trkpt lat="41.95477" lon="19.53034">
        <ele>53.148547</ele>
        <time>2022-05-15T10:38:31.927Z</time>
      </trkpt>
      <trkpt lat="41.95486" lon="19.53044">
        <ele>53.179821</ele>
        <time>2022-05-15T10:38:34.973Z</time>
      </trkpt>
      <trkpt lat="41.95495" lon="19.53054">
        <ele>53.211016</ele>
        <time>2022-05-15T10:38:37.930Z</time>
      </trkpt>
      <trkpt lat="41.95504" lon="19.53063">
        <ele>53.24171</ele>
        <time>2022-05-15T10:38:40.942Z</time>
      </trkpt>
      <trkpt lat="41.95513" lon="19.53074">
        <ele>53.272829</ele>
        <time>2022-05-15T10:38:43.943Z</time>
      </trkpt>
      <trkpt lat="41.95522" lon="19.53084">
        <ele>53.30456</ele>
        <time>2022-05-15T10:38:46.931Z</time>
      </trkpt>
      <trkpt lat="41.95531" lon="19.53094">
        <ele>53.335462</ele>
        <time>2022-05-15T10:38:49.949Z</time>
      </trkpt>
      <trkpt lat="41.9554" lon="19.53103">
        <ele>53.364596</ele>
        <time>2022-05-15T10:38:52.937Z</time>
      </trkpt>
      <trkpt lat="41.95548" lon="19.53113">
        <ele>53.394009</ele>
        <time>2022-05-15T10:38:55.936Z</time>
      </trkpt>
      <trkpt lat="41.95557" lon="19.53122">
        <ele>53.424495</ele>
        <time>2022-05-15T10:38:58.942Z</time>
      </trkpt>
      <trkpt lat="41.95566" lon="19.53132">
        <ele>53.454035</ele>
        <time>2022-05-15T10:39:01.952Z</time>
      </trkpt>
      <trkpt lat="41.95574" lon="19.53142">
        <ele>53.486663</ele>
        <time>2022-05-15T10:39:04.947Z</time>
      </trkpt>
      <trkpt lat="41.95583" lon="19.53152">
        <ele>53.619734</ele>
        <time>2022-05-15T10:39:07.941Z</time>
      </trkpt>
      <trkpt lat="41.95592" lon="19.53162">
        <ele>53.752276</ele>
        <time>2022-05-15T10:39:10.926Z</time>
      </trkpt>
      <trkpt lat="41.95601" lon="19.53171">
        <ele>53.882152</ele>
        <time>2022-05-15T10:39:13.952Z</time>
      </trkpt>
      <trkpt lat="41.95609" lon="19.53181">
        <ele>54.001137</ele>
        <time>2022-05-15T10:39:16.949Z</time>
      </trkpt>
      <trkpt lat="41.95617" lon="19.53189">
        <ele>54.112546</ele>
        <time>2022-05-15T10:39:19.966Z</time>
      </trkpt>
      <trkpt lat="41.95625" lon="19.53199">
        <ele>54.239792</ele>
        <time>2022-05-15T10:39:23.980Z</time>
      </trkpt>
      <trkpt lat="41.95634" lon="19.53206">
        <ele>54.361046</ele>
        <time>2022-05-15T10:39:27.932Z</time>
      </trkpt>
      <trkpt lat="41.95641" lon="19.53214">
        <ele>54.466723</ele>
        <time>2022-05-15T10:39:30.935Z</time>
      </trkpt>
      <trkpt lat="41.9565" lon="19.53221">
        <ele>54.579073</ele>
        <time>2022-05-15T10:39:33.947Z</time>
      </trkpt>
      <trkpt lat="41.95659" lon="19.53227">
        <ele>54.694082</ele>
        <time>2022-05-15T10:39:36.932Z</time>
      </trkpt>
      <trkpt lat="41.95668" lon="19.53233">
        <ele>54.810421</ele>
        <time>2022-05-15T10:39:39.987Z</time>
      </trkpt>
      <trkpt lat="41.95678" lon="19.53238">
        <ele>54.927266</ele>
        <time>2022-05-15T10:39:42.927Z</time>
      </trkpt>
      <trkpt lat="41.95687" lon="19.53241">
        <ele>55.041488</ele>
        <time>2022-05-15T10:39:45.962Z</time>
      </trkpt>
      <trkpt lat="41.95697" lon="19.53245">
        <ele>55.158815</ele>
        <time>2022-05-15T10:39:48.938Z</time>
      </trkpt>
      <trkpt lat="41.95707" lon="19.53248">
        <ele>55.278559</ele>
        <time>2022-05-15T10:39:51.957Z</time>
      </trkpt>
      <trkpt lat="41.95718" lon="19.53251">
        <ele>55.404433</ele>
        <time>2022-05-15T10:39:54.936Z</time>
      </trkpt>
      <trkpt lat="41.95728" lon="19.53254">
        <ele>55.518786</ele>
        <time>2022-05-15T10:39:57.933Z</time>
      </trkpt>
      <trkpt lat="41.95738" lon="19.53257">
        <ele>55.660341</ele>
        <time>2022-05-15T10:40:00.931Z</time>
      </trkpt>
      <trkpt lat="41.95748" lon="19.53261">
        <ele>55.805165</ele>
        <time>2022-05-15T10:40:03.959Z</time>
      </trkpt>
      <trkpt lat="41.95757" lon="19.53265">
        <ele>55.942785</ele>
        <time>2022-05-15T10:40:06.939Z</time>
      </trkpt>
      <trkpt lat="41.95767" lon="19.53268">
        <ele>56.087344</ele>
        <time>2022-05-15T10:40:09.947Z</time>
      </trkpt>
      <trkpt lat="41.95777" lon="19.53272">
        <ele>56.224077</ele>
        <time>2022-05-15T10:40:12.934Z</time>
      </trkpt>
      <trkpt lat="41.95785" lon="19.53275">
        <ele>56.350083</ele>
        <time>2022-05-15T10:40:15.918Z</time>
      </trkpt>
      <trkpt lat="41.95794" lon="19.53279">
        <ele>56.478083</ele>
        <time>2022-05-15T10:40:18.949Z</time>
      </trkpt>
      <trkpt lat="41.95805" lon="19.53285">
        <ele>56.638711</ele>
        <time>2022-05-15T10:40:22.947Z</time>
      </trkpt>
      <trkpt lat="41.95815" lon="19.53291">
        <ele>56.798715</ele>
        <time>2022-05-15T10:40:26.930Z</time>
      </trkpt>
      <trkpt lat="41.95826" lon="19.533">
        <ele>56.969793</ele>
        <time>2022-05-15T10:40:30.946Z</time>
      </trkpt>
      <trkpt lat="41.95835" lon="19.53307">
        <ele>57.116179</ele>
        <time>2022-05-15T10:40:33.948Z</time>
      </trkpt>
      <trkpt lat="41.95843" lon="19.53315">
        <ele>57.267151</ele>
        <time>2022-05-15T10:40:36.934Z</time>
      </trkpt>
      <trkpt lat="41.95853" lon="19.53326">
        <ele>57.438376</ele>
        <time>2022-05-15T10:40:39.959Z</time>
      </trkpt>
      <trkpt lat="41.95862" lon="19.53338">
        <ele>57.61654</ele>
        <time>2022-05-15T10:40:42.937Z</time>
      </trkpt>
      <trkpt lat="41.95871" lon="19.5335">
        <ele>57.797041</ele>
        <time>2022-05-15T10:40:45.948Z</time>
      </trkpt>
      <trkpt lat="41.95877" lon="19.53359">
        <ele>57.924119</ele>
        <time>2022-05-15T10:40:47.938Z</time>
      </trkpt>
      <trkpt lat="41.95884" lon="19.53368">
        <ele>58.055201</ele>
        <time>2022-05-15T10:40:49.962Z</time>
      </trkpt>
      <trkpt lat="41.9589" lon="19.53379">
        <ele>58.13948</ele>
        <time>2022-05-15T10:40:51.923Z</time>
      </trkpt>
      <trkpt lat="41.95897" lon="19.5339">
        <ele>58.226738</ele>
        <time>2022-05-15T10:40:53.935Z</time>
      </trkpt>
      <trkpt lat="41.95903" lon="19.53401">
        <ele>58.312917</ele>
        <time>2022-05-15T10:40:55.934Z</time>
      </trkpt>
      <trkpt lat="41.95909" lon="19.53413">
        <ele>58.400632</ele>
        <time>2022-05-15T10:40:57.943Z</time>
      </trkpt>
      <trkpt lat="41.95915" lon="19.53425">
        <ele>58.489935</ele>
        <time>2022-05-15T10:40:59.912Z</time>
      </trkpt>
      <trkpt lat="41.95921" lon="19.53436">
        <ele>58.576763</ele>
        <time>2022-05-15T10:41:01.946Z</time>
      </trkpt>
      <trkpt lat="41.95926" lon="19.53447">
        <ele>58.660544</ele>
        <time>2022-05-15T10:41:03.912Z</time>
      </trkpt>
      <trkpt lat="41.95932" lon="19.5346">
        <ele>58.74991</ele>
        <time>2022-05-15T10:41:05.924Z</time>
      </trkpt>
      <trkpt lat="41.95938" lon="19.53472">
        <ele>58.841226</ele>
        <time>2022-05-15T10:41:07.950Z</time>
      </trkpt>
      <trkpt lat="41.95944" lon="19.53484">
        <ele>58.930991</ele>
        <time>2022-05-15T10:41:09.913Z</time>
      </trkpt>
      <trkpt lat="41.9595" lon="19.53496">
        <ele>59.021789</ele>
        <time>2022-05-15T10:41:11.916Z</time>
      </trkpt>
      <trkpt lat="41.95955" lon="19.53507">
        <ele>59.102703</ele>
        <time>2022-05-15T10:41:13.920Z</time>
      </trkpt>
      <trkpt lat="41.95961" lon="19.53517">
        <ele>59.181408</ele>
        <time>2022-05-15T10:41:15.925Z</time>
      </trkpt>
      <trkpt lat="41.95967" lon="19.53528">
        <ele>59.264612</ele>
        <time>2022-05-15T10:41:17.958Z</time>
      </trkpt>
      <trkpt lat="41.95974" lon="19.53538">
        <ele>59.351465</ele>
        <time>2022-05-15T10:41:19.969Z</time>
      </trkpt>
      <trkpt lat="41.95981" lon="19.53547">
        <ele>59.4339</ele>
        <time>2022-05-15T10:41:21.918Z</time>
      </trkpt>
      <trkpt lat="41.95987" lon="19.53557">
        <ele>59.514038</ele>
        <time>2022-05-15T10:41:23.926Z</time>
      </trkpt>
      <trkpt lat="41.95994" lon="19.53566">
        <ele>59.476182</ele>
        <time>2022-05-15T10:41:25.923Z</time>
      </trkpt>
      <trkpt lat="41.96004" lon="19.53575">
        <ele>59.258615</ele>
        <time>2022-05-15T10:41:28.919Z</time>
      </trkpt>
      <trkpt lat="41.96012" lon="19.53585">
        <ele>59.058636</ele>
        <time>2022-05-15T10:41:31.932Z</time>
      </trkpt>
      <trkpt lat="41.96021" lon="19.53594">
        <ele>58.851833</ele>
        <time>2022-05-15T10:41:34.924Z</time>
      </trkpt>
      <trkpt lat="41.9603" lon="19.53602">
        <ele>58.655304</ele>
        <time>2022-05-15T10:41:37.919Z</time>
      </trkpt>
      <trkpt lat="41.96039" lon="19.53609">
        <ele>58.465033</ele>
        <time>2022-05-15T10:41:40.909Z</time>
      </trkpt>
      <trkpt lat="41.96049" lon="19.53615">
        <ele>58.271423</ele>
        <time>2022-05-15T10:41:43.925Z</time>
      </trkpt>
      <trkpt lat="41.96059" lon="19.53621">
        <ele>58.075598</ele>
        <time>2022-05-15T10:41:46.909Z</time>
      </trkpt>
      <trkpt lat="41.96068" lon="19.53626">
        <ele>57.88619</ele>
        <time>2022-05-15T10:41:49.939Z</time>
      </trkpt>
      <trkpt lat="41.96078" lon="19.5363">
        <ele>57.699134</ele>
        <time>2022-05-15T10:41:52.916Z</time>
      </trkpt>
      <trkpt lat="41.96085" lon="19.53639">
        <ele>57.521745</ele>
        <time>2022-05-15T10:41:55.935Z</time>
      </trkpt>
      <trkpt lat="41.96085" lon="19.53655">
        <ele>57.299934</ele>
        <time>2022-05-15T10:41:58.923Z</time>
      </trkpt>
      <trkpt lat="41.9608" lon="19.53672">
        <ele>57.060076</ele>
        <time>2022-05-15T10:42:01.938Z</time>
      </trkpt>
      <trkpt lat="41.96075" lon="19.53688">
        <ele>56.825179</ele>
        <time>2022-05-15T10:42:04.924Z</time>
      </trkpt>
      <trkpt lat="41.96069" lon="19.53703">
        <ele>56.593306</ele>
        <time>2022-05-15T10:42:07.919Z</time>
      </trkpt>
      <trkpt lat="41.96063" lon="19.53717">
        <ele>56.371975</ele>
        <time>2022-05-15T10:42:10.919Z</time>
      </trkpt>
      <trkpt lat="41.96059" lon="19.53732">
        <ele>56.106542</ele>
        <time>2022-05-15T10:42:13.917Z</time>
      </trkpt>
      <trkpt lat="41.96054" lon="19.53747">
        <ele>55.815529</ele>
        <time>2022-05-15T10:42:16.923Z</time>
      </trkpt>
      <trkpt lat="41.96049" lon="19.53762">
        <ele>55.501122</ele>
        <time>2022-05-15T10:42:19.911Z</time>
      </trkpt>
      <trkpt lat="41.96046" lon="19.53774">
        <ele>55.277813</ele>
        <time>2022-05-15T10:42:21.911Z</time>
      </trkpt>
      <trkpt lat="41.96042" lon="19.53785">
        <ele>55.045002</ele>
        <time>2022-05-15T10:42:23.927Z</time>
      </trkpt>
      <trkpt lat="41.96038" lon="19.538">
        <ele>54.74462</ele>
        <time>2022-05-15T10:42:26.941Z</time>
      </trkpt>
      <trkpt lat="41.96034" lon="19.53814">
        <ele>54.478987</ele>
        <time>2022-05-15T10:42:29.910Z</time>
      </trkpt>
      <trkpt lat="41.9603" lon="19.53827">
        <ele>54.215675</ele>
        <time>2022-05-15T10:42:32.919Z</time>
      </trkpt>
      <trkpt lat="41.96025" lon="19.53838">
        <ele>53.970547</ele>
        <time>2022-05-15T10:42:36.911Z</time>
      </trkpt>
      <trkpt lat="41.96034" lon="19.5382">
        <ele>53.56619</ele>
        <time>2022-05-15T10:43:50.921Z</time>
      </trkpt>
      <trkpt lat="41.96038" lon="19.53805">
        <ele>53.278005</ele>
        <time>2022-05-15T10:43:54.909Z</time>
      </trkpt>
      <trkpt lat="41.96041" lon="19.53792">
        <ele>53.018367</ele>
        <time>2022-05-15T10:43:58.942Z</time>
      </trkpt>
      <trkpt lat="41.96046" lon="19.53779">
        <ele>52.74999</ele>
        <time>2022-05-15T10:44:02.912Z</time>
      </trkpt>
      <trkpt lat="41.96049" lon="19.53766">
        <ele>52.496437</ele>
        <time>2022-05-15T10:44:06.927Z</time>
      </trkpt>
      <trkpt lat="41.96054" lon="19.53752">
        <ele>52.211255</ele>
        <time>2022-05-15T10:44:10.910Z</time>
      </trkpt>
      <trkpt lat="41.96058" lon="19.53741">
        <ele>51.985011</ele>
        <time>2022-05-15T10:44:13.913Z</time>
      </trkpt>
      <trkpt lat="41.96062" lon="19.5373">
        <ele>51.883706</ele>
        <time>2022-05-15T10:44:16.912Z</time>
      </trkpt>
      <trkpt lat="41.96066" lon="19.53718">
        <ele>52.247172</ele>
        <time>2022-05-15T10:44:19.907Z</time>
      </trkpt>
      <trkpt lat="41.9607" lon="19.53706">
        <ele>52.636959</ele>
        <time>2022-05-15T10:44:22.912Z</time>
      </trkpt>
      <trkpt lat="41.96074" lon="19.53694">
        <ele>53.027239</ele>
        <time>2022-05-15T10:44:25.919Z</time>
      </trkpt>
      <trkpt lat="41.96078" lon="19.53681">
        <ele>53.441111</ele>
        <time>2022-05-15T10:44:28.917Z</time>
      </trkpt>
      <trkpt lat="41.96083" lon="19.53669">
        <ele>53.839609</ele>
        <time>2022-05-15T10:44:31.925Z</time>
      </trkpt>
      <trkpt lat="41.96087" lon="19.53655">
        <ele>54.2991</ele>
        <time>2022-05-15T10:44:35.909Z</time>
      </trkpt>
      <trkpt lat="41.96093" lon="19.53646">
        <ele>54.653927</ele>
        <time>2022-05-15T10:44:39.923Z</time>
      </trkpt>
      <trkpt lat="41.96103" lon="19.53647">
        <ele>55.0426</ele>
        <time>2022-05-15T10:44:44.912Z</time>
      </trkpt>
      <trkpt lat="41.96114" lon="19.53651">
        <ele>55.482817</ele>
        <time>2022-05-15T10:44:48.941Z</time>
      </trkpt>
      <trkpt lat="41.96124" lon="19.53657">
        <ele>55.934012</ele>
        <time>2022-05-15T10:44:52.916Z</time>
      </trkpt>
      <trkpt lat="41.96133" lon="19.53662">
        <ele>56.32403</ele>
        <time>2022-05-15T10:44:55.924Z</time>
      </trkpt>
      <trkpt lat="41.96142" lon="19.53667">
        <ele>56.689827</ele>
        <time>2022-05-15T10:44:58.928Z</time>
      </trkpt>
      <trkpt lat="41.96151" lon="19.53672">
        <ele>57.08312</ele>
        <time>2022-05-15T10:45:01.916Z</time>
      </trkpt>
      <trkpt lat="41.96161" lon="19.53677">
        <ele>57.496928</ele>
        <time>2022-05-15T10:45:04.936Z</time>
      </trkpt>
      <trkpt lat="41.9617" lon="19.53682">
        <ele>57.881793</ele>
        <time>2022-05-15T10:45:07.913Z</time>
      </trkpt>
      <trkpt lat="41.96179" lon="19.53687">
        <ele>58.286073</ele>
        <time>2022-05-15T10:45:10.944Z</time>
      </trkpt>
      <trkpt lat="41.96189" lon="19.53692">
        <ele>58.690353</ele>
        <time>2022-05-15T10:45:13.910Z</time>
      </trkpt>
      <trkpt lat="41.96199" lon="19.53697">
        <ele>58.796442</ele>
        <time>2022-05-15T10:45:16.911Z</time>
      </trkpt>
      <trkpt lat="41.96209" lon="19.53701">
        <ele>58.548542</ele>
        <time>2022-05-15T10:45:19.910Z</time>
      </trkpt>
      <trkpt lat="41.96218" lon="19.53706">
        <ele>58.305712</ele>
        <time>2022-05-15T10:45:22.913Z</time>
      </trkpt>
      <trkpt lat="41.96228" lon="19.53709">
        <ele>58.060475</ele>
        <time>2022-05-15T10:45:25.915Z</time>
      </trkpt>
      <trkpt lat="41.96238" lon="19.53712">
        <ele>57.827194</ele>
        <time>2022-05-15T10:45:28.952Z</time>
      </trkpt>
      <trkpt lat="41.96248" lon="19.53715">
        <ele>57.591318</ele>
        <time>2022-05-15T10:45:31.919Z</time>
      </trkpt>
      <trkpt lat="41.96258" lon="19.53719">
        <ele>57.34519</ele>
        <time>2022-05-15T10:45:34.920Z</time>
      </trkpt>
      <trkpt lat="41.96268" lon="19.53721">
        <ele>57.088353</ele>
        <time>2022-05-15T10:45:37.922Z</time>
      </trkpt>
      <trkpt lat="41.96279" lon="19.53725">
        <ele>56.825418</ele>
        <time>2022-05-15T10:45:40.918Z</time>
      </trkpt>
      <trkpt lat="41.96289" lon="19.53728">
        <ele>56.57522</ele>
        <time>2022-05-15T10:45:43.912Z</time>
      </trkpt>
      <trkpt lat="41.963" lon="19.53731">
        <ele>56.306469</ele>
        <time>2022-05-15T10:45:46.939Z</time>
      </trkpt>
      <trkpt lat="41.96312" lon="19.53735">
        <ele>56.032265</ele>
        <time>2022-05-15T10:45:49.948Z</time>
      </trkpt>
      <trkpt lat="41.96323" lon="19.53739">
        <ele>55.759939</ele>
        <time>2022-05-15T10:45:52.916Z</time>
      </trkpt>
      <trkpt lat="41.96334" lon="19.53742">
        <ele>55.47875</ele>
        <time>2022-05-15T10:45:55.942Z</time>
      </trkpt>
      <trkpt lat="41.96345" lon="19.53745">
        <ele>55.206424</ele>
        <time>2022-05-15T10:45:58.922Z</time>
      </trkpt>
      <trkpt lat="41.96357" lon="19.5375">
        <ele>54.926725</ele>
        <time>2022-05-15T10:46:01.919Z</time>
      </trkpt>
      <trkpt lat="41.96368" lon="19.53755">
        <ele>54.641634</ele>
        <time>2022-05-15T10:46:04.930Z</time>
      </trkpt>
      <trkpt lat="41.96379" lon="19.5376">
        <ele>54.708304</ele>
        <time>2022-05-15T10:46:07.914Z</time>
      </trkpt>
      <trkpt lat="41.96391" lon="19.53765">
        <ele>54.782126</ele>
        <time>2022-05-15T10:46:10.907Z</time>
      </trkpt>
      <trkpt lat="41.96402" lon="19.53769">
        <ele>54.853906</ele>
        <time>2022-05-15T10:46:13.915Z</time>
      </trkpt>
      <trkpt lat="41.96413" lon="19.53774">
        <ele>54.923784</ele>
        <time>2022-05-15T10:46:16.922Z</time>
      </trkpt>
      <trkpt lat="41.96423" lon="19.53778">
        <ele>54.991099</ele>
        <time>2022-05-15T10:46:19.913Z</time>
      </trkpt>
      <trkpt lat="41.96434" lon="19.53782">
        <ele>55.060115</ele>
        <time>2022-05-15T10:46:22.948Z</time>
      </trkpt>
      <trkpt lat="41.96445" lon="19.53786">
        <ele>55.130402</ele>
        <time>2022-05-15T10:46:25.914Z</time>
      </trkpt>
      <trkpt lat="41.96457" lon="19.5379">
        <ele>55.205097</ele>
        <time>2022-05-15T10:46:28.922Z</time>
      </trkpt>
      <trkpt lat="41.96468" lon="19.53795">
        <ele>55.276476</ele>
        <time>2022-05-15T10:46:31.911Z</time>
      </trkpt>
      <trkpt lat="41.96479" lon="19.53799">
        <ele>55.350101</ele>
        <time>2022-05-15T10:46:34.917Z</time>
      </trkpt>
      <trkpt lat="41.96491" lon="19.53803">
        <ele>55.42551</ele>
        <time>2022-05-15T10:46:37.913Z</time>
      </trkpt>
      <trkpt lat="41.96503" lon="19.53808">
        <ele>55.501884</ele>
        <time>2022-05-15T10:46:40.914Z</time>
      </trkpt>
      <trkpt lat="41.96515" lon="19.53813">
        <ele>55.578726</ele>
        <time>2022-05-15T10:46:43.912Z</time>
      </trkpt>
      <trkpt lat="41.96527" lon="19.53817">
        <ele>55.654851</ele>
        <time>2022-05-15T10:46:46.912Z</time>
      </trkpt>
      <trkpt lat="41.96539" lon="19.53822">
        <ele>55.732797</ele>
        <time>2022-05-15T10:46:49.916Z</time>
      </trkpt>
      <trkpt lat="41.96551" lon="19.53827">
        <ele>55.736173</ele>
        <time>2022-05-15T10:46:52.921Z</time>
      </trkpt>
      <trkpt lat="41.96563" lon="19.53832">
        <ele>55.725228</ele>
        <time>2022-05-15T10:46:55.919Z</time>
      </trkpt>
      <trkpt lat="41.96575" lon="19.53837">
        <ele>55.714347</ele>
        <time>2022-05-15T10:46:58.919Z</time>
      </trkpt>
      <trkpt lat="41.96588" lon="19.53842">
        <ele>55.702864</ele>
        <time>2022-05-15T10:47:01.933Z</time>
      </trkpt>
      <trkpt lat="41.966" lon="19.53848">
        <ele>55.691528</ele>
        <time>2022-05-15T10:47:04.914Z</time>
      </trkpt>
      <trkpt lat="41.96612" lon="19.53853">
        <ele>55.68025</ele>
        <time>2022-05-15T10:47:07.912Z</time>
      </trkpt>
      <trkpt lat="41.96625" lon="19.53857">
        <ele>55.668907</ele>
        <time>2022-05-15T10:47:10.914Z</time>
      </trkpt>
      <trkpt lat="41.96638" lon="19.53862">
        <ele>55.65728</ele>
        <time>2022-05-15T10:47:13.914Z</time>
      </trkpt>
      <trkpt lat="41.9665" lon="19.53867">
        <ele>55.64602</ele>
        <time>2022-05-15T10:47:16.922Z</time>
      </trkpt>
      <trkpt lat="41.96663" lon="19.53872">
        <ele>55.634898</ele>
        <time>2022-05-15T10:47:19.918Z</time>
      </trkpt>
      <trkpt lat="41.96675" lon="19.53876">
        <ele>55.62374</ele>
        <time>2022-05-15T10:47:22.921Z</time>
      </trkpt>
      <trkpt lat="41.96687" lon="19.53881">
        <ele>55.612667</ele>
        <time>2022-05-15T10:47:25.916Z</time>
      </trkpt>
      <trkpt lat="41.96699" lon="19.53885">
        <ele>55.602083</ele>
        <time>2022-05-15T10:47:28.924Z</time>
      </trkpt>
      <trkpt lat="41.96711" lon="19.53889">
        <ele>55.591465</ele>
        <time>2022-05-15T10:47:31.919Z</time>
      </trkpt>
      <trkpt lat="41.96722" lon="19.53894">
        <ele>55.606821</ele>
        <time>2022-05-15T10:47:34.912Z</time>
      </trkpt>
      <trkpt lat="41.96734" lon="19.53899">
        <ele>55.630861</ele>
        <time>2022-05-15T10:47:37.918Z</time>
      </trkpt>
      <trkpt lat="41.96745" lon="19.53904">
        <ele>55.654404</ele>
        <time>2022-05-15T10:47:40.916Z</time>
      </trkpt>
      <trkpt lat="41.96757" lon="19.53909">
        <ele>55.678553</ele>
        <time>2022-05-15T10:47:43.916Z</time>
      </trkpt>
      <trkpt lat="41.96769" lon="19.53913">
        <ele>55.702278</ele>
        <time>2022-05-15T10:47:46.920Z</time>
      </trkpt>
      <trkpt lat="41.96781" lon="19.53917">
        <ele>55.725851</ele>
        <time>2022-05-15T10:47:49.927Z</time>
      </trkpt>
      <trkpt lat="41.96792" lon="19.5392">
        <ele>55.749471</ele>
        <time>2022-05-15T10:47:52.954Z</time>
      </trkpt>
      <trkpt lat="41.96805" lon="19.53924">
        <ele>55.774172</ele>
        <time>2022-05-15T10:47:55.915Z</time>
      </trkpt>
      <trkpt lat="41.96817" lon="19.53926">
        <ele>55.799425</ele>
        <time>2022-05-15T10:47:58.913Z</time>
      </trkpt>
      <trkpt lat="41.9683" lon="19.5393">
        <ele>55.824753</ele>
        <time>2022-05-15T10:48:01.920Z</time>
      </trkpt>
      <trkpt lat="41.96843" lon="19.53932">
        <ele>55.850482</ele>
        <time>2022-05-15T10:48:04.913Z</time>
      </trkpt>
      <trkpt lat="41.96856" lon="19.53934">
        <ele>55.875998</ele>
        <time>2022-05-15T10:48:07.910Z</time>
      </trkpt>
      <trkpt lat="41.96869" lon="19.53936">
        <ele>55.901224</ele>
        <time>2022-05-15T10:48:10.912Z</time>
      </trkpt>
      <trkpt lat="41.9688" lon="19.53938">
        <ele>55.923823</ele>
        <time>2022-05-15T10:48:13.937Z</time>
      </trkpt>
      <trkpt lat="41.96892" lon="19.5394">
        <ele>55.957326</ele>
        <time>2022-05-15T10:48:16.918Z</time>
      </trkpt>
      <trkpt lat="41.96904" lon="19.53942">
        <ele>56.01846</ele>
        <time>2022-05-15T10:48:19.938Z</time>
      </trkpt>
      <trkpt lat="41.96916" lon="19.53943">
        <ele>56.081453</ele>
        <time>2022-05-15T10:48:22.911Z</time>
      </trkpt>
      <trkpt lat="41.96929" lon="19.53945">
        <ele>56.144105</ele>
        <time>2022-05-15T10:48:25.911Z</time>
      </trkpt>
      <trkpt lat="41.9694" lon="19.53947">
        <ele>56.204686</ele>
        <time>2022-05-15T10:48:28.912Z</time>
      </trkpt>
      <trkpt lat="41.96952" lon="19.53949">
        <ele>56.264303</ele>
        <time>2022-05-15T10:48:31.916Z</time>
      </trkpt>
      <trkpt lat="41.96964" lon="19.53952">
        <ele>56.327051</ele>
        <time>2022-05-15T10:48:34.924Z</time>
      </trkpt>
      <trkpt lat="41.96977" lon="19.53954">
        <ele>56.392831</ele>
        <time>2022-05-15T10:48:37.917Z</time>
      </trkpt>
      <trkpt lat="41.9699" lon="19.53956">
        <ele>56.458984</ele>
        <time>2022-05-15T10:48:40.920Z</time>
      </trkpt>
      <trkpt lat="41.97003" lon="19.53958">
        <ele>56.525369</ele>
        <time>2022-05-15T10:48:43.908Z</time>
      </trkpt>
      <trkpt lat="41.97012" lon="19.5396">
        <ele>56.572069</ele>
        <time>2022-05-15T10:48:45.921Z</time>
      </trkpt>
      <trkpt lat="41.97025" lon="19.53964">
        <ele>56.639941</ele>
        <time>2022-05-15T10:48:48.918Z</time>
      </trkpt>
      <trkpt lat="41.97038" lon="19.53967">
        <ele>56.707525</ele>
        <time>2022-05-15T10:48:51.909Z</time>
      </trkpt>
      <trkpt lat="41.97051" lon="19.53971">
        <ele>56.773687</ele>
        <time>2022-05-15T10:48:54.915Z</time>
      </trkpt>
      <trkpt lat="41.97064" lon="19.53974">
        <ele>56.841005</ele>
        <time>2022-05-15T10:48:57.917Z</time>
      </trkpt>
      <trkpt lat="41.97076" lon="19.53979">
        <ele>56.832277</ele>
        <time>2022-05-15T10:49:00.922Z</time>
      </trkpt>
      <trkpt lat="41.97088" lon="19.53983">
        <ele>56.795738</ele>
        <time>2022-05-15T10:49:03.912Z</time>
      </trkpt>
      <trkpt lat="41.97101" lon="19.53989">
        <ele>56.759526</ele>
        <time>2022-05-15T10:49:06.927Z</time>
      </trkpt>
      <trkpt lat="41.97113" lon="19.53995">
        <ele>56.722528</ele>
        <time>2022-05-15T10:49:09.942Z</time>
      </trkpt>
      <trkpt lat="41.97125" lon="19.54004">
        <ele>56.684733</ele>
        <time>2022-05-15T10:49:12.916Z</time>
      </trkpt>
      <trkpt lat="41.97134" lon="19.54016">
        <ele>56.647715</ele>
        <time>2022-05-15T10:49:15.918Z</time>
      </trkpt>
      <trkpt lat="41.9714" lon="19.54025">
        <ele>56.62245</ele>
        <time>2022-05-15T10:49:17.913Z</time>
      </trkpt>
      <trkpt lat="41.97147" lon="19.5404">
        <ele>56.584847</ele>
        <time>2022-05-15T10:49:20.906Z</time>
      </trkpt>
      <trkpt lat="41.97153" lon="19.54056">
        <ele>56.547899</ele>
        <time>2022-05-15T10:49:23.915Z</time>
      </trkpt>
      <trkpt lat="41.97159" lon="19.54072">
        <ele>56.510708</ele>
        <time>2022-05-15T10:49:26.921Z</time>
      </trkpt>
      <trkpt lat="41.97163" lon="19.54083">
        <ele>56.484711</ele>
        <time>2022-05-15T10:49:28.923Z</time>
      </trkpt>
      <trkpt lat="41.97167" lon="19.54094">
        <ele>56.458286</ele>
        <time>2022-05-15T10:49:30.922Z</time>
      </trkpt>
      <trkpt lat="41.97171" lon="19.54105">
        <ele>56.43268</ele>
        <time>2022-05-15T10:49:32.913Z</time>
      </trkpt>
      <trkpt lat="41.97177" lon="19.54121">
        <ele>56.3958</ele>
        <time>2022-05-15T10:49:35.915Z</time>
      </trkpt>
      <trkpt lat="41.97182" lon="19.54137">
        <ele>56.35905</ele>
        <time>2022-05-15T10:49:38.923Z</time>
      </trkpt>
      <trkpt lat="41.97189" lon="19.54151">
        <ele>56.325036</ele>
        <time>2022-05-15T10:49:41.909Z</time>
      </trkpt>
      <trkpt lat="41.97196" lon="19.54164">
        <ele>56.292282</ele>
        <time>2022-05-15T10:49:44.912Z</time>
      </trkpt>
      <trkpt lat="41.97204" lon="19.54177">
        <ele>56.258504</ele>
        <time>2022-05-15T10:49:47.920Z</time>
      </trkpt>
      <trkpt lat="41.97213" lon="19.5419">
        <ele>56.2242</ele>
        <time>2022-05-15T10:49:50.932Z</time>
      </trkpt>
      <trkpt lat="41.97222" lon="19.54202">
        <ele>56.190479</ele>
        <time>2022-05-15T10:49:53.935Z</time>
      </trkpt>
      <trkpt lat="41.97233" lon="19.54212">
        <ele>56.1552</ele>
        <time>2022-05-15T10:49:56.934Z</time>
      </trkpt>
      <trkpt lat="41.97241" lon="19.54217">
        <ele>56.130695</ele>
        <time>2022-05-15T10:49:58.923Z</time>
      </trkpt>
      <trkpt lat="41.9725" lon="19.54223">
        <ele>56.103933</ele>
        <time>2022-05-15T10:50:00.919Z</time>
      </trkpt>
      <trkpt lat="41.9726" lon="19.54227">
        <ele>56.076305</ele>
        <time>2022-05-15T10:50:02.916Z</time>
      </trkpt>
      <trkpt lat="41.97269" lon="19.54233">
        <ele>56.048383</ele>
        <time>2022-05-15T10:50:04.945Z</time>
      </trkpt>
      <trkpt lat="41.97279" lon="19.54238">
        <ele>56.020136</ele>
        <time>2022-05-15T10:50:06.932Z</time>
      </trkpt>
      <trkpt lat="41.97288" lon="19.54244">
        <ele>55.992881</ele>
        <time>2022-05-15T10:50:08.919Z</time>
      </trkpt>
      <trkpt lat="41.97297" lon="19.54249">
        <ele>55.967099</ele>
        <time>2022-05-15T10:50:10.915Z</time>
      </trkpt>
      <trkpt lat="41.97306" lon="19.54254">
        <ele>55.941646</ele>
        <time>2022-05-15T10:50:12.913Z</time>
      </trkpt>
      <trkpt lat="41.97314" lon="19.54259">
        <ele>55.915292</ele>
        <time>2022-05-15T10:50:14.920Z</time>
      </trkpt>
      <trkpt lat="41.97323" lon="19.54265">
        <ele>55.888939</ele>
        <time>2022-05-15T10:50:16.919Z</time>
      </trkpt>
      <trkpt lat="41.97332" lon="19.5427">
        <ele>55.855493</ele>
        <time>2022-05-15T10:50:18.922Z</time>
      </trkpt>
      <trkpt lat="41.9734" lon="19.54275">
        <ele>55.753008</ele>
        <time>2022-05-15T10:50:20.912Z</time>
      </trkpt>
      <trkpt lat="41.97349" lon="19.5428">
        <ele>55.651192</ele>
        <time>2022-05-15T10:50:22.911Z</time>
      </trkpt>
      <trkpt lat="41.97358" lon="19.54286">
        <ele>55.54673</ele>
        <time>2022-05-15T10:50:24.911Z</time>
      </trkpt>
      <trkpt lat="41.97367" lon="19.54291">
        <ele>55.439966</ele>
        <time>2022-05-15T10:50:26.914Z</time>
      </trkpt>
      <trkpt lat="41.97376" lon="19.54296">
        <ele>55.331576</ele>
        <time>2022-05-15T10:50:28.926Z</time>
      </trkpt>
      <trkpt lat="41.97385" lon="19.54301">
        <ele>55.227114</ele>
        <time>2022-05-15T10:50:30.915Z</time>
      </trkpt>
      <trkpt lat="41.97394" lon="19.54306">
        <ele>55.12416</ele>
        <time>2022-05-15T10:50:32.936Z</time>
      </trkpt>
      <trkpt lat="41.97402" lon="19.54311">
        <ele>55.023982</ele>
        <time>2022-05-15T10:50:34.929Z</time>
      </trkpt>
      <trkpt lat="41.97411" lon="19.54316">
        <ele>54.923804</ele>
        <time>2022-05-15T10:50:36.925Z</time>
      </trkpt>
      <trkpt lat="41.97423" lon="19.54323">
        <ele>54.783851</ele>
        <time>2022-05-15T10:50:39.920Z</time>
      </trkpt>
      <trkpt lat="41.97434" lon="19.5433">
        <ele>54.654068</ele>
        <time>2022-05-15T10:50:42.910Z</time>
      </trkpt>
      <trkpt lat="41.97445" lon="19.54336">
        <ele>54.523974</ele>
        <time>2022-05-15T10:50:45.928Z</time>
      </trkpt>
      <trkpt lat="41.97456" lon="19.54342">
        <ele>54.394238</ele>
        <time>2022-05-15T10:50:48.923Z</time>
      </trkpt>
      <trkpt lat="41.97467" lon="19.54349">
        <ele>54.2599</ele>
        <time>2022-05-15T10:50:51.912Z</time>
      </trkpt>
      <trkpt lat="41.97478" lon="19.54355">
        <ele>54.12901</ele>
        <time>2022-05-15T10:50:54.939Z</time>
      </trkpt>
      <trkpt lat="41.97489" lon="19.54361">
        <ele>54.000224</ele>
        <time>2022-05-15T10:50:57.912Z</time>
      </trkpt>
      <trkpt lat="41.97501" lon="19.54367">
        <ele>53.946869</ele>
        <time>2022-05-15T10:51:00.923Z</time>
      </trkpt>
      <trkpt lat="41.97512" lon="19.54373">
        <ele>53.998236</ele>
        <time>2022-05-15T10:51:03.915Z</time>
      </trkpt>
      <trkpt lat="41.97523" lon="19.54379">
        <ele>54.049205</ele>
        <time>2022-05-15T10:51:06.922Z</time>
      </trkpt>
      <trkpt lat="41.97534" lon="19.54385">
        <ele>54.102333</ele>
        <time>2022-05-15T10:51:09.910Z</time>
      </trkpt>
      <trkpt lat="41.97546" lon="19.54391">
        <ele>54.154495</ele>
        <time>2022-05-15T10:51:12.907Z</time>
      </trkpt>
      <trkpt lat="41.97557" lon="19.54396">
        <ele>54.205101</ele>
        <time>2022-05-15T10:51:15.913Z</time>
      </trkpt>
      <trkpt lat="41.97569" lon="19.54401">
        <ele>54.256616</ele>
        <time>2022-05-15T10:51:18.917Z</time>
      </trkpt>
      <trkpt lat="41.97581" lon="19.54404">
        <ele>54.309888</ele>
        <time>2022-05-15T10:51:21.907Z</time>
      </trkpt>
      <trkpt lat="41.97592" lon="19.54407">
        <ele>54.359916</ele>
        <time>2022-05-15T10:51:24.915Z</time>
      </trkpt>
      <trkpt lat="41.97603" lon="19.54408">
        <ele>54.407404</ele>
        <time>2022-05-15T10:51:27.924Z</time>
      </trkpt>
      <trkpt lat="41.97615" lon="19.54408">
        <ele>54.455238</ele>
        <time>2022-05-15T10:51:30.918Z</time>
      </trkpt>
      <trkpt lat="41.97626" lon="19.54407">
        <ele>54.501856</ele>
        <time>2022-05-15T10:51:33.933Z</time>
      </trkpt>
      <trkpt lat="41.97638" lon="19.54405">
        <ele>54.55381</ele>
        <time>2022-05-15T10:51:36.916Z</time>
      </trkpt>
      <trkpt lat="41.97651" lon="19.54403">
        <ele>54.609562</ele>
        <time>2022-05-15T10:51:39.907Z</time>
      </trkpt>
      <trkpt lat="41.9766" lon="19.54401">
        <ele>54.648938</ele>
        <time>2022-05-15T10:51:41.910Z</time>
      </trkpt>
      <trkpt lat="41.9767" lon="19.54399">
        <ele>54.692871</ele>
        <time>2022-05-15T10:51:43.919Z</time>
      </trkpt>
      <trkpt lat="41.9768" lon="19.54396">
        <ele>54.519622</ele>
        <time>2022-05-15T10:51:45.927Z</time>
      </trkpt>
      <trkpt lat="41.97689" lon="19.54395">
        <ele>54.348245</ele>
        <time>2022-05-15T10:51:47.913Z</time>
      </trkpt>
      <trkpt lat="41.97699" lon="19.54393">
        <ele>54.170685</ele>
        <time>2022-05-15T10:51:49.938Z</time>
      </trkpt>
      <trkpt lat="41.97709" lon="19.54391">
        <ele>53.991942</ele>
        <time>2022-05-15T10:51:51.930Z</time>
      </trkpt>
      <trkpt lat="41.97719" lon="19.54389">
        <ele>53.817667</ele>
        <time>2022-05-15T10:51:53.914Z</time>
      </trkpt>
      <trkpt lat="41.97728" lon="19.54387">
        <ele>53.64629</ele>
        <time>2022-05-15T10:51:55.912Z</time>
      </trkpt>
      <trkpt lat="41.97738" lon="19.54385">
        <ele>53.476322</ele>
        <time>2022-05-15T10:51:57.911Z</time>
      </trkpt>
      <trkpt lat="41.97747" lon="19.54383">
        <ele>53.313173</ele>
        <time>2022-05-15T10:51:59.907Z</time>
      </trkpt>
      <trkpt lat="41.97756" lon="19.54381">
        <ele>53.150361</ele>
        <time>2022-05-15T10:52:01.926Z</time>
      </trkpt>
      <trkpt lat="41.97765" lon="19.54378">
        <ele>52.989284</ele>
        <time>2022-05-15T10:52:03.912Z</time>
      </trkpt>
      <trkpt lat="41.97774" lon="19.54376">
        <ele>52.829201</ele>
        <time>2022-05-15T10:52:05.918Z</time>
      </trkpt>
      <trkpt lat="41.97787" lon="19.54373">
        <ele>52.592322</ele>
        <time>2022-05-15T10:52:08.918Z</time>
      </trkpt>
      <trkpt lat="41.978" lon="19.54369">
        <ele>52.358644</ele>
        <time>2022-05-15T10:52:11.936Z</time>
      </trkpt>
      <trkpt lat="41.97812" lon="19.54365">
        <ele>52.131009</ele>
        <time>2022-05-15T10:52:14.919Z</time>
      </trkpt>
      <trkpt lat="41.97824" lon="19.54361">
        <ele>51.913189</ele>
        <time>2022-05-15T10:52:17.907Z</time>
      </trkpt>
      <trkpt lat="41.97837" lon="19.54358">
        <ele>51.693468</ele>
        <time>2022-05-15T10:52:20.925Z</time>
      </trkpt>
      <trkpt lat="41.97849" lon="19.54356">
        <ele>51.51272</ele>
        <time>2022-05-15T10:52:23.913Z</time>
      </trkpt>
      <trkpt lat="41.97862" lon="19.54355">
        <ele>51.550623</ele>
        <time>2022-05-15T10:52:26.916Z</time>
      </trkpt>
      <trkpt lat="41.97874" lon="19.54354">
        <ele>51.587937</ele>
        <time>2022-05-15T10:52:29.907Z</time>
      </trkpt>
      <trkpt lat="41.97887" lon="19.54353">
        <ele>51.624057</ele>
        <time>2022-05-15T10:52:32.908Z</time>
      </trkpt>
      <trkpt lat="41.97899" lon="19.54352">
        <ele>51.6605</ele>
        <time>2022-05-15T10:52:35.911Z</time>
      </trkpt>
      <trkpt lat="41.97911" lon="19.5435">
        <ele>51.697881</ele>
        <time>2022-05-15T10:52:38.922Z</time>
      </trkpt>
      <trkpt lat="41.97924" lon="19.54349">
        <ele>51.734065</ele>
        <time>2022-05-15T10:52:41.918Z</time>
      </trkpt>
      <trkpt lat="41.97936" lon="19.54348">
        <ele>51.76957</ele>
        <time>2022-05-15T10:52:44.917Z</time>
      </trkpt>
      <trkpt lat="41.97948" lon="19.54347">
        <ele>51.80569</ele>
        <time>2022-05-15T10:52:47.911Z</time>
      </trkpt>
      <trkpt lat="41.9796" lon="19.54347">
        <ele>51.841472</ele>
        <time>2022-05-15T10:52:50.917Z</time>
      </trkpt>
      <trkpt lat="41.97973" lon="19.54348">
        <ele>51.879423</ele>
        <time>2022-05-15T10:52:53.943Z</time>
      </trkpt>
      <trkpt lat="41.97985" lon="19.54352">
        <ele>51.917968</ele>
        <time>2022-05-15T10:52:56.915Z</time>
      </trkpt>
      <trkpt lat="41.97998" lon="19.54357">
        <ele>51.95655</ele>
        <time>2022-05-15T10:52:59.912Z</time>
      </trkpt>
      <trkpt lat="41.98011" lon="19.54362">
        <ele>51.995151</ele>
        <time>2022-05-15T10:53:02.915Z</time>
      </trkpt>
      <trkpt lat="41.98021" lon="19.54367">
        <ele>52.028833</ele>
        <time>2022-05-15T10:53:05.914Z</time>
      </trkpt>
      <trkpt lat="41.98031" lon="19.54371">
        <ele>52.002859</ele>
        <time>2022-05-15T10:53:08.941Z</time>
      </trkpt>
      <trkpt lat="41.9804" lon="19.54379">
        <ele>51.942927</ele>
        <time>2022-05-15T10:53:12.912Z</time>
      </trkpt>
      <trkpt lat="41.98057" lon="19.5439">
        <ele>51.840532</ele>
        <time>2022-05-15T10:53:33.934Z</time>
      </trkpt>
      <trkpt lat="41.98068" lon="19.54382">
        <ele>51.775403</ele>
        <time>2022-05-15T10:53:37.911Z</time>
      </trkpt>
      <trkpt lat="41.98077" lon="19.54375">
        <ele>51.720505</ele>
        <time>2022-05-15T10:53:40.964Z</time>
      </trkpt>
      <trkpt lat="41.98086" lon="19.54368">
        <ele>51.664481</ele>
        <time>2022-05-15T10:53:43.920Z</time>
      </trkpt>
      <trkpt lat="41.98094" lon="19.5436">
        <ele>51.608705</ele>
        <time>2022-05-15T10:53:46.920Z</time>
      </trkpt>
      <trkpt lat="41.98103" lon="19.54354">
        <ele>51.556475</ele>
        <time>2022-05-15T10:53:49.909Z</time>
      </trkpt>
      <trkpt lat="41.98112" lon="19.54346">
        <ele>51.500451</ele>
        <time>2022-05-15T10:53:52.908Z</time>
      </trkpt>
      <trkpt lat="41.9812" lon="19.54338">
        <ele>51.442922</ele>
        <time>2022-05-15T10:53:55.938Z</time>
      </trkpt>
      <trkpt lat="41.9813" lon="19.5433">
        <ele>51.383353</ele>
        <time>2022-05-15T10:53:58.919Z</time>
      </trkpt>
      <trkpt lat="41.9814" lon="19.54322">
        <ele>51.319563</ele>
        <time>2022-05-15T10:54:01.915Z</time>
      </trkpt>
      <trkpt lat="41.9815" lon="19.54313">
        <ele>51.256009</ele>
        <time>2022-05-15T10:54:04.916Z</time>
      </trkpt>
      <trkpt lat="41.9816" lon="19.54305">
        <ele>51.193524</ele>
        <time>2022-05-15T10:54:07.904Z</time>
      </trkpt>
      <trkpt lat="41.98169" lon="19.54297">
        <ele>51.133761</ele>
        <time>2022-05-15T10:54:10.913Z</time>
      </trkpt>
      <trkpt lat="41.98179" lon="19.54288">
        <ele>51.082344</ele>
        <time>2022-05-15T10:54:13.923Z</time>
      </trkpt>
      <trkpt lat="41.9819" lon="19.54279">
        <ele>51.349787</ele>
        <time>2022-05-15T10:54:16.909Z</time>
      </trkpt>
      <trkpt lat="41.98201" lon="19.5427">
        <ele>51.618007</ele>
        <time>2022-05-15T10:54:19.916Z</time>
      </trkpt>
      <trkpt lat="41.98208" lon="19.54263">
        <ele>51.808192</ele>
        <time>2022-05-15T10:54:21.919Z</time>
      </trkpt>
      <trkpt lat="41.98219" lon="19.54254">
        <ele>52.067011</ele>
        <time>2022-05-15T10:54:24.911Z</time>
      </trkpt>
      <trkpt lat="41.98228" lon="19.54247">
        <ele>52.284958</ele>
        <time>2022-05-15T10:54:27.906Z</time>
      </trkpt>
      <trkpt lat="41.98238" lon="19.54238">
        <ele>52.546274</ele>
        <time>2022-05-15T10:54:30.913Z</time>
      </trkpt>
      <trkpt lat="41.98246" lon="19.54231">
        <ele>52.744257</ele>
        <time>2022-05-15T10:54:32.902Z</time>
      </trkpt>
      <trkpt lat="41.98258" lon="19.54222">
        <ele>53.015879</ele>
        <time>2022-05-15T10:54:35.919Z</time>
      </trkpt>
      <trkpt lat="41.98267" lon="19.54215">
        <ele>53.240794</ele>
        <time>2022-05-15T10:54:38.930Z</time>
      </trkpt>
      <trkpt lat="41.98277" lon="19.54207">
        <ele>53.486007</ele>
        <time>2022-05-15T10:54:41.916Z</time>
      </trkpt>
      <trkpt lat="41.98287" lon="19.54199">
        <ele>53.722203</ele>
        <time>2022-05-15T10:54:44.955Z</time>
      </trkpt>
      <trkpt lat="41.98296" lon="19.54192">
        <ele>53.947742</ele>
        <time>2022-05-15T10:54:47.915Z</time>
      </trkpt>
      <trkpt lat="41.98306" lon="19.54184">
        <ele>54.198936</ele>
        <time>2022-05-15T10:54:50.913Z</time>
      </trkpt>
      <trkpt lat="41.98316" lon="19.54177">
        <ele>54.42524</ele>
        <time>2022-05-15T10:54:53.912Z</time>
      </trkpt>
      <trkpt lat="41.98325" lon="19.54169">
        <ele>54.651825</ele>
        <time>2022-05-15T10:54:56.912Z</time>
      </trkpt>
      <trkpt lat="41.98335" lon="19.54162">
        <ele>54.789247</ele>
        <time>2022-05-15T10:54:59.917Z</time>
      </trkpt>
      <trkpt lat="41.98345" lon="19.54153">
        <ele>54.553412</ele>
        <time>2022-05-15T10:55:02.942Z</time>
      </trkpt>
      <trkpt lat="41.98356" lon="19.54145">
        <ele>54.315659</ele>
        <time>2022-05-15T10:55:05.916Z</time>
      </trkpt>
      <trkpt lat="41.98366" lon="19.54137">
        <ele>54.074046</ele>
        <time>2022-05-15T10:55:08.916Z</time>
      </trkpt>
      <trkpt lat="41.98377" lon="19.54128">
        <ele>53.822031</ele>
        <time>2022-05-15T10:55:11.909Z</time>
      </trkpt>
      <trkpt lat="41.98388" lon="19.54119">
        <ele>53.581527</ele>
        <time>2022-05-15T10:55:14.919Z</time>
      </trkpt>
      <trkpt lat="41.98398" lon="19.54111">
        <ele>53.352203</ele>
        <time>2022-05-15T10:55:17.917Z</time>
      </trkpt>
      <trkpt lat="41.98408" lon="19.54104">
        <ele>53.13642</ele>
        <time>2022-05-15T10:55:20.914Z</time>
      </trkpt>
      <trkpt lat="41.98417" lon="19.54096">
        <ele>52.928287</ele>
        <time>2022-05-15T10:55:23.907Z</time>
      </trkpt>
      <trkpt lat="41.98426" lon="19.54089">
        <ele>52.725538</ele>
        <time>2022-05-15T10:55:26.918Z</time>
      </trkpt>
      <trkpt lat="41.98435" lon="19.54082">
        <ele>52.51796</ele>
        <time>2022-05-15T10:55:29.911Z</time>
      </trkpt>
      <trkpt lat="41.98446" lon="19.54073">
        <ele>52.266869</ele>
        <time>2022-05-15T10:55:32.903Z</time>
      </trkpt>
      <trkpt lat="41.98454" lon="19.54066">
        <ele>52.085598</ele>
        <time>2022-05-15T10:55:34.933Z</time>
      </trkpt>
      <trkpt lat="41.98465" lon="19.54057">
        <ele>51.826852</ele>
        <time>2022-05-15T10:55:37.905Z</time>
      </trkpt>
      <trkpt lat="41.98476" lon="19.54048">
        <ele>51.573559</ele>
        <time>2022-05-15T10:55:40.911Z</time>
      </trkpt>
      <trkpt lat="41.98487" lon="19.54039">
        <ele>51.325113</ele>
        <time>2022-05-15T10:55:43.910Z</time>
      </trkpt>
      <trkpt lat="41.98498" lon="19.5403">
        <ele>51.159227</ele>
        <time>2022-05-15T10:55:46.917Z</time>
      </trkpt>
      <trkpt lat="41.98508" lon="19.54021">
        <ele>50.997002</ele>
        <time>2022-05-15T10:55:49.914Z</time>
      </trkpt>
      <trkpt lat="41.98519" lon="19.54012">
        <ele>50.831715</ele>
        <time>2022-05-15T10:55:52.907Z</time>
      </trkpt>
      <trkpt lat="41.98529" lon="19.54004">
        <ele>50.676255</ele>
        <time>2022-05-15T10:55:55.933Z</time>
      </trkpt>
      <trkpt lat="41.98539" lon="19.53996">
        <ele>50.524471</ele>
        <time>2022-05-15T10:55:58.919Z</time>
      </trkpt>
      <trkpt lat="41.98547" lon="19.53989">
        <ele>50.389161</ele>
        <time>2022-05-15T10:56:01.907Z</time>
      </trkpt>
      <trkpt lat="41.98556" lon="19.53982">
        <ele>50.252076</ele>
        <time>2022-05-15T10:56:04.905Z</time>
      </trkpt>
      <trkpt lat="41.98566" lon="19.53974">
        <ele>50.10368</ele>
        <time>2022-05-15T10:56:07.917Z</time>
      </trkpt>
      <trkpt lat="41.98576" lon="19.53966">
        <ele>49.954252</ele>
        <time>2022-05-15T10:56:10.921Z</time>
      </trkpt>
      <trkpt lat="41.98586" lon="19.53958">
        <ele>49.801459</ele>
        <time>2022-05-15T10:56:13.912Z</time>
      </trkpt>
      <trkpt lat="41.98595" lon="19.5395">
        <ele>49.652031</ele>
        <time>2022-05-15T10:56:16.914Z</time>
      </trkpt>
      <trkpt lat="41.98605" lon="19.53941">
        <ele>49.497089</ele>
        <time>2022-05-15T10:56:19.913Z</time>
      </trkpt>
      <trkpt lat="41.98615" lon="19.53932">
        <ele>49.336796</ele>
        <time>2022-05-15T10:56:22.911Z</time>
      </trkpt>
      <trkpt lat="41.98623" lon="19.53919">
        <ele>49.173803</ele>
        <time>2022-05-15T10:56:25.908Z</time>
      </trkpt>
      <trkpt lat="41.9863" lon="19.53906">
        <ele>49.014112</ele>
        <time>2022-05-15T10:56:28.928Z</time>
      </trkpt>
      <trkpt lat="41.98636" lon="19.53894">
        <ele>48.99079</ele>
        <time>2022-05-15T10:56:31.908Z</time>
      </trkpt>
      <trkpt lat="41.98645" lon="19.53884">
        <ele>49.058199</ele>
        <time>2022-05-15T10:56:34.909Z</time>
      </trkpt>
      <trkpt lat="41.98653" lon="19.53873">
        <ele>49.129913</ele>
        <time>2022-05-15T10:56:37.919Z</time>
      </trkpt>
      <trkpt lat="41.98662" lon="19.53862">
        <ele>49.203038</ele>
        <time>2022-05-15T10:56:40.917Z</time>
      </trkpt>
      <trkpt lat="41.98671" lon="19.53852">
        <ele>49.268693</ele>
        <time>2022-05-15T10:56:43.907Z</time>
      </trkpt>
      <trkpt lat="41.98679" lon="19.53841">
        <ele>49.335305</ele>
        <time>2022-05-15T10:56:46.926Z</time>
      </trkpt>
      <trkpt lat="41.98687" lon="19.53831">
        <ele>49.400519</ele>
        <time>2022-05-15T10:56:49.906Z</time>
      </trkpt>
      <trkpt lat="41.98695" lon="19.5382">
        <ele>49.467244</ele>
        <time>2022-05-15T10:56:52.913Z</time>
      </trkpt>
      <trkpt lat="41.98703" lon="19.5381">
        <ele>49.531597</ele>
        <time>2022-05-15T10:56:55.918Z</time>
      </trkpt>
      <trkpt lat="41.98711" lon="19.53802">
        <ele>49.591707</ele>
        <time>2022-05-15T10:56:58.911Z</time>
      </trkpt>
      <trkpt lat="41.98718" lon="19.53792">
        <ele>49.650342</ele>
        <time>2022-05-15T10:57:01.916Z</time>
      </trkpt>
      <trkpt lat="41.98726" lon="19.53783">
        <ele>49.713203</ele>
        <time>2022-05-15T10:57:04.910Z</time>
      </trkpt>
      <trkpt lat="41.98733" lon="19.53773">
        <ele>49.774164</ele>
        <time>2022-05-15T10:57:07.914Z</time>
      </trkpt>
      <trkpt lat="41.98741" lon="19.53764">
        <ele>49.834534</ele>
        <time>2022-05-15T10:57:10.942Z</time>
      </trkpt>
      <trkpt lat="41.98749" lon="19.53754">
        <ele>49.900108</ele>
        <time>2022-05-15T10:57:13.924Z</time>
      </trkpt>
      <trkpt lat="41.98757" lon="19.53743">
        <ele>49.969327</ele>
        <time>2022-05-15T10:57:16.921Z</time>
      </trkpt>
      <trkpt lat="41.98766" lon="19.53732">
        <ele>50.053686</ele>
        <time>2022-05-15T10:57:19.913Z</time>
      </trkpt>
      <trkpt lat="41.98772" lon="19.5372">
        <ele>50.176485</ele>
        <time>2022-05-15T10:57:22.919Z</time>
      </trkpt>
      <trkpt lat="41.9878" lon="19.53709">
        <ele>50.298322</ele>
        <time>2022-05-15T10:57:25.906Z</time>
      </trkpt>
      <trkpt lat="41.98787" lon="19.53698">
        <ele>50.420158</ele>
        <time>2022-05-15T10:57:28.927Z</time>
      </trkpt>
      <trkpt lat="41.98795" lon="19.53686">
        <ele>50.547973</ele>
        <time>2022-05-15T10:57:31.932Z</time>
      </trkpt>
      <trkpt lat="41.98803" lon="19.53675">
        <ele>50.676372</ele>
        <time>2022-05-15T10:57:34.905Z</time>
      </trkpt>
      <trkpt lat="41.98811" lon="19.53663">
        <ele>50.809222</ele>
        <time>2022-05-15T10:57:37.905Z</time>
      </trkpt>
      <trkpt lat="41.9882" lon="19.53652">
        <ele>50.94093</ele>
        <time>2022-05-15T10:57:40.908Z</time>
      </trkpt>
      <trkpt lat="41.98829" lon="19.53641">
        <ele>51.076094</ele>
        <time>2022-05-15T10:57:43.914Z</time>
      </trkpt>
      <trkpt lat="41.98838" lon="19.53631">
        <ele>51.20969</ele>
        <time>2022-05-15T10:57:46.913Z</time>
      </trkpt>
      <trkpt lat="41.98848" lon="19.53622">
        <ele>51.337057</ele>
        <time>2022-05-15T10:57:49.911Z</time>
      </trkpt>
      <trkpt lat="41.98857" lon="19.53611">
        <ele>51.469812</ele>
        <time>2022-05-15T10:57:52.914Z</time>
      </trkpt>
      <trkpt lat="41.98866" lon="19.53606">
        <ele>51.580615</ele>
        <time>2022-05-15T10:57:55.911Z</time>
      </trkpt>
      <trkpt lat="41.98875" lon="19.53599">
        <ele>51.694374</ele>
        <time>2022-05-15T10:57:58.916Z</time>
      </trkpt>
      <trkpt lat="41.98885" lon="19.53593">
        <ele>51.804149</ele>
        <time>2022-05-15T10:58:01.923Z</time>
      </trkpt>
      <trkpt lat="41.98894" lon="19.53587">
        <ele>51.921627</ele>
        <time>2022-05-15T10:58:04.923Z</time>
      </trkpt>
      <trkpt lat="41.98905" lon="19.53583">
        <ele>51.985469</ele>
        <time>2022-05-15T10:58:07.915Z</time>
      </trkpt>
      <trkpt lat="41.98916" lon="19.53578">
        <ele>51.957799</ele>
        <time>2022-05-15T10:58:10.928Z</time>
      </trkpt>
      <trkpt lat="41.98927" lon="19.53574">
        <ele>51.929677</ele>
        <time>2022-05-15T10:58:13.907Z</time>
      </trkpt>
      <trkpt lat="41.98939" lon="19.53571">
        <ele>51.900057</ele>
        <time>2022-05-15T10:58:16.911Z</time>
      </trkpt>
      <trkpt lat="41.9895" lon="19.53569">
        <ele>51.872398</ele>
        <time>2022-05-15T10:58:19.955Z</time>
      </trkpt>
      <trkpt lat="41.98962" lon="19.53567">
        <ele>51.844367</ele>
        <time>2022-05-15T10:58:22.921Z</time>
      </trkpt>
      <trkpt lat="41.98973" lon="19.53564">
        <ele>51.816926</ele>
        <time>2022-05-15T10:58:25.911Z</time>
      </trkpt>
      <trkpt lat="41.98984" lon="19.53561">
        <ele>51.788386</ele>
        <time>2022-05-15T10:58:28.915Z</time>
      </trkpt>
      <trkpt lat="41.98996" lon="19.53558">
        <ele>51.759992</ele>
        <time>2022-05-15T10:58:31.916Z</time>
      </trkpt>
      <trkpt lat="41.99007" lon="19.53556">
        <ele>51.732763</ele>
        <time>2022-05-15T10:58:34.909Z</time>
      </trkpt>
      <trkpt lat="41.99017" lon="19.53555">
        <ele>51.709382</ele>
        <time>2022-05-15T10:58:37.909Z</time>
      </trkpt>
      <trkpt lat="41.99028" lon="19.53551">
        <ele>51.681478</ele>
        <time>2022-05-15T10:58:40.964Z</time>
      </trkpt>
      <trkpt lat="41.99038" lon="19.53548">
        <ele>51.656139</ele>
        <time>2022-05-15T10:58:43.907Z</time>
      </trkpt>
      <trkpt lat="41.99048" lon="19.53545">
        <ele>51.631578</ele>
        <time>2022-05-15T10:58:46.911Z</time>
      </trkpt>
      <trkpt lat="41.9906" lon="19.53542">
        <ele>51.601414</ele>
        <time>2022-05-15T10:58:50.913Z</time>
      </trkpt>
      <trkpt lat="41.99068" lon="19.53534">
        <ele>51.577543</ele>
        <time>2022-05-15T10:58:53.906Z</time>
      </trkpt>
      <trkpt lat="41.99076" lon="19.53527">
        <ele>51.575771</ele>
        <time>2022-05-15T10:58:56.913Z</time>
      </trkpt>
      <trkpt lat="41.99084" lon="19.5352">
        <ele>51.656002</ele>
        <time>2022-05-15T10:58:59.934Z</time>
      </trkpt>
      <trkpt lat="41.99092" lon="19.53512">
        <ele>51.739396</ele>
        <time>2022-05-15T10:59:02.919Z</time>
      </trkpt>
      <trkpt lat="41.991" lon="19.53505">
        <ele>51.819284</ele>
        <time>2022-05-15T10:59:05.924Z</time>
      </trkpt>
      <trkpt lat="41.99109" lon="19.53495">
        <ele>51.92011</ele>
        <time>2022-05-15T10:59:09.907Z</time>
      </trkpt>
      <trkpt lat="41.99117" lon="19.53487">
        <ele>52.003943</ele>
        <time>2022-05-15T10:59:12.932Z</time>
      </trkpt>
      <trkpt lat="41.99125" lon="19.5348">
        <ele>52.0808</ele>
        <time>2022-05-15T10:59:15.906Z</time>
      </trkpt>
      <trkpt lat="41.99135" lon="19.53471">
        <ele>52.17902</ele>
        <time>2022-05-15T10:59:19.909Z</time>
      </trkpt>
      <trkpt lat="41.99142" lon="19.53463">
        <ele>52.259663</ele>
        <time>2022-05-15T10:59:22.914Z</time>
      </trkpt>
      <trkpt lat="41.99149" lon="19.53454">
        <ele>52.337457</ele>
        <time>2022-05-15T10:59:25.906Z</time>
      </trkpt>
      <trkpt lat="41.99157" lon="19.53447">
        <ele>52.412862</ele>
        <time>2022-05-15T10:59:28.921Z</time>
      </trkpt>
      <trkpt lat="41.99165" lon="19.53438">
        <ele>52.500429</ele>
        <time>2022-05-15T10:59:32.912Z</time>
      </trkpt>
      <trkpt lat="41.99172" lon="19.53431">
        <ele>52.576713</ele>
        <time>2022-05-15T10:59:36.922Z</time>
      </trkpt>
      <trkpt lat="41.99181" lon="19.53422">
        <ele>52.674603</ele>
        <time>2022-05-15T10:59:41.912Z</time>
      </trkpt>
      <trkpt lat="41.99193" lon="19.5342">
        <ele>52.768488</ele>
        <time>2022-05-15T10:59:45.913Z</time>
      </trkpt>
      <trkpt lat="41.992" lon="19.53414">
        <ele>52.844644</ele>
        <time>2022-05-15T10:59:48.930Z</time>
      </trkpt>
      <trkpt lat="41.9921" lon="19.53405">
        <ele>52.936634</ele>
        <time>2022-05-15T10:59:51.915Z</time>
      </trkpt>
      <trkpt lat="41.99219" lon="19.53397">
        <ele>53.028702</ele>
        <time>2022-05-15T10:59:54.973Z</time>
      </trkpt>
      <trkpt lat="41.99228" lon="19.53387">
        <ele>52.965917</ele>
        <time>2022-05-15T10:59:57.912Z</time>
      </trkpt>
      <trkpt lat="41.99239" lon="19.53377">
        <ele>52.829646</ele>
        <time>2022-05-15T11:00:00.908Z</time>
      </trkpt>
      <trkpt lat="41.99249" lon="19.53367">
        <ele>52.68579</ele>
        <time>2022-05-15T11:00:03.909Z</time>
      </trkpt>
      <trkpt lat="41.99259" lon="19.53357">
        <ele>52.551747</ele>
        <time>2022-05-15T11:00:06.926Z</time>
      </trkpt>
      <trkpt lat="41.99269" lon="19.53347">
        <ele>52.419442</ele>
        <time>2022-05-15T11:00:09.909Z</time>
      </trkpt>
      <trkpt lat="41.99278" lon="19.53337">
        <ele>52.290815</ele>
        <time>2022-05-15T11:00:12.909Z</time>
      </trkpt>
      <trkpt lat="41.99287" lon="19.53329">
        <ele>52.174374</ele>
        <time>2022-05-15T11:00:15.914Z</time>
      </trkpt>
      <trkpt lat="41.99296" lon="19.5332">
        <ele>52.054351</ele>
        <time>2022-05-15T11:00:18.914Z</time>
      </trkpt>
      <trkpt lat="41.99305" lon="19.53311">
        <ele>51.927949</ele>
        <time>2022-05-15T11:00:21.922Z</time>
      </trkpt>
      <trkpt lat="41.99314" lon="19.53301">
        <ele>51.803768</ele>
        <time>2022-05-15T11:00:24.915Z</time>
      </trkpt>
      <trkpt lat="41.99324" lon="19.5329">
        <ele>51.666109</ele>
        <time>2022-05-15T11:00:27.917Z</time>
      </trkpt>
      <trkpt lat="41.99334" lon="19.5328">
        <ele>51.532174</ele>
        <time>2022-05-15T11:00:30.912Z</time>
      </trkpt>
      <trkpt lat="41.99343" lon="19.5327">
        <ele>51.402725</ele>
        <time>2022-05-15T11:00:33.908Z</time>
      </trkpt>
      <trkpt lat="41.9935" lon="19.53261">
        <ele>51.296476</ele>
        <time>2022-05-15T11:00:36.917Z</time>
      </trkpt>
      <trkpt lat="41.99357" lon="19.53251">
        <ele>51.183643</ele>
        <time>2022-05-15T11:00:39.916Z</time>
      </trkpt>
      <trkpt lat="41.99365" lon="19.53241">
        <ele>51.100361</ele>
        <time>2022-05-15T11:00:42.912Z</time>
      </trkpt>
      <trkpt lat="41.99373" lon="19.53229">
        <ele>51.086629</ele>
        <time>2022-05-15T11:00:45.923Z</time>
      </trkpt>
      <trkpt lat="41.99382" lon="19.53217">
        <ele>51.072249</ele>
        <time>2022-05-15T11:00:48.941Z</time>
      </trkpt>
      <trkpt lat="41.99389" lon="19.53206">
        <ele>51.059155</ele>
        <time>2022-05-15T11:00:51.911Z</time>
      </trkpt>
      <trkpt lat="41.99398" lon="19.53194">
        <ele>51.044759</ele>
        <time>2022-05-15T11:00:54.912Z</time>
      </trkpt>
      <trkpt lat="41.99404" lon="19.53185">
        <ele>51.034117</ele>
        <time>2022-05-15T11:00:56.915Z</time>
      </trkpt>
      <trkpt lat="41.9941" lon="19.53175">
        <ele>51.023353</ele>
        <time>2022-05-15T11:00:58.919Z</time>
      </trkpt>
      <trkpt lat="41.99416" lon="19.53166">
        <ele>51.012569</ele>
        <time>2022-05-15T11:01:00.921Z</time>
      </trkpt>
      <trkpt lat="41.99422" lon="19.53157">
        <ele>51.001576</ele>
        <time>2022-05-15T11:01:02.923Z</time>
      </trkpt>
      <trkpt lat="41.99428" lon="19.53147">
        <ele>50.990604</ele>
        <time>2022-05-15T11:01:04.925Z</time>
      </trkpt>
      <trkpt lat="41.99434" lon="19.53137">
        <ele>50.979338</ele>
        <time>2022-05-15T11:01:06.918Z</time>
      </trkpt>
      <trkpt lat="41.9944" lon="19.53127">
        <ele>50.9681</ele>
        <time>2022-05-15T11:01:08.928Z</time>
      </trkpt>
      <trkpt lat="41.99446" lon="19.53117">
        <ele>50.957208</ele>
        <time>2022-05-15T11:01:10.927Z</time>
      </trkpt>
      <trkpt lat="41.99452" lon="19.53108">
        <ele>50.946377</ele>
        <time>2022-05-15T11:01:12.912Z</time>
      </trkpt>
      <trkpt lat="41.99458" lon="19.53098">
        <ele>50.935688</ele>
        <time>2022-05-15T11:01:14.917Z</time>
      </trkpt>
      <trkpt lat="41.99463" lon="19.53088">
        <ele>50.924936</ele>
        <time>2022-05-15T11:01:16.939Z</time>
      </trkpt>
      <trkpt lat="41.99469" lon="19.53079">
        <ele>50.913971</ele>
        <time>2022-05-15T11:01:18.913Z</time>
      </trkpt>
      <trkpt lat="41.99475" lon="19.53069">
        <ele>50.90349</ele>
        <time>2022-05-15T11:01:20.928Z</time>
      </trkpt>
      <trkpt lat="41.99483" lon="19.53056">
        <ele>50.895517</ele>
        <time>2022-05-15T11:01:23.913Z</time>
      </trkpt>
      <trkpt lat="41.99492" lon="19.53042">
        <ele>50.898764</ele>
        <time>2022-05-15T11:01:26.922Z</time>
      </trkpt>
      <trkpt lat="41.995" lon="19.53029">
        <ele>50.902086</ele>
        <time>2022-05-15T11:01:29.922Z</time>
      </trkpt>
      <trkpt lat="41.99509" lon="19.53015">
        <ele>50.905437</ele>
        <time>2022-05-15T11:01:32.907Z</time>
      </trkpt>
      <trkpt lat="41.99515" lon="19.53005">
        <ele>50.907699</ele>
        <time>2022-05-15T11:01:34.919Z</time>
      </trkpt>
      <trkpt lat="41.99523" lon="19.52992">
        <ele>50.910948</ele>
        <time>2022-05-15T11:01:37.910Z</time>
      </trkpt>
      <trkpt lat="41.99531" lon="19.52979">
        <ele>50.914255</ele>
        <time>2022-05-15T11:01:40.911Z</time>
      </trkpt>
      <trkpt lat="41.9954" lon="19.52965">
        <ele>50.917598</ele>
        <time>2022-05-15T11:01:43.910Z</time>
      </trkpt>
      <trkpt lat="41.99546" lon="19.52956">
        <ele>50.919846</ele>
        <time>2022-05-15T11:01:45.915Z</time>
      </trkpt>
      <trkpt lat="41.99555" lon="19.52943">
        <ele>50.923074</ele>
        <time>2022-05-15T11:01:48.931Z</time>
      </trkpt>
      <trkpt lat="41.99564" lon="19.5293">
        <ele>50.926317</ele>
        <time>2022-05-15T11:01:51.909Z</time>
      </trkpt>
      <trkpt lat="41.99572" lon="19.52917">
        <ele>50.92958</ele>
        <time>2022-05-15T11:01:54.928Z</time>
      </trkpt>
      <trkpt lat="41.99581" lon="19.52906">
        <ele>50.932581</ele>
        <time>2022-05-15T11:01:57.917Z</time>
      </trkpt>
      <trkpt lat="41.99589" lon="19.52894">
        <ele>50.935527</ele>
        <time>2022-05-15T11:02:00.911Z</time>
      </trkpt>
      <trkpt lat="41.99598" lon="19.52882">
        <ele>50.938674</ele>
        <time>2022-05-15T11:02:03.911Z</time>
      </trkpt>
      <trkpt lat="41.99607" lon="19.5287">
        <ele>50.946918</ele>
        <time>2022-05-15T11:02:06.948Z</time>
      </trkpt>
      <trkpt lat="41.99613" lon="19.52861">
        <ele>50.953299</ele>
        <time>2022-05-15T11:02:08.917Z</time>
      </trkpt>
      <trkpt lat="41.9962" lon="19.52852">
        <ele>50.959695</ele>
        <time>2022-05-15T11:02:10.920Z</time>
      </trkpt>
      <trkpt lat="41.99627" lon="19.52844">
        <ele>50.966213</ele>
        <time>2022-05-15T11:02:12.913Z</time>
      </trkpt>
      <trkpt lat="41.99634" lon="19.52835">
        <ele>50.972749</ele>
        <time>2022-05-15T11:02:14.910Z</time>
      </trkpt>
      <trkpt lat="41.99641" lon="19.52827">
        <ele>50.97904</ele>
        <time>2022-05-15T11:02:16.911Z</time>
      </trkpt>
      <trkpt lat="41.9965" lon="19.52816">
        <ele>50.988226</ele>
        <time>2022-05-15T11:02:19.905Z</time>
      </trkpt>
      <trkpt lat="41.99661" lon="19.52804">
        <ele>50.997569</ele>
        <time>2022-05-15T11:02:22.916Z</time>
      </trkpt>
      <trkpt lat="41.99671" lon="19.52792">
        <ele>51.006791</ele>
        <time>2022-05-15T11:02:25.908Z</time>
      </trkpt>
      <trkpt lat="41.9968" lon="19.52781">
        <ele>51.015666</ele>
        <time>2022-05-15T11:02:28.912Z</time>
      </trkpt>
      <trkpt lat="41.9969" lon="19.5277">
        <ele>51.024199</ele>
        <time>2022-05-15T11:02:31.913Z</time>
      </trkpt>
      <trkpt lat="41.99699" lon="19.5276">
        <ele>51.033068</ele>
        <time>2022-05-15T11:02:34.939Z</time>
      </trkpt>
      <trkpt lat="41.9971" lon="19.52749">
        <ele>51.042231</ele>
        <time>2022-05-15T11:02:37.910Z</time>
      </trkpt>
      <trkpt lat="41.9972" lon="19.52738">
        <ele>51.051543</ele>
        <time>2022-05-15T11:02:40.906Z</time>
      </trkpt>
      <trkpt lat="41.99731" lon="19.52727">
        <ele>51.060687</ele>
        <time>2022-05-15T11:02:43.905Z</time>
      </trkpt>
      <trkpt lat="41.99741" lon="19.52717">
        <ele>51.059299</ele>
        <time>2022-05-15T11:02:46.914Z</time>
      </trkpt>
      <trkpt lat="41.99752" lon="19.52707">
        <ele>51.04827</ele>
        <time>2022-05-15T11:02:49.916Z</time>
      </trkpt>
      <trkpt lat="41.99762" lon="19.52697">
        <ele>51.037483</ele>
        <time>2022-05-15T11:02:52.912Z</time>
      </trkpt>
      <trkpt lat="41.99773" lon="19.52687">
        <ele>51.02663</ele>
        <time>2022-05-15T11:02:55.911Z</time>
      </trkpt>
      <trkpt lat="41.99781" lon="19.5268">
        <ele>51.019117</ele>
        <time>2022-05-15T11:02:57.912Z</time>
      </trkpt>
      <trkpt lat="41.99788" lon="19.52673">
        <ele>51.011606</ele>
        <time>2022-05-15T11:02:59.921Z</time>
      </trkpt>
      <trkpt lat="41.99799" lon="19.52663">
        <ele>51.000719</ele>
        <time>2022-05-15T11:03:02.921Z</time>
      </trkpt>
      <trkpt lat="41.9981" lon="19.52653">
        <ele>50.989659</ele>
        <time>2022-05-15T11:03:05.921Z</time>
      </trkpt>
      <trkpt lat="41.99821" lon="19.52643">
        <ele>50.978427</ele>
        <time>2022-05-15T11:03:08.930Z</time>
      </trkpt>
      <trkpt lat="41.99829" lon="19.52636">
        <ele>50.970607</ele>
        <time>2022-05-15T11:03:10.917Z</time>
      </trkpt>
      <trkpt lat="41.99837" lon="19.52629">
        <ele>50.962786</ele>
        <time>2022-05-15T11:03:12.913Z</time>
      </trkpt>
      <trkpt lat="41.99848" lon="19.52619">
        <ele>50.951829</ele>
        <time>2022-05-15T11:03:15.907Z</time>
      </trkpt>
      <trkpt lat="41.99858" lon="19.5261">
        <ele>50.941733</ele>
        <time>2022-05-15T11:03:18.918Z</time>
      </trkpt>
      <trkpt lat="41.99868" lon="19.52601">
        <ele>50.931603</ele>
        <time>2022-05-15T11:03:21.908Z</time>
      </trkpt>
      <trkpt lat="41.99879" lon="19.52592">
        <ele>50.921193</ele>
        <time>2022-05-15T11:03:24.908Z</time>
      </trkpt>
      <trkpt lat="41.9989" lon="19.52582">
        <ele>50.897421</ele>
        <time>2022-05-15T11:03:27.908Z</time>
      </trkpt>
      <trkpt lat="41.99901" lon="19.52573">
        <ele>50.862079</ele>
        <time>2022-05-15T11:03:30.914Z</time>
      </trkpt>
      <trkpt lat="41.99911" lon="19.52564">
        <ele>50.827419</ele>
        <time>2022-05-15T11:03:33.912Z</time>
      </trkpt>
      <trkpt lat="41.99922" lon="19.52555">
        <ele>50.791256</ele>
        <time>2022-05-15T11:03:36.907Z</time>
      </trkpt>
      <trkpt lat="41.99933" lon="19.52546">
        <ele>50.754945</ele>
        <time>2022-05-15T11:03:39.910Z</time>
      </trkpt>
      <trkpt lat="41.99943" lon="19.52538">
        <ele>50.722316</ele>
        <time>2022-05-15T11:03:42.910Z</time>
      </trkpt>
      <trkpt lat="41.99955" lon="19.5253">
        <ele>50.686287</ele>
        <time>2022-05-15T11:03:45.906Z</time>
      </trkpt>
      <trkpt lat="41.99963" lon="19.52524">
        <ele>50.660726</ele>
        <time>2022-05-15T11:03:47.903Z</time>
      </trkpt>
      <trkpt lat="41.99971" lon="19.52519">
        <ele>50.635398</ele>
        <time>2022-05-15T11:03:49.916Z</time>
      </trkpt>
      <trkpt lat="41.99979" lon="19.52513">
        <ele>50.609909</ele>
        <time>2022-05-15T11:03:51.911Z</time>
      </trkpt>
      <trkpt lat="41.99991" lon="19.52506">
        <ele>50.572748</ele>
        <time>2022-05-15T11:03:54.909Z</time>
      </trkpt>
      <trkpt lat="41.99999" lon="19.52501">
        <ele>50.547096</ele>
        <time>2022-05-15T11:03:56.917Z</time>
      </trkpt>
      <trkpt lat="42.00008" lon="19.52496">
        <ele>50.521945</ele>
        <time>2022-05-15T11:03:58.918Z</time>
      </trkpt>
      <trkpt lat="42.00016" lon="19.52491">
        <ele>50.496374</ele>
        <time>2022-05-15T11:04:00.915Z</time>
      </trkpt>
      <trkpt lat="42.00029" lon="19.52485">
        <ele>50.458376</ele>
        <time>2022-05-15T11:04:03.907Z</time>
      </trkpt>
      <trkpt lat="42.00041" lon="19.52479">
        <ele>50.421239</ele>
        <time>2022-05-15T11:04:06.924Z</time>
      </trkpt>
      <trkpt lat="42.00054" lon="19.52473">
        <ele>50.348286</ele>
        <time>2022-05-15T11:04:09.910Z</time>
      </trkpt>
      <trkpt lat="42.00066" lon="19.52467">
        <ele>50.26751</ele>
        <time>2022-05-15T11:04:12.921Z</time>
      </trkpt>
      <trkpt lat="42.00074" lon="19.52464">
        <ele>50.209542</ele>
        <time>2022-05-15T11:04:14.913Z</time>
      </trkpt>
      <trkpt lat="42.00083" lon="19.5246">
        <ele>50.150686</ele>
        <time>2022-05-15T11:04:16.934Z</time>
      </trkpt>
      <trkpt lat="42.00095" lon="19.52454">
        <ele>50.067793</ele>
        <time>2022-05-15T11:04:19.916Z</time>
      </trkpt>
      <trkpt lat="42.00108" lon="19.52449">
        <ele>49.982023</ele>
        <time>2022-05-15T11:04:22.927Z</time>
      </trkpt>
      <trkpt lat="42.00117" lon="19.52445">
        <ele>49.923024</ele>
        <time>2022-05-15T11:04:24.914Z</time>
      </trkpt>
      <trkpt lat="42.00126" lon="19.52441">
        <ele>49.861761</ele>
        <time>2022-05-15T11:04:26.912Z</time>
      </trkpt>
      <trkpt lat="42.00135" lon="19.52437">
        <ele>49.803673</ele>
        <time>2022-05-15T11:04:28.921Z</time>
      </trkpt>
      <trkpt lat="42.00143" lon="19.52433">
        <ele>49.745429</ele>
        <time>2022-05-15T11:04:30.912Z</time>
      </trkpt>
      <trkpt lat="42.00156" lon="19.52427">
        <ele>49.661779</ele>
        <time>2022-05-15T11:04:33.914Z</time>
      </trkpt>
      <trkpt lat="42.00167" lon="19.52421">
        <ele>49.583866</ele>
        <time>2022-05-15T11:04:36.912Z</time>
      </trkpt>
      <trkpt lat="42.00179" lon="19.52416">
        <ele>49.502778</ele>
        <time>2022-05-15T11:04:39.910Z</time>
      </trkpt>
      <trkpt lat="42.00192" lon="19.5241">
        <ele>49.415952</ele>
        <time>2022-05-15T11:04:42.911Z</time>
      </trkpt>
      <trkpt lat="42.00205" lon="19.52405">
        <ele>49.329848</ele>
        <time>2022-05-15T11:04:45.910Z</time>
      </trkpt>
      <trkpt lat="42.00218" lon="19.524">
        <ele>49.247948</ele>
        <time>2022-05-15T11:04:48.919Z</time>
      </trkpt>
      <trkpt lat="42.00231" lon="19.52395">
        <ele>49.180903</ele>
        <time>2022-05-15T11:04:51.913Z</time>
      </trkpt>
      <trkpt lat="42.0024" lon="19.52391">
        <ele>49.134994</ele>
        <time>2022-05-15T11:04:53.918Z</time>
      </trkpt>
      <trkpt lat="42.00252" lon="19.52386">
        <ele>49.068537</ele>
        <time>2022-05-15T11:04:56.934Z</time>
      </trkpt>
      <trkpt lat="42.00265" lon="19.52381">
        <ele>49.002559</ele>
        <time>2022-05-15T11:04:59.922Z</time>
      </trkpt>
      <trkpt lat="42.00277" lon="19.52376">
        <ele>48.938717</ele>
        <time>2022-05-15T11:05:02.945Z</time>
      </trkpt>
      <trkpt lat="42.0029" lon="19.52371">
        <ele>48.872571</ele>
        <time>2022-05-15T11:05:05.912Z</time>
      </trkpt>
      <trkpt lat="42.00298" lon="19.52368">
        <ele>48.827038</ele>
        <time>2022-05-15T11:05:07.919Z</time>
      </trkpt>
      <trkpt lat="42.00311" lon="19.52363">
        <ele>48.760953</ele>
        <time>2022-05-15T11:05:10.928Z</time>
      </trkpt>
      <trkpt lat="42.00324" lon="19.52358">
        <ele>48.694119</ele>
        <time>2022-05-15T11:05:13.934Z</time>
      </trkpt>
      <trkpt lat="42.00333" lon="19.52354">
        <ele>48.648692</ele>
        <time>2022-05-15T11:05:15.917Z</time>
      </trkpt>
      <trkpt lat="42.00341" lon="19.52351">
        <ele>48.602679</ele>
        <time>2022-05-15T11:05:17.910Z</time>
      </trkpt>
      <trkpt lat="42.0035" lon="19.52347">
        <ele>48.556927</ele>
        <time>2022-05-15T11:05:19.908Z</time>
      </trkpt>
      <trkpt lat="42.00363" lon="19.52342">
        <ele>48.489989</ele>
        <time>2022-05-15T11:05:22.922Z</time>
      </trkpt>
      <trkpt lat="42.00375" lon="19.52337">
        <ele>48.425391</ele>
        <time>2022-05-15T11:05:25.913Z</time>
      </trkpt>
      <trkpt lat="42.00387" lon="19.52333">
        <ele>48.362343</ele>
        <time>2022-05-15T11:05:28.918Z</time>
      </trkpt>
      <trkpt lat="42.004" lon="19.52328">
        <ele>48.39483</ele>
        <time>2022-05-15T11:05:31.911Z</time>
      </trkpt>
      <trkpt lat="42.00412" lon="19.52323">
        <ele>48.429687</ele>
        <time>2022-05-15T11:05:34.946Z</time>
      </trkpt>
      <trkpt lat="42.00425" lon="19.52319">
        <ele>48.464545</ele>
        <time>2022-05-15T11:05:37.932Z</time>
      </trkpt>
      <trkpt lat="42.00438" lon="19.52315">
        <ele>48.499822</ele>
        <time>2022-05-15T11:05:40.932Z</time>
      </trkpt>
      <trkpt lat="42.00451" lon="19.5231">
        <ele>48.535618</ele>
        <time>2022-05-15T11:05:43.948Z</time>
      </trkpt>
      <trkpt lat="42.00464" lon="19.52306">
        <ele>48.571721</ele>
        <time>2022-05-15T11:05:46.946Z</time>
      </trkpt>
      <trkpt lat="42.00477" lon="19.52302">
        <ele>48.60747</ele>
        <time>2022-05-15T11:05:49.945Z</time>
      </trkpt>
      <trkpt lat="42.0049" lon="19.52297">
        <ele>48.643006</ele>
        <time>2022-05-15T11:05:52.944Z</time>
      </trkpt>
      <trkpt lat="42.00503" lon="19.52293">
        <ele>48.678924</ele>
        <time>2022-05-15T11:05:55.935Z</time>
      </trkpt>
      <trkpt lat="42.00512" lon="19.5229">
        <ele>48.703717</ele>
        <time>2022-05-15T11:05:57.938Z</time>
      </trkpt>
      <trkpt lat="42.0052" lon="19.52288">
        <ele>48.727852</ele>
        <time>2022-05-15T11:05:59.933Z</time>
      </trkpt>
      <trkpt lat="42.00529" lon="19.52285">
        <ele>48.751943</ele>
        <time>2022-05-15T11:06:01.973Z</time>
      </trkpt>
      <trkpt lat="42.00542" lon="19.52281">
        <ele>48.787601</ele>
        <time>2022-05-15T11:06:04.941Z</time>
      </trkpt>
      <trkpt lat="42.00551" lon="19.52279">
        <ele>48.811692</ele>
        <time>2022-05-15T11:06:06.944Z</time>
      </trkpt>
      <trkpt lat="42.00564" lon="19.52275">
        <ele>48.825363</ele>
        <time>2022-05-15T11:06:09.933Z</time>
      </trkpt>
      <trkpt lat="42.00576" lon="19.52271">
        <ele>48.684977</ele>
        <time>2022-05-15T11:06:12.979Z</time>
      </trkpt>
      <trkpt lat="42.00589" lon="19.52267">
        <ele>48.545664</ele>
        <time>2022-05-15T11:06:15.942Z</time>
      </trkpt>
      <trkpt lat="42.00601" lon="19.52263">
        <ele>48.405627</ele>
        <time>2022-05-15T11:06:18.972Z</time>
      </trkpt>
      <trkpt lat="42.00614" lon="19.5226">
        <ele>48.261497</ele>
        <time>2022-05-15T11:06:21.954Z</time>
      </trkpt>
      <trkpt lat="42.00626" lon="19.52255">
        <ele>48.126389</ele>
        <time>2022-05-15T11:06:24.924Z</time>
      </trkpt>
      <trkpt lat="42.00638" lon="19.52251">
        <ele>47.989155</ele>
        <time>2022-05-15T11:06:27.932Z</time>
      </trkpt>
      <trkpt lat="42.00651" lon="19.52246">
        <ele>47.844504</ele>
        <time>2022-05-15T11:06:30.943Z</time>
      </trkpt>
      <trkpt lat="42.00663" lon="19.52242">
        <ele>47.704681</ele>
        <time>2022-05-15T11:06:33.923Z</time>
      </trkpt>
      <trkpt lat="42.00675" lon="19.52236">
        <ele>47.564383</ele>
        <time>2022-05-15T11:06:36.946Z</time>
      </trkpt>
      <trkpt lat="42.00687" lon="19.52231">
        <ele>47.42074</ele>
        <time>2022-05-15T11:06:39.931Z</time>
      </trkpt>
      <trkpt lat="42.00699" lon="19.52225">
        <ele>47.280217</ele>
        <time>2022-05-15T11:06:42.927Z</time>
      </trkpt>
      <trkpt lat="42.00712" lon="19.52219">
        <ele>47.136415</ele>
        <time>2022-05-15T11:06:45.932Z</time>
      </trkpt>
      <trkpt lat="42.00723" lon="19.52212">
        <ele>46.994793</ele>
        <time>2022-05-15T11:06:48.928Z</time>
      </trkpt>
      <trkpt lat="42.00732" lon="19.52207">
        <ele>46.895198</ele>
        <time>2022-05-15T11:06:50.935Z</time>
      </trkpt>
      <trkpt lat="42.0074" lon="19.52203">
        <ele>46.892147</ele>
        <time>2022-05-15T11:06:52.930Z</time>
      </trkpt>
      <trkpt lat="42.00752" lon="19.52196">
        <ele>46.942759</ele>
        <time>2022-05-15T11:06:55.944Z</time>
      </trkpt>
      <trkpt lat="42.00763" lon="19.52189">
        <ele>46.98845</ele>
        <time>2022-05-15T11:06:58.934Z</time>
      </trkpt>
      <trkpt lat="42.00774" lon="19.52181">
        <ele>47.036299</ele>
        <time>2022-05-15T11:07:01.941Z</time>
      </trkpt>
      <trkpt lat="42.00785" lon="19.52173">
        <ele>47.084548</ele>
        <time>2022-05-15T11:07:04.934Z</time>
      </trkpt>
      <trkpt lat="42.00796" lon="19.52165">
        <ele>47.134705</ele>
        <time>2022-05-15T11:07:07.925Z</time>
      </trkpt>
      <trkpt lat="42.00807" lon="19.52156">
        <ele>47.184558</ele>
        <time>2022-05-15T11:07:10.939Z</time>
      </trkpt>
      <trkpt lat="42.00819" lon="19.52147">
        <ele>47.237436</ele>
        <time>2022-05-15T11:07:13.951Z</time>
      </trkpt>
      <trkpt lat="42.00827" lon="19.5214">
        <ele>47.272592</ele>
        <time>2022-05-15T11:07:15.929Z</time>
      </trkpt>
      <trkpt lat="42.00834" lon="19.52133">
        <ele>47.308074</ele>
        <time>2022-05-15T11:07:17.939Z</time>
      </trkpt>
      <trkpt lat="42.00842" lon="19.52126">
        <ele>47.343558</ele>
        <time>2022-05-15T11:07:19.976Z</time>
      </trkpt>
      <trkpt lat="42.00853" lon="19.52116">
        <ele>47.395424</ele>
        <time>2022-05-15T11:07:22.940Z</time>
      </trkpt>
      <trkpt lat="42.00863" lon="19.52107">
        <ele>47.443426</ele>
        <time>2022-05-15T11:07:25.940Z</time>
      </trkpt>
      <trkpt lat="42.00873" lon="19.52097">
        <ele>47.490053</ele>
        <time>2022-05-15T11:07:28.948Z</time>
      </trkpt>
      <trkpt lat="42.00883" lon="19.52087">
        <ele>47.53699</ele>
        <time>2022-05-15T11:07:31.926Z</time>
      </trkpt>
      <trkpt lat="42.00892" lon="19.52077">
        <ele>47.61527</ele>
        <time>2022-05-15T11:07:34.944Z</time>
      </trkpt>
      <trkpt lat="42.00902" lon="19.52066">
        <ele>47.737659</ele>
        <time>2022-05-15T11:07:37.943Z</time>
      </trkpt>
      <trkpt lat="42.00912" lon="19.52054">
        <ele>47.863727</ele>
        <time>2022-05-15T11:07:40.927Z</time>
      </trkpt>
      <trkpt lat="42.00921" lon="19.52043">
        <ele>47.98623</ele>
        <time>2022-05-15T11:07:43.943Z</time>
      </trkpt>
      <trkpt lat="42.00931" lon="19.52031">
        <ele>48.111342</ele>
        <time>2022-05-15T11:07:46.923Z</time>
      </trkpt>
      <trkpt lat="42.00941" lon="19.52019">
        <ele>48.239353</ele>
        <time>2022-05-15T11:07:49.936Z</time>
      </trkpt>
      <trkpt lat="42.00948" lon="19.5201">
        <ele>48.326006</ele>
        <time>2022-05-15T11:07:51.935Z</time>
      </trkpt>
      <trkpt lat="42.00954" lon="19.52002">
        <ele>48.412925</ele>
        <time>2022-05-15T11:07:53.940Z</time>
      </trkpt>
      <trkpt lat="42.00961" lon="19.51993">
        <ele>48.50458</ele>
        <time>2022-05-15T11:07:55.943Z</time>
      </trkpt>
      <trkpt lat="42.00968" lon="19.51984">
        <ele>48.594846</ele>
        <time>2022-05-15T11:07:57.925Z</time>
      </trkpt>
      <trkpt lat="42.00974" lon="19.51976">
        <ele>48.681072</ele>
        <time>2022-05-15T11:07:59.942Z</time>
      </trkpt>
      <trkpt lat="42.00984" lon="19.51964">
        <ele>48.808107</ele>
        <time>2022-05-15T11:08:02.940Z</time>
      </trkpt>
      <trkpt lat="42.00994" lon="19.51952">
        <ele>48.930368</ele>
        <time>2022-05-15T11:08:05.942Z</time>
      </trkpt>
      <trkpt lat="42.01004" lon="19.5194">
        <ele>49.058329</ele>
        <time>2022-05-15T11:08:08.942Z</time>
      </trkpt>
      <trkpt lat="42.0101" lon="19.51932">
        <ele>49.147834</ele>
        <time>2022-05-15T11:08:10.940Z</time>
      </trkpt>
      <trkpt lat="42.01017" lon="19.51923">
        <ele>49.235936</ele>
        <time>2022-05-15T11:08:12.942Z</time>
      </trkpt>
      <trkpt lat="42.01027" lon="19.51911">
        <ele>49.296354</ele>
        <time>2022-05-15T11:08:15.937Z</time>
      </trkpt>
      <trkpt lat="42.01034" lon="19.51903">
        <ele>49.309632</ele>
        <time>2022-05-15T11:08:17.952Z</time>
      </trkpt>
      <trkpt lat="42.01043" lon="19.51891">
        <ele>49.328529</ele>
        <time>2022-05-15T11:08:20.924Z</time>
      </trkpt>
      <trkpt lat="42.01053" lon="19.51879">
        <ele>49.347824</ele>
        <time>2022-05-15T11:08:23.971Z</time>
      </trkpt>
      <trkpt lat="42.01063" lon="19.51867">
        <ele>49.366973</ele>
        <time>2022-05-15T11:08:26.947Z</time>
      </trkpt>
      <trkpt lat="42.01072" lon="19.51856">
        <ele>49.38497</ele>
        <time>2022-05-15T11:08:29.934Z</time>
      </trkpt>
      <trkpt lat="42.01081" lon="19.51846">
        <ele>49.402452</ele>
        <time>2022-05-15T11:08:32.942Z</time>
      </trkpt>
      <trkpt lat="42.0109" lon="19.51836">
        <ele>49.419057</ele>
        <time>2022-05-15T11:08:35.939Z</time>
      </trkpt>
      <trkpt lat="42.01098" lon="19.51827">
        <ele>49.435139</ele>
        <time>2022-05-15T11:08:38.954Z</time>
      </trkpt>
      <trkpt lat="42.01107" lon="19.51818">
        <ele>49.450834</ele>
        <time>2022-05-15T11:08:41.942Z</time>
      </trkpt>
      <trkpt lat="42.01115" lon="19.51809">
        <ele>49.466378</ele>
        <time>2022-05-15T11:08:44.942Z</time>
      </trkpt>
      <trkpt lat="42.01124" lon="19.51801">
        <ele>49.482758</ele>
        <time>2022-05-15T11:08:47.934Z</time>
      </trkpt>
      <trkpt lat="42.01133" lon="19.51793">
        <ele>49.498525</ele>
        <time>2022-05-15T11:08:50.967Z</time>
      </trkpt>
      <trkpt lat="42.01142" lon="19.51785">
        <ele>49.513082</ele>
        <time>2022-05-15T11:08:53.928Z</time>
      </trkpt>
      <trkpt lat="42.01151" lon="19.51777">
        <ele>49.529521</ele>
        <time>2022-05-15T11:08:56.938Z</time>
      </trkpt>
      <trkpt lat="42.01161" lon="19.5177">
        <ele>49.545551</ele>
        <time>2022-05-15T11:08:59.949Z</time>
      </trkpt>
      <trkpt lat="42.01171" lon="19.51762">
        <ele>49.578934</ele>
        <time>2022-05-15T11:09:02.960Z</time>
      </trkpt>
      <trkpt lat="42.01181" lon="19.51756">
        <ele>49.611812</ele>
        <time>2022-05-15T11:09:05.925Z</time>
      </trkpt>
      <trkpt lat="42.0119" lon="19.51749">
        <ele>49.645294</ele>
        <time>2022-05-15T11:09:08.952Z</time>
      </trkpt>
      <trkpt lat="42.01201" lon="19.51741">
        <ele>49.680534</ele>
        <time>2022-05-15T11:09:11.932Z</time>
      </trkpt>
      <trkpt lat="42.01211" lon="19.51734">
        <ele>49.715908</ele>
        <time>2022-05-15T11:09:14.933Z</time>
      </trkpt>
      <trkpt lat="42.01222" lon="19.51728">
        <ele>49.752097</ele>
        <time>2022-05-15T11:09:17.931Z</time>
      </trkpt>
      <trkpt lat="42.01233" lon="19.51722">
        <ele>49.787275</ele>
        <time>2022-05-15T11:09:21.004Z</time>
      </trkpt>
      <trkpt lat="42.01244" lon="19.51716">
        <ele>49.822477</ele>
        <time>2022-05-15T11:09:23.942Z</time>
      </trkpt>
      <trkpt lat="42.01254" lon="19.5171">
        <ele>49.857482</ele>
        <time>2022-05-15T11:09:26.983Z</time>
      </trkpt>
      <trkpt lat="42.01265" lon="19.51705">
        <ele>49.892131</ele>
        <time>2022-05-15T11:09:29.936Z</time>
      </trkpt>
      <trkpt lat="42.01276" lon="19.517">
        <ele>49.927279</ele>
        <time>2022-05-15T11:09:32.969Z</time>
      </trkpt>
      <trkpt lat="42.01287" lon="19.51695">
        <ele>49.962574</ele>
        <time>2022-05-15T11:09:35.952Z</time>
      </trkpt>
      <trkpt lat="42.01298" lon="19.51691">
        <ele>49.996253</ele>
        <time>2022-05-15T11:09:38.960Z</time>
      </trkpt>
      <trkpt lat="42.01308" lon="19.51687">
        <ele>50.028415</ele>
        <time>2022-05-15T11:09:41.931Z</time>
      </trkpt>
      <trkpt lat="42.01318" lon="19.51684">
        <ele>50.059933</ele>
        <time>2022-05-15T11:09:44.984Z</time>
      </trkpt>
      <trkpt lat="42.01329" lon="19.51681">
        <ele>50.094887</ele>
        <time>2022-05-15T11:09:47.948Z</time>
      </trkpt>
      <trkpt lat="42.01339" lon="19.51678">
        <ele>50.215098</ele>
        <time>2022-05-15T11:09:50.924Z</time>
      </trkpt>
      <trkpt lat="42.01349" lon="19.51676">
        <ele>50.333513</ele>
        <time>2022-05-15T11:09:53.940Z</time>
      </trkpt>
      <trkpt lat="42.01359" lon="19.51674">
        <ele>50.445528</ele>
        <time>2022-05-15T11:09:56.947Z</time>
      </trkpt>
      <trkpt lat="42.01368" lon="19.51672">
        <ele>50.552494</ele>
        <time>2022-05-15T11:09:59.926Z</time>
      </trkpt>
      <trkpt lat="42.01379" lon="19.5167">
        <ele>50.687139</ele>
        <time>2022-05-15T11:10:03.949Z</time>
      </trkpt>
      <trkpt lat="42.01391" lon="19.51669">
        <ele>50.816923</ele>
        <time>2022-05-15T11:10:07.973Z</time>
      </trkpt>
      <trkpt lat="42.01401" lon="19.51668">
        <ele>50.939343</ele>
        <time>2022-05-15T11:10:11.939Z</time>
      </trkpt>
      <trkpt lat="42.01412" lon="19.51667">
        <ele>51.067439</ele>
        <time>2022-05-15T11:10:15.948Z</time>
      </trkpt>
      <trkpt lat="42.01424" lon="19.51667">
        <ele>51.196597</ele>
        <time>2022-05-15T11:10:19.920Z</time>
      </trkpt>
      <trkpt lat="42.01435" lon="19.51667">
        <ele>51.328052</ele>
        <time>2022-05-15T11:10:23.930Z</time>
      </trkpt>
      <trkpt lat="42.01447" lon="19.51667">
        <ele>51.461822</ele>
        <time>2022-05-15T11:10:27.932Z</time>
      </trkpt>
      <trkpt lat="42.01458" lon="19.51667">
        <ele>51.594438</ele>
        <time>2022-05-15T11:10:31.937Z</time>
      </trkpt>
      <trkpt lat="42.01469" lon="19.51667">
        <ele>51.718975</ele>
        <time>2022-05-15T11:10:35.952Z</time>
      </trkpt>
      <trkpt lat="42.0148" lon="19.51667">
        <ele>51.843556</ele>
        <time>2022-05-15T11:10:39.915Z</time>
      </trkpt>
      <trkpt lat="42.0149" lon="19.51669">
        <ele>51.963018</ele>
        <time>2022-05-15T11:10:43.943Z</time>
      </trkpt>
      <trkpt lat="42.01501" lon="19.5167">
        <ele>52.086639</ele>
        <time>2022-05-15T11:10:47.930Z</time>
      </trkpt>
      <trkpt lat="42.01512" lon="19.5167">
        <ele>52.323836</ele>
        <time>2022-05-15T11:10:51.931Z</time>
      </trkpt>
      <trkpt lat="42.01524" lon="19.51671">
        <ele>52.695532</ele>
        <time>2022-05-15T11:10:55.936Z</time>
      </trkpt>
      <trkpt lat="42.01535" lon="19.51672">
        <ele>53.050995</ele>
        <time>2022-05-15T11:10:59.932Z</time>
      </trkpt>
      <trkpt lat="42.01546" lon="19.51674">
        <ele>53.416965</ele>
        <time>2022-05-15T11:11:03.986Z</time>
      </trkpt>
      <trkpt lat="42.01557" lon="19.51675">
        <ele>53.782935</ele>
        <time>2022-05-15T11:11:07.920Z</time>
      </trkpt>
      <trkpt lat="42.01568" lon="19.51676">
        <ele>54.151931</ele>
        <time>2022-05-15T11:11:11.960Z</time>
      </trkpt>
      <trkpt lat="42.01579" lon="19.51677">
        <ele>54.510812</ele>
        <time>2022-05-15T11:11:15.938Z</time>
      </trkpt>
      <trkpt lat="42.0159" lon="19.51678">
        <ele>54.843391</ele>
        <time>2022-05-15T11:11:18.942Z</time>
      </trkpt>
      <trkpt lat="42.01602" lon="19.51679">
        <ele>55.240799</ele>
        <time>2022-05-15T11:11:21.922Z</time>
      </trkpt>
      <trkpt lat="42.01615" lon="19.5168">
        <ele>55.657602</ele>
        <time>2022-05-15T11:11:24.940Z</time>
      </trkpt>
      <trkpt lat="42.01627" lon="19.51681">
        <ele>56.071154</ele>
        <time>2022-05-15T11:11:27.948Z</time>
      </trkpt>
      <trkpt lat="42.0164" lon="19.51681">
        <ele>56.471936</ele>
        <time>2022-05-15T11:11:30.936Z</time>
      </trkpt>
      <trkpt lat="42.01651" lon="19.51682">
        <ele>56.856049</ele>
        <time>2022-05-15T11:11:33.921Z</time>
      </trkpt>
      <trkpt lat="42.01664" lon="19.51683">
        <ele>57.266578</ele>
        <time>2022-05-15T11:11:36.930Z</time>
      </trkpt>
      <trkpt lat="42.01676" lon="19.51684">
        <ele>57.673736</ele>
        <time>2022-05-15T11:11:39.943Z</time>
      </trkpt>
      <trkpt lat="42.01689" lon="19.51684">
        <ele>58.003704</ele>
        <time>2022-05-15T11:11:42.942Z</time>
      </trkpt>
      <trkpt lat="42.01701" lon="19.51686">
        <ele>57.896293</ele>
        <time>2022-05-15T11:11:45.960Z</time>
      </trkpt>
      <trkpt lat="42.01714" lon="19.51686">
        <ele>57.789037</ele>
        <time>2022-05-15T11:11:48.945Z</time>
      </trkpt>
      <trkpt lat="42.01727" lon="19.51687">
        <ele>57.683385</ele>
        <time>2022-05-15T11:11:51.943Z</time>
      </trkpt>
      <trkpt lat="42.01739" lon="19.51688">
        <ele>57.576815</ele>
        <time>2022-05-15T11:11:54.932Z</time>
      </trkpt>
      <trkpt lat="42.01752" lon="19.51689">
        <ele>57.470352</ele>
        <time>2022-05-15T11:11:57.930Z</time>
      </trkpt>
      <trkpt lat="42.01765" lon="19.5169">
        <ele>57.362056</ele>
        <time>2022-05-15T11:12:00.987Z</time>
      </trkpt>
      <trkpt lat="42.01778" lon="19.51691">
        <ele>57.252118</ele>
        <time>2022-05-15T11:12:03.984Z</time>
      </trkpt>
      <trkpt lat="42.01791" lon="19.51692">
        <ele>57.139612</ele>
        <time>2022-05-15T11:12:06.945Z</time>
      </trkpt>
      <trkpt lat="42.01804" lon="19.51694">
        <ele>57.027989</ele>
        <time>2022-05-15T11:12:09.947Z</time>
      </trkpt>
      <trkpt lat="42.01817" lon="19.51695">
        <ele>56.914641</ele>
        <time>2022-05-15T11:12:12.956Z</time>
      </trkpt>
      <trkpt lat="42.01831" lon="19.51696">
        <ele>56.801293</ele>
        <time>2022-05-15T11:12:15.928Z</time>
      </trkpt>
      <trkpt lat="42.01844" lon="19.51697">
        <ele>56.69055</ele>
        <time>2022-05-15T11:12:18.943Z</time>
      </trkpt>
      <trkpt lat="42.01857" lon="19.51699">
        <ele>56.581928</ele>
        <time>2022-05-15T11:12:21.935Z</time>
      </trkpt>
      <trkpt lat="42.01866" lon="19.517">
        <ele>56.504623</ele>
        <time>2022-05-15T11:12:23.942Z</time>
      </trkpt>
      <trkpt lat="42.01876" lon="19.51702">
        <ele>56.299481</ele>
        <time>2022-05-15T11:12:25.971Z</time>
      </trkpt>
      <trkpt lat="42.01886" lon="19.51704">
        <ele>56.078832</ele>
        <time>2022-05-15T11:12:27.929Z</time>
      </trkpt>
      <trkpt lat="42.01896" lon="19.51707">
        <ele>55.855179</ele>
        <time>2022-05-15T11:12:29.947Z</time>
      </trkpt>
      <trkpt lat="42.01906" lon="19.5171">
        <ele>55.628437</ele>
        <time>2022-05-15T11:12:31.948Z</time>
      </trkpt>
      <trkpt lat="42.01917" lon="19.51713">
        <ele>55.382596</ele>
        <time>2022-05-15T11:12:33.967Z</time>
      </trkpt>
      <trkpt lat="42.01929" lon="19.51717">
        <ele>55.120045</ele>
        <time>2022-05-15T11:12:35.945Z</time>
      </trkpt>
      <trkpt lat="42.0194" lon="19.51722">
        <ele>54.857199</ele>
        <time>2022-05-15T11:12:37.943Z</time>
      </trkpt>
      <trkpt lat="42.01952" lon="19.51728">
        <ele>54.589215</ele>
        <time>2022-05-15T11:12:39.949Z</time>
      </trkpt>
      <trkpt lat="42.01963" lon="19.51733">
        <ele>54.320719</ele>
        <time>2022-05-15T11:12:41.939Z</time>
      </trkpt>
      <trkpt lat="42.01975" lon="19.51738">
        <ele>54.059918</ele>
        <time>2022-05-15T11:12:43.938Z</time>
      </trkpt>
      <trkpt lat="42.01986" lon="19.51744">
        <ele>53.799118</ele>
        <time>2022-05-15T11:12:45.942Z</time>
      </trkpt>
      <trkpt lat="42.01997" lon="19.51749">
        <ele>53.536656</ele>
        <time>2022-05-15T11:12:47.968Z</time>
      </trkpt>
      <trkpt lat="42.02009" lon="19.51755">
        <ele>53.275855</ele>
        <time>2022-05-15T11:12:49.942Z</time>
      </trkpt>
      <trkpt lat="42.02019" lon="19.5176">
        <ele>53.028974</ele>
        <time>2022-05-15T11:12:51.939Z</time>
      </trkpt>
      <trkpt lat="42.0203" lon="19.51765">
        <ele>52.785731</ele>
        <time>2022-05-15T11:12:53.919Z</time>
      </trkpt>
      <trkpt lat="42.02041" lon="19.51769">
        <ele>52.559106</ele>
        <time>2022-05-15T11:12:55.950Z</time>
      </trkpt>
      <trkpt lat="42.02051" lon="19.51773">
        <ele>52.414809</ele>
        <time>2022-05-15T11:12:57.951Z</time>
      </trkpt>
      <trkpt lat="42.02061" lon="19.51777">
        <ele>52.2742</ele>
        <time>2022-05-15T11:12:59.931Z</time>
      </trkpt>
      <trkpt lat="42.0207" lon="19.51781">
        <ele>52.149134</ele>
        <time>2022-05-15T11:13:01.953Z</time>
      </trkpt>
      <trkpt lat="42.0208" lon="19.51784">
        <ele>52.018302</ele>
        <time>2022-05-15T11:13:03.943Z</time>
      </trkpt>
      <trkpt lat="42.02089" lon="19.51786">
        <ele>51.890022</ele>
        <time>2022-05-15T11:13:05.948Z</time>
      </trkpt>
      <trkpt lat="42.02102" lon="19.51789">
        <ele>51.712333</ele>
        <time>2022-05-15T11:13:08.946Z</time>
      </trkpt>
      <trkpt lat="42.02115" lon="19.51791">
        <ele>51.53759</ele>
        <time>2022-05-15T11:13:11.928Z</time>
      </trkpt>
      <trkpt lat="42.02128" lon="19.51793">
        <ele>51.366263</ele>
        <time>2022-05-15T11:13:14.948Z</time>
      </trkpt>
      <trkpt lat="42.02141" lon="19.51795">
        <ele>51.191042</ele>
        <time>2022-05-15T11:13:17.950Z</time>
      </trkpt>
      <trkpt lat="42.02154" lon="19.51797">
        <ele>51.01182</ele>
        <time>2022-05-15T11:13:20.980Z</time>
      </trkpt>
      <trkpt lat="42.02167" lon="19.51798">
        <ele>50.832695</ele>
        <time>2022-05-15T11:13:23.941Z</time>
      </trkpt>
      <trkpt lat="42.02176" lon="19.518">
        <ele>50.711434</ele>
        <time>2022-05-15T11:13:25.943Z</time>
      </trkpt>
      <trkpt lat="42.02185" lon="19.51801">
        <ele>50.58884</ele>
        <time>2022-05-15T11:13:27.954Z</time>
      </trkpt>
      <trkpt lat="42.02195" lon="19.51802">
        <ele>50.462038</ele>
        <time>2022-05-15T11:13:29.950Z</time>
      </trkpt>
      <trkpt lat="42.02204" lon="19.51804">
        <ele>50.339116</ele>
        <time>2022-05-15T11:13:31.928Z</time>
      </trkpt>
      <trkpt lat="42.02213" lon="19.51806">
        <ele>50.212513</ele>
        <time>2022-05-15T11:13:33.944Z</time>
      </trkpt>
      <trkpt lat="42.02222" lon="19.51809">
        <ele>50.167372</ele>
        <time>2022-05-15T11:13:35.931Z</time>
      </trkpt>
      <trkpt lat="42.02232" lon="19.51812">
        <ele>50.155187</ele>
        <time>2022-05-15T11:13:37.964Z</time>
      </trkpt>
      <trkpt lat="42.02241" lon="19.51815">
        <ele>50.143394</ele>
        <time>2022-05-15T11:13:39.947Z</time>
      </trkpt>
      <trkpt lat="42.02249" lon="19.51819">
        <ele>50.131967</ele>
        <time>2022-05-15T11:13:41.930Z</time>
      </trkpt>
      <trkpt lat="42.02262" lon="19.51824">
        <ele>50.115084</ele>
        <time>2022-05-15T11:13:44.941Z</time>
      </trkpt>
      <trkpt lat="42.02274" lon="19.5183">
        <ele>50.098208</ele>
        <time>2022-05-15T11:13:47.945Z</time>
      </trkpt>
      <trkpt lat="42.02287" lon="19.51835">
        <ele>50.081844</ele>
        <time>2022-05-15T11:13:50.957Z</time>
      </trkpt>
      <trkpt lat="42.02299" lon="19.51841">
        <ele>50.065601</ele>
        <time>2022-05-15T11:13:53.938Z</time>
      </trkpt>
      <trkpt lat="42.02311" lon="19.51846">
        <ele>50.049207</ele>
        <time>2022-05-15T11:13:56.943Z</time>
      </trkpt>
      <trkpt lat="42.02323" lon="19.51852">
        <ele>50.033537</ele>
        <time>2022-05-15T11:13:59.937Z</time>
      </trkpt>
      <trkpt lat="42.02334" lon="19.51856">
        <ele>50.018724</ele>
        <time>2022-05-15T11:14:02.928Z</time>
      </trkpt>
      <trkpt lat="42.02345" lon="19.5186">
        <ele>50.003446</ele>
        <time>2022-05-15T11:14:05.942Z</time>
      </trkpt>
      <trkpt lat="42.02357" lon="19.51863">
        <ele>49.988347</ele>
        <time>2022-05-15T11:14:08.947Z</time>
      </trkpt>
      <trkpt lat="42.02368" lon="19.51867">
        <ele>49.973879</ele>
        <time>2022-05-15T11:14:11.945Z</time>
      </trkpt>
      <trkpt lat="42.02379" lon="19.5187">
        <ele>49.95948</ele>
        <time>2022-05-15T11:14:14.937Z</time>
      </trkpt>
      <trkpt lat="42.0239" lon="19.51873">
        <ele>49.971055</ele>
        <time>2022-05-15T11:14:17.929Z</time>
      </trkpt>
      <trkpt lat="42.02401" lon="19.51876">
        <ele>50.152252</ele>
        <time>2022-05-15T11:14:20.947Z</time>
      </trkpt>
      <trkpt lat="42.02412" lon="19.51878">
        <ele>50.328579</ele>
        <time>2022-05-15T11:14:23.938Z</time>
      </trkpt>
      <trkpt lat="42.02423" lon="19.51881">
        <ele>50.490506</ele>
        <time>2022-05-15T11:14:26.949Z</time>
      </trkpt>
      <trkpt lat="42.02433" lon="19.51883">
        <ele>50.650122</ele>
        <time>2022-05-15T11:14:29.926Z</time>
      </trkpt>
      <trkpt lat="42.02443" lon="19.51885">
        <ele>50.82052</ele>
        <time>2022-05-15T11:14:32.999Z</time>
      </trkpt>
      <trkpt lat="42.02454" lon="19.51887">
        <ele>50.995929</ele>
        <time>2022-05-15T11:14:35.945Z</time>
      </trkpt>
      <trkpt lat="42.02465" lon="19.51888">
        <ele>51.173146</ele>
        <time>2022-05-15T11:14:38.994Z</time>
      </trkpt>
      <trkpt lat="42.02477" lon="19.51888">
        <ele>51.362696</ele>
        <time>2022-05-15T11:14:41.953Z</time>
      </trkpt>
      <trkpt lat="42.02489" lon="19.51888">
        <ele>51.55217</ele>
        <time>2022-05-15T11:14:44.948Z</time>
      </trkpt>
      <trkpt lat="42.02501" lon="19.51887">
        <ele>51.740668</ele>
        <time>2022-05-15T11:14:47.942Z</time>
      </trkpt>
      <trkpt lat="42.02513" lon="19.51884">
        <ele>51.931198</ele>
        <time>2022-05-15T11:14:50.936Z</time>
      </trkpt>
      <trkpt lat="42.02525" lon="19.5188">
        <ele>52.120549</ele>
        <time>2022-05-15T11:14:53.942Z</time>
      </trkpt>
      <trkpt lat="42.02536" lon="19.51874">
        <ele>52.311485</ele>
        <time>2022-05-15T11:14:56.949Z</time>
      </trkpt>
      <trkpt lat="42.02547" lon="19.51867">
        <ele>52.497893</ele>
        <time>2022-05-15T11:14:59.940Z</time>
      </trkpt>
      <trkpt lat="42.02557" lon="19.51859">
        <ele>52.679455</ele>
        <time>2022-05-15T11:15:02.936Z</time>
      </trkpt>
      <trkpt lat="42.02566" lon="19.51849">
        <ele>52.698249</ele>
        <time>2022-05-15T11:15:05.942Z</time>
      </trkpt>
      <trkpt lat="42.02576" lon="19.51837">
        <ele>52.495161</ele>
        <time>2022-05-15T11:15:08.958Z</time>
      </trkpt>
      <trkpt lat="42.02582" lon="19.51828">
        <ele>52.349397</ele>
        <time>2022-05-15T11:15:10.977Z</time>
      </trkpt>
      <trkpt lat="42.02591" lon="19.51815">
        <ele>52.138085</ele>
        <time>2022-05-15T11:15:13.938Z</time>
      </trkpt>
      <trkpt lat="42.02597" lon="19.51805">
        <ele>51.990091</ele>
        <time>2022-05-15T11:15:15.952Z</time>
      </trkpt>
      <trkpt lat="42.02602" lon="19.51795">
        <ele>51.843098</ele>
        <time>2022-05-15T11:15:17.956Z</time>
      </trkpt>
      <trkpt lat="42.02608" lon="19.51785">
        <ele>51.697123</ele>
        <time>2022-05-15T11:15:19.931Z</time>
      </trkpt>
      <trkpt lat="42.02613" lon="19.51775">
        <ele>51.552132</ele>
        <time>2022-05-15T11:15:21.934Z</time>
      </trkpt>
      <trkpt lat="42.02619" lon="19.51765">
        <ele>51.402346</ele>
        <time>2022-05-15T11:15:23.941Z</time>
      </trkpt>
      <trkpt lat="42.02624" lon="19.51754">
        <ele>51.247872</ele>
        <time>2022-05-15T11:15:25.949Z</time>
      </trkpt>
      <trkpt lat="42.0263" lon="19.51744">
        <ele>51.094192</ele>
        <time>2022-05-15T11:15:27.932Z</time>
      </trkpt>
      <trkpt lat="42.02635" lon="19.51733">
        <ele>50.94156</ele>
        <time>2022-05-15T11:15:29.940Z</time>
      </trkpt>
      <trkpt lat="42.0264" lon="19.51723">
        <ele>50.798431</ele>
        <time>2022-05-15T11:15:31.944Z</time>
      </trkpt>
      <trkpt lat="42.02646" lon="19.51712">
        <ele>50.647361</ele>
        <time>2022-05-15T11:15:33.937Z</time>
      </trkpt>
      <trkpt lat="42.02651" lon="19.51702">
        <ele>50.495547</ele>
        <time>2022-05-15T11:15:35.948Z</time>
      </trkpt>
      <trkpt lat="42.02656" lon="19.51691">
        <ele>50.345149</ele>
        <time>2022-05-15T11:15:37.951Z</time>
      </trkpt>
      <trkpt lat="42.02661" lon="19.5168">
        <ele>50.196067</ele>
        <time>2022-05-15T11:15:39.944Z</time>
      </trkpt>
      <trkpt lat="42.02665" lon="19.51669">
        <ele>50.046025</ele>
        <time>2022-05-15T11:15:41.939Z</time>
      </trkpt>
      <trkpt lat="42.0267" lon="19.51658">
        <ele>49.920969</ele>
        <time>2022-05-15T11:15:43.970Z</time>
      </trkpt>
      <trkpt lat="42.02675" lon="19.51647">
        <ele>49.884943</ele>
        <time>2022-05-15T11:15:45.939Z</time>
      </trkpt>
      <trkpt lat="42.02679" lon="19.51636">
        <ele>49.848665</ele>
        <time>2022-05-15T11:15:47.929Z</time>
      </trkpt>
      <trkpt lat="42.02684" lon="19.51625">
        <ele>49.81144</ele>
        <time>2022-05-15T11:15:49.934Z</time>
      </trkpt>
      <trkpt lat="42.02688" lon="19.51614">
        <ele>49.77503</ele>
        <time>2022-05-15T11:15:51.935Z</time>
      </trkpt>
      <trkpt lat="42.02693" lon="19.51603">
        <ele>49.738172</ele>
        <time>2022-05-15T11:15:53.942Z</time>
      </trkpt>
      <trkpt lat="42.02698" lon="19.51592">
        <ele>49.701262</ele>
        <time>2022-05-15T11:15:55.967Z</time>
      </trkpt>
      <trkpt lat="42.02702" lon="19.51581">
        <ele>49.665424</ele>
        <time>2022-05-15T11:15:57.940Z</time>
      </trkpt>
      <trkpt lat="42.02706" lon="19.5157">
        <ele>49.630596</ele>
        <time>2022-05-15T11:15:59.941Z</time>
      </trkpt>
      <trkpt lat="42.02711" lon="19.51559">
        <ele>49.595265</ele>
        <time>2022-05-15T11:16:01.953Z</time>
      </trkpt>
      <trkpt lat="42.02715" lon="19.51548">
        <ele>49.558797</ele>
        <time>2022-05-15T11:16:03.934Z</time>
      </trkpt>
      <trkpt lat="42.0272" lon="19.51538">
        <ele>49.523213</ele>
        <time>2022-05-15T11:16:05.940Z</time>
      </trkpt>
      <trkpt lat="42.02724" lon="19.51527">
        <ele>49.486997</ele>
        <time>2022-05-15T11:16:07.929Z</time>
      </trkpt>
      <trkpt lat="42.02729" lon="19.51516">
        <ele>49.451224</ele>
        <time>2022-05-15T11:16:09.939Z</time>
      </trkpt>
      <trkpt lat="42.02733" lon="19.51505">
        <ele>49.415008</ele>
        <time>2022-05-15T11:16:11.971Z</time>
      </trkpt>
      <trkpt lat="42.02738" lon="19.51494">
        <ele>49.380117</ele>
        <time>2022-05-15T11:16:13.941Z</time>
      </trkpt>
      <trkpt lat="42.02744" lon="19.51479">
        <ele>49.328445</ele>
        <time>2022-05-15T11:16:16.962Z</time>
      </trkpt>
      <trkpt lat="42.02751" lon="19.51464">
        <ele>49.278413</ele>
        <time>2022-05-15T11:16:19.952Z</time>
      </trkpt>
      <trkpt lat="42.02757" lon="19.51448">
        <ele>49.234836</ele>
        <time>2022-05-15T11:16:22.932Z</time>
      </trkpt>
      <trkpt lat="42.02763" lon="19.51433">
        <ele>49.392984</ele>
        <time>2022-05-15T11:16:25.923Z</time>
      </trkpt>
      <trkpt lat="42.02768" lon="19.51422">
        <ele>49.500257</ele>
        <time>2022-05-15T11:16:27.943Z</time>
      </trkpt>
      <trkpt lat="42.02773" lon="19.51412">
        <ele>49.610281</ele>
        <time>2022-05-15T11:16:29.936Z</time>
      </trkpt>
      <trkpt lat="42.02778" lon="19.51401">
        <ele>49.717414</ele>
        <time>2022-05-15T11:16:31.938Z</time>
      </trkpt>
      <trkpt lat="42.02785" lon="19.51387">
        <ele>49.874863</ele>
        <time>2022-05-15T11:16:34.928Z</time>
      </trkpt>
      <trkpt lat="42.02792" lon="19.51372">
        <ele>50.035113</ele>
        <time>2022-05-15T11:16:37.945Z</time>
      </trkpt>
      <trkpt lat="42.028" lon="19.51358">
        <ele>50.181684</ele>
        <time>2022-05-15T11:16:40.932Z</time>
      </trkpt>
      <trkpt lat="42.02807" lon="19.51345">
        <ele>50.330378</ele>
        <time>2022-05-15T11:16:43.925Z</time>
      </trkpt>
      <trkpt lat="42.02815" lon="19.51331">
        <ele>50.484787</ele>
        <time>2022-05-15T11:16:46.940Z</time>
      </trkpt>
      <trkpt lat="42.02823" lon="19.51317">
        <ele>50.639969</ele>
        <time>2022-05-15T11:16:49.937Z</time>
      </trkpt>
      <trkpt lat="42.02829" lon="19.51308">
        <ele>50.748199</ele>
        <time>2022-05-15T11:16:51.940Z</time>
      </trkpt>
      <trkpt lat="42.02838" lon="19.51294">
        <ele>50.911509</ele>
        <time>2022-05-15T11:16:54.939Z</time>
      </trkpt>
      <trkpt lat="42.02844" lon="19.51285">
        <ele>51.022404</ele>
        <time>2022-05-15T11:16:56.947Z</time>
      </trkpt>
      <trkpt lat="42.0285" lon="19.51275">
        <ele>51.135412</ele>
        <time>2022-05-15T11:16:58.981Z</time>
      </trkpt>
      <trkpt lat="42.02856" lon="19.51266">
        <ele>51.242588</ele>
        <time>2022-05-15T11:17:00.940Z</time>
      </trkpt>
      <trkpt lat="42.02863" lon="19.51257">
        <ele>51.351103</ele>
        <time>2022-05-15T11:17:02.931Z</time>
      </trkpt>
      <trkpt lat="42.02869" lon="19.51249">
        <ele>51.35249</ele>
        <time>2022-05-15T11:17:04.954Z</time>
      </trkpt>
      <trkpt lat="42.02876" lon="19.5124">
        <ele>51.323556</ele>
        <time>2022-05-15T11:17:06.938Z</time>
      </trkpt>
      <trkpt lat="42.02882" lon="19.51232">
        <ele>51.295172</ele>
        <time>2022-05-15T11:17:08.960Z</time>
      </trkpt>
      <trkpt lat="42.02889" lon="19.51223">
        <ele>51.266722</ele>
        <time>2022-05-15T11:17:10.954Z</time>
      </trkpt>
      <trkpt lat="42.02899" lon="19.51211">
        <ele>51.224681</ele>
        <time>2022-05-15T11:17:13.938Z</time>
      </trkpt>
      <trkpt lat="42.02909" lon="19.51199">
        <ele>51.182953</ele>
        <time>2022-05-15T11:17:16.942Z</time>
      </trkpt>
      <trkpt lat="42.02919" lon="19.51187">
        <ele>51.14138</ele>
        <time>2022-05-15T11:17:19.951Z</time>
      </trkpt>
      <trkpt lat="42.02929" lon="19.51175">
        <ele>51.099794</ele>
        <time>2022-05-15T11:17:22.933Z</time>
      </trkpt>
      <trkpt lat="42.02939" lon="19.51164">
        <ele>51.057905</ele>
        <time>2022-05-15T11:17:25.941Z</time>
      </trkpt>
      <trkpt lat="42.02946" lon="19.51156">
        <ele>51.029293</ele>
        <time>2022-05-15T11:17:27.936Z</time>
      </trkpt>
      <trkpt lat="42.02956" lon="19.51144">
        <ele>50.98764</ele>
        <time>2022-05-15T11:17:30.938Z</time>
      </trkpt>
      <trkpt lat="42.02966" lon="19.51132">
        <ele>50.945751</ele>
        <time>2022-05-15T11:17:33.939Z</time>
      </trkpt>
      <trkpt lat="42.02973" lon="19.51124">
        <ele>50.917544</ele>
        <time>2022-05-15T11:17:35.935Z</time>
      </trkpt>
      <trkpt lat="42.0298" lon="19.51116">
        <ele>50.889171</ele>
        <time>2022-05-15T11:17:37.943Z</time>
      </trkpt>
      <trkpt lat="42.02986" lon="19.51108">
        <ele>50.860651</ele>
        <time>2022-05-15T11:17:39.943Z</time>
      </trkpt>
      <trkpt lat="42.02993" lon="19.511">
        <ele>50.832361</ele>
        <time>2022-05-15T11:17:41.923Z</time>
      </trkpt>
      <trkpt lat="42.03002" lon="19.51087">
        <ele>50.74792</ele>
        <time>2022-05-15T11:17:44.935Z</time>
      </trkpt>
      <trkpt lat="42.03011" lon="19.51074">
        <ele>50.613171</ele>
        <time>2022-05-15T11:17:47.948Z</time>
      </trkpt>
      <trkpt lat="42.03019" lon="19.51061">
        <ele>50.480774</ele>
        <time>2022-05-15T11:17:50.936Z</time>
      </trkpt>
      <trkpt lat="42.03027" lon="19.51047">
        <ele>50.348605</ele>
        <time>2022-05-15T11:17:53.950Z</time>
      </trkpt>
      <trkpt lat="42.03035" lon="19.51033">
        <ele>50.213997</ele>
        <time>2022-05-15T11:17:56.968Z</time>
      </trkpt>
      <trkpt lat="42.03042" lon="19.51018">
        <ele>50.077387</ele>
        <time>2022-05-15T11:17:59.937Z</time>
      </trkpt>
      <trkpt lat="42.03049" lon="19.51003">
        <ele>49.942913</ele>
        <time>2022-05-15T11:18:02.941Z</time>
      </trkpt>
      <trkpt lat="42.03055" lon="19.50988">
        <ele>49.811344</ele>
        <time>2022-05-15T11:18:05.939Z</time>
      </trkpt>
      <trkpt lat="42.03061" lon="19.50973">
        <ele>49.679477</ele>
        <time>2022-05-15T11:18:08.950Z</time>
      </trkpt>
      <trkpt lat="42.03067" lon="19.50957">
        <ele>49.544012</ele>
        <time>2022-05-15T11:18:11.947Z</time>
      </trkpt>
      <trkpt lat="42.03073" lon="19.50941">
        <ele>49.410902</ele>
        <time>2022-05-15T11:18:14.942Z</time>
      </trkpt>
      <trkpt lat="42.03078" lon="19.50925">
        <ele>49.281407</ele>
        <time>2022-05-15T11:18:17.947Z</time>
      </trkpt>
      <trkpt lat="42.03082" lon="19.50909">
        <ele>49.147057</ele>
        <time>2022-05-15T11:18:20.939Z</time>
      </trkpt>
      <trkpt lat="42.03085" lon="19.50898">
        <ele>49.054531</ele>
        <time>2022-05-15T11:18:22.946Z</time>
      </trkpt>
      <trkpt lat="42.0309" lon="19.5088">
        <ele>48.95811</ele>
        <time>2022-05-15T11:18:25.932Z</time>
      </trkpt>
      <trkpt lat="42.03093" lon="19.50869">
        <ele>48.942904</ele>
        <time>2022-05-15T11:18:27.934Z</time>
      </trkpt>
      <trkpt lat="42.03096" lon="19.50858">
        <ele>48.927696</ele>
        <time>2022-05-15T11:18:29.948Z</time>
      </trkpt>
      <trkpt lat="42.03099" lon="19.50846">
        <ele>48.912022</ele>
        <time>2022-05-15T11:18:31.942Z</time>
      </trkpt>
      <trkpt lat="42.03102" lon="19.50834">
        <ele>48.896519</ele>
        <time>2022-05-15T11:18:33.964Z</time>
      </trkpt>
      <trkpt lat="42.03105" lon="19.50822">
        <ele>48.880885</ele>
        <time>2022-05-15T11:18:35.955Z</time>
      </trkpt>
      <trkpt lat="42.03108" lon="19.5081">
        <ele>48.865445</ele>
        <time>2022-05-15T11:18:37.946Z</time>
      </trkpt>
      <trkpt lat="42.03113" lon="19.50793">
        <ele>48.84313</ele>
        <time>2022-05-15T11:18:40.939Z</time>
      </trkpt>
      <trkpt lat="42.03116" lon="19.50782">
        <ele>48.828153</ele>
        <time>2022-05-15T11:18:42.920Z</time>
      </trkpt>
      <trkpt lat="42.03119" lon="19.5077">
        <ele>48.812305</ele>
        <time>2022-05-15T11:18:44.970Z</time>
      </trkpt>
      <trkpt lat="42.03122" lon="19.50758">
        <ele>48.797038</ele>
        <time>2022-05-15T11:18:46.960Z</time>
      </trkpt>
      <trkpt lat="42.03125" lon="19.50746">
        <ele>48.781481</ele>
        <time>2022-05-15T11:18:48.943Z</time>
      </trkpt>
      <trkpt lat="42.03128" lon="19.50735">
        <ele>48.765692</ele>
        <time>2022-05-15T11:18:50.946Z</time>
      </trkpt>
      <trkpt lat="42.03131" lon="19.50723">
        <ele>48.750252</ele>
        <time>2022-05-15T11:18:52.930Z</time>
      </trkpt>
      <trkpt lat="42.03136" lon="19.50706">
        <ele>48.727993</ele>
        <time>2022-05-15T11:18:55.948Z</time>
      </trkpt>
      <trkpt lat="42.0314" lon="19.50689">
        <ele>48.706314</ele>
        <time>2022-05-15T11:18:58.967Z</time>
      </trkpt>
      <trkpt lat="42.03144" lon="19.50673">
        <ele>48.684281</ele>
        <time>2022-05-15T11:19:01.935Z</time>
      </trkpt>
      <trkpt lat="42.03148" lon="19.50656">
        <ele>48.645633</ele>
        <time>2022-05-15T11:19:04.925Z</time>
      </trkpt>
      <trkpt lat="42.03151" lon="19.50639">
        <ele>48.488939</ele>
        <time>2022-05-15T11:19:07.950Z</time>
      </trkpt>
      <trkpt lat="42.03154" lon="19.50623">
        <ele>48.332</ele>
        <time>2022-05-15T11:19:10.941Z</time>
      </trkpt>
      <trkpt lat="42.03157" lon="19.50605">
        <ele>48.17023</ele>
        <time>2022-05-15T11:19:13.973Z</time>
      </trkpt>
      <trkpt lat="42.03159" lon="19.50593">
        <ele>48.055263</ele>
        <time>2022-05-15T11:19:15.936Z</time>
      </trkpt>
      <trkpt lat="42.0316" lon="19.5058">
        <ele>47.937772</ele>
        <time>2022-05-15T11:19:17.941Z</time>
      </trkpt>
      <trkpt lat="42.03161" lon="19.50568">
        <ele>47.821676</ele>
        <time>2022-05-15T11:19:19.923Z</time>
      </trkpt>
      <trkpt lat="42.03162" lon="19.50555">
        <ele>47.702198</ele>
        <time>2022-05-15T11:19:21.947Z</time>
      </trkpt>
      <trkpt lat="42.03163" lon="19.50542">
        <ele>47.581003</ele>
        <time>2022-05-15T11:19:23.970Z</time>
      </trkpt>
      <trkpt lat="42.03163" lon="19.50528">
        <ele>47.455338</ele>
        <time>2022-05-15T11:19:25.937Z</time>
      </trkpt>
      <trkpt lat="42.03164" lon="19.50514">
        <ele>47.330732</ele>
        <time>2022-05-15T11:19:27.947Z</time>
      </trkpt>
      <trkpt lat="42.03164" lon="19.50501">
        <ele>47.21161</ele>
        <time>2022-05-15T11:19:29.943Z</time>
      </trkpt>
      <trkpt lat="42.03165" lon="19.50488">
        <ele>47.088931</ele>
        <time>2022-05-15T11:19:31.948Z</time>
      </trkpt>
      <trkpt lat="42.03165" lon="19.50475">
        <ele>46.967067</ele>
        <time>2022-05-15T11:19:33.958Z</time>
      </trkpt>
      <trkpt lat="42.03166" lon="19.50461">
        <ele>46.846677</ele>
        <time>2022-05-15T11:19:35.973Z</time>
      </trkpt>
      <trkpt lat="42.03167" lon="19.50448">
        <ele>46.725258</ele>
        <time>2022-05-15T11:19:37.940Z</time>
      </trkpt>
      <trkpt lat="42.03168" lon="19.50435">
        <ele>46.607601</ele>
        <time>2022-05-15T11:19:39.946Z</time>
      </trkpt>
      <trkpt lat="42.0317" lon="19.50423">
        <ele>46.488388</ele>
        <time>2022-05-15T11:19:41.954Z</time>
      </trkpt>
      <trkpt lat="42.03172" lon="19.5041">
        <ele>46.556466</ele>
        <time>2022-05-15T11:19:43.915Z</time>
      </trkpt>
      <trkpt lat="42.03175" lon="19.50397">
        <ele>46.724974</ele>
        <time>2022-05-15T11:19:45.933Z</time>
      </trkpt>
      <trkpt lat="42.03179" lon="19.50385">
        <ele>46.890929</ele>
        <time>2022-05-15T11:19:47.950Z</time>
      </trkpt>
      <trkpt lat="42.03183" lon="19.50372">
        <ele>47.058272</ele>
        <time>2022-05-15T11:19:49.947Z</time>
      </trkpt>
      <trkpt lat="42.03187" lon="19.5036">
        <ele>47.225894</ele>
        <time>2022-05-15T11:19:51.986Z</time>
      </trkpt>
      <trkpt lat="42.03193" lon="19.50348">
        <ele>47.40361</ele>
        <time>2022-05-15T11:19:53.932Z</time>
      </trkpt>
      <trkpt lat="42.03199" lon="19.50337">
        <ele>47.575601</ele>
        <time>2022-05-15T11:19:56.030Z</time>
      </trkpt>
      <trkpt lat="42.03205" lon="19.50326">
        <ele>47.74278</ele>
        <time>2022-05-15T11:19:57.940Z</time>
      </trkpt>
      <trkpt lat="42.03212" lon="19.50316">
        <ele>47.907653</ele>
        <time>2022-05-15T11:19:59.930Z</time>
      </trkpt>
      <trkpt lat="42.03219" lon="19.50308">
        <ele>48.059386</ele>
        <time>2022-05-15T11:20:01.937Z</time>
      </trkpt>
      <trkpt lat="42.03229" lon="19.50297">
        <ele>48.28548</ele>
        <time>2022-05-15T11:20:04.932Z</time>
      </trkpt>
      <trkpt lat="42.03237" lon="19.50289">
        <ele>48.446816</ele>
        <time>2022-05-15T11:20:06.931Z</time>
      </trkpt>
      <trkpt lat="42.03245" lon="19.50281">
        <ele>48.615502</ele>
        <time>2022-05-15T11:20:08.948Z</time>
      </trkpt>
      <trkpt lat="42.03253" lon="19.50274">
        <ele>48.771738</ele>
        <time>2022-05-15T11:20:10.944Z</time>
      </trkpt>
      <trkpt lat="42.03264" lon="19.50263">
        <ele>48.999893</ele>
        <time>2022-05-15T11:20:13.931Z</time>
      </trkpt>
      <trkpt lat="42.03272" lon="19.50256">
        <ele>49.1562</ele>
        <time>2022-05-15T11:20:15.966Z</time>
      </trkpt>
      <trkpt lat="42.03283" lon="19.50246">
        <ele>49.377396</ele>
        <time>2022-05-15T11:20:18.944Z</time>
      </trkpt>
      <trkpt lat="42.03294" lon="19.50236">
        <ele>49.676129</ele>
        <time>2022-05-15T11:20:21.935Z</time>
      </trkpt>
      <trkpt lat="42.03304" lon="19.50227">
        <ele>49.99819</ele>
        <time>2022-05-15T11:20:24.978Z</time>
      </trkpt>
      <trkpt lat="42.03314" lon="19.50218">
        <ele>50.300291</ele>
        <time>2022-05-15T11:20:27.948Z</time>
      </trkpt>
      <trkpt lat="42.03325" lon="19.50208">
        <ele>50.620195</ele>
        <time>2022-05-15T11:20:30.945Z</time>
      </trkpt>
      <trkpt lat="42.03336" lon="19.50199">
        <ele>50.961218</ele>
        <time>2022-05-15T11:20:33.932Z</time>
      </trkpt>
      <trkpt lat="42.03347" lon="19.50189">
        <ele>51.285331</ele>
        <time>2022-05-15T11:20:36.927Z</time>
      </trkpt>
      <trkpt lat="42.03358" lon="19.50179">
        <ele>51.613628</ele>
        <time>2022-05-15T11:20:39.949Z</time>
      </trkpt>
      <trkpt lat="42.03366" lon="19.50172">
        <ele>51.847528</ele>
        <time>2022-05-15T11:20:41.919Z</time>
      </trkpt>
      <trkpt lat="42.03373" lon="19.50165">
        <ele>52.082523</ele>
        <time>2022-05-15T11:20:43.939Z</time>
      </trkpt>
      <trkpt lat="42.03381" lon="19.50159">
        <ele>52.312243</ele>
        <time>2022-05-15T11:20:45.919Z</time>
      </trkpt>
      <trkpt lat="42.03392" lon="19.50149">
        <ele>52.644758</ele>
        <time>2022-05-15T11:20:48.965Z</time>
      </trkpt>
      <trkpt lat="42.03403" lon="19.50139">
        <ele>52.986688</ele>
        <time>2022-05-15T11:20:51.942Z</time>
      </trkpt>
      <trkpt lat="42.03414" lon="19.50129">
        <ele>53.31813</ele>
        <time>2022-05-15T11:20:54.928Z</time>
      </trkpt>
      <trkpt lat="42.03421" lon="19.50122">
        <ele>53.548883</ele>
        <time>2022-05-15T11:20:56.946Z</time>
      </trkpt>
      <trkpt lat="42.03429" lon="19.50115">
        <ele>53.782782</ele>
        <time>2022-05-15T11:20:58.939Z</time>
      </trkpt>
      <trkpt lat="42.03437" lon="19.50108">
        <ele>53.998666</ele>
        <time>2022-05-15T11:21:00.947Z</time>
      </trkpt>
      <trkpt lat="42.03445" lon="19.50101">
        <ele>54.038154</ele>
        <time>2022-05-15T11:21:02.940Z</time>
      </trkpt>
      <trkpt lat="42.03455" lon="19.50091">
        <ele>54.093497</ele>
        <time>2022-05-15T11:21:05.952Z</time>
      </trkpt>
      <trkpt lat="42.03465" lon="19.50083">
        <ele>54.142671</ele>
        <time>2022-05-15T11:21:08.972Z</time>
      </trkpt>
      <trkpt lat="42.03475" lon="19.50074">
        <ele>54.194172</ele>
        <time>2022-05-15T11:21:11.938Z</time>
      </trkpt>
      <trkpt lat="42.03487" lon="19.50064">
        <ele>54.251118</ele>
        <time>2022-05-15T11:21:14.949Z</time>
      </trkpt>
      <trkpt lat="42.03498" lon="19.50055">
        <ele>54.307178</ele>
        <time>2022-05-15T11:21:17.935Z</time>
      </trkpt>
      <trkpt lat="42.03509" lon="19.50046">
        <ele>54.362733</ele>
        <time>2022-05-15T11:21:20.938Z</time>
      </trkpt>
      <trkpt lat="42.0352" lon="19.50036">
        <ele>54.419839</ele>
        <time>2022-05-15T11:21:23.952Z</time>
      </trkpt>
      <trkpt lat="42.03528" lon="19.50029">
        <ele>54.458967</ele>
        <time>2022-05-15T11:21:25.945Z</time>
      </trkpt>
      <trkpt lat="42.03539" lon="19.50019">
        <ele>54.51572</ele>
        <time>2022-05-15T11:21:28.947Z</time>
      </trkpt>
      <trkpt lat="42.03547" lon="19.50011">
        <ele>54.55661</ele>
        <time>2022-05-15T11:21:30.946Z</time>
      </trkpt>
      <trkpt lat="42.03555" lon="19.50004">
        <ele>54.599968</ele>
        <time>2022-05-15T11:21:32.908Z</time>
      </trkpt>
      <trkpt lat="42.03563" lon="19.49997">
        <ele>54.638919</ele>
        <time>2022-05-15T11:21:34.943Z</time>
      </trkpt>
      <trkpt lat="42.03571" lon="19.4999">
        <ele>54.67928</ele>
        <time>2022-05-15T11:21:36.928Z</time>
      </trkpt>
      <trkpt lat="42.03578" lon="19.49982">
        <ele>54.719298</ele>
        <time>2022-05-15T11:21:38.961Z</time>
      </trkpt>
      <trkpt lat="42.03589" lon="19.49973">
        <ele>54.711419</ele>
        <time>2022-05-15T11:21:41.938Z</time>
      </trkpt>
      <trkpt lat="42.036" lon="19.49963">
        <ele>54.554666</ele>
        <time>2022-05-15T11:21:44.939Z</time>
      </trkpt>
      <trkpt lat="42.0361" lon="19.49953">
        <ele>54.394259</ele>
        <time>2022-05-15T11:21:47.964Z</time>
      </trkpt>
      <trkpt lat="42.03621" lon="19.49944">
        <ele>54.231777</ele>
        <time>2022-05-15T11:21:50.944Z</time>
      </trkpt>
      <trkpt lat="42.03632" lon="19.49934">
        <ele>54.064611</ele>
        <time>2022-05-15T11:21:53.923Z</time>
      </trkpt>
      <trkpt lat="42.03642" lon="19.49924">
        <ele>53.906296</ele>
        <time>2022-05-15T11:21:56.948Z</time>
      </trkpt>
      <trkpt lat="42.03653" lon="19.49914">
        <ele>53.745382</ele>
        <time>2022-05-15T11:21:59.942Z</time>
      </trkpt>
      <trkpt lat="42.03664" lon="19.49904">
        <ele>53.579752</ele>
        <time>2022-05-15T11:22:02.950Z</time>
      </trkpt>
      <trkpt lat="42.03674" lon="19.49894">
        <ele>53.422471</ele>
        <time>2022-05-15T11:22:05.946Z</time>
      </trkpt>
      <trkpt lat="42.03685" lon="19.49884">
        <ele>53.25889</ele>
        <time>2022-05-15T11:22:08.956Z</time>
      </trkpt>
      <trkpt lat="42.03695" lon="19.49874">
        <ele>53.098437</ele>
        <time>2022-05-15T11:22:11.928Z</time>
      </trkpt>
      <trkpt lat="42.03702" lon="19.49867">
        <ele>52.984351</ele>
        <time>2022-05-15T11:22:13.930Z</time>
      </trkpt>
      <trkpt lat="42.03713" lon="19.49857">
        <ele>52.817644</ele>
        <time>2022-05-15T11:22:16.975Z</time>
      </trkpt>
      <trkpt lat="42.03724" lon="19.49846">
        <ele>52.652972</ele>
        <time>2022-05-15T11:22:19.941Z</time>
      </trkpt>
      <trkpt lat="42.03734" lon="19.49837">
        <ele>52.499792</ele>
        <time>2022-05-15T11:22:22.923Z</time>
      </trkpt>
      <trkpt lat="42.03743" lon="19.49827">
        <ele>52.390643</ele>
        <time>2022-05-15T11:22:25.973Z</time>
      </trkpt>
      <trkpt lat="42.03753" lon="19.49818">
        <ele>52.278542</ele>
        <time>2022-05-15T11:22:28.948Z</time>
      </trkpt>
      <trkpt lat="42.03764" lon="19.49807">
        <ele>52.162484</ele>
        <time>2022-05-15T11:22:31.923Z</time>
      </trkpt>
      <trkpt lat="42.03773" lon="19.49797">
        <ele>52.053425</ele>
        <time>2022-05-15T11:22:34.934Z</time>
      </trkpt>
      <trkpt lat="42.03782" lon="19.49787">
        <ele>51.940958</ele>
        <time>2022-05-15T11:22:37.922Z</time>
      </trkpt>
      <trkpt lat="42.03792" lon="19.49776">
        <ele>51.829102</ele>
        <time>2022-05-15T11:22:40.932Z</time>
      </trkpt>
      <trkpt lat="42.03802" lon="19.49764">
        <ele>51.70793</ele>
        <time>2022-05-15T11:22:43.939Z</time>
      </trkpt>
      <trkpt lat="42.03809" lon="19.49756">
        <ele>51.624817</ele>
        <time>2022-05-15T11:22:45.961Z</time>
      </trkpt>
      <trkpt lat="42.03816" lon="19.49748">
        <ele>51.541011</ele>
        <time>2022-05-15T11:22:47.968Z</time>
      </trkpt>
      <trkpt lat="42.03823" lon="19.4974">
        <ele>51.455425</ele>
        <time>2022-05-15T11:22:49.932Z</time>
      </trkpt>
      <trkpt lat="42.03833" lon="19.49728">
        <ele>51.335387</ele>
        <time>2022-05-15T11:22:52.931Z</time>
      </trkpt>
      <trkpt lat="42.03842" lon="19.49717">
        <ele>51.215837</ele>
        <time>2022-05-15T11:22:55.951Z</time>
      </trkpt>
      <trkpt lat="42.03852" lon="19.49705">
        <ele>51.095836</ele>
        <time>2022-05-15T11:22:58.945Z</time>
      </trkpt>
      <trkpt lat="42.03863" lon="19.49693">
        <ele>50.972396</ele>
        <time>2022-05-15T11:23:01.928Z</time>
      </trkpt>
      <trkpt lat="42.03869" lon="19.49685">
        <ele>50.890206</ele>
        <time>2022-05-15T11:23:03.966Z</time>
      </trkpt>
      <trkpt lat="42.03879" lon="19.49673">
        <ele>50.891893</ele>
        <time>2022-05-15T11:23:06.941Z</time>
      </trkpt>
      <trkpt lat="42.03886" lon="19.49664">
        <ele>50.920691</ele>
        <time>2022-05-15T11:23:08.947Z</time>
      </trkpt>
      <trkpt lat="42.03895" lon="19.49654">
        <ele>50.95984</ele>
        <time>2022-05-15T11:23:11.945Z</time>
      </trkpt>
      <trkpt lat="42.03902" lon="19.49645">
        <ele>50.990462</ele>
        <time>2022-05-15T11:23:13.938Z</time>
      </trkpt>
      <trkpt lat="42.03909" lon="19.49637">
        <ele>51.019653</ele>
        <time>2022-05-15T11:23:15.931Z</time>
      </trkpt>
      <trkpt lat="42.03916" lon="19.49628">
        <ele>51.049004</ele>
        <time>2022-05-15T11:23:17.957Z</time>
      </trkpt>
      <trkpt lat="42.03923" lon="19.49619">
        <ele>51.079395</ele>
        <time>2022-05-15T11:23:19.916Z</time>
      </trkpt>
      <trkpt lat="42.0393" lon="19.49611">
        <ele>51.109388</ele>
        <time>2022-05-15T11:23:22.019Z</time>
      </trkpt>
      <trkpt lat="42.03937" lon="19.49603">
        <ele>51.138288</ele>
        <time>2022-05-15T11:23:23.958Z</time>
      </trkpt>
      <trkpt lat="42.03946" lon="19.49592">
        <ele>51.178448</ele>
        <time>2022-05-15T11:23:26.922Z</time>
      </trkpt>
      <trkpt lat="42.03955" lon="19.49581">
        <ele>51.217194</ele>
        <time>2022-05-15T11:23:29.940Z</time>
      </trkpt>
      <trkpt lat="42.03964" lon="19.49569">
        <ele>51.255545</ele>
        <time>2022-05-15T11:23:32.964Z</time>
      </trkpt>
      <trkpt lat="42.03974" lon="19.49558">
        <ele>51.297441</ele>
        <time>2022-05-15T11:23:35.986Z</time>
      </trkpt>
      <trkpt lat="42.03981" lon="19.49549">
        <ele>51.327107</ele>
        <time>2022-05-15T11:23:37.966Z</time>
      </trkpt>
      <trkpt lat="42.03988" lon="19.49541">
        <ele>51.357088</ele>
        <time>2022-05-15T11:23:39.923Z</time>
      </trkpt>
      <trkpt lat="42.03995" lon="19.49532">
        <ele>51.387463</ele>
        <time>2022-05-15T11:23:41.938Z</time>
      </trkpt>
      <trkpt lat="42.04002" lon="19.49524">
        <ele>51.418155</ele>
        <time>2022-05-15T11:23:43.930Z</time>
      </trkpt>
      <trkpt lat="42.04009" lon="19.49516">
        <ele>51.387201</ele>
        <time>2022-05-15T11:23:45.948Z</time>
      </trkpt>
      <trkpt lat="42.04019" lon="19.49503">
        <ele>51.261423</ele>
        <time>2022-05-15T11:23:48.988Z</time>
      </trkpt>
      <trkpt lat="42.04026" lon="19.49495">
        <ele>51.178918</ele>
        <time>2022-05-15T11:23:50.951Z</time>
      </trkpt>
      <trkpt lat="42.04033" lon="19.49486">
        <ele>51.096834</ele>
        <time>2022-05-15T11:23:52.928Z</time>
      </trkpt>
      <trkpt lat="42.04042" lon="19.49475">
        <ele>50.982254</ele>
        <time>2022-05-15T11:23:55.929Z</time>
      </trkpt>
      <trkpt lat="42.04052" lon="19.49463">
        <ele>50.864251</ele>
        <time>2022-05-15T11:23:58.931Z</time>
      </trkpt>
      <trkpt lat="42.04061" lon="19.49452">
        <ele>50.753432</ele>
        <time>2022-05-15T11:24:01.940Z</time>
      </trkpt>
      <trkpt lat="42.0407" lon="19.4944">
        <ele>50.638778</ele>
        <time>2022-05-15T11:24:04.974Z</time>
      </trkpt>
      <trkpt lat="42.04079" lon="19.49428">
        <ele>50.523656</ele>
        <time>2022-05-15T11:24:07.954Z</time>
      </trkpt>
      <trkpt lat="42.04088" lon="19.49417">
        <ele>50.414108</ele>
        <time>2022-05-15T11:24:10.975Z</time>
      </trkpt>
      <trkpt lat="42.04096" lon="19.49406">
        <ele>50.311241</ele>
        <time>2022-05-15T11:24:13.940Z</time>
      </trkpt>
      <trkpt lat="42.04104" lon="19.49396">
        <ele>50.212122</ele>
        <time>2022-05-15T11:24:16.924Z</time>
      </trkpt>
      <trkpt lat="42.04112" lon="19.49385">
        <ele>50.111481</ele>
        <time>2022-05-15T11:24:19.954Z</time>
      </trkpt>
      <trkpt lat="42.04119" lon="19.49374">
        <ele>50.009727</ele>
        <time>2022-05-15T11:24:22.923Z</time>
      </trkpt>
      <trkpt lat="42.04127" lon="19.49363">
        <ele>49.907812</ele>
        <time>2022-05-15T11:24:25.940Z</time>
      </trkpt>
      <trkpt lat="42.04135" lon="19.49353">
        <ele>49.806415</ele>
        <time>2022-05-15T11:24:28.986Z</time>
      </trkpt>
      <trkpt lat="42.04143" lon="19.49341">
        <ele>49.894321</ele>
        <time>2022-05-15T11:24:31.926Z</time>
      </trkpt>
      <trkpt lat="42.04151" lon="19.4933">
        <ele>49.982227</ele>
        <time>2022-05-15T11:24:34.947Z</time>
      </trkpt>
      <trkpt lat="42.04158" lon="19.4932">
        <ele>50.068434</ele>
        <time>2022-05-15T11:24:37.942Z</time>
      </trkpt>
      <trkpt lat="42.04166" lon="19.49309">
        <ele>50.157531</ele>
        <time>2022-05-15T11:24:40.930Z</time>
      </trkpt>
      <trkpt lat="42.04174" lon="19.49297">
        <ele>50.248744</ele>
        <time>2022-05-15T11:24:43.919Z</time>
      </trkpt>
      <trkpt lat="42.04182" lon="19.49287">
        <ele>50.334113</ele>
        <time>2022-05-15T11:24:46.945Z</time>
      </trkpt>
      <trkpt lat="42.04189" lon="19.49277">
        <ele>50.414018</ele>
        <time>2022-05-15T11:24:49.964Z</time>
      </trkpt>
      <trkpt lat="42.04196" lon="19.49267">
        <ele>50.494151</ele>
        <time>2022-05-15T11:24:52.945Z</time>
      </trkpt>
      <trkpt lat="42.04203" lon="19.49256">
        <ele>50.574485</ele>
        <time>2022-05-15T11:24:57.940Z</time>
      </trkpt>
      <trkpt lat="42.0421" lon="19.49246">
        <ele>50.659854</ele>
        <time>2022-05-15T11:25:01.930Z</time>
      </trkpt>
      <trkpt lat="42.04218" lon="19.49235">
        <ele>50.747661</ele>
        <time>2022-05-15T11:25:05.937Z</time>
      </trkpt>
      <trkpt lat="42.04226" lon="19.49223">
        <ele>50.841165</ele>
        <time>2022-05-15T11:25:09.945Z</time>
      </trkpt>
      <trkpt lat="42.04233" lon="19.49213">
        <ele>50.920216</ele>
        <time>2022-05-15T11:25:12.939Z</time>
      </trkpt>
      <trkpt lat="42.0424" lon="19.49203">
        <ele>51.003658</ele>
        <time>2022-05-15T11:25:15.921Z</time>
      </trkpt>
      <trkpt lat="42.04247" lon="19.49193">
        <ele>51.085056</ele>
        <time>2022-05-15T11:25:18.910Z</time>
      </trkpt>
      <trkpt lat="42.04254" lon="19.49183">
        <ele>51.16496</ele>
        <time>2022-05-15T11:25:22.081Z</time>
      </trkpt>
      <trkpt lat="42.04261" lon="19.49173">
        <ele>51.238859</ele>
        <time>2022-05-15T11:25:24.913Z</time>
      </trkpt>
      <trkpt lat="42.0427" lon="19.49163">
        <ele>51.317243</ele>
        <time>2022-05-15T11:25:27.911Z</time>
      </trkpt>
      <trkpt lat="42.04279" lon="19.49157">
        <ele>51.383852</ele>
        <time>2022-05-15T11:25:30.910Z</time>
      </trkpt>
      <trkpt lat="42.0429" lon="19.49149">
        <ele>51.466133</ele>
        <time>2022-05-15T11:25:33.911Z</time>
      </trkpt>
      <trkpt lat="42.04298" lon="19.49143">
        <ele>51.526202</ele>
        <time>2022-05-15T11:25:35.928Z</time>
      </trkpt>
      <trkpt lat="42.04306" lon="19.49138">
        <ele>51.587906</ele>
        <time>2022-05-15T11:25:37.942Z</time>
      </trkpt>
      <trkpt lat="42.04314" lon="19.49131">
        <ele>51.649414</ele>
        <time>2022-05-15T11:25:39.928Z</time>
      </trkpt>
      <trkpt lat="42.04325" lon="19.49123">
        <ele>51.733099</ele>
        <time>2022-05-15T11:25:42.978Z</time>
      </trkpt>
      <trkpt lat="42.04336" lon="19.49115">
        <ele>51.815726</ele>
        <time>2022-05-15T11:25:45.911Z</time>
      </trkpt>
      <trkpt lat="42.04346" lon="19.49108">
        <ele>51.890891</ele>
        <time>2022-05-15T11:25:48.913Z</time>
      </trkpt>
      <trkpt lat="42.04354" lon="19.49102">
        <ele>51.951427</ele>
        <time>2022-05-15T11:25:51.909Z</time>
      </trkpt>
      <trkpt lat="42.04363" lon="19.49097">
        <ele>52.016013</ele>
        <time>2022-05-15T11:25:54.911Z</time>
      </trkpt>
      <trkpt lat="42.04371" lon="19.49108">
        <ele>52.093883</ele>
        <time>2022-05-15T11:25:58.910Z</time>
      </trkpt>
      <trkpt lat="42.04372" lon="19.49121">
        <ele>52.158945</ele>
        <time>2022-05-15T11:26:02.950Z</time>
      </trkpt>
      <trkpt lat="42.04371" lon="19.49136">
        <ele>52.233935</ele>
        <time>2022-05-15T11:26:06.927Z</time>
      </trkpt>
      <trkpt lat="42.04371" lon="19.4915">
        <ele>52.301952</ele>
        <time>2022-05-15T11:26:09.918Z</time>
      </trkpt>
      <trkpt lat="42.04371" lon="19.49165">
        <ele>52.372511</ele>
        <time>2022-05-15T11:26:12.914Z</time>
      </trkpt>
      <trkpt lat="42.0437" lon="19.49179">
        <ele>52.454937</ele>
        <time>2022-05-15T11:26:15.912Z</time>
      </trkpt>
      <trkpt lat="42.0437" lon="19.49193">
        <ele>52.54273</ele>
        <time>2022-05-15T11:26:18.912Z</time>
      </trkpt>
      <trkpt lat="42.04371" lon="19.49208">
        <ele>52.633054</ele>
        <time>2022-05-15T11:26:21.917Z</time>
      </trkpt>
      <trkpt lat="42.0437" lon="19.49224">
        <ele>52.734156</ele>
        <time>2022-05-15T11:26:25.908Z</time>
      </trkpt>
      <trkpt lat="42.04368" lon="19.4924">
        <ele>52.837805</ele>
        <time>2022-05-15T11:26:28.925Z</time>
      </trkpt>
      <trkpt lat="42.04368" lon="19.49258">
        <ele>52.944782</ele>
        <time>2022-05-15T11:26:31.922Z</time>
      </trkpt>
      <trkpt lat="42.04369" lon="19.49274">
        <ele>53.049618</ele>
        <time>2022-05-15T11:26:34.909Z</time>
      </trkpt>
      <trkpt lat="42.04373" lon="19.4929">
        <ele>53.153274</ele>
        <time>2022-05-15T11:26:37.947Z</time>
      </trkpt>
      <trkpt lat="42.04378" lon="19.49304">
        <ele>53.247283</ele>
        <time>2022-05-15T11:26:40.922Z</time>
      </trkpt>
      <trkpt lat="42.04385" lon="19.49319">
        <ele>53.357751</ele>
        <time>2022-05-15T11:26:43.916Z</time>
      </trkpt>
      <trkpt lat="42.04392" lon="19.49332">
        <ele>53.458612</ele>
        <time>2022-05-15T11:26:46.912Z</time>
      </trkpt>
      <trkpt lat="42.04394" lon="19.49349">
        <ele>53.565014</ele>
        <time>2022-05-15T11:26:49.910Z</time>
      </trkpt>
      <trkpt lat="42.04397" lon="19.49361">
        <ele>53.642997</ele>
        <time>2022-05-15T11:26:51.925Z</time>
      </trkpt>
      <trkpt lat="42.04401" lon="19.49372">
        <ele>53.719014</ele>
        <time>2022-05-15T11:26:54.912Z</time>
      </trkpt>
      <trkpt lat="42.04405" lon="19.49383">
        <ele>53.795776</ele>
        <time>2022-05-15T11:26:59.908Z</time>
      </trkpt>
      <trkpt lat="42.04411" lon="19.49396">
        <ele>53.889103</ele>
        <time>2022-05-15T11:27:03.904Z</time>
      </trkpt>
      <trkpt lat="42.04416" lon="19.49407">
        <ele>53.838156</ele>
        <time>2022-05-15T11:27:06.912Z</time>
      </trkpt>
      <trkpt lat="42.04423" lon="19.49417">
        <ele>53.710773</ele>
        <time>2022-05-15T11:27:10.907Z</time>
      </trkpt>
      <trkpt lat="42.04425" lon="19.49433">
        <ele>53.567356</ele>
        <time>2022-05-15T11:27:14.922Z</time>
      </trkpt>
      <trkpt lat="42.0443" lon="19.49445">
        <ele>53.444142</ele>
        <time>2022-05-15T11:27:17.916Z</time>
      </trkpt>
      <trkpt lat="42.04435" lon="19.49458">
        <ele>53.309963</ele>
        <time>2022-05-15T11:27:20.915Z</time>
      </trkpt>
      <trkpt lat="42.0444" lon="19.49471">
        <ele>53.169603</ele>
        <time>2022-05-15T11:27:23.924Z</time>
      </trkpt>
      <trkpt lat="42.04446" lon="19.49484">
        <ele>53.032202</ele>
        <time>2022-05-15T11:27:26.921Z</time>
      </trkpt>
      <trkpt lat="42.04451" lon="19.49497">
        <ele>52.896633</ele>
        <time>2022-05-15T11:27:29.915Z</time>
      </trkpt>
      <trkpt lat="42.04458" lon="19.4951">
        <ele>52.759066</ele>
        <time>2022-05-15T11:27:32.909Z</time>
      </trkpt>
      <trkpt lat="42.04464" lon="19.4952">
        <ele>52.634988</ele>
        <time>2022-05-15T11:27:35.909Z</time>
      </trkpt>
      <trkpt lat="42.04472" lon="19.4953">
        <ele>52.508013</ele>
        <time>2022-05-15T11:27:38.935Z</time>
      </trkpt>
      <trkpt lat="42.04479" lon="19.49541">
        <ele>52.3726</ele>
        <time>2022-05-15T11:27:41.909Z</time>
      </trkpt>
      <trkpt lat="42.04486" lon="19.49552">
        <ele>52.236338</ele>
        <time>2022-05-15T11:27:44.907Z</time>
      </trkpt>
      <trkpt lat="42.04494" lon="19.49562">
        <ele>52.108005</ele>
        <time>2022-05-15T11:27:47.920Z</time>
      </trkpt>
      <trkpt lat="42.04502" lon="19.49573">
        <ele>51.966092</ele>
        <time>2022-05-15T11:27:50.910Z</time>
      </trkpt>
      <trkpt lat="42.04509" lon="19.49583">
        <ele>51.846191</ele>
        <time>2022-05-15T11:27:53.933Z</time>
      </trkpt>
      <trkpt lat="42.04516" lon="19.49592">
        <ele>51.71972</ele>
        <time>2022-05-15T11:27:56.911Z</time>
      </trkpt>
      <trkpt lat="42.04524" lon="19.49602">
        <ele>51.564341</ele>
        <time>2022-05-15T11:27:59.909Z</time>
      </trkpt>
      <trkpt lat="42.04531" lon="19.49612">
        <ele>51.417865</ele>
        <time>2022-05-15T11:28:02.909Z</time>
      </trkpt>
      <trkpt lat="42.04536" lon="19.49624">
        <ele>51.263779</ele>
        <time>2022-05-15T11:28:06.932Z</time>
      </trkpt>
      <trkpt lat="42.04544" lon="19.49633">
        <ele>51.10475</ele>
        <time>2022-05-15T11:28:11.920Z</time>
      </trkpt>
      <trkpt lat="42.04554" lon="19.49642">
        <ele>50.934809</ele>
        <time>2022-05-15T11:28:15.920Z</time>
      </trkpt>
      <trkpt lat="42.04562" lon="19.4965">
        <ele>50.780356</ele>
        <time>2022-05-15T11:28:18.910Z</time>
      </trkpt>
      <trkpt lat="42.04571" lon="19.49658">
        <ele>50.629304</ele>
        <time>2022-05-15T11:28:21.907Z</time>
      </trkpt>
      <trkpt lat="42.04579" lon="19.49666">
        <ele>50.478872</ele>
        <time>2022-05-15T11:28:24.914Z</time>
      </trkpt>
      <trkpt lat="42.04588" lon="19.49672">
        <ele>50.328117</ele>
        <time>2022-05-15T11:28:27.906Z</time>
      </trkpt>
      <trkpt lat="42.04599" lon="19.49675">
        <ele>50.177119</ele>
        <time>2022-05-15T11:28:31.917Z</time>
      </trkpt>
      <trkpt lat="42.0461" lon="19.4968">
        <ele>49.995791</ele>
        <time>2022-05-15T11:28:35.905Z</time>
      </trkpt>
      <trkpt lat="42.04621" lon="19.49685">
        <ele>49.824478</ele>
        <time>2022-05-15T11:28:38.910Z</time>
      </trkpt>
      <trkpt lat="42.0463" lon="19.4969">
        <ele>49.683286</ele>
        <time>2022-05-15T11:28:41.914Z</time>
      </trkpt>
      <trkpt lat="42.04639" lon="19.49694">
        <ele>49.551325</ele>
        <time>2022-05-15T11:28:44.914Z</time>
      </trkpt>
      <trkpt lat="42.04648" lon="19.49704">
        <ele>49.386058</ele>
        <time>2022-05-15T11:28:47.925Z</time>
      </trkpt>
      <trkpt lat="42.04654" lon="19.49713">
        <ele>49.249107</ele>
        <time>2022-05-15T11:28:50.936Z</time>
      </trkpt>
      <trkpt lat="42.0466" lon="19.49723">
        <ele>49.100611</ele>
        <time>2022-05-15T11:28:53.918Z</time>
      </trkpt>
      <trkpt lat="42.04668" lon="19.49733">
        <ele>49.048126</ele>
        <time>2022-05-15T11:28:56.911Z</time>
      </trkpt>
      <trkpt lat="42.04674" lon="19.49745">
        <ele>49.019931</ele>
        <time>2022-05-15T11:28:59.918Z</time>
      </trkpt>
      <trkpt lat="42.04682" lon="19.49759">
        <ele>48.984639</ele>
        <time>2022-05-15T11:29:02.906Z</time>
      </trkpt>
      <trkpt lat="42.04687" lon="19.49773">
        <ele>48.954279</ele>
        <time>2022-05-15T11:29:05.911Z</time>
      </trkpt>
      <trkpt lat="42.04692" lon="19.49787">
        <ele>48.924314</ele>
        <time>2022-05-15T11:29:08.916Z</time>
      </trkpt>
      <trkpt lat="42.04696" lon="19.49801">
        <ele>48.894691</ele>
        <time>2022-05-15T11:29:11.914Z</time>
      </trkpt>
      <trkpt lat="42.04698" lon="19.49815">
        <ele>48.865552</ele>
        <time>2022-05-15T11:29:14.909Z</time>
      </trkpt>
      <trkpt lat="42.04701" lon="19.4983">
        <ele>48.835798</ele>
        <time>2022-05-15T11:29:17.908Z</time>
      </trkpt>
      <trkpt lat="42.04703" lon="19.49845">
        <ele>48.806652</ele>
        <time>2022-05-15T11:29:20.922Z</time>
      </trkpt>
      <trkpt lat="42.04705" lon="19.4986">
        <ele>48.777464</ele>
        <time>2022-05-15T11:29:23.914Z</time>
      </trkpt>
      <trkpt lat="42.04707" lon="19.49874">
        <ele>48.749109</ele>
        <time>2022-05-15T11:29:26.909Z</time>
      </trkpt>
      <trkpt lat="42.04708" lon="19.49887">
        <ele>48.723643</ele>
        <time>2022-05-15T11:29:29.906Z</time>
      </trkpt>
      <trkpt lat="42.04709" lon="19.49899">
        <ele>48.699068</ele>
        <time>2022-05-15T11:29:35.908Z</time>
      </trkpt>
      <trkpt lat="42.04701" lon="19.49906">
        <ele>48.674304</ele>
        <time>2022-05-15T11:29:40.907Z</time>
      </trkpt>
      <trkpt lat="42.04692" lon="19.49912">
        <ele>48.648589</ele>
        <time>2022-05-15T11:29:44.911Z</time>
      </trkpt>
      <trkpt lat="42.04683" lon="19.49917">
        <ele>48.622304</ele>
        <time>2022-05-15T11:29:48.912Z</time>
      </trkpt>
      <trkpt lat="42.04674" lon="19.4992">
        <ele>48.596992</ele>
        <time>2022-05-15T11:29:52.909Z</time>
      </trkpt>
      <trkpt lat="42.04664" lon="19.49922">
        <ele>49.276814</ele>
        <time>2022-05-15T11:29:58.910Z</time>
      </trkpt>
      <trkpt lat="42.04689" lon="19.4992">
        <ele>51.101399</ele>
        <time>2022-05-15T11:49:04.955Z</time>
      </trkpt>
      <trkpt lat="42.04699" lon="19.49917">
        <ele>51.874218</ele>
        <time>2022-05-15T11:49:09.933Z</time>
      </trkpt>
      <trkpt lat="42.04707" lon="19.49911">
        <ele>52.578054</ele>
        <time>2022-05-15T11:49:14.976Z</time>
      </trkpt>
      <trkpt lat="42.04716" lon="19.49904">
        <ele>53.340542</ele>
        <time>2022-05-15T11:49:21.085Z</time>
      </trkpt>
      <trkpt lat="42.04724" lon="19.49912">
        <ele>54.056024</ele>
        <time>2022-05-15T11:49:26.930Z</time>
      </trkpt>
      <trkpt lat="42.04731" lon="19.49921">
        <ele>54.799509</ele>
        <time>2022-05-15T11:49:33.938Z</time>
      </trkpt>
      <trkpt lat="42.04735" lon="19.4991">
        <ele>55.484291</ele>
        <time>2022-05-15T11:49:43.916Z</time>
      </trkpt>
      <trkpt lat="42.04737" lon="19.49896">
        <ele>56.25037</ele>
        <time>2022-05-15T11:49:51.926Z</time>
      </trkpt>
      <trkpt lat="42.0474" lon="19.49884">
        <ele>56.979986</ele>
        <time>2022-05-15T11:49:59.934Z</time>
      </trkpt>
      <trkpt lat="42.04744" lon="19.49872">
        <ele>57.701598</ele>
        <time>2022-05-15T11:50:08.940Z</time>
      </trkpt>
      <trkpt lat="42.04746" lon="19.4986">
        <ele>58.370347</ele>
        <time>2022-05-15T11:50:17.938Z</time>
      </trkpt>
      <trkpt lat="42.04748" lon="19.49847">
        <ele>59.070649</ele>
        <time>2022-05-15T11:50:27.925Z</time>
      </trkpt>
      <trkpt lat="42.04747" lon="19.49833">
        <ele>59.829781</ele>
        <time>2022-05-15T11:50:37.921Z</time>
      </trkpt>
      <trkpt lat="42.04747" lon="19.49821">
        <ele>60.500754</ele>
        <time>2022-05-15T11:50:45.937Z</time>
      </trkpt>
      <trkpt lat="42.04746" lon="19.49809">
        <ele>61.197982</ele>
        <time>2022-05-15T11:50:53.928Z</time>
      </trkpt>
      <trkpt lat="42.04748" lon="19.49796">
        <ele>61.922498</ele>
        <time>2022-05-15T11:51:05.011Z</time>
      </trkpt>
      <trkpt lat="42.04752" lon="19.49783">
        <ele>62.24217</ele>
        <time>2022-05-15T11:51:13.978Z</time>
      </trkpt>
      <trkpt lat="42.04756" lon="19.49772">
        <ele>62.547917</ele>
        <time>2022-05-15T11:51:21.933Z</time>
      </trkpt>
      <trkpt lat="42.04764" lon="19.49767">
        <ele>62.842096</ele>
        <time>2022-05-15T11:51:30.920Z</time>
      </trkpt>
      <trkpt lat="42.04772" lon="19.4976">
        <ele>63.150421</ele>
        <time>2022-05-15T11:51:40.930Z</time>
      </trkpt>
      <trkpt lat="42.04781" lon="19.49759">
        <ele>63.444522</ele>
        <time>2022-05-15T11:51:48.923Z</time>
      </trkpt>
      <trkpt lat="42.04789" lon="19.49753">
        <ele>63.740734</ele>
        <time>2022-05-15T11:51:55.905Z</time>
      </trkpt>
      <trkpt lat="42.04797" lon="19.49747">
        <ele>64.056247</ele>
        <time>2022-05-15T11:52:07.923Z</time>
      </trkpt>
      <trkpt lat="42.04806" lon="19.49736">
        <ele>64.430332</ele>
        <time>2022-05-15T11:52:12.939Z</time>
      </trkpt>
      <trkpt lat="42.04812" lon="19.49723">
        <ele>64.814574</ele>
        <time>2022-05-15T11:52:16.929Z</time>
      </trkpt>
      <trkpt lat="42.04818" lon="19.49707">
        <ele>65.259884</ele>
        <time>2022-05-15T11:52:19.976Z</time>
      </trkpt>
      <trkpt lat="42.04825" lon="19.4969">
        <ele>65.709254</ele>
        <time>2022-05-15T11:52:21.912Z</time>
      </trkpt>
      <trkpt lat="42.04829" lon="19.49677">
        <ele>66.058317</ele>
        <time>2022-05-15T11:52:23.934Z</time>
      </trkpt>
      <trkpt lat="42.04834" lon="19.49665">
        <ele>66.388556</ele>
        <time>2022-05-15T11:52:25.924Z</time>
      </trkpt>
      <trkpt lat="42.04841" lon="19.49649">
        <ele>66.821854</ele>
        <time>2022-05-15T11:52:28.921Z</time>
      </trkpt>
      <trkpt lat="42.04846" lon="19.49638">
        <ele>67.15912</ele>
        <time>2022-05-15T11:52:30.927Z</time>
      </trkpt>
      <trkpt lat="42.04855" lon="19.49623">
        <ele>67.61751</ele>
        <time>2022-05-15T11:52:33.911Z</time>
      </trkpt>
      <trkpt lat="42.04864" lon="19.49613">
        <ele>67.169525</ele>
        <time>2022-05-15T11:52:35.920Z</time>
      </trkpt>
      <trkpt lat="42.04876" lon="19.49602">
        <ele>66.016266</ele>
        <time>2022-05-15T11:52:37.921Z</time>
      </trkpt>
      <trkpt lat="42.04888" lon="19.49591">
        <ele>64.879771</ele>
        <time>2022-05-15T11:52:39.921Z</time>
      </trkpt>
      <trkpt lat="42.04899" lon="19.49583">
        <ele>63.859144</ele>
        <time>2022-05-15T11:52:41.914Z</time>
      </trkpt>
      <trkpt lat="42.04907" lon="19.49578">
        <ele>63.06751</ele>
        <time>2022-05-15T11:52:43.933Z</time>
      </trkpt>
      <trkpt lat="42.04917" lon="19.4957">
        <ele>62.135336</ele>
        <time>2022-05-15T11:52:46.939Z</time>
      </trkpt>
      <trkpt lat="42.04924" lon="19.49562">
        <ele>61.374769</ele>
        <time>2022-05-15T11:52:49.930Z</time>
      </trkpt>
      <trkpt lat="42.04933" lon="19.49552">
        <ele>60.513373</ele>
        <time>2022-05-15T11:52:54.936Z</time>
      </trkpt>
      <trkpt lat="42.0494" lon="19.49544">
        <ele>59.747213</ele>
        <time>2022-05-15T11:52:57.911Z</time>
      </trkpt>
      <trkpt lat="42.04948" lon="19.49532">
        <ele>58.761866</ele>
        <time>2022-05-15T11:53:00.931Z</time>
      </trkpt>
      <trkpt lat="42.04958" lon="19.49522">
        <ele>57.751628</ele>
        <time>2022-05-15T11:53:03.908Z</time>
      </trkpt>
      <trkpt lat="42.04969" lon="19.4952">
        <ele>56.850959</ele>
        <time>2022-05-15T11:53:06.914Z</time>
      </trkpt>
      <trkpt lat="42.0498" lon="19.49521">
        <ele>55.929837</ele>
        <time>2022-05-15T11:53:09.930Z</time>
      </trkpt>
      <trkpt lat="42.04991" lon="19.49522">
        <ele>55.053967</ele>
        <time>2022-05-15T11:53:12.926Z</time>
      </trkpt>
      <trkpt lat="42.05002" lon="19.49521">
        <ele>54.186012</ele>
        <time>2022-05-15T11:53:15.933Z</time>
      </trkpt>
      <trkpt lat="42.05012" lon="19.4952">
        <ele>53.332668</ele>
        <time>2022-05-15T11:53:18.937Z</time>
      </trkpt>
      <trkpt lat="42.05024" lon="19.4952">
        <ele>52.746078</ele>
        <time>2022-05-15T11:53:21.931Z</time>
      </trkpt>
      <trkpt lat="42.05034" lon="19.49521">
        <ele>52.299861</ele>
        <time>2022-05-15T11:53:24.937Z</time>
      </trkpt>
      <trkpt lat="42.05045" lon="19.49523">
        <ele>51.805421</ele>
        <time>2022-05-15T11:53:27.923Z</time>
      </trkpt>
      <trkpt lat="42.05054" lon="19.49526">
        <ele>51.410073</ele>
        <time>2022-05-15T11:53:30.005Z</time>
      </trkpt>
      <trkpt lat="42.05065" lon="19.49535">
        <ele>50.846961</ele>
        <time>2022-05-15T11:53:32.919Z</time>
      </trkpt>
      <trkpt lat="42.05074" lon="19.49544">
        <ele>50.378041</ele>
        <time>2022-05-15T11:53:36.938Z</time>
      </trkpt>
      <trkpt lat="42.05083" lon="19.49551">
        <ele>49.932918</ele>
        <time>2022-05-15T11:53:40.931Z</time>
      </trkpt>
      <trkpt lat="42.05091" lon="19.49558">
        <ele>49.486485</ele>
        <time>2022-05-15T11:53:43.925Z</time>
      </trkpt>
      <trkpt lat="42.051" lon="19.49563">
        <ele>49.085063</ele>
        <time>2022-05-15T11:53:45.933Z</time>
      </trkpt>
      <trkpt lat="42.0511" lon="19.49567">
        <ele>48.627426</ele>
        <time>2022-05-15T11:53:47.965Z</time>
      </trkpt>
      <trkpt lat="42.05122" lon="19.4957">
        <ele>48.117265</ele>
        <time>2022-05-15T11:53:49.997Z</time>
      </trkpt>
      <trkpt lat="42.05133" lon="19.49571">
        <ele>47.600063</ele>
        <time>2022-05-15T11:53:51.922Z</time>
      </trkpt>
      <trkpt lat="42.05145" lon="19.49572">
        <ele>47.098702</ele>
        <time>2022-05-15T11:53:53.909Z</time>
      </trkpt>
      <trkpt lat="42.05155" lon="19.49573">
        <ele>46.640844</ele>
        <time>2022-05-15T11:53:55.940Z</time>
      </trkpt>
      <trkpt lat="42.05165" lon="19.49573">
        <ele>46.213592</ele>
        <time>2022-05-15T11:53:57.911Z</time>
      </trkpt>
      <trkpt lat="42.05175" lon="19.49574">
        <ele>45.795179</ele>
        <time>2022-05-15T11:53:59.928Z</time>
      </trkpt>
      <trkpt lat="42.05185" lon="19.49574">
        <ele>45.351523</ele>
        <time>2022-05-15T11:54:02.924Z</time>
      </trkpt>
      <trkpt lat="42.05194" lon="19.49577">
        <ele>45.335894</ele>
        <time>2022-05-15T11:54:05.932Z</time>
      </trkpt>
      <trkpt lat="42.05203" lon="19.49586">
        <ele>45.316188</ele>
        <time>2022-05-15T11:54:08.918Z</time>
      </trkpt>
      <trkpt lat="42.05213" lon="19.49597">
        <ele>45.295185</ele>
        <time>2022-05-15T11:54:11.917Z</time>
      </trkpt>
      <trkpt lat="42.05221" lon="19.49609">
        <ele>45.274177</ele>
        <time>2022-05-15T11:54:14.931Z</time>
      </trkpt>
      <trkpt lat="42.05229" lon="19.49619">
        <ele>45.254543</ele>
        <time>2022-05-15T11:54:17.930Z</time>
      </trkpt>
      <trkpt lat="42.05238" lon="19.49629">
        <ele>45.235965</ele>
        <time>2022-05-15T11:54:20.971Z</time>
      </trkpt>
      <trkpt lat="42.05246" lon="19.49641">
        <ele>45.214842</ele>
        <time>2022-05-15T11:54:23.936Z</time>
      </trkpt>
      <trkpt lat="42.05255" lon="19.49651">
        <ele>45.193971</ele>
        <time>2022-05-15T11:54:26.935Z</time>
      </trkpt>
      <trkpt lat="42.05264" lon="19.49662">
        <ele>45.173701</ele>
        <time>2022-05-15T11:54:29.915Z</time>
      </trkpt>
      <trkpt lat="42.05272" lon="19.49676">
        <ele>45.152252</ele>
        <time>2022-05-15T11:54:32.902Z</time>
      </trkpt>
      <trkpt lat="42.05279" lon="19.49688">
        <ele>45.132115</ele>
        <time>2022-05-15T11:54:35.926Z</time>
      </trkpt>
      <trkpt lat="42.05286" lon="19.49698">
        <ele>45.114835</ele>
        <time>2022-05-15T11:54:38.924Z</time>
      </trkpt>
      <trkpt lat="42.05292" lon="19.49709">
        <ele>45.097959</ele>
        <time>2022-05-15T11:54:42.936Z</time>
      </trkpt>
      <trkpt lat="42.05298" lon="19.49717">
        <ele>45.08217</ele>
        <time>2022-05-15T11:54:45.916Z</time>
      </trkpt>
      <trkpt lat="42.05306" lon="19.49728">
        <ele>45.063421</ele>
        <time>2022-05-15T11:54:48.948Z</time>
      </trkpt>
      <trkpt lat="42.05315" lon="19.49739">
        <ele>45.040668</ele>
        <time>2022-05-15T11:54:51.913Z</time>
      </trkpt>
      <trkpt lat="42.05323" lon="19.4975">
        <ele>44.932803</ele>
        <time>2022-05-15T11:54:54.935Z</time>
      </trkpt>
      <trkpt lat="42.05331" lon="19.4976">
        <ele>44.829243</ele>
        <time>2022-05-15T11:54:57.915Z</time>
      </trkpt>
      <trkpt lat="42.05339" lon="19.49771">
        <ele>44.722758</ele>
        <time>2022-05-15T11:55:00.917Z</time>
      </trkpt>
      <trkpt lat="42.05347" lon="19.49783">
        <ele>44.613646</ele>
        <time>2022-05-15T11:55:03.929Z</time>
      </trkpt>
      <trkpt lat="42.05355" lon="19.49794">
        <ele>44.510845</ele>
        <time>2022-05-15T11:55:06.922Z</time>
      </trkpt>
      <trkpt lat="42.05362" lon="19.49804">
        <ele>44.41366</ele>
        <time>2022-05-15T11:55:09.944Z</time>
      </trkpt>
      <trkpt lat="42.0537" lon="19.49814">
        <ele>44.307879</ele>
        <time>2022-05-15T11:55:12.915Z</time>
      </trkpt>
      <trkpt lat="42.05379" lon="19.49824">
        <ele>44.200035</ele>
        <time>2022-05-15T11:55:15.915Z</time>
      </trkpt>
      <trkpt lat="42.05387" lon="19.49837">
        <ele>44.089213</ele>
        <time>2022-05-15T11:55:18.939Z</time>
      </trkpt>
      <trkpt lat="42.05395" lon="19.49846">
        <ele>43.993785</ele>
        <time>2022-05-15T11:55:21.941Z</time>
      </trkpt>
      <trkpt lat="42.05403" lon="19.49856">
        <ele>43.887925</ele>
        <time>2022-05-15T11:55:24.917Z</time>
      </trkpt>
      <trkpt lat="42.0541" lon="19.4987">
        <ele>43.771404</ele>
        <time>2022-05-15T11:55:27.920Z</time>
      </trkpt>
      <trkpt lat="42.05413" lon="19.49886">
        <ele>43.659489</ele>
        <time>2022-05-15T11:55:31.052Z</time>
      </trkpt>
      <trkpt lat="42.05419" lon="19.49901">
        <ele>43.545068</ele>
        <time>2022-05-15T11:55:33.962Z</time>
      </trkpt>
      <trkpt lat="42.05427" lon="19.4991">
        <ele>43.445684</ele>
        <time>2022-05-15T11:55:36.917Z</time>
      </trkpt>
      <trkpt lat="42.05438" lon="19.49915">
        <ele>43.666708</ele>
        <time>2022-05-15T11:55:39.923Z</time>
      </trkpt>
      <trkpt lat="42.05447" lon="19.49923">
        <ele>44.526895</ele>
        <time>2022-05-15T11:55:42.912Z</time>
      </trkpt>
      <trkpt lat="42.05455" lon="19.49935">
        <ele>45.445201</ele>
        <time>2022-05-15T11:55:45.948Z</time>
      </trkpt>
      <trkpt lat="42.05463" lon="19.49948">
        <ele>46.396397</ele>
        <time>2022-05-15T11:55:48.928Z</time>
      </trkpt>
      <trkpt lat="42.05472" lon="19.4996">
        <ele>47.35143</ele>
        <time>2022-05-15T11:55:51.931Z</time>
      </trkpt>
      <trkpt lat="42.05481" lon="19.49971">
        <ele>48.269325</ele>
        <time>2022-05-15T11:55:54.928Z</time>
      </trkpt>
      <trkpt lat="42.05491" lon="19.49979">
        <ele>49.173972</ele>
        <time>2022-05-15T11:55:57.916Z</time>
      </trkpt>
      <trkpt lat="42.05501" lon="19.49987">
        <ele>50.077462</ele>
        <time>2022-05-15T11:56:00.922Z</time>
      </trkpt>
      <trkpt lat="42.0551" lon="19.49998">
        <ele>50.974468</ele>
        <time>2022-05-15T11:56:03.980Z</time>
      </trkpt>
      <trkpt lat="42.05521" lon="19.50002">
        <ele>51.87142</ele>
        <time>2022-05-15T11:56:06.930Z</time>
      </trkpt>
      <trkpt lat="42.05531" lon="19.50011">
        <ele>52.804047</ele>
        <time>2022-05-15T11:56:09.948Z</time>
      </trkpt>
      <trkpt lat="42.05539" lon="19.50018">
        <ele>53.498514</ele>
        <time>2022-05-15T11:56:11.920Z</time>
      </trkpt>
      <trkpt lat="42.05549" lon="19.50027">
        <ele>54.427767</ele>
        <time>2022-05-15T11:56:14.940Z</time>
      </trkpt>
      <trkpt lat="42.05558" lon="19.50034">
        <ele>55.23106</ele>
        <time>2022-05-15T11:56:17.919Z</time>
      </trkpt>
      <trkpt lat="42.05567" lon="19.50042">
        <ele>56.077721</ele>
        <time>2022-05-15T11:56:20.917Z</time>
      </trkpt>
      <trkpt lat="42.05576" lon="19.50049">
        <ele>56.862902</ele>
        <time>2022-05-15T11:56:23.922Z</time>
      </trkpt>
      <trkpt lat="42.05586" lon="19.50053">
        <ele>57.384445</ele>
        <time>2022-05-15T11:56:26.935Z</time>
      </trkpt>
      <trkpt lat="42.05597" lon="19.5006">
        <ele>57.859591</ele>
        <time>2022-05-15T11:56:30.934Z</time>
      </trkpt>
      <trkpt lat="42.05608" lon="19.50063">
        <ele>58.273869</ele>
        <time>2022-05-15T11:56:33.933Z</time>
      </trkpt>
      <trkpt lat="42.05618" lon="19.50067">
        <ele>58.690082</ele>
        <time>2022-05-15T11:56:37.916Z</time>
      </trkpt>
      <trkpt lat="42.05628" lon="19.50068">
        <ele>59.060614</ele>
        <time>2022-05-15T11:56:40.953Z</time>
      </trkpt>
      <trkpt lat="42.05639" lon="19.50076">
        <ele>59.539793</ele>
        <time>2022-05-15T11:56:43.927Z</time>
      </trkpt>
      <trkpt lat="42.05646" lon="19.50085">
        <ele>59.932104</ele>
        <time>2022-05-15T11:56:45.934Z</time>
      </trkpt>
      <trkpt lat="42.05653" lon="19.50095">
        <ele>60.307085</ele>
        <time>2022-05-15T11:56:47.958Z</time>
      </trkpt>
      <trkpt lat="42.05661" lon="19.50104">
        <ele>60.70898</ele>
        <time>2022-05-15T11:56:49.911Z</time>
      </trkpt>
      <trkpt lat="42.05669" lon="19.50115">
        <ele>61.146248</ele>
        <time>2022-05-15T11:56:51.930Z</time>
      </trkpt>
      <trkpt lat="42.05675" lon="19.50127">
        <ele>61.570659</ele>
        <time>2022-05-15T11:56:53.919Z</time>
      </trkpt>
      <trkpt lat="42.05682" lon="19.50139">
        <ele>62.004267</ele>
        <time>2022-05-15T11:56:55.917Z</time>
      </trkpt>
      <trkpt lat="42.0569" lon="19.50152">
        <ele>62.46368</ele>
        <time>2022-05-15T11:56:57.920Z</time>
      </trkpt>
      <trkpt lat="42.05696" lon="19.50163">
        <ele>62.881206</ele>
        <time>2022-05-15T11:56:59.920Z</time>
      </trkpt>
      <trkpt lat="42.05701" lon="19.50174">
        <ele>63.239706</ele>
        <time>2022-05-15T11:57:01.927Z</time>
      </trkpt>
      <trkpt lat="42.05706" lon="19.50185">
        <ele>63.606225</ele>
        <time>2022-05-15T11:57:03.933Z</time>
      </trkpt>
      <trkpt lat="42.05711" lon="19.50196">
        <ele>63.957027</ele>
        <time>2022-05-15T11:57:05.933Z</time>
      </trkpt>
      <trkpt lat="42.05717" lon="19.50209">
        <ele>63.796423</ele>
        <time>2022-05-15T11:57:08.938Z</time>
      </trkpt>
      <trkpt lat="42.05728" lon="19.50213">
        <ele>63.492707</ele>
        <time>2022-05-15T11:57:11.943Z</time>
      </trkpt>
      <trkpt lat="42.05741" lon="19.50213">
        <ele>63.171392</ele>
        <time>2022-05-15T11:57:14.945Z</time>
      </trkpt>
      <trkpt lat="42.05752" lon="19.50214">
        <ele>62.867756</ele>
        <time>2022-05-15T11:57:17.913Z</time>
      </trkpt>
      <trkpt lat="42.05763" lon="19.50221">
        <ele>62.549721</ele>
        <time>2022-05-15T11:57:20.947Z</time>
      </trkpt>
      <trkpt lat="42.05774" lon="19.50229">
        <ele>62.229709</ele>
        <time>2022-05-15T11:57:23.953Z</time>
      </trkpt>
      <trkpt lat="42.05784" lon="19.50238">
        <ele>61.904208</ele>
        <time>2022-05-15T11:57:26.928Z</time>
      </trkpt>
      <trkpt lat="42.05796" lon="19.50245">
        <ele>61.568602</ele>
        <time>2022-05-15T11:57:29.928Z</time>
      </trkpt>
      <trkpt lat="42.05805" lon="19.50251">
        <ele>61.280033</ele>
        <time>2022-05-15T11:57:32.934Z</time>
      </trkpt>
      <trkpt lat="42.05816" lon="19.50258">
        <ele>60.969968</ele>
        <time>2022-05-15T11:57:35.932Z</time>
      </trkpt>
      <trkpt lat="42.05827" lon="19.50266">
        <ele>60.649365</ele>
        <time>2022-05-15T11:57:38.928Z</time>
      </trkpt>
      <trkpt lat="42.05838" lon="19.50273">
        <ele>60.330305</ele>
        <time>2022-05-15T11:57:41.929Z</time>
      </trkpt>
      <trkpt lat="42.05848" lon="19.50281">
        <ele>60.027901</ele>
        <time>2022-05-15T11:57:44.915Z</time>
      </trkpt>
      <trkpt lat="42.05858" lon="19.50289">
        <ele>59.713777</ele>
        <time>2022-05-15T11:57:47.925Z</time>
      </trkpt>
      <trkpt lat="42.05868" lon="19.50298">
        <ele>59.407844</ele>
        <time>2022-05-15T11:57:50.931Z</time>
      </trkpt>
      <trkpt lat="42.05878" lon="19.50306">
        <ele>59.043465</ele>
        <time>2022-05-15T11:57:53.943Z</time>
      </trkpt>
      <trkpt lat="42.05888" lon="19.50315">
        <ele>58.65715</ele>
        <time>2022-05-15T11:57:56.943Z</time>
      </trkpt>
      <trkpt lat="42.05898" lon="19.50324">
        <ele>58.249511</ele>
        <time>2022-05-15T11:57:59.931Z</time>
      </trkpt>
      <trkpt lat="42.05908" lon="19.50332">
        <ele>57.866975</ele>
        <time>2022-05-15T11:58:02.958Z</time>
      </trkpt>
      <trkpt lat="42.05919" lon="19.50342">
        <ele>57.451077</ele>
        <time>2022-05-15T11:58:05.918Z</time>
      </trkpt>
      <trkpt lat="42.05929" lon="19.50353">
        <ele>57.032063</ele>
        <time>2022-05-15T11:58:08.917Z</time>
      </trkpt>
      <trkpt lat="42.05939" lon="19.50363">
        <ele>56.634361</ele>
        <time>2022-05-15T11:58:11.948Z</time>
      </trkpt>
      <trkpt lat="42.05949" lon="19.50371">
        <ele>56.250577</ele>
        <time>2022-05-15T11:58:14.937Z</time>
      </trkpt>
      <trkpt lat="42.05958" lon="19.50378">
        <ele>55.900199</ele>
        <time>2022-05-15T11:58:17.927Z</time>
      </trkpt>
      <trkpt lat="42.05968" lon="19.50384">
        <ele>55.565708</ele>
        <time>2022-05-15T11:58:20.942Z</time>
      </trkpt>
      <trkpt lat="42.05977" lon="19.50392">
        <ele>55.21895</ele>
        <time>2022-05-15T11:58:23.939Z</time>
      </trkpt>
      <trkpt lat="42.05986" lon="19.50401">
        <ele>54.85612</ele>
        <time>2022-05-15T11:58:26.920Z</time>
      </trkpt>
      <trkpt lat="42.05995" lon="19.50409">
        <ele>54.503663</ele>
        <time>2022-05-15T11:58:29.915Z</time>
      </trkpt>
      <trkpt lat="42.06003" lon="19.50418">
        <ele>54.152949</ele>
        <time>2022-05-15T11:58:32.919Z</time>
      </trkpt>
      <trkpt lat="42.06012" lon="19.50427">
        <ele>53.797725</ele>
        <time>2022-05-15T11:58:35.920Z</time>
      </trkpt>
      <trkpt lat="42.06021" lon="19.50436">
        <ele>53.468114</ele>
        <time>2022-05-15T11:58:38.932Z</time>
      </trkpt>
      <trkpt lat="42.06032" lon="19.50445">
        <ele>53.381875</ele>
        <time>2022-05-15T11:58:41.924Z</time>
      </trkpt>
      <trkpt lat="42.06041" lon="19.50453">
        <ele>53.301761</ele>
        <time>2022-05-15T11:58:44.924Z</time>
      </trkpt>
      <trkpt lat="42.0605" lon="19.50463">
        <ele>53.221703</ele>
        <time>2022-05-15T11:58:47.914Z</time>
      </trkpt>
      <trkpt lat="42.0606" lon="19.5047">
        <ele>53.145578</ele>
        <time>2022-05-15T11:58:50.919Z</time>
      </trkpt>
      <trkpt lat="42.06069" lon="19.50479">
        <ele>53.066233</ele>
        <time>2022-05-15T11:58:53.920Z</time>
      </trkpt>
      <trkpt lat="42.06077" lon="19.50487">
        <ele>52.995085</ele>
        <time>2022-05-15T11:58:56.930Z</time>
      </trkpt>
      <trkpt lat="42.06087" lon="19.50494">
        <ele>52.919323</ele>
        <time>2022-05-15T11:58:59.918Z</time>
      </trkpt>
      <trkpt lat="42.06096" lon="19.50502">
        <ele>52.841816</ele>
        <time>2022-05-15T11:59:02.927Z</time>
      </trkpt>
      <trkpt lat="42.06105" lon="19.5051">
        <ele>52.767149</ele>
        <time>2022-05-15T11:59:05.932Z</time>
      </trkpt>
      <trkpt lat="42.06115" lon="19.50517">
        <ele>52.689055</ele>
        <time>2022-05-15T11:59:08.928Z</time>
      </trkpt>
      <trkpt lat="42.06125" lon="19.50525">
        <ele>52.607892</ele>
        <time>2022-05-15T11:59:11.927Z</time>
      </trkpt>
      <trkpt lat="42.06135" lon="19.50533">
        <ele>52.527166</ele>
        <time>2022-05-15T11:59:14.935Z</time>
      </trkpt>
      <trkpt lat="42.06145" lon="19.50542">
        <ele>52.444164</ele>
        <time>2022-05-15T11:59:17.923Z</time>
      </trkpt>
      <trkpt lat="42.06154" lon="19.50551">
        <ele>52.364308</ele>
        <time>2022-05-15T11:59:20.914Z</time>
      </trkpt>
      <trkpt lat="42.06163" lon="19.50559">
        <ele>52.286511</ele>
        <time>2022-05-15T11:59:23.939Z</time>
      </trkpt>
      <trkpt lat="42.06173" lon="19.50569">
        <ele>52.395003</ele>
        <time>2022-05-15T11:59:26.926Z</time>
      </trkpt>
      <trkpt lat="42.06182" lon="19.50578">
        <ele>53.043561</ele>
        <time>2022-05-15T11:59:29.922Z</time>
      </trkpt>
      <trkpt lat="42.06192" lon="19.50587">
        <ele>53.674757</ele>
        <time>2022-05-15T11:59:32.951Z</time>
      </trkpt>
      <trkpt lat="42.06201" lon="19.50595">
        <ele>54.294529</ele>
        <time>2022-05-15T11:59:35.916Z</time>
      </trkpt>
      <trkpt lat="42.06211" lon="19.50604">
        <ele>54.907298</ele>
        <time>2022-05-15T11:59:38.942Z</time>
      </trkpt>
      <trkpt lat="42.06219" lon="19.50611">
        <ele>55.435767</ele>
        <time>2022-05-15T11:59:41.915Z</time>
      </trkpt>
      <trkpt lat="42.06228" lon="19.50619">
        <ele>56.030295</ele>
        <time>2022-05-15T11:59:44.938Z</time>
      </trkpt>
      <trkpt lat="42.06237" lon="19.50627">
        <ele>56.625219</ele>
        <time>2022-05-15T11:59:47.914Z</time>
      </trkpt>
      <trkpt lat="42.06246" lon="19.50634">
        <ele>57.214213</ele>
        <time>2022-05-15T11:59:50.934Z</time>
      </trkpt>
      <trkpt lat="42.06255" lon="19.50641">
        <ele>57.796595</ele>
        <time>2022-05-15T11:59:53.929Z</time>
      </trkpt>
      <trkpt lat="42.06264" lon="19.50649">
        <ele>58.386562</ele>
        <time>2022-05-15T11:59:56.918Z</time>
      </trkpt>
      <trkpt lat="42.06273" lon="19.50657">
        <ele>58.949948</ele>
        <time>2022-05-15T11:59:59.922Z</time>
      </trkpt>
      <trkpt lat="42.06281" lon="19.50664">
        <ele>59.503172</ele>
        <time>2022-05-15T12:00:02.967Z</time>
      </trkpt>
      <trkpt lat="42.0629" lon="19.50672">
        <ele>60.099973</ele>
        <time>2022-05-15T12:00:05.958Z</time>
      </trkpt>
      <trkpt lat="42.06299" lon="19.5068">
        <ele>60.683198</ele>
        <time>2022-05-15T12:00:08.919Z</time>
      </trkpt>
      <trkpt lat="42.06309" lon="19.50688">
        <ele>61.285962</ele>
        <time>2022-05-15T12:00:11.924Z</time>
      </trkpt>
      <trkpt lat="42.06318" lon="19.50697">
        <ele>61.911492</ele>
        <time>2022-05-15T12:00:14.932Z</time>
      </trkpt>
      <trkpt lat="42.06326" lon="19.50706">
        <ele>61.981192</ele>
        <time>2022-05-15T12:00:17.934Z</time>
      </trkpt>
      <trkpt lat="42.06336" lon="19.50715">
        <ele>61.765157</ele>
        <time>2022-05-15T12:00:20.931Z</time>
      </trkpt>
      <trkpt lat="42.06343" lon="19.50722">
        <ele>61.606235</ele>
        <time>2022-05-15T12:00:22.934Z</time>
      </trkpt>
      <trkpt lat="42.06354" lon="19.50733">
        <ele>61.376326</ele>
        <time>2022-05-15T12:00:25.999Z</time>
      </trkpt>
      <trkpt lat="42.06363" lon="19.50741">
        <ele>61.169082</ele>
        <time>2022-05-15T12:00:28.919Z</time>
      </trkpt>
      <trkpt lat="42.06372" lon="19.50751">
        <ele>60.968954</ele>
        <time>2022-05-15T12:00:31.913Z</time>
      </trkpt>
      <trkpt lat="42.06381" lon="19.5076">
        <ele>60.763223</ele>
        <time>2022-05-15T12:00:34.916Z</time>
      </trkpt>
      <trkpt lat="42.06391" lon="19.50769">
        <ele>60.560304</ele>
        <time>2022-05-15T12:00:37.916Z</time>
      </trkpt>
      <trkpt lat="42.06401" lon="19.50778">
        <ele>60.350594</ele>
        <time>2022-05-15T12:00:41.912Z</time>
      </trkpt>
      <trkpt lat="42.0641" lon="19.50788">
        <ele>60.139302</ele>
        <time>2022-05-15T12:00:44.933Z</time>
      </trkpt>
      <trkpt lat="42.0642" lon="19.50799">
        <ele>59.915508</ele>
        <time>2022-05-15T12:00:47.923Z</time>
      </trkpt>
      <trkpt lat="42.06429" lon="19.50811">
        <ele>59.692584</ele>
        <time>2022-05-15T12:00:50.924Z</time>
      </trkpt>
      <trkpt lat="42.06438" lon="19.50822">
        <ele>59.479174</ele>
        <time>2022-05-15T12:00:54.100Z</time>
      </trkpt>
      <trkpt lat="42.06446" lon="19.50834">
        <ele>59.266115</ele>
        <time>2022-05-15T12:00:56.907Z</time>
      </trkpt>
      <trkpt lat="42.06453" lon="19.50847">
        <ele>59.056622</ele>
        <time>2022-05-15T12:00:59.911Z</time>
      </trkpt>
      <trkpt lat="42.06459" lon="19.50861">
        <ele>58.808446</ele>
        <time>2022-05-15T12:01:02.912Z</time>
      </trkpt>
      <trkpt lat="42.06464" lon="19.50875">
        <ele>58.51894</ele>
        <time>2022-05-15T12:01:05.912Z</time>
      </trkpt>
      <trkpt lat="42.0647" lon="19.50889">
        <ele>58.220682</ele>
        <time>2022-05-15T12:01:08.925Z</time>
      </trkpt>
      <trkpt lat="42.0648" lon="19.50894">
        <ele>57.950042</ele>
        <time>2022-05-15T12:01:11.922Z</time>
      </trkpt>
      <trkpt lat="42.06491" lon="19.50895">
        <ele>57.693851</ele>
        <time>2022-05-15T12:01:14.912Z</time>
      </trkpt>
      <trkpt lat="42.06501" lon="19.50896">
        <ele>57.436885</ele>
        <time>2022-05-15T12:01:17.940Z</time>
      </trkpt>
      <trkpt lat="42.06512" lon="19.50904">
        <ele>57.132575</ele>
        <time>2022-05-15T12:01:20.927Z</time>
      </trkpt>
      <trkpt lat="42.06521" lon="19.50914">
        <ele>56.843015</ele>
        <time>2022-05-15T12:01:23.932Z</time>
      </trkpt>
      <trkpt lat="42.0653" lon="19.50922">
        <ele>56.571365</ele>
        <time>2022-05-15T12:01:26.933Z</time>
      </trkpt>
      <trkpt lat="42.06539" lon="19.50931">
        <ele>56.306328</ele>
        <time>2022-05-15T12:01:29.917Z</time>
      </trkpt>
      <trkpt lat="42.06548" lon="19.50941">
        <ele>56.025965</ele>
        <time>2022-05-15T12:01:32.909Z</time>
      </trkpt>
      <trkpt lat="42.06557" lon="19.50949">
        <ele>55.754386</ele>
        <time>2022-05-15T12:01:35.936Z</time>
      </trkpt>
      <trkpt lat="42.06566" lon="19.50957">
        <ele>55.493938</ele>
        <time>2022-05-15T12:01:38.926Z</time>
      </trkpt>
      <trkpt lat="42.06574" lon="19.50966">
        <ele>55.233906</ele>
        <time>2022-05-15T12:01:41.927Z</time>
      </trkpt>
      <trkpt lat="42.06583" lon="19.50974">
        <ele>54.968246</ele>
        <time>2022-05-15T12:01:44.939Z</time>
      </trkpt>
      <trkpt lat="42.06593" lon="19.50984">
        <ele>54.668049</ele>
        <time>2022-05-15T12:01:47.938Z</time>
      </trkpt>
      <trkpt lat="42.06602" lon="19.50993">
        <ele>54.568605</ele>
        <time>2022-05-15T12:01:50.951Z</time>
      </trkpt>
      <trkpt lat="42.06611" lon="19.51003">
        <ele>54.737371</ele>
        <time>2022-05-15T12:01:53.922Z</time>
      </trkpt>
      <trkpt lat="42.0662" lon="19.51014">
        <ele>54.910825</ele>
        <time>2022-05-15T12:01:56.915Z</time>
      </trkpt>
      <trkpt lat="42.06628" lon="19.51024">
        <ele>55.070935</ele>
        <time>2022-05-15T12:01:59.928Z</time>
      </trkpt>
      <trkpt lat="42.06636" lon="19.51033">
        <ele>55.226996</ele>
        <time>2022-05-15T12:02:02.935Z</time>
      </trkpt>
      <trkpt lat="42.06644" lon="19.51041">
        <ele>55.376957</ele>
        <time>2022-05-15T12:02:05.916Z</time>
      </trkpt>
      <trkpt lat="42.06653" lon="19.5105">
        <ele>55.531684</ele>
        <time>2022-05-15T12:02:08.974Z</time>
      </trkpt>
      <trkpt lat="42.06661" lon="19.51059">
        <ele>55.6846</ele>
        <time>2022-05-15T12:02:11.911Z</time>
      </trkpt>
      <trkpt lat="42.06669" lon="19.51067">
        <ele>55.830479</ele>
        <time>2022-05-15T12:02:14.931Z</time>
      </trkpt>
      <trkpt lat="42.06677" lon="19.51075">
        <ele>55.97006</ele>
        <time>2022-05-15T12:02:17.928Z</time>
      </trkpt>
      <trkpt lat="42.06685" lon="19.51084">
        <ele>56.121367</ele>
        <time>2022-05-15T12:02:20.935Z</time>
      </trkpt>
      <trkpt lat="42.06692" lon="19.51093">
        <ele>56.267086</ele>
        <time>2022-05-15T12:02:23.912Z</time>
      </trkpt>
      <trkpt lat="42.067" lon="19.51101">
        <ele>56.410297</ele>
        <time>2022-05-15T12:02:26.916Z</time>
      </trkpt>
      <trkpt lat="42.06711" lon="19.51113">
        <ele>56.615062</ele>
        <time>2022-05-15T12:02:29.918Z</time>
      </trkpt>
      <trkpt lat="42.0672" lon="19.5112">
        <ele>56.767969</ele>
        <time>2022-05-15T12:02:31.926Z</time>
      </trkpt>
      <trkpt lat="42.06727" lon="19.51128">
        <ele>56.902147</ele>
        <time>2022-05-15T12:02:33.931Z</time>
      </trkpt>
      <trkpt lat="42.06735" lon="19.51138">
        <ele>57.059669</ele>
        <time>2022-05-15T12:02:36.926Z</time>
      </trkpt>
      <trkpt lat="42.06744" lon="19.51147">
        <ele>57.174559</ele>
        <time>2022-05-15T12:02:39.909Z</time>
      </trkpt>
      <trkpt lat="42.06753" lon="19.51156">
        <ele>57.268928</ele>
        <time>2022-05-15T12:02:42.914Z</time>
      </trkpt>
      <trkpt lat="42.06762" lon="19.51165">
        <ele>57.364324</ele>
        <time>2022-05-15T12:02:45.921Z</time>
      </trkpt>
      <trkpt lat="42.06771" lon="19.51172">
        <ele>57.450141</ele>
        <time>2022-05-15T12:02:48.932Z</time>
      </trkpt>
      <trkpt lat="42.06779" lon="19.51183">
        <ele>57.536818</ele>
        <time>2022-05-15T12:02:51.915Z</time>
      </trkpt>
      <trkpt lat="42.06784" lon="19.51197">
        <ele>57.634109</ele>
        <time>2022-05-15T12:02:54.927Z</time>
      </trkpt>
      <trkpt lat="42.06789" lon="19.51211">
        <ele>57.733535</ele>
        <time>2022-05-15T12:02:57.926Z</time>
      </trkpt>
      <trkpt lat="42.06794" lon="19.51222">
        <ele>57.812653</ele>
        <time>2022-05-15T12:02:59.910Z</time>
      </trkpt>
      <trkpt lat="42.06801" lon="19.51232">
        <ele>57.88991</ele>
        <time>2022-05-15T12:03:01.917Z</time>
      </trkpt>
      <trkpt lat="42.0681" lon="19.51237">
        <ele>57.971135</ele>
        <time>2022-05-15T12:03:03.925Z</time>
      </trkpt>
      <trkpt lat="42.0682" lon="19.51238">
        <ele>58.052128</ele>
        <time>2022-05-15T12:03:05.938Z</time>
      </trkpt>
      <trkpt lat="42.0683" lon="19.51232">
        <ele>58.143345</ele>
        <time>2022-05-15T12:03:07.916Z</time>
      </trkpt>
      <trkpt lat="42.06835" lon="19.51219">
        <ele>58.231097</ele>
        <time>2022-05-15T12:03:09.923Z</time>
      </trkpt>
      <trkpt lat="42.06836" lon="19.51204">
        <ele>58.322384</ele>
        <time>2022-05-15T12:03:11.920Z</time>
      </trkpt>
      <trkpt lat="42.06831" lon="19.5119">
        <ele>58.418155</ele>
        <time>2022-05-15T12:03:13.938Z</time>
      </trkpt>
      <trkpt lat="42.06821" lon="19.51182">
        <ele>58.512161</ele>
        <time>2022-05-15T12:03:15.929Z</time>
      </trkpt>
      <trkpt lat="42.0681" lon="19.5118">
        <ele>58.574035</ele>
        <time>2022-05-15T12:03:17.946Z</time>
      </trkpt>
      <trkpt lat="42.06799" lon="19.51182">
        <ele>58.274893</ele>
        <time>2022-05-15T12:03:19.910Z</time>
      </trkpt>
      <trkpt lat="42.06789" lon="19.51179">
        <ele>57.978832</ele>
        <time>2022-05-15T12:03:21.921Z</time>
      </trkpt>
      <trkpt lat="42.06779" lon="19.51171">
        <ele>57.667445</ele>
        <time>2022-05-15T12:03:23.915Z</time>
      </trkpt>
      <trkpt lat="42.0677" lon="19.51161">
        <ele>57.34326</ele>
        <time>2022-05-15T12:03:25.917Z</time>
      </trkpt>
      <trkpt lat="42.06762" lon="19.51152">
        <ele>57.057287</ele>
        <time>2022-05-15T12:03:27.918Z</time>
      </trkpt>
      <trkpt lat="42.06753" lon="19.51143">
        <ele>56.736953</ele>
        <time>2022-05-15T12:03:30.912Z</time>
      </trkpt>
      <trkpt lat="42.06742" lon="19.51123">
        <ele>56.238361</ele>
        <time>2022-05-15T12:05:21.916Z</time>
      </trkpt>
      <trkpt lat="42.06734" lon="19.51116">
        <ele>55.955201</ele>
        <time>2022-05-15T12:05:25.931Z</time>
      </trkpt>
      <trkpt lat="42.06725" lon="19.5111">
        <ele>55.682936</ele>
        <time>2022-05-15T12:05:28.930Z</time>
      </trkpt>
      <trkpt lat="42.06716" lon="19.51101">
        <ele>55.39071</ele>
        <time>2022-05-15T12:05:31.988Z</time>
      </trkpt>
      <trkpt lat="42.06708" lon="19.51092">
        <ele>55.105101</ele>
        <time>2022-05-15T12:05:34.906Z</time>
      </trkpt>
      <trkpt lat="42.067" lon="19.51083">
        <ele>54.812255</ele>
        <time>2022-05-15T12:05:37.935Z</time>
      </trkpt>
      <trkpt lat="42.0669" lon="19.51076">
        <ele>54.492239</ele>
        <time>2022-05-15T12:05:40.947Z</time>
      </trkpt>
      <trkpt lat="42.06681" lon="19.51067">
        <ele>54.176245</ele>
        <time>2022-05-15T12:05:43.927Z</time>
      </trkpt>
      <trkpt lat="42.06671" lon="19.51055">
        <ele>53.804485</ele>
        <time>2022-05-15T12:05:46.916Z</time>
      </trkpt>
      <trkpt lat="42.0666" lon="19.51044">
        <ele>53.522092</ele>
        <time>2022-05-15T12:05:49.916Z</time>
      </trkpt>
      <trkpt lat="42.0665" lon="19.51032">
        <ele>53.316528</ele>
        <time>2022-05-15T12:05:52.905Z</time>
      </trkpt>
      <trkpt lat="42.0664" lon="19.51022">
        <ele>53.113264</ele>
        <time>2022-05-15T12:05:55.911Z</time>
      </trkpt>
      <trkpt lat="42.06633" lon="19.51015">
        <ele>52.969628</ele>
        <time>2022-05-15T12:05:57.929Z</time>
      </trkpt>
      <trkpt lat="42.06626" lon="19.51008">
        <ele>52.825395</ele>
        <time>2022-05-15T12:05:59.933Z</time>
      </trkpt>
      <trkpt lat="42.06615" lon="19.50997">
        <ele>52.62357</ele>
        <time>2022-05-15T12:06:02.911Z</time>
      </trkpt>
      <trkpt lat="42.06605" lon="19.50987">
        <ele>52.421028</ele>
        <time>2022-05-15T12:06:05.914Z</time>
      </trkpt>
      <trkpt lat="42.06596" lon="19.50975">
        <ele>52.215464</ele>
        <time>2022-05-15T12:06:08.958Z</time>
      </trkpt>
      <trkpt lat="42.06589" lon="19.50967">
        <ele>52.070934</ele>
        <time>2022-05-15T12:06:10.911Z</time>
      </trkpt>
      <trkpt lat="42.06581" lon="19.5096">
        <ele>51.918689</ele>
        <time>2022-05-15T12:06:12.913Z</time>
      </trkpt>
      <trkpt lat="42.06573" lon="19.50952">
        <ele>51.772479</ele>
        <time>2022-05-15T12:06:14.936Z</time>
      </trkpt>
      <trkpt lat="42.06566" lon="19.50945">
        <ele>51.628143</ele>
        <time>2022-05-15T12:06:16.916Z</time>
      </trkpt>
      <trkpt lat="42.06559" lon="19.50938">
        <ele>51.483956</ele>
        <time>2022-05-15T12:06:18.954Z</time>
      </trkpt>
      <trkpt lat="42.06549" lon="19.50926">
        <ele>51.270555</ele>
        <time>2022-05-15T12:06:21.917Z</time>
      </trkpt>
      <trkpt lat="42.06542" lon="19.50918">
        <ele>51.127551</ele>
        <time>2022-05-15T12:06:23.937Z</time>
      </trkpt>
      <trkpt lat="42.06535" lon="19.50911">
        <ele>50.982333</ele>
        <time>2022-05-15T12:06:25.912Z</time>
      </trkpt>
      <trkpt lat="42.06528" lon="19.50903">
        <ele>50.8396</ele>
        <time>2022-05-15T12:06:27.921Z</time>
      </trkpt>
      <trkpt lat="42.0652" lon="19.50893">
        <ele>50.776767</ele>
        <time>2022-05-15T12:06:30.919Z</time>
      </trkpt>
      <trkpt lat="42.06511" lon="19.50882">
        <ele>50.776767</ele>
        <time>2022-05-15T12:06:34.921Z</time>
      </trkpt>
      <trkpt lat="42.06502" lon="19.50873">
        <ele>50.776767</ele>
        <time>2022-05-15T12:06:37.934Z</time>
      </trkpt>
      <trkpt lat="42.06492" lon="19.50865">
        <ele>50.776767</ele>
        <time>2022-05-15T12:06:40.939Z</time>
      </trkpt>
      <trkpt lat="42.06483" lon="19.50857">
        <ele>50.776767</ele>
        <time>2022-05-15T12:06:43.920Z</time>
      </trkpt>
      <trkpt lat="42.06474" lon="19.50851">
        <ele>50.776767</ele>
        <time>2022-05-15T12:06:47.931Z</time>
      </trkpt>
      <trkpt lat="42.06463" lon="19.50844">
        <ele>50.776767</ele>
        <time>2022-05-15T12:06:51.909Z</time>
      </trkpt>
      <trkpt lat="42.06457" lon="19.50834">
        <ele>50.776767</ele>
        <time>2022-05-15T12:06:56.915Z</time>
      </trkpt>
      <trkpt lat="42.06453" lon="19.50848">
        <ele>50.776767</ele>
        <time>2022-05-15T12:07:23.929Z</time>
      </trkpt>
      <trkpt lat="42.06454" lon="19.5086">
        <ele>50.776767</ele>
        <time>2022-05-15T12:07:28.927Z</time>
      </trkpt>
      <trkpt lat="42.06439" lon="19.5085">
        <ele>50.776767</ele>
        <time>2022-05-15T12:11:32.873Z</time>
      </trkpt>
    </trkseg>
  </trk>
</gpx>